﻿<?xml version="1.0" encoding="utf-8"?><gpx creator="Garmin Desktop App" version="1.1" xsi:schemaLocation="http://www.topografix.com/GPX/1/1 http://www.topografix.com/GPX/1/1/gpx.xsd http://www.garmin.com/xmlschemas/WaypointExtension/v1 http://www8.garmin.com/xmlschemas/WaypointExtensionv1.xsd http://www.garmin.com/xmlschemas/TrackPointExtension/v1 http://www.garmin.com/xmlschemas/TrackPointExtensionv1.xsd http://www.garmin.com/xmlschemas/GpxExtensions/v3 http://www8.garmin.com/xmlschemas/GpxExtensionsv3.xsd http://www.garmin.com/xmlschemas/ActivityExtension/v1 http://www8.garmin.com/xmlschemas/ActivityExtensionv1.xsd http://www.garmin.com/xmlschemas/AdventuresExtensions/v1 http://www8.garmin.com/xmlschemas/AdventuresExtensionv1.xsd http://www.garmin.com/xmlschemas/PressureExtension/v1 http://www.garmin.com/xmlschemas/PressureExtensionv1.xsd http://www.garmin.com/xmlschemas/TripExtensions/v1 http://www.garmin.com/xmlschemas/TripExtensionsv1.xsd http://www.garmin.com/xmlschemas/TripMetaDataExtensions/v1 http://www.garmin.com/xmlschemas/TripMetaDataExtensionsv1.xsd http://www.garmin.com/xmlschemas/ViaPointTransportationModeExtensions/v1 http://www.garmin.com/xmlschemas/ViaPointTransportationModeExtensionsv1.xsd http://www.garmin.com/xmlschemas/CreationTimeExtension/v1 http://www.garmin.com/xmlschemas/CreationTimeExtensionsv1.xsd http://www.garmin.com/xmlschemas/AccelerationExtension/v1 http://www.garmin.com/xmlschemas/AccelerationExtensionv1.xsd http://www.garmin.com/xmlschemas/PowerExtension/v1 http://www.garmin.com/xmlschemas/PowerExtensionv1.xsd http://www.garmin.com/xmlschemas/VideoExtension/v1 http://www.garmin.com/xmlschemas/VideoExtensionv1.xsd" xmlns="http://www.topografix.com/GPX/1/1" xmlns:xsi="http://www.w3.org/2001/XMLSchema-instance" xmlns:wptx1="http://www.garmin.com/xmlschemas/WaypointExtension/v1" xmlns:gpxtrx="http://www.garmin.com/xmlschemas/GpxExtensions/v3" xmlns:gpxtpx="http://www.garmin.com/xmlschemas/TrackPointExtension/v1" xmlns:gpxx="http://www.garmin.com/xmlschemas/GpxExtensions/v3" xmlns:trp="http://www.garmin.com/xmlschemas/TripExtensions/v1" xmlns:adv="http://www.garmin.com/xmlschemas/AdventuresExtensions/v1" xmlns:prs="http://www.garmin.com/xmlschemas/PressureExtension/v1" xmlns:tmd="http://www.garmin.com/xmlschemas/TripMetaDataExtensions/v1" xmlns:vptm="http://www.garmin.com/xmlschemas/ViaPointTransportationModeExtensions/v1" xmlns:ctx="http://www.garmin.com/xmlschemas/CreationTimeExtension/v1" xmlns:gpxacc="http://www.garmin.com/xmlschemas/AccelerationExtension/v1" xmlns:gpxpx="http://www.garmin.com/xmlschemas/PowerExtension/v1" xmlns:vidx1="http://www.garmin.com/xmlschemas/VideoExtension/v1">

  <metadata>
    <link href="http://www.garmin.com">
      <text>Garmin International</text>
    </link>
    <time>2026-07-12T16:28:31Z</time>
    <bounds maxlat="51.402338035404682" maxlon="3.223624974489212" minlat="50.921781985089183" minlon="-1.860788036137819" />
  </metadata>

  <trk>
    <name>260712_Amesbury_Bruegge_Track</name>
    <extensions>
      <gpxx:TrackExtension>
        <gpxx:DisplayColor>DarkGray</gpxx:DisplayColor>
      </gpxx:TrackExtension>
    </extensions>
    <trkseg>
      <trkpt lat="51.172019010409713" lon="-1.782268965616822">
        <ele>72.719999999999999</ele>
        <time>2026-07-12T05:05:57Z</time>
      </trkpt>
      <trkpt lat="51.172102997079492" lon="-1.782377008348703">
        <ele>78.480000000000004</ele>
        <time>2026-07-12T05:06:21Z</time>
      </trkpt>
      <trkpt lat="51.172094028443098" lon="-1.78230601362884">
        <ele>72.239999999999995</ele>
        <time>2026-07-12T05:06:39Z</time>
      </trkpt>
      <trkpt lat="51.172087993472815" lon="-1.782314982265234">
        <ele>87.620000000000005</ele>
        <time>2026-07-12T05:07:19Z</time>
      </trkpt>
      <trkpt lat="51.172110037878156" lon="-1.782308025285602">
        <ele>88.099999999999994</ele>
        <time>2026-07-12T05:08:10Z</time>
      </trkpt>
      <trkpt lat="51.172111965715885" lon="-1.782312970608473">
        <ele>88.099999999999994</ele>
        <time>2026-07-12T05:08:58Z</time>
      </trkpt>
      <trkpt lat="51.172114983201027" lon="-1.782311964780092">
        <ele>87.620000000000005</ele>
        <time>2026-07-12T05:09:13Z</time>
      </trkpt>
      <trkpt lat="51.172136021777987" lon="-1.78228204138577">
        <ele>87.620000000000005</ele>
        <time>2026-07-12T05:09:15Z</time>
      </trkpt>
      <trkpt lat="51.172148007899523" lon="-1.782253962010145">
        <ele>87.620000000000005</ele>
        <time>2026-07-12T05:09:16Z</time>
      </trkpt>
      <trkpt lat="51.172157982364297" lon="-1.782228983938694">
        <ele>87.140000000000001</ele>
        <time>2026-07-12T05:09:17Z</time>
      </trkpt>
      <trkpt lat="51.172193018719554" lon="-1.782146003097296">
        <ele>86.659999999999997</ele>
        <time>2026-07-12T05:09:28Z</time>
      </trkpt>
      <trkpt lat="51.172222020104527" lon="-1.782085988670588">
        <ele>85.689999999999998</ele>
        <time>2026-07-12T05:09:29Z</time>
      </trkpt>
      <trkpt lat="51.172254038974643" lon="-1.782023962587118">
        <ele>85.209999999999994</ele>
        <time>2026-07-12T05:09:30Z</time>
      </trkpt>
      <trkpt lat="51.172313969582319" lon="-1.781908040866256">
        <ele>84.730000000000004</ele>
        <time>2026-07-12T05:09:32Z</time>
      </trkpt>
      <trkpt lat="51.172340037301183" lon="-1.781859006732702">
        <ele>84.730000000000004</ele>
        <time>2026-07-12T05:09:33Z</time>
      </trkpt>
      <trkpt lat="51.17248797789216" lon="-1.781582990661264">
        <ele>83.290000000000006</ele>
        <time>2026-07-12T05:09:38Z</time>
      </trkpt>
      <trkpt lat="51.172514967620373" lon="-1.781534962356091">
        <ele>83.290000000000006</ele>
        <time>2026-07-12T05:09:39Z</time>
      </trkpt>
      <trkpt lat="51.172536006197333" lon="-1.781495986506343">
        <ele>83.290000000000006</ele>
        <time>2026-07-12T05:09:40Z</time>
      </trkpt>
      <trkpt lat="51.172552015632391" lon="-1.781466985121369">
        <ele>83.290000000000006</ele>
        <time>2026-07-12T05:09:41Z</time>
      </trkpt>
      <trkpt lat="51.172562995925546" lon="-1.781447036191821">
        <ele>82.810000000000002</ele>
        <time>2026-07-12T05:09:42Z</time>
      </trkpt>
      <trkpt lat="51.172565007582307" lon="-1.781443012878299">
        <ele>82.329999999999998</ele>
        <time>2026-07-12T05:09:43Z</time>
      </trkpt>
      <trkpt lat="51.172565007582307" lon="-1.781443012878299">
        <ele>82.329999999999998</ele>
        <time>2026-07-12T05:09:45Z</time>
      </trkpt>
      <trkpt lat="51.17244397290051" lon="-1.78151099011302">
        <ele>80.890000000000001</ele>
        <time>2026-07-12T05:09:50Z</time>
      </trkpt>
      <trkpt lat="51.172059997916222" lon="-1.782464012503624">
        <ele>77.040000000000006</ele>
        <time>2026-07-12T05:10:00Z</time>
      </trkpt>
      <trkpt lat="51.172020016238093" lon="-1.782560991123319">
        <ele>76.560000000000002</ele>
        <time>2026-07-12T05:10:01Z</time>
      </trkpt>
      <trkpt lat="51.171522969380021" lon="-1.78363798186183">
        <ele>72.719999999999999</ele>
        <time>2026-07-12T05:10:12Z</time>
      </trkpt>
      <trkpt lat="51.171334041282535" lon="-1.784022962674499">
        <ele>75.120000000000005</ele>
        <time>2026-07-12T05:10:16Z</time>
      </trkpt>
      <trkpt lat="51.171293975785375" lon="-1.784122958779335">
        <ele>77.040000000000006</ele>
        <time>2026-07-12T05:10:17Z</time>
      </trkpt>
      <trkpt lat="51.171106975525618" lon="-1.78458496928215">
        <ele>82.810000000000002</ele>
        <time>2026-07-12T05:10:22Z</time>
      </trkpt>
      <trkpt lat="51.171071017161012" lon="-1.784672979265451">
        <ele>83.769999999999996</ele>
        <time>2026-07-12T05:10:23Z</time>
      </trkpt>
      <trkpt lat="51.171034974977374" lon="-1.784760989248753">
        <ele>84.730000000000004</ele>
        <time>2026-07-12T05:10:24Z</time>
      </trkpt>
      <trkpt lat="51.170931961387396" lon="-1.785010015591979">
        <ele>88.099999999999994</ele>
        <time>2026-07-12T05:10:27Z</time>
      </trkpt>
      <trkpt lat="51.170897008851171" lon="-1.785096013918519">
        <ele>89.540000000000006</ele>
        <time>2026-07-12T05:10:28Z</time>
      </trkpt>
      <trkpt lat="51.170859038829803" lon="-1.78518402390182">
        <ele>90.5</ele>
        <time>2026-07-12T05:10:29Z</time>
      </trkpt>
      <trkpt lat="51.17066097445786" lon="-1.785730021074414">
        <ele>92.900000000000006</ele>
        <time>2026-07-12T05:10:34Z</time>
      </trkpt>
      <trkpt lat="51.170404991135001" lon="-1.786798965185881">
        <ele>90.5</ele>
        <time>2026-07-12T05:10:42Z</time>
      </trkpt>
      <trkpt lat="51.170370960608125" lon="-1.786965010687709">
        <ele>90.019999999999996</ele>
        <time>2026-07-12T05:10:43Z</time>
      </trkpt>
      <trkpt lat="51.170396022498608" lon="-1.787099037319422">
        <ele>89.540000000000006</ele>
        <time>2026-07-12T05:10:44Z</time>
      </trkpt>
      <trkpt lat="51.170457964763045" lon="-1.787263993173838">
        <ele>88.579999999999998</ele>
        <time>2026-07-12T05:10:45Z</time>
      </trkpt>
      <trkpt lat="51.170527031645179" lon="-1.787374969571829">
        <ele>88.099999999999994</ele>
        <time>2026-07-12T05:10:46Z</time>
      </trkpt>
      <trkpt lat="51.170596014708281" lon="-1.787487035617232">
        <ele>87.620000000000005</ele>
        <time>2026-07-12T05:10:47Z</time>
      </trkpt>
      <trkpt lat="51.170813022181392" lon="-1.787839997559786">
        <ele>87.140000000000001</ele>
        <time>2026-07-12T05:10:50Z</time>
      </trkpt>
      <trkpt lat="51.170971021056175" lon="-1.788096986711025">
        <ele>87.620000000000005</ele>
        <time>2026-07-12T05:10:52Z</time>
      </trkpt>
      <trkpt lat="51.171052996069193" lon="-1.788230007514358">
        <ele>88.579999999999998</ele>
        <time>2026-07-12T05:10:53Z</time>
      </trkpt>
      <trkpt lat="51.171853970736265" lon="-1.789690973237157">
        <ele>93.390000000000001</ele>
        <time>2026-07-12T05:11:03Z</time>
      </trkpt>
      <trkpt lat="51.171981040388346" lon="-1.789978975430131">
        <ele>94.349999999999994</ele>
        <time>2026-07-12T05:11:05Z</time>
      </trkpt>
      <trkpt lat="51.172235012054443" lon="-1.790746003389359">
        <ele>96.75</ele>
        <time>2026-07-12T05:11:10Z</time>
      </trkpt>
      <trkpt lat="51.172638013958931" lon="-1.79287500679493">
        <ele>100.11</ele>
        <time>2026-07-12T05:11:22Z</time>
      </trkpt>
      <trkpt lat="51.172969015315175" lon="-1.794832013547421">
        <ele>94.829999999999998</ele>
        <time>2026-07-12T05:11:32Z</time>
      </trkpt>
      <trkpt lat="51.17349598556757" lon="-1.796877030283213">
        <ele>90.5</ele>
        <time>2026-07-12T05:11:42Z</time>
      </trkpt>
      <trkpt lat="51.173867974430323" lon="-1.798750972375274">
        <ele>90.980000000000004</ele>
        <time>2026-07-12T05:11:52Z</time>
      </trkpt>
      <trkpt lat="51.173906028270721" lon="-1.798966974020004">
        <ele>90.5</ele>
        <time>2026-07-12T05:11:53Z</time>
      </trkpt>
      <trkpt lat="51.174499969929457" lon="-1.800454007461667">
        <ele>93.390000000000001</ele>
        <time>2026-07-12T05:12:01Z</time>
      </trkpt>
      <trkpt lat="51.175783993676305" lon="-1.802550991997123">
        <ele>107.81</ele>
        <time>2026-07-12T05:12:14Z</time>
      </trkpt>
      <trkpt lat="51.176523026078939" lon="-1.804226031526923">
        <ele>115.01000000000001</ele>
        <time>2026-07-12T05:12:23Z</time>
      </trkpt>
      <trkpt lat="51.176851009950042" lon="-1.806120006367564">
        <ele>115.5</ele>
        <time>2026-07-12T05:12:32Z</time>
      </trkpt>
      <trkpt lat="51.177034992724657" lon="-1.809299010783434">
        <ele>116.94</ele>
        <time>2026-07-12T05:12:45Z</time>
      </trkpt>
      <trkpt lat="51.177201960235834" lon="-1.812260001897812">
        <ele>114.05</ele>
        <time>2026-07-12T05:12:56Z</time>
      </trkpt>
      <trkpt lat="51.177390972152352" lon="-1.814917987212539">
        <ele>108.77</ele>
        <time>2026-07-12T05:13:07Z</time>
      </trkpt>
      <trkpt lat="51.177562968805432" lon="-1.817373968660832">
        <ele>98.670000000000002</ele>
        <time>2026-07-12T05:13:18Z</time>
      </trkpt>
      <trkpt lat="51.177624994888902" lon="-1.819477993994951">
        <ele>89.540000000000006</ele>
        <time>2026-07-12T05:13:26Z</time>
      </trkpt>
      <trkpt lat="51.177331963554025" lon="-1.82233496569097">
        <ele>93.390000000000001</ele>
        <time>2026-07-12T05:13:36Z</time>
      </trkpt>
      <trkpt lat="51.176826031878591" lon="-1.825851006433368">
        <ele>98.670000000000002</ele>
        <time>2026-07-12T05:13:50Z</time>
      </trkpt>
      <trkpt lat="51.176424035802484" lon="-1.828603958711028">
        <ele>101.08</ele>
        <time>2026-07-12T05:14:00Z</time>
      </trkpt>
      <trkpt lat="51.175952972844243" lon="-1.831868039444089">
        <ele>105.40000000000001</ele>
        <time>2026-07-12T05:14:13Z</time>
      </trkpt>
      <trkpt lat="51.175479982048273" lon="-1.835149973630905">
        <ele>112.13</ele>
        <time>2026-07-12T05:14:26Z</time>
      </trkpt>
      <trkpt lat="51.174973966553807" lon="-1.838647993281484">
        <ele>109.73</ele>
        <time>2026-07-12T05:14:40Z</time>
      </trkpt>
      <trkpt lat="51.174582028761506" lon="-1.841357024386525">
        <ele>108.77</ele>
        <time>2026-07-12T05:14:51Z</time>
      </trkpt>
      <trkpt lat="51.17396897636354" lon="-1.84559902176261">
        <ele>104.44</ele>
        <time>2026-07-12T05:15:08Z</time>
      </trkpt>
      <trkpt lat="51.173503026366234" lon="-1.848815996199846">
        <ele>102.04000000000001</ele>
        <time>2026-07-12T05:15:21Z</time>
      </trkpt>
      <trkpt lat="51.172999022528529" lon="-1.852304963395">
        <ele>105.88</ele>
        <time>2026-07-12T05:15:35Z</time>
      </trkpt>
      <trkpt lat="51.172577999532223" lon="-1.855235025286675">
        <ele>110.20999999999999</ele>
        <time>2026-07-12T05:15:47Z</time>
      </trkpt>
      <trkpt lat="51.172083970159292" lon="-1.857978003099561">
        <ele>112.13</ele>
        <time>2026-07-12T05:15:59Z</time>
      </trkpt>
      <trkpt lat="51.171964025124907" lon="-1.858443031087518">
        <ele>112.61</ele>
        <time>2026-07-12T05:16:02Z</time>
      </trkpt>
      <trkpt lat="51.171914990991354" lon="-1.858516037464142">
        <ele>113.09</ele>
        <time>2026-07-12T05:16:03Z</time>
      </trkpt>
      <trkpt lat="51.171848019585013" lon="-1.858588960021734">
        <ele>113.56999999999999</ele>
        <time>2026-07-12T05:16:04Z</time>
      </trkpt>
      <trkpt lat="51.171782976016402" lon="-1.858660038560629">
        <ele>113.56999999999999</ele>
        <time>2026-07-12T05:16:05Z</time>
      </trkpt>
      <trkpt lat="51.171721033751965" lon="-1.85872801579535">
        <ele>113.56999999999999</ele>
        <time>2026-07-12T05:16:06Z</time>
      </trkpt>
      <trkpt lat="51.171656996011734" lon="-1.858791969716549">
        <ele>113.56999999999999</ele>
        <time>2026-07-12T05:16:07Z</time>
      </trkpt>
      <trkpt lat="51.171594969928265" lon="-1.85891903936863">
        <ele>113.09</ele>
        <time>2026-07-12T05:16:08Z</time>
      </trkpt>
      <trkpt lat="51.171569991856813" lon="-1.85902800410986">
        <ele>113.09</ele>
        <time>2026-07-12T05:16:09Z</time>
      </trkpt>
      <trkpt lat="51.171587007120252" lon="-1.859191032126546">
        <ele>113.56999999999999</ele>
        <time>2026-07-12T05:16:10Z</time>
      </trkpt>
      <trkpt lat="51.171625982969999" lon="-1.859306031838059">
        <ele>113.09</ele>
        <time>2026-07-12T05:16:11Z</time>
      </trkpt>
      <trkpt lat="51.171680968254805" lon="-1.859406027942896">
        <ele>113.09</ele>
        <time>2026-07-12T05:16:12Z</time>
      </trkpt>
      <trkpt lat="51.171739976853132" lon="-1.859490014612675">
        <ele>113.09</ele>
        <time>2026-07-12T05:16:13Z</time>
      </trkpt>
      <trkpt lat="51.171824969351292" lon="-1.859537959098816">
        <ele>113.09</ele>
        <time>2026-07-12T05:16:14Z</time>
      </trkpt>
      <trkpt lat="51.171912979334593" lon="-1.859547011554241">
        <ele>113.56999999999999</ele>
        <time>2026-07-12T05:16:15Z</time>
      </trkpt>
      <trkpt lat="51.172004006803036" lon="-1.859508035704494">
        <ele>113.56999999999999</ele>
        <time>2026-07-12T05:16:16Z</time>
      </trkpt>
      <trkpt lat="51.172081958502531" lon="-1.859402004629374">
        <ele>113.56999999999999</ele>
        <time>2026-07-12T05:16:17Z</time>
      </trkpt>
      <trkpt lat="51.172173991799355" lon="-1.859336039051414">
        <ele>114.05</ele>
        <time>2026-07-12T05:16:18Z</time>
      </trkpt>
      <trkpt lat="51.172269964590669" lon="-1.859267977997661">
        <ele>114.53</ele>
        <time>2026-07-12T05:16:19Z</time>
      </trkpt>
      <trkpt lat="51.172367027029395" lon="-1.859198994934559">
        <ele>114.53</ele>
        <time>2026-07-12T05:16:20Z</time>
      </trkpt>
      <trkpt lat="51.172475991770625" lon="-1.859166976064444">
        <ele>115.01000000000001</ele>
        <time>2026-07-12T05:16:21Z</time>
      </trkpt>
      <trkpt lat="51.17259400896728" lon="-1.859133029356599">
        <ele>115.5</ele>
        <time>2026-07-12T05:16:22Z</time>
      </trkpt>
      <trkpt lat="51.174014993011951" lon="-1.859120037406683">
        <ele>115.5</ele>
        <time>2026-07-12T05:16:32Z</time>
      </trkpt>
      <trkpt lat="51.176215996965766" lon="-1.859392030164599">
        <ele>113.09</ele>
        <time>2026-07-12T05:16:46Z</time>
      </trkpt>
      <trkpt lat="51.178946988657117" lon="-1.859753038734198">
        <ele>110.20999999999999</ele>
        <time>2026-07-12T05:17:03Z</time>
      </trkpt>
      <trkpt lat="51.181105999276042" lon="-1.86003802344203">
        <ele>111.65000000000001</ele>
        <time>2026-07-12T05:17:17Z</time>
      </trkpt>
      <trkpt lat="51.183812012895942" lon="-1.860400037840009">
        <ele>101.56</ele>
        <time>2026-07-12T05:17:34Z</time>
      </trkpt>
      <trkpt lat="51.184636037796736" lon="-1.860483018681407">
        <ele>105.88</ele>
        <time>2026-07-12T05:17:41Z</time>
      </trkpt>
      <trkpt lat="51.184710972011089" lon="-1.860517971217632">
        <ele>106.36</ele>
        <time>2026-07-12T05:17:42Z</time>
      </trkpt>
      <trkpt lat="51.184780038893223" lon="-1.860549990087748">
        <ele>106.84</ele>
        <time>2026-07-12T05:17:43Z</time>
      </trkpt>
      <trkpt lat="51.184949018061161" lon="-1.860736990347505">
        <ele>108.29000000000001</ele>
        <time>2026-07-12T05:17:46Z</time>
      </trkpt>
      <trkpt lat="51.185027975589037" lon="-1.860788036137819">
        <ele>108.77</ele>
        <time>2026-07-12T05:17:47Z</time>
      </trkpt>
      <trkpt lat="51.185111962258816" lon="-1.860752999782562">
        <ele>109.25</ele>
        <time>2026-07-12T05:17:48Z</time>
      </trkpt>
      <trkpt lat="51.185155967250466" lon="-1.860687034204602">
        <ele>109.25</ele>
        <time>2026-07-12T05:17:49Z</time>
      </trkpt>
      <trkpt lat="51.185174994170666" lon="-1.860570022836328">
        <ele>109.73</ele>
        <time>2026-07-12T05:17:50Z</time>
      </trkpt>
      <trkpt lat="51.185174994170666" lon="-1.860470026731491">
        <ele>110.20999999999999</ele>
        <time>2026-07-12T05:17:51Z</time>
      </trkpt>
      <trkpt lat="51.185174994170666" lon="-1.860401965677738">
        <ele>110.20999999999999</ele>
        <time>2026-07-12T05:17:52Z</time>
      </trkpt>
      <trkpt lat="51.185110034421086" lon="-1.860248995944858">
        <ele>110.20999999999999</ele>
        <time>2026-07-12T05:17:53Z</time>
      </trkpt>
      <trkpt lat="51.185081033036113" lon="-1.859452966600657">
        <ele>111.17</ele>
        <time>2026-07-12T05:18:03Z</time>
      </trkpt>
      <trkpt lat="51.185070974752307" lon="-1.859366968274117">
        <ele>110.69</ele>
        <time>2026-07-12T05:18:11Z</time>
      </trkpt>
      <trkpt lat="51.185042979195714" lon="-1.859139986336231">
        <ele>109.25</ele>
        <time>2026-07-12T05:18:52Z</time>
      </trkpt>
      <trkpt lat="51.18503300473094" lon="-1.859058011323214">
        <ele>108.77</ele>
        <time>2026-07-12T05:18:53Z</time>
      </trkpt>
      <trkpt lat="51.184946000576019" lon="-1.85900897718966">
        <ele>108.29000000000001</ele>
        <time>2026-07-12T05:18:54Z</time>
      </trkpt>
      <trkpt lat="51.184889003634453" lon="-1.859025992453098">
        <ele>107.31999999999999</ele>
        <time>2026-07-12T05:18:55Z</time>
      </trkpt>
      <trkpt lat="51.184807028621435" lon="-1.859052982181311">
        <ele>106.84</ele>
        <time>2026-07-12T05:18:56Z</time>
      </trkpt>
      <trkpt lat="51.184736033901572" lon="-1.859198994934559">
        <ele>106.36</ele>
        <time>2026-07-12T05:18:57Z</time>
      </trkpt>
      <trkpt lat="51.184709966182709" lon="-1.859378032386303">
        <ele>105.88</ele>
        <time>2026-07-12T05:18:58Z</time>
      </trkpt>
      <trkpt lat="51.184680964797735" lon="-1.859568972140551">
        <ele>105.40000000000001</ele>
        <time>2026-07-12T05:18:59Z</time>
      </trkpt>
      <trkpt lat="51.18464601226151" lon="-1.859754966571927">
        <ele>104.92</ele>
        <time>2026-07-12T05:19:00Z</time>
      </trkpt>
      <trkpt lat="51.184597983956337" lon="-1.859898967668414">
        <ele>104.92</ele>
        <time>2026-07-12T05:19:01Z</time>
      </trkpt>
      <trkpt lat="51.184523971751332" lon="-1.859965017065406">
        <ele>104.44</ele>
        <time>2026-07-12T05:19:02Z</time>
      </trkpt>
      <trkpt lat="51.184435961768031" lon="-1.860009022057056">
        <ele>103.95999999999999</ele>
        <time>2026-07-12T05:19:03Z</time>
      </trkpt>
      <trkpt lat="51.184328002855182" lon="-1.860031988471746">
        <ele>103</ele>
        <time>2026-07-12T05:19:04Z</time>
      </trkpt>
      <trkpt lat="51.184221971780062" lon="-1.859979014843702">
        <ele>102.52</ele>
        <time>2026-07-12T05:19:05Z</time>
      </trkpt>
      <trkpt lat="51.18410998955369" lon="-1.859923023730516">
        <ele>101.08</ele>
        <time>2026-07-12T05:19:06Z</time>
      </trkpt>
      <trkpt lat="51.183787034824491" lon="-1.859824033454061">
        <ele>99.150000000000006</ele>
        <time>2026-07-12T05:19:09Z</time>
      </trkpt>
      <trkpt lat="51.183688966557384" lon="-1.859852029010654">
        <ele>99.150000000000006</ele>
        <time>2026-07-12T05:19:10Z</time>
      </trkpt>
      <trkpt lat="51.183596011251211" lon="-1.859879018738866">
        <ele>99.629999999999995</ele>
        <time>2026-07-12T05:19:11Z</time>
      </trkpt>
      <trkpt lat="51.183334998786449" lon="-1.859948001801968">
        <ele>100.59999999999999</ele>
        <time>2026-07-12T05:19:14Z</time>
      </trkpt>
      <trkpt lat="51.183265009894967" lon="-1.859936015680432">
        <ele>101.08</ele>
        <time>2026-07-12T05:19:15Z</time>
      </trkpt>
      <trkpt lat="51.183211030438542" lon="-1.859926041215658">
        <ele>101.56</ele>
        <time>2026-07-12T05:19:16Z</time>
      </trkpt>
      <trkpt lat="51.183114973828197" lon="-1.859908020123839">
        <ele>102.52</ele>
        <time>2026-07-12T05:19:17Z</time>
      </trkpt>
      <trkpt lat="51.18314104154706" lon="-1.859755972400308">
        <ele>103</ele>
        <time>2026-07-12T05:19:18Z</time>
      </trkpt>
      <trkpt lat="51.183158978819847" lon="-1.859654970467091">
        <ele>103.48</ele>
        <time>2026-07-12T05:19:19Z</time>
      </trkpt>
      <trkpt lat="51.183182029053569" lon="-1.859527984634042">
        <ele>103.95999999999999</ele>
        <time>2026-07-12T05:19:20Z</time>
      </trkpt>
      <trkpt lat="51.18320700712502" lon="-1.859383983537555">
        <ele>103.95999999999999</ele>
        <time>2026-07-12T05:19:21Z</time>
      </trkpt>
      <trkpt lat="51.183231985196471" lon="-1.859240988269448">
        <ele>104.44</ele>
        <time>2026-07-12T05:19:22Z</time>
      </trkpt>
      <trkpt lat="51.183264004066586" lon="-1.859130011871457">
        <ele>103.95999999999999</ele>
        <time>2026-07-12T05:19:23Z</time>
      </trkpt>
      <trkpt lat="51.183303985744715" lon="-1.859032027423382">
        <ele>103.95999999999999</ele>
        <time>2026-07-12T05:19:24Z</time>
      </trkpt>
      <trkpt lat="51.183342961594462" lon="-1.858939994126558">
        <ele>103.95999999999999</ele>
        <time>2026-07-12T05:19:25Z</time>
      </trkpt>
      <trkpt lat="51.1833790037781" lon="-1.858851984143257">
        <ele>103.95999999999999</ele>
        <time>2026-07-12T05:19:26Z</time>
      </trkpt>
      <trkpt lat="51.183413034304976" lon="-1.85877101495862">
        <ele>103.95999999999999</ele>
        <time>2026-07-12T05:19:27Z</time>
      </trkpt>
      <trkpt lat="51.183443963527679" lon="-1.858698008581996">
        <ele>103.95999999999999</ele>
        <time>2026-07-12T05:19:28Z</time>
      </trkpt>
      <trkpt lat="51.183466007933021" lon="-1.858622990548611">
        <ele>103.48</ele>
        <time>2026-07-12T05:19:29Z</time>
      </trkpt>
      <trkpt lat="51.183482017368078" lon="-1.858548978343606">
        <ele>103.48</ele>
        <time>2026-07-12T05:19:30Z</time>
      </trkpt>
      <trkpt lat="51.183498026803136" lon="-1.858475971966982">
        <ele>103.48</ele>
        <time>2026-07-12T05:19:31Z</time>
      </trkpt>
      <trkpt lat="51.183512024581432" lon="-1.858404977247119">
        <ele>103.48</ele>
        <time>2026-07-12T05:19:32Z</time>
      </trkpt>
      <trkpt lat="51.183543959632516" lon="-1.858256030827761">
        <ele>103.48</ele>
        <time>2026-07-12T05:19:36Z</time>
      </trkpt>
      <trkpt lat="51.183500960469246" lon="-1.85786996036768">
        <ele>102.04000000000001</ele>
        <time>2026-07-12T05:19:46Z</time>
      </trkpt>
      <trkpt lat="51.183500960469246" lon="-1.85786996036768">
        <ele>102.04000000000001</ele>
        <time>2026-07-12T05:19:47Z</time>
      </trkpt>
      <trkpt lat="51.183500960469246" lon="-1.85786996036768">
        <ele>102.04000000000001</ele>
        <time>2026-07-12T05:20:05Z</time>
      </trkpt>
      <trkpt lat="51.183500960469246" lon="-1.85786996036768">
        <ele>102.52</ele>
        <time>2026-07-12T05:20:50Z</time>
      </trkpt>
      <trkpt lat="51.183500960469246" lon="-1.85786996036768">
        <ele>102.52</ele>
        <time>2026-07-12T05:21:51Z</time>
      </trkpt>
      <trkpt lat="51.183500960469246" lon="-1.85786996036768">
        <ele>102.04000000000001</ele>
        <time>2026-07-12T05:21:54Z</time>
      </trkpt>
      <trkpt lat="51.183467013761401" lon="-1.85778203420341">
        <ele>101.56</ele>
        <time>2026-07-12T07:06:23Z</time>
      </trkpt>
      <trkpt lat="51.183426026254892" lon="-1.857766024768353">
        <ele>109.73</ele>
        <time>2026-07-12T07:06:35Z</time>
      </trkpt>
      <trkpt lat="51.183400964364409" lon="-1.857786979526281">
        <ele>106.84</ele>
        <time>2026-07-12T07:06:44Z</time>
      </trkpt>
      <trkpt lat="51.183431977406144" lon="-1.857793014496565">
        <ele>102.04000000000001</ele>
        <time>2026-07-12T07:07:12Z</time>
      </trkpt>
      <trkpt lat="51.183457961305976" lon="-1.857806006446481">
        <ele>104.92</ele>
        <time>2026-07-12T07:07:40Z</time>
      </trkpt>
      <trkpt lat="51.183448992669582" lon="-1.857832996174693">
        <ele>103.95999999999999</ele>
        <time>2026-07-12T07:07:50Z</time>
      </trkpt>
      <trkpt lat="51.183472964912653" lon="-1.857931986451149">
        <ele>103.95999999999999</ele>
        <time>2026-07-12T07:07:55Z</time>
      </trkpt>
      <trkpt lat="51.183460978791118" lon="-1.857959982007742">
        <ele>103.95999999999999</ele>
        <time>2026-07-12T07:07:56Z</time>
      </trkpt>
      <trkpt lat="51.183448992669582" lon="-1.857986971735954">
        <ele>103.95999999999999</ele>
        <time>2026-07-12T07:07:57Z</time>
      </trkpt>
      <trkpt lat="51.183439018204808" lon="-1.858010021969676">
        <ele>104.44</ele>
        <time>2026-07-12T07:07:58Z</time>
      </trkpt>
      <trkpt lat="51.183429965749383" lon="-1.858029970899224">
        <ele>103.95999999999999</ele>
        <time>2026-07-12T07:07:59Z</time>
      </trkpt>
      <trkpt lat="51.183416973799467" lon="-1.858057966455817">
        <ele>103.95999999999999</ele>
        <time>2026-07-12T07:08:00Z</time>
      </trkpt>
      <trkpt lat="51.183414962142706" lon="-1.85806299559772">
        <ele>103.95999999999999</ele>
        <time>2026-07-12T07:08:02Z</time>
      </trkpt>
      <trkpt lat="51.183414962142706" lon="-1.85806299559772">
        <ele>103.95999999999999</ele>
        <time>2026-07-12T07:08:03Z</time>
      </trkpt>
      <trkpt lat="51.18350800126791" lon="-1.858424004167318">
        <ele>104.44</ele>
        <time>2026-07-12T07:08:04Z</time>
      </trkpt>
      <trkpt lat="51.183486040681601" lon="-1.858531041070819">
        <ele>104.44</ele>
        <time>2026-07-12T07:08:05Z</time>
      </trkpt>
      <trkpt lat="51.183440024033189" lon="-1.85870697721839">
        <ele>103.95999999999999</ele>
        <time>2026-07-12T07:08:06Z</time>
      </trkpt>
      <trkpt lat="51.183395013213158" lon="-1.858815019950271">
        <ele>103.95999999999999</ele>
        <time>2026-07-12T07:08:07Z</time>
      </trkpt>
      <trkpt lat="51.1832270398736" lon="-1.859273007139564">
        <ele>103.48</ele>
        <time>2026-07-12T07:08:11Z</time>
      </trkpt>
      <trkpt lat="51.183199966326356" lon="-1.859424971044064">
        <ele>103.48</ele>
        <time>2026-07-12T07:08:12Z</time>
      </trkpt>
      <trkpt lat="51.183173982426524" lon="-1.859571989625692">
        <ele>103.48</ele>
        <time>2026-07-12T07:08:13Z</time>
      </trkpt>
      <trkpt lat="51.183150010183454" lon="-1.859709033742547">
        <ele>103.48</ele>
        <time>2026-07-12T07:08:14Z</time>
      </trkpt>
      <trkpt lat="51.183129977434874" lon="-1.859821015968919">
        <ele>103.48</ele>
        <time>2026-07-12T07:08:15Z</time>
      </trkpt>
      <trkpt lat="51.183089995756745" lon="-1.859894022345543">
        <ele>103</ele>
        <time>2026-07-12T07:08:16Z</time>
      </trkpt>
      <trkpt lat="51.183114973828197" lon="-1.859908020123839">
        <ele>103</ele>
        <time>2026-07-12T07:08:17Z</time>
      </trkpt>
      <trkpt lat="51.183214969933033" lon="-1.859926041215658">
        <ele>103</ele>
        <time>2026-07-12T07:08:18Z</time>
      </trkpt>
      <trkpt lat="51.183305997401476" lon="-1.859942972660065">
        <ele>102.52</ele>
        <time>2026-07-12T07:08:19Z</time>
      </trkpt>
      <trkpt lat="51.183408005163074" lon="-1.859935009852052">
        <ele>102.04000000000001</ele>
        <time>2026-07-12T07:08:20Z</time>
      </trkpt>
      <trkpt lat="51.183523004874587" lon="-1.859900979325175">
        <ele>101.08</ele>
        <time>2026-07-12T07:08:21Z</time>
      </trkpt>
      <trkpt lat="51.183767002075911" lon="-1.859829984605312">
        <ele>100.11</ele>
        <time>2026-07-12T07:08:23Z</time>
      </trkpt>
      <trkpt lat="51.183901028707623" lon="-1.859817998483777">
        <ele>99.629999999999995</ele>
        <time>2026-07-12T07:08:24Z</time>
      </trkpt>
      <trkpt lat="51.184012005105615" lon="-1.859873989596963">
        <ele>99.150000000000006</ele>
        <time>2026-07-12T07:08:25Z</time>
      </trkpt>
      <trkpt lat="51.184118036180735" lon="-1.859926963225007">
        <ele>99.150000000000006</ele>
        <time>2026-07-12T07:08:26Z</time>
      </trkpt>
      <trkpt lat="51.18421602062881" lon="-1.859975997358561">
        <ele>99.150000000000006</ele>
        <time>2026-07-12T07:08:27Z</time>
      </trkpt>
      <trkpt lat="51.184477033093572" lon="-1.859997035935521">
        <ele>100.59999999999999</ele>
        <time>2026-07-12T07:08:30Z</time>
      </trkpt>
      <trkpt lat="51.184544004499912" lon="-1.859949007630348">
        <ele>101.08</ele>
        <time>2026-07-12T07:08:31Z</time>
      </trkpt>
      <trkpt lat="51.184594966471195" lon="-1.859908020123839">
        <ele>101.56</ele>
        <time>2026-07-12T07:08:32Z</time>
      </trkpt>
      <trkpt lat="51.184630002826452" lon="-1.859804000705481">
        <ele>101.56</ele>
        <time>2026-07-12T07:08:33Z</time>
      </trkpt>
      <trkpt lat="51.184660010039806" lon="-1.859714984893799">
        <ele>101.56</ele>
        <time>2026-07-12T07:08:34Z</time>
      </trkpt>
      <trkpt lat="51.184678031131625" lon="-1.859589004889131">
        <ele>101.56</ele>
        <time>2026-07-12T07:08:35Z</time>
      </trkpt>
      <trkpt lat="51.184695968404412" lon="-1.859467970207334">
        <ele>101.08</ele>
        <time>2026-07-12T07:08:36Z</time>
      </trkpt>
      <trkpt lat="51.184809962287545" lon="-1.859049964696169">
        <ele>101.56</ele>
        <time>2026-07-12T07:08:40Z</time>
      </trkpt>
      <trkpt lat="51.184882968664169" lon="-1.85902800410986">
        <ele>101.56</ele>
        <time>2026-07-12T07:08:41Z</time>
      </trkpt>
      <trkpt lat="51.184929991140962" lon="-1.859014006331563">
        <ele>101.56</ele>
        <time>2026-07-12T07:08:42Z</time>
      </trkpt>
      <trkpt lat="51.18497097864747" lon="-1.859002020210028">
        <ele>101.56</ele>
        <time>2026-07-12T07:08:43Z</time>
      </trkpt>
      <trkpt lat="51.18503401055932" lon="-1.859063962474465">
        <ele>101.56</ele>
        <time>2026-07-12T07:08:44Z</time>
      </trkpt>
      <trkpt lat="51.185039039701223" lon="-1.859105033800006">
        <ele>101.56</ele>
        <time>2026-07-12T07:08:45Z</time>
      </trkpt>
      <trkpt lat="51.185042979195714" lon="-1.859139986336231">
        <ele>101.56</ele>
        <time>2026-07-12T07:08:46Z</time>
      </trkpt>
      <trkpt lat="51.185048008337617" lon="-1.859176028519869">
        <ele>101.56</ele>
        <time>2026-07-12T07:08:47Z</time>
      </trkpt>
      <trkpt lat="51.185053959488869" lon="-1.859226990491152">
        <ele>101.08</ele>
        <time>2026-07-12T07:08:48Z</time>
      </trkpt>
      <trkpt lat="51.185062006115913" lon="-1.859294967725873">
        <ele>101.08</ele>
        <time>2026-07-12T07:08:49Z</time>
      </trkpt>
      <trkpt lat="51.185071980580688" lon="-1.859376020729542">
        <ele>101.08</ele>
        <time>2026-07-12T07:08:50Z</time>
      </trkpt>
      <trkpt lat="51.18503300473094" lon="-1.860041962936521">
        <ele>101.56</ele>
        <time>2026-07-12T07:08:56Z</time>
      </trkpt>
      <trkpt lat="51.18501003831625" lon="-1.860143970698118">
        <ele>101.56</ele>
        <time>2026-07-12T07:08:57Z</time>
      </trkpt>
      <trkpt lat="51.184981036931276" lon="-1.860272968187928">
        <ele>102.04000000000001</ele>
        <time>2026-07-12T07:08:58Z</time>
      </trkpt>
      <trkpt lat="51.184938959777355" lon="-1.860294006764889">
        <ele>102.04000000000001</ele>
        <time>2026-07-12T07:08:59Z</time>
      </trkpt>
      <trkpt lat="51.184821026399732" lon="-1.860340023413301">
        <ele>102.04000000000001</ele>
        <time>2026-07-12T07:09:00Z</time>
      </trkpt>
      <trkpt lat="51.184714995324612" lon="-1.860381010919809">
        <ele>101.56</ele>
        <time>2026-07-12T07:09:01Z</time>
      </trkpt>
      <trkpt lat="51.184596978127956" lon="-1.860427027568221">
        <ele>100.59999999999999</ele>
        <time>2026-07-12T07:09:02Z</time>
      </trkpt>
      <trkpt lat="51.184464041143656" lon="-1.860444964841008">
        <ele>100.11</ele>
        <time>2026-07-12T07:09:03Z</time>
      </trkpt>
      <trkpt lat="51.183161996304989" lon="-1.860311022028327">
        <ele>97.230000000000004</ele>
        <time>2026-07-12T07:09:11Z</time>
      </trkpt>
      <trkpt lat="51.18101698346436" lon="-1.860026959329844">
        <ele>106.84</ele>
        <time>2026-07-12T07:09:22Z</time>
      </trkpt>
      <trkpt lat="51.177674029022455" lon="-1.859584981575608">
        <ele>105.88</ele>
        <time>2026-07-12T07:09:37Z</time>
      </trkpt>
      <trkpt lat="51.174395028501749" lon="-1.859159013256431">
        <ele>113.56999999999999</ele>
        <time>2026-07-12T07:09:52Z</time>
      </trkpt>
      <trkpt lat="51.172854015603662" lon="-1.859048036858439">
        <ele>115.98</ele>
        <time>2026-07-12T07:10:00Z</time>
      </trkpt>
      <trkpt lat="51.172270970419049" lon="-1.859009983018041">
        <ele>115.5</ele>
        <time>2026-07-12T07:10:06Z</time>
      </trkpt>
      <trkpt lat="51.172123029828072" lon="-1.858909986913204">
        <ele>115.5</ele>
        <time>2026-07-12T07:10:11Z</time>
      </trkpt>
      <trkpt lat="51.172082964330912" lon="-1.858831029385328">
        <ele>115.98</ele>
        <time>2026-07-12T07:10:12Z</time>
      </trkpt>
      <trkpt lat="51.172080030664802" lon="-1.858631037175655">
        <ele>115.98</ele>
        <time>2026-07-12T07:10:13Z</time>
      </trkpt>
      <trkpt lat="51.17209997959435" lon="-1.858428027480841">
        <ele>115.5</ele>
        <time>2026-07-12T07:10:14Z</time>
      </trkpt>
      <trkpt lat="51.172137027606368" lon="-1.858182018622756">
        <ele>115.01000000000001</ele>
        <time>2026-07-12T07:10:15Z</time>
      </trkpt>
      <trkpt lat="51.172182960435748" lon="-1.857903990894556">
        <ele>115.01000000000001</ele>
        <time>2026-07-12T07:10:16Z</time>
      </trkpt>
      <trkpt lat="51.172582022845745" lon="-1.855208035558462">
        <ele>112.13</ele>
        <time>2026-07-12T07:10:24Z</time>
      </trkpt>
      <trkpt lat="51.173252994194627" lon="-1.850545015186071">
        <ele>107.31999999999999</ele>
        <time>2026-07-12T07:10:37Z</time>
      </trkpt>
      <trkpt lat="51.173902004957199" lon="-1.846062038093805">
        <ele>104.92</ele>
        <time>2026-07-12T07:10:50Z</time>
      </trkpt>
      <trkpt lat="51.174627039581537" lon="-1.841048989444971">
        <ele>109.73</ele>
        <time>2026-07-12T07:11:04Z</time>
      </trkpt>
      <trkpt lat="51.175360959023237" lon="-1.835968969389796">
        <ele>115.01000000000001</ele>
        <time>2026-07-12T07:11:19Z</time>
      </trkpt>
      <trkpt lat="51.176024973392487" lon="-1.831366969272494">
        <ele>109.25</ele>
        <time>2026-07-12T07:11:34Z</time>
      </trkpt>
      <trkpt lat="51.176817985251546" lon="-1.825903980061412">
        <ele>100.59999999999999</ele>
        <time>2026-07-12T07:11:51Z</time>
      </trkpt>
      <trkpt lat="51.177464984357357" lon="-1.821414967998862">
        <ele>94.829999999999998</ele>
        <time>2026-07-12T07:12:04Z</time>
      </trkpt>
      <trkpt lat="51.177630024030805" lon="-1.81833503767848">
        <ele>91.939999999999998</ele>
        <time>2026-07-12T07:12:12Z</time>
      </trkpt>
      <trkpt lat="51.177365994080901" lon="-1.814565025269985">
        <ele>107.31999999999999</ele>
        <time>2026-07-12T07:12:22Z</time>
      </trkpt>
      <trkpt lat="51.177179999649525" lon="-1.810029996559024">
        <ele>115.5</ele>
        <time>2026-07-12T07:12:34Z</time>
      </trkpt>
      <trkpt lat="51.177042033523321" lon="-1.805665036663413">
        <ele>113.09</ele>
        <time>2026-07-12T07:12:45Z</time>
      </trkpt>
      <trkpt lat="51.177305979654193" lon="-1.801490010693669">
        <ele>106.84</ele>
        <time>2026-07-12T07:12:55Z</time>
      </trkpt>
      <trkpt lat="51.177871003746986" lon="-1.796332038938999">
        <ele>94.349999999999994</ele>
        <time>2026-07-12T07:13:07Z</time>
      </trkpt>
      <trkpt lat="51.178090022876859" lon="-1.792905014008284">
        <ele>87.620000000000005</ele>
        <time>2026-07-12T07:13:15Z</time>
      </trkpt>
      <trkpt lat="51.177945015951991" lon="-1.789683010429144">
        <ele>81.370000000000005</ele>
        <time>2026-07-12T07:13:23Z</time>
      </trkpt>
      <trkpt lat="51.177653996273875" lon="-1.786610037088394">
        <ele>76.079999999999998</ele>
        <time>2026-07-12T07:13:31Z</time>
      </trkpt>
      <trkpt lat="51.177532039582729" lon="-1.784291015937924">
        <ele>74.640000000000001</ele>
        <time>2026-07-12T07:13:39Z</time>
      </trkpt>
      <trkpt lat="51.17749297991395" lon="-1.782459989190102">
        <ele>74.159999999999997</ele>
        <time>2026-07-12T07:13:48Z</time>
      </trkpt>
      <trkpt lat="51.177534973248839" lon="-1.782201994210482">
        <ele>74.159999999999997</ele>
        <time>2026-07-12T07:13:52Z</time>
      </trkpt>
      <trkpt lat="51.177534973248839" lon="-1.782201994210482">
        <ele>74.159999999999997</ele>
        <time>2026-07-12T07:14:03Z</time>
      </trkpt>
      <trkpt lat="51.177559029310942" lon="-1.782062016427517">
        <ele>73.680000000000007</ele>
        <time>2026-07-12T07:14:10Z</time>
      </trkpt>
      <trkpt lat="51.177576966583729" lon="-1.781956991180778">
        <ele>73.680000000000007</ele>
        <time>2026-07-12T07:14:11Z</time>
      </trkpt>
      <trkpt lat="51.177608985453844" lon="-1.781810978427529">
        <ele>73.680000000000007</ele>
        <time>2026-07-12T07:14:12Z</time>
      </trkpt>
      <trkpt lat="51.177742006257176" lon="-1.78159698843956">
        <ele>73.680000000000007</ele>
        <time>2026-07-12T07:14:14Z</time>
      </trkpt>
      <trkpt lat="51.177799003198743" lon="-1.781447036191821">
        <ele>73.680000000000007</ele>
        <time>2026-07-12T07:14:15Z</time>
      </trkpt>
      <trkpt lat="51.177830016240478" lon="-1.781276967376471">
        <ele>73.680000000000007</ele>
        <time>2026-07-12T07:14:16Z</time>
      </trkpt>
      <trkpt lat="51.177813000977039" lon="-1.78110396489501">
        <ele>73.680000000000007</ele>
        <time>2026-07-12T07:14:17Z</time>
      </trkpt>
      <trkpt lat="51.177786011248827" lon="-1.780941020697355">
        <ele>73.680000000000007</ele>
        <time>2026-07-12T07:14:18Z</time>
      </trkpt>
      <trkpt lat="51.177749969065189" lon="-1.780772041529417">
        <ele>73.680000000000007</ele>
        <time>2026-07-12T07:14:19Z</time>
      </trkpt>
      <trkpt lat="51.177674029022455" lon="-1.780657963827252">
        <ele>73.200000000000003</ele>
        <time>2026-07-12T07:14:20Z</time>
      </trkpt>
      <trkpt lat="51.177583001554012" lon="-1.780555034056306">
        <ele>73.200000000000003</ele>
        <time>2026-07-12T07:14:21Z</time>
      </trkpt>
      <trkpt lat="51.177477976307273" lon="-1.780488984659314">
        <ele>72.239999999999995</ele>
        <time>2026-07-12T07:14:22Z</time>
      </trkpt>
      <trkpt lat="51.177362976595759" lon="-1.780465012416244">
        <ele>72.239999999999995</ele>
        <time>2026-07-12T07:14:23Z</time>
      </trkpt>
      <trkpt lat="51.177257029339671" lon="-1.780456965789199">
        <ele>71.760000000000005</ele>
        <time>2026-07-12T07:14:24Z</time>
      </trkpt>
      <trkpt lat="51.177129959687591" lon="-1.780485967174172">
        <ele>71.269999999999996</ele>
        <time>2026-07-12T07:14:25Z</time>
      </trkpt>
      <trkpt lat="51.177022000774741" lon="-1.780578000470996">
        <ele>70.790000000000006</ele>
        <time>2026-07-12T07:14:26Z</time>
      </trkpt>
      <trkpt lat="51.176913036033511" lon="-1.780728958547115">
        <ele>70.790000000000006</ele>
        <time>2026-07-12T07:14:27Z</time>
      </trkpt>
      <trkpt lat="51.176795018836856" lon="-1.780826020985842">
        <ele>70.790000000000006</ele>
        <time>2026-07-12T07:14:28Z</time>
      </trkpt>
      <trkpt lat="51.176405008882284" lon="-1.781122991815209">
        <ele>70.790000000000006</ele>
        <time>2026-07-12T07:14:31Z</time>
      </trkpt>
      <trkpt lat="51.176282968372107" lon="-1.781212007626891">
        <ele>70.790000000000006</ele>
        <time>2026-07-12T07:14:32Z</time>
      </trkpt>
      <trkpt lat="51.176165034994483" lon="-1.781299011781812">
        <ele>70.790000000000006</ele>
        <time>2026-07-12T07:14:33Z</time>
      </trkpt>
      <trkpt lat="51.175932018086314" lon="-1.781463967636228">
        <ele>70.310000000000002</ele>
        <time>2026-07-12T07:14:35Z</time>
      </trkpt>
      <trkpt lat="51.175688020884991" lon="-1.781502021476626">
        <ele>70.310000000000002</ele>
        <time>2026-07-12T07:14:37Z</time>
      </trkpt>
      <trkpt lat="51.175567992031574" lon="-1.781502021476626">
        <ele>70.310000000000002</ele>
        <time>2026-07-12T07:14:38Z</time>
      </trkpt>
      <trkpt lat="51.175444023683667" lon="-1.781490035355091">
        <ele>70.790000000000006</ele>
        <time>2026-07-12T07:14:39Z</time>
      </trkpt>
      <trkpt lat="51.175086032599211" lon="-1.781350979581475">
        <ele>72.719999999999999</ele>
        <time>2026-07-12T07:14:42Z</time>
      </trkpt>
      <trkpt lat="51.17499902844429" lon="-1.781283002346754">
        <ele>73.200000000000003</ele>
        <time>2026-07-12T07:14:43Z</time>
      </trkpt>
      <trkpt lat="51.174264019355178" lon="-1.780453026294708">
        <ele>75.599999999999994</ele>
        <time>2026-07-12T07:14:52Z</time>
      </trkpt>
      <trkpt lat="51.173983979970217" lon="-1.780061004683375">
        <ele>75.599999999999994</ele>
        <time>2026-07-12T07:14:58Z</time>
      </trkpt>
      <trkpt lat="51.173802008852363" lon="-1.779807033017278">
        <ele>75.120000000000005</ele>
        <time>2026-07-12T07:15:05Z</time>
      </trkpt>
      <trkpt lat="51.173446029424667" lon="-1.77936396561563">
        <ele>73.200000000000003</ele>
        <time>2026-07-12T07:15:11Z</time>
      </trkpt>
      <trkpt lat="51.172778997570276" lon="-1.778744962066412">
        <ele>72.239999999999995</ele>
        <time>2026-07-12T07:15:19Z</time>
      </trkpt>
      <trkpt lat="51.172672966495156" lon="-1.778707997873426">
        <ele>71.760000000000005</ele>
        <time>2026-07-12T07:15:20Z</time>
      </trkpt>
      <trkpt lat="51.171908034011722" lon="-1.778702968731523">
        <ele>70.790000000000006</ele>
        <time>2026-07-12T07:15:29Z</time>
      </trkpt>
      <trkpt lat="51.171753974631429" lon="-1.778663992881775">
        <ele>70.310000000000002</ele>
        <time>2026-07-12T07:15:31Z</time>
      </trkpt>
      <trkpt lat="51.171716004610062" lon="-1.778807993978262">
        <ele>70.310000000000002</ele>
        <time>2026-07-12T07:15:32Z</time>
      </trkpt>
      <trkpt lat="51.171663030982018" lon="-1.778871025890112">
        <ele>69.829999999999998</ele>
        <time>2026-07-12T07:15:33Z</time>
      </trkpt>
      <trkpt lat="51.171586001291871" lon="-1.778908995911479">
        <ele>69.829999999999998</ele>
        <time>2026-07-12T07:15:34Z</time>
      </trkpt>
      <trkpt lat="51.171569991856813" lon="-1.778970016166568">
        <ele>70.310000000000002</ele>
        <time>2026-07-12T07:15:35Z</time>
      </trkpt>
      <trkpt lat="51.171621037647128" lon="-1.779089961200953">
        <ele>70.310000000000002</ele>
        <time>2026-07-12T07:15:36Z</time>
      </trkpt>
      <trkpt lat="51.171640986576676" lon="-1.779181994497776">
        <ele>70.310000000000002</ele>
        <time>2026-07-12T07:15:37Z</time>
      </trkpt>
      <trkpt lat="51.171664036810398" lon="-1.779285008087754">
        <ele>69.829999999999998</ele>
        <time>2026-07-12T07:15:38Z</time>
      </trkpt>
      <trkpt lat="51.171688009053469" lon="-1.779391039162874">
        <ele>69.829999999999998</ele>
        <time>2026-07-12T07:15:39Z</time>
      </trkpt>
      <trkpt lat="51.171779036521912" lon="-1.779911974444985">
        <ele>69.829999999999998</ele>
        <time>2026-07-12T07:15:43Z</time>
      </trkpt>
      <trkpt lat="51.171981040388346" lon="-1.78088896907866">
        <ele>71.269999999999996</ele>
        <time>2026-07-12T07:15:50Z</time>
      </trkpt>
      <trkpt lat="51.172024039551616" lon="-1.781018972396851">
        <ele>71.269999999999996</ele>
        <time>2026-07-12T07:15:51Z</time>
      </trkpt>
      <trkpt lat="51.172251021489501" lon="-1.78176898509264">
        <ele>72.719999999999999</ele>
        <time>2026-07-12T07:15:58Z</time>
      </trkpt>
      <trkpt lat="51.172262001782656" lon="-1.781851965934038">
        <ele>72.719999999999999</ele>
        <time>2026-07-12T07:15:59Z</time>
      </trkpt>
      <trkpt lat="51.172279017046094" lon="-1.781974006444216">
        <ele>72.719999999999999</ele>
        <time>2026-07-12T07:16:00Z</time>
      </trkpt>
      <trkpt lat="51.172259990125895" lon="-1.782010970637202">
        <ele>72.719999999999999</ele>
        <time>2026-07-12T07:16:01Z</time>
      </trkpt>
      <trkpt lat="51.17222897708416" lon="-1.782072996720672">
        <ele>72.719999999999999</ele>
        <time>2026-07-12T07:16:02Z</time>
      </trkpt>
      <trkpt lat="51.172193018719554" lon="-1.782146003097296">
        <ele>72.239999999999995</ele>
        <time>2026-07-12T07:16:03Z</time>
      </trkpt>
      <trkpt lat="51.172174997627735" lon="-1.782187996432185">
        <ele>71.760000000000005</ele>
        <time>2026-07-12T07:16:04Z</time>
      </trkpt>
      <trkpt lat="51.172153959050775" lon="-1.782238958403468">
        <ele>71.760000000000005</ele>
        <time>2026-07-12T07:16:05Z</time>
      </trkpt>
      <trkpt lat="51.172139039263129" lon="-1.782273994758725">
        <ele>71.760000000000005</ele>
        <time>2026-07-12T07:16:06Z</time>
      </trkpt>
      <trkpt lat="51.172126969322562" lon="-1.782304001972079">
        <ele>71.760000000000005</ele>
        <time>2026-07-12T07:16:07Z</time>
      </trkpt>
      <trkpt lat="51.172114983201027" lon="-1.782333003357053">
        <ele>72.239999999999995</ele>
        <time>2026-07-12T07:16:08Z</time>
      </trkpt>
      <trkpt lat="51.172104002907872" lon="-1.782358987256885">
        <ele>72.239999999999995</ele>
        <time>2026-07-12T07:16:09Z</time>
      </trkpt>
      <trkpt lat="51.172095034271479" lon="-1.782381031662226">
        <ele>72.719999999999999</ele>
        <time>2026-07-12T07:16:10Z</time>
      </trkpt>
      <trkpt lat="51.172087993472815" lon="-1.782397963106632">
        <ele>72.719999999999999</ele>
        <time>2026-07-12T07:16:11Z</time>
      </trkpt>
      <trkpt lat="51.172081036493182" lon="-1.782412966713309">
        <ele>72.719999999999999</ele>
        <time>2026-07-12T07:16:12Z</time>
      </trkpt>
      <trkpt lat="51.172081036493182" lon="-1.782412966713309">
        <ele>72.719999999999999</ele>
        <time>2026-07-12T07:16:25Z</time>
      </trkpt>
      <trkpt lat="51.172081036493182" lon="-1.782412966713309">
        <ele>72.719999999999999</ele>
        <time>2026-07-12T07:16:51Z</time>
      </trkpt>
      <trkpt lat="51.172081958502531" lon="-1.782453032210469">
        <ele>85.209999999999994</ele>
        <time>2026-07-12T07:45:43Z</time>
      </trkpt>
      <trkpt lat="51.172081958502531" lon="-1.782450014725328">
        <ele>84.730000000000004</ele>
        <time>2026-07-12T07:46:24Z</time>
      </trkpt>
      <trkpt lat="51.172081036493182" lon="-1.782451020553708">
        <ele>85.209999999999994</ele>
        <time>2026-07-12T07:47:09Z</time>
      </trkpt>
      <trkpt lat="51.172081036493182" lon="-1.782451020553708">
        <ele>85.209999999999994</ele>
        <time>2026-07-12T07:47:21Z</time>
      </trkpt>
      <trkpt lat="51.172059997916222" lon="-1.782466024160385">
        <ele>84.730000000000004</ele>
        <time>2026-07-12T07:47:23Z</time>
      </trkpt>
      <trkpt lat="51.171797979623079" lon="-1.783096008002758">
        <ele>81.370000000000005</ele>
        <time>2026-07-12T07:47:29Z</time>
      </trkpt>
      <trkpt lat="51.171751040965319" lon="-1.78320899605751">
        <ele>80.890000000000001</ele>
        <time>2026-07-12T07:47:30Z</time>
      </trkpt>
      <trkpt lat="51.171708041802049" lon="-1.783304968848825">
        <ele>79.930000000000007</ele>
        <time>2026-07-12T07:47:31Z</time>
      </trkpt>
      <trkpt lat="51.171619025990367" lon="-1.783464979380369">
        <ele>78.969999999999999</ele>
        <time>2026-07-12T07:47:33Z</time>
      </trkpt>
      <trkpt lat="51.171587007120252" lon="-1.783522982150316">
        <ele>78.480000000000004</ele>
        <time>2026-07-12T07:47:34Z</time>
      </trkpt>
      <trkpt lat="51.171563034877181" lon="-1.783565981313586">
        <ele>78.480000000000004</ele>
        <time>2026-07-12T07:47:35Z</time>
      </trkpt>
      <trkpt lat="51.171548031270504" lon="-1.783592971041799">
        <ele>77.519999999999996</ele>
        <time>2026-07-12T07:47:43Z</time>
      </trkpt>
      <trkpt lat="51.171548031270504" lon="-1.783592971041799">
        <ele>77.519999999999996</ele>
        <time>2026-07-12T07:47:46Z</time>
      </trkpt>
      <trkpt lat="51.171526992693543" lon="-1.783631024882197">
        <ele>76.560000000000002</ele>
        <time>2026-07-12T07:47:50Z</time>
      </trkpt>
      <trkpt lat="51.17154199630022" lon="-1.783605040982366">
        <ele>76.560000000000002</ele>
        <time>2026-07-12T07:47:51Z</time>
      </trkpt>
      <trkpt lat="51.171598993241787" lon="-1.783502027392387">
        <ele>76.079999999999998</ele>
        <time>2026-07-12T07:47:53Z</time>
      </trkpt>
      <trkpt lat="51.171639980748296" lon="-1.783427009359002">
        <ele>76.079999999999998</ele>
        <time>2026-07-12T07:47:54Z</time>
      </trkpt>
      <trkpt lat="51.171769984066486" lon="-1.783163985237479">
        <ele>75.120000000000005</ele>
        <time>2026-07-12T07:47:57Z</time>
      </trkpt>
      <trkpt lat="51.17192898876965" lon="-1.782780010253191">
        <ele>77.040000000000006</ele>
        <time>2026-07-12T07:48:01Z</time>
      </trkpt>
      <trkpt lat="51.171967964619398" lon="-1.782685965299606">
        <ele>77.519999999999996</ele>
        <time>2026-07-12T07:48:02Z</time>
      </trkpt>
      <trkpt lat="51.172005012631416" lon="-1.782597033306956">
        <ele>78</ele>
        <time>2026-07-12T07:48:03Z</time>
      </trkpt>
      <trkpt lat="51.172038037329912" lon="-1.782516986131668">
        <ele>78.480000000000004</ele>
        <time>2026-07-12T07:48:04Z</time>
      </trkpt>
      <trkpt lat="51.172072989866138" lon="-1.782432999461889">
        <ele>78.969999999999999</ele>
        <time>2026-07-12T07:48:05Z</time>
      </trkpt>
      <trkpt lat="51.172561990097165" lon="-1.781448964029551">
        <ele>79.930000000000007</ele>
        <time>2026-07-12T07:48:16Z</time>
      </trkpt>
      <trkpt lat="51.172614963725209" lon="-1.781352991238236">
        <ele>79.450000000000003</ele>
        <time>2026-07-12T07:48:17Z</time>
      </trkpt>
      <trkpt lat="51.172772962599993" lon="-1.781094996258616">
        <ele>79.450000000000003</ele>
        <time>2026-07-12T07:48:20Z</time>
      </trkpt>
      <trkpt lat="51.172824008390307" lon="-1.781020984053612">
        <ele>79.450000000000003</ele>
        <time>2026-07-12T07:48:21Z</time>
      </trkpt>
      <trkpt lat="51.173389032483101" lon="-1.780144991353154">
        <ele>81.370000000000005</ele>
        <time>2026-07-12T07:48:32Z</time>
      </trkpt>
      <trkpt lat="51.17358198389411" lon="-1.779822958633304">
        <ele>84.25</ele>
        <time>2026-07-12T07:48:40Z</time>
      </trkpt>
      <trkpt lat="51.173666976392269" lon="-1.779680969193578">
        <ele>84.730000000000004</ele>
        <time>2026-07-12T07:49:07Z</time>
      </trkpt>
      <trkpt lat="51.173694971948862" lon="-1.779635036364198">
        <ele>84.730000000000004</ele>
        <time>2026-07-12T07:49:08Z</time>
      </trkpt>
      <trkpt lat="51.173694971948862" lon="-1.779635036364198">
        <ele>85.209999999999994</ele>
        <time>2026-07-12T07:49:09Z</time>
      </trkpt>
      <trkpt lat="51.173694971948862" lon="-1.779635036364198">
        <ele>85.209999999999994</ele>
        <time>2026-07-12T07:49:10Z</time>
      </trkpt>
      <trkpt lat="51.173694971948862" lon="-1.779635036364198">
        <ele>86.180000000000007</ele>
        <time>2026-07-12T07:49:11Z</time>
      </trkpt>
      <trkpt lat="51.173694971948862" lon="-1.779635036364198">
        <ele>86.180000000000007</ele>
        <time>2026-07-12T07:49:12Z</time>
      </trkpt>
      <trkpt lat="51.173652978613973" lon="-1.779589019715786">
        <ele>87.140000000000001</ele>
        <time>2026-07-12T07:49:20Z</time>
      </trkpt>
      <trkpt lat="51.173643004149199" lon="-1.77957896143198">
        <ele>87.140000000000001</ele>
        <time>2026-07-12T07:49:21Z</time>
      </trkpt>
      <trkpt lat="51.173634035512805" lon="-1.779568986967206">
        <ele>87.140000000000001</ele>
        <time>2026-07-12T07:49:22Z</time>
      </trkpt>
      <trkpt lat="51.173634035512805" lon="-1.779568986967206">
        <ele>87.140000000000001</ele>
        <time>2026-07-12T07:49:37Z</time>
      </trkpt>
      <trkpt lat="51.173622971400619" lon="-1.779557000845671">
        <ele>87.140000000000001</ele>
        <time>2026-07-12T07:49:58Z</time>
      </trkpt>
      <trkpt lat="51.173595981672406" lon="-1.779526993632317">
        <ele>87.620000000000005</ele>
        <time>2026-07-12T07:49:59Z</time>
      </trkpt>
      <trkpt lat="51.173561029136181" lon="-1.77948902361095">
        <ele>88.099999999999994</ele>
        <time>2026-07-12T07:50:00Z</time>
      </trkpt>
      <trkpt lat="51.173528004437685" lon="-1.779453987255693">
        <ele>88.579999999999998</ele>
        <time>2026-07-12T07:50:01Z</time>
      </trkpt>
      <trkpt lat="51.173502020537853" lon="-1.779423980042338">
        <ele>88.579999999999998</ele>
        <time>2026-07-12T07:50:02Z</time>
      </trkpt>
      <trkpt lat="51.173502020537853" lon="-1.779423980042338">
        <ele>89.060000000000002</ele>
        <time>2026-07-12T07:50:16Z</time>
      </trkpt>
      <trkpt lat="51.173502020537853" lon="-1.779423980042338">
        <ele>89.540000000000006</ele>
        <time>2026-07-12T07:51:08Z</time>
      </trkpt>
      <trkpt lat="51.173502020537853" lon="-1.779423980042338">
        <ele>89.540000000000006</ele>
        <time>2026-07-12T07:51:52Z</time>
      </trkpt>
      <trkpt lat="51.173502020537853" lon="-1.779423980042338">
        <ele>89.540000000000006</ele>
        <time>2026-07-12T07:52:43Z</time>
      </trkpt>
      <trkpt lat="51.173493973910809" lon="-1.779416017234325">
        <ele>89.540000000000006</ele>
        <time>2026-07-12T07:52:50Z</time>
      </trkpt>
      <trkpt lat="51.173459021374583" lon="-1.779377041384578">
        <ele>89.060000000000002</ele>
        <time>2026-07-12T07:52:51Z</time>
      </trkpt>
      <trkpt lat="51.173443011939526" lon="-1.77936103194952">
        <ele>88.579999999999998</ele>
        <time>2026-07-12T07:52:52Z</time>
      </trkpt>
      <trkpt lat="51.173401018604636" lon="-1.779315015301108">
        <ele>88.099999999999994</ele>
        <time>2026-07-12T07:52:53Z</time>
      </trkpt>
      <trkpt lat="51.17334796115756" lon="-1.779258018359542">
        <ele>87.620000000000005</ele>
        <time>2026-07-12T07:52:54Z</time>
      </trkpt>
      <trkpt lat="51.173147968947887" lon="-1.779041010886431">
        <ele>86.180000000000007</ele>
        <time>2026-07-12T07:52:57Z</time>
      </trkpt>
      <trkpt lat="51.17298100143671" lon="-1.778859039768577">
        <ele>85.209999999999994</ele>
        <time>2026-07-12T07:52:59Z</time>
      </trkpt>
      <trkpt lat="51.172881005331874" lon="-1.778790978714824">
        <ele>85.209999999999994</ele>
        <time>2026-07-12T07:53:00Z</time>
      </trkpt>
      <trkpt lat="51.172772962599993" lon="-1.778742028400302">
        <ele>84.730000000000004</ele>
        <time>2026-07-12T07:53:01Z</time>
      </trkpt>
      <trkpt lat="51.172657962888479" lon="-1.778706992045045">
        <ele>84.25</ele>
        <time>2026-07-12T07:53:02Z</time>
      </trkpt>
      <trkpt lat="51.17255100980401" lon="-1.778694000095129">
        <ele>83.769999999999996</ele>
        <time>2026-07-12T07:53:03Z</time>
      </trkpt>
      <trkpt lat="51.172449002042413" lon="-1.778682013973594">
        <ele>82.810000000000002</ele>
        <time>2026-07-12T07:53:04Z</time>
      </trkpt>
      <trkpt lat="51.171933012083173" lon="-1.778701040893793">
        <ele>79.930000000000007</ele>
        <time>2026-07-12T07:53:10Z</time>
      </trkpt>
      <trkpt lat="51.171853970736265" lon="-1.778709003701806">
        <ele>79.450000000000003</ele>
        <time>2026-07-12T07:53:11Z</time>
      </trkpt>
      <trkpt lat="51.171757997944951" lon="-1.778660975396633">
        <ele>78.969999999999999</ele>
        <time>2026-07-12T07:53:12Z</time>
      </trkpt>
      <trkpt lat="51.171708041802049" lon="-1.778816962614656">
        <ele>78.969999999999999</ele>
        <time>2026-07-12T07:53:13Z</time>
      </trkpt>
      <trkpt lat="51.171650961041451" lon="-1.778886029496789">
        <ele>78.480000000000004</ele>
        <time>2026-07-12T07:53:14Z</time>
      </trkpt>
      <trkpt lat="51.171577032655478" lon="-1.778944032266736">
        <ele>78.480000000000004</ele>
        <time>2026-07-12T07:53:15Z</time>
      </trkpt>
      <trkpt lat="51.171569991856813" lon="-1.778970016166568">
        <ele>78</ele>
        <time>2026-07-12T07:53:16Z</time>
      </trkpt>
      <trkpt lat="51.171623971313238" lon="-1.779103958979249">
        <ele>77.519999999999996</ele>
        <time>2026-07-12T07:53:17Z</time>
      </trkpt>
      <trkpt lat="51.171640986576676" lon="-1.779180988669395">
        <ele>77.040000000000006</ele>
        <time>2026-07-12T07:53:18Z</time>
      </trkpt>
      <trkpt lat="51.171659007668495" lon="-1.779261035844684">
        <ele>77.040000000000006</ele>
        <time>2026-07-12T07:53:19Z</time>
      </trkpt>
      <trkpt lat="51.171678034588695" lon="-1.779348039999604">
        <ele>76.560000000000002</ele>
        <time>2026-07-12T07:53:20Z</time>
      </trkpt>
      <trkpt lat="51.171699995175004" lon="-1.779444012790918">
        <ele>76.560000000000002</ele>
        <time>2026-07-12T07:53:21Z</time>
      </trkpt>
      <trkpt lat="51.171717010438442" lon="-1.779547026380897">
        <ele>76.560000000000002</ele>
        <time>2026-07-12T07:53:22Z</time>
      </trkpt>
      <trkpt lat="51.171933012083173" lon="-1.780699035152793">
        <ele>76.079999999999998</ele>
        <time>2026-07-12T07:53:33Z</time>
      </trkpt>
      <trkpt lat="51.172110959887505" lon="-1.781277973204851">
        <ele>76.560000000000002</ele>
        <time>2026-07-12T07:53:40Z</time>
      </trkpt>
      <trkpt lat="51.172123029828072" lon="-1.781315021216869">
        <ele>77.040000000000006</ele>
        <time>2026-07-12T07:53:41Z</time>
      </trkpt>
      <trkpt lat="51.172129986807704" lon="-1.781334970146418">
        <ele>77.519999999999996</ele>
        <time>2026-07-12T07:53:42Z</time>
      </trkpt>
      <trkpt lat="51.172137027606368" lon="-1.781356008723378">
        <ele>78</ele>
        <time>2026-07-12T07:53:43Z</time>
      </trkpt>
      <trkpt lat="51.172141972929239" lon="-1.781373023986816">
        <ele>78</ele>
        <time>2026-07-12T07:53:44Z</time>
      </trkpt>
      <trkpt lat="51.172141972929239" lon="-1.781373023986816">
        <ele>78.969999999999999</ele>
        <time>2026-07-12T07:53:56Z</time>
      </trkpt>
      <trkpt lat="51.172141972929239" lon="-1.781373023986816">
        <ele>78.969999999999999</ele>
        <time>2026-07-12T07:54:31Z</time>
      </trkpt>
      <trkpt lat="51.17201498709619" lon="-1.781481988728046">
        <ele>73.680000000000007</ele>
        <time>2026-07-12T08:30:50Z</time>
      </trkpt>
      <trkpt lat="51.17212101817131" lon="-1.781422980129719">
        <ele>80.409999999999997</ele>
        <time>2026-07-12T08:31:21Z</time>
      </trkpt>
      <trkpt lat="51.172125963494182" lon="-1.781447036191821">
        <ele>74.640000000000001</ele>
        <time>2026-07-12T08:32:04Z</time>
      </trkpt>
      <trkpt lat="51.172129986807704" lon="-1.781447036191821">
        <ele>76.560000000000002</ele>
        <time>2026-07-12T08:32:50Z</time>
      </trkpt>
      <trkpt lat="51.172131998464465" lon="-1.781446030363441">
        <ele>76.560000000000002</ele>
        <time>2026-07-12T08:33:24Z</time>
      </trkpt>
      <trkpt lat="51.172131998464465" lon="-1.781446030363441">
        <ele>76.560000000000002</ele>
        <time>2026-07-12T08:33:43Z</time>
      </trkpt>
      <trkpt lat="51.172155970707536" lon="-1.781480982899666">
        <ele>76.079999999999998</ele>
        <time>2026-07-12T08:33:59Z</time>
      </trkpt>
      <trkpt lat="51.172159994021058" lon="-1.781475031748414">
        <ele>75.599999999999994</ele>
        <time>2026-07-12T08:34:47Z</time>
      </trkpt>
      <trkpt lat="51.172166028991342" lon="-1.781473020091653">
        <ele>75.599999999999994</ele>
        <time>2026-07-12T08:35:22Z</time>
      </trkpt>
      <trkpt lat="51.172227971255779" lon="-1.781631018966436">
        <ele>76.560000000000002</ele>
        <time>2026-07-12T08:35:35Z</time>
      </trkpt>
      <trkpt lat="51.172286979854107" lon="-1.781651973724365">
        <ele>76.560000000000002</ele>
        <time>2026-07-12T08:35:36Z</time>
      </trkpt>
      <trkpt lat="51.172320004552603" lon="-1.781651973724365">
        <ele>76.079999999999998</ele>
        <time>2026-07-12T08:35:37Z</time>
      </trkpt>
      <trkpt lat="51.172354035079479" lon="-1.781651973724365">
        <ele>76.079999999999998</ele>
        <time>2026-07-12T08:35:38Z</time>
      </trkpt>
      <trkpt lat="51.172396028414369" lon="-1.781651973724365">
        <ele>76.079999999999998</ele>
        <time>2026-07-12T08:35:39Z</time>
      </trkpt>
      <trkpt lat="51.172454031184316" lon="-1.781645016744733">
        <ele>75.599999999999994</ele>
        <time>2026-07-12T08:35:40Z</time>
      </trkpt>
      <trkpt lat="51.172489989548922" lon="-1.781578967347741">
        <ele>75.599999999999994</ele>
        <time>2026-07-12T08:35:41Z</time>
      </trkpt>
      <trkpt lat="51.17253097705543" lon="-1.781505038961768">
        <ele>75.599999999999994</ele>
        <time>2026-07-12T08:35:42Z</time>
      </trkpt>
      <trkpt lat="51.172575987875462" lon="-1.781421974301338">
        <ele>75.120000000000005</ele>
        <time>2026-07-12T08:35:43Z</time>
      </trkpt>
      <trkpt lat="51.17280799895525" lon="-1.781044034287334">
        <ele>75.120000000000005</ele>
        <time>2026-07-12T08:35:48Z</time>
      </trkpt>
      <trkpt lat="51.172848986461759" lon="-1.780984019860625">
        <ele>75.120000000000005</ele>
        <time>2026-07-12T08:35:49Z</time>
      </trkpt>
      <trkpt lat="51.173005979508162" lon="-1.780752008780837">
        <ele>75.120000000000005</ele>
        <time>2026-07-12T08:35:53Z</time>
      </trkpt>
      <trkpt lat="51.173047972843051" lon="-1.780690988525748">
        <ele>75.120000000000005</ele>
        <time>2026-07-12T08:35:54Z</time>
      </trkpt>
      <trkpt lat="51.173486011102796" lon="-1.779983974993229">
        <ele>74.640000000000001</ele>
        <time>2026-07-12T08:36:06Z</time>
      </trkpt>
      <trkpt lat="51.173586007207632" lon="-1.779816001653671">
        <ele>76.079999999999998</ele>
        <time>2026-07-12T08:36:18Z</time>
      </trkpt>
      <trkpt lat="51.173679968342185" lon="-1.779660014435649">
        <ele>77.040000000000006</ele>
        <time>2026-07-12T08:36:21Z</time>
      </trkpt>
      <trkpt lat="51.17373201996088" lon="-1.779693961143494">
        <ele>78</ele>
        <time>2026-07-12T08:36:22Z</time>
      </trkpt>
      <trkpt lat="51.173787005245686" lon="-1.779782976955175">
        <ele>78.480000000000004</ele>
        <time>2026-07-12T08:36:23Z</time>
      </trkpt>
      <trkpt lat="51.174556966871023" lon="-1.780869020149112">
        <ele>80.890000000000001</ele>
        <time>2026-07-12T08:36:33Z</time>
      </trkpt>
      <trkpt lat="51.174897020682693" lon="-1.781203038990498">
        <ele>80.890000000000001</ele>
        <time>2026-07-12T08:36:37Z</time>
      </trkpt>
      <trkpt lat="51.174984024837613" lon="-1.781271016225219">
        <ele>80.409999999999997</ele>
        <time>2026-07-12T08:36:38Z</time>
      </trkpt>
      <trkpt lat="51.175503032281995" lon="-1.781495986506343">
        <ele>78.480000000000004</ele>
        <time>2026-07-12T08:36:43Z</time>
      </trkpt>
      <trkpt lat="51.175620965659618" lon="-1.781502021476626">
        <ele>77.519999999999996</ele>
        <time>2026-07-12T08:36:44Z</time>
      </trkpt>
      <trkpt lat="51.176500981673598" lon="-1.781265987083316">
        <ele>73.200000000000003</ele>
        <time>2026-07-12T08:36:52Z</time>
      </trkpt>
      <trkpt lat="51.1765699647367" lon="-1.781265987083316">
        <ele>73.200000000000003</ele>
        <time>2026-07-12T08:36:53Z</time>
      </trkpt>
      <trkpt lat="51.176616987213492" lon="-1.781298005953431">
        <ele>73.200000000000003</ele>
        <time>2026-07-12T08:36:54Z</time>
      </trkpt>
      <trkpt lat="51.176651017740369" lon="-1.781321978196502">
        <ele>72.719999999999999</ele>
        <time>2026-07-12T08:36:55Z</time>
      </trkpt>
      <trkpt lat="51.176673984155059" lon="-1.781337987631559">
        <ele>72.719999999999999</ele>
        <time>2026-07-12T08:36:56Z</time>
      </trkpt>
      <trkpt lat="51.176699968054891" lon="-1.781356008723378">
        <ele>72.719999999999999</ele>
        <time>2026-07-12T08:36:58Z</time>
      </trkpt>
      <trkpt lat="51.176699968054891" lon="-1.781356008723378">
        <ele>73.200000000000003</ele>
        <time>2026-07-12T08:37:14Z</time>
      </trkpt>
      <trkpt lat="51.176913036033511" lon="-1.781608974561095">
        <ele>74.159999999999997</ele>
        <time>2026-07-12T08:37:24Z</time>
      </trkpt>
      <trkpt lat="51.177086960524321" lon="-1.781782982870936">
        <ele>74.640000000000001</ele>
        <time>2026-07-12T08:37:26Z</time>
      </trkpt>
      <trkpt lat="51.177188968285918" lon="-1.781868981197476">
        <ele>74.640000000000001</ele>
        <time>2026-07-12T08:37:27Z</time>
      </trkpt>
      <trkpt lat="51.177276978269219" lon="-1.781882978975773">
        <ele>74.640000000000001</ele>
        <time>2026-07-12T08:37:28Z</time>
      </trkpt>
      <trkpt lat="51.177345039322972" lon="-1.781893037259579">
        <ele>74.640000000000001</ele>
        <time>2026-07-12T08:37:29Z</time>
      </trkpt>
      <trkpt lat="51.177394995465875" lon="-1.781901000067592">
        <ele>74.640000000000001</ele>
        <time>2026-07-12T08:37:30Z</time>
      </trkpt>
      <trkpt lat="51.177431959658861" lon="-1.781907035037875">
        <ele>74.640000000000001</ele>
        <time>2026-07-12T08:37:31Z</time>
      </trkpt>
      <trkpt lat="51.177463978528976" lon="-1.781902005895972">
        <ele>74.640000000000001</ele>
        <time>2026-07-12T08:37:32Z</time>
      </trkpt>
      <trkpt lat="51.177502032369375" lon="-1.781879961490631">
        <ele>74.640000000000001</ele>
        <time>2026-07-12T08:37:33Z</time>
      </trkpt>
      <trkpt lat="51.177560035139322" lon="-1.781847020611167">
        <ele>74.640000000000001</ele>
        <time>2026-07-12T08:37:34Z</time>
      </trkpt>
      <trkpt lat="51.177623989060521" lon="-1.781791029497981">
        <ele>74.640000000000001</ele>
        <time>2026-07-12T08:37:35Z</time>
      </trkpt>
      <trkpt lat="51.177684003487229" lon="-1.781706959009171">
        <ele>74.640000000000001</ele>
        <time>2026-07-12T08:37:36Z</time>
      </trkpt>
      <trkpt lat="51.177738988772035" lon="-1.781602017581463">
        <ele>74.640000000000001</ele>
        <time>2026-07-12T08:37:37Z</time>
      </trkpt>
      <trkpt lat="51.177792968228459" lon="-1.781479977071285">
        <ele>75.120000000000005</ele>
        <time>2026-07-12T08:37:38Z</time>
      </trkpt>
      <trkpt lat="51.177811995148659" lon="-1.781375035643578">
        <ele>75.120000000000005</ele>
        <time>2026-07-12T08:37:39Z</time>
      </trkpt>
      <trkpt lat="51.177825992926955" lon="-1.781301023438573">
        <ele>75.120000000000005</ele>
        <time>2026-07-12T08:37:40Z</time>
      </trkpt>
      <trkpt lat="51.177833033725619" lon="-1.781261041760445">
        <ele>75.120000000000005</ele>
        <time>2026-07-12T08:37:41Z</time>
      </trkpt>
      <trkpt lat="51.177833033725619" lon="-1.781261041760445">
        <ele>75.120000000000005</ele>
        <time>2026-07-12T08:37:50Z</time>
      </trkpt>
      <trkpt lat="51.177795985713601" lon="-1.781005980446935">
        <ele>75.120000000000005</ele>
        <time>2026-07-12T08:37:54Z</time>
      </trkpt>
      <trkpt lat="51.177772013470531" lon="-1.780858039855957">
        <ele>74.640000000000001</ele>
        <time>2026-07-12T08:37:55Z</time>
      </trkpt>
      <trkpt lat="51.177721973508596" lon="-1.780494013801217">
        <ele>74.159999999999997</ele>
        <time>2026-07-12T08:37:57Z</time>
      </trkpt>
      <trkpt lat="51.177713004872203" lon="-1.780293015763164">
        <ele>74.159999999999997</ele>
        <time>2026-07-12T08:37:58Z</time>
      </trkpt>
      <trkpt lat="51.177739994600415" lon="-1.78007097914815">
        <ele>74.159999999999997</ele>
        <time>2026-07-12T08:37:59Z</time>
      </trkpt>
      <trkpt lat="51.177770001813769" lon="-1.779831005260348">
        <ele>74.640000000000001</ele>
        <time>2026-07-12T08:38:00Z</time>
      </trkpt>
      <trkpt lat="51.177801014855504" lon="-1.779570998623967">
        <ele>74.640000000000001</ele>
        <time>2026-07-12T08:38:01Z</time>
      </trkpt>
      <trkpt lat="51.178096979856491" lon="-1.777775008231401">
        <ele>75.120000000000005</ele>
        <time>2026-07-12T08:38:07Z</time>
      </trkpt>
      <trkpt lat="51.178622022271156" lon="-1.77474201656878">
        <ele>75.599999999999994</ele>
        <time>2026-07-12T08:38:16Z</time>
      </trkpt>
      <trkpt lat="51.178926033899188" lon="-1.77139101549983">
        <ele>78</ele>
        <time>2026-07-12T08:38:25Z</time>
      </trkpt>
      <trkpt lat="51.178743978962302" lon="-1.768653988838196">
        <ele>78</ele>
        <time>2026-07-12T08:38:32Z</time>
      </trkpt>
      <trkpt lat="51.178109971806407" lon="-1.764104962348938">
        <ele>75.599999999999994</ele>
        <time>2026-07-12T08:38:44Z</time>
      </trkpt>
      <trkpt lat="51.178000001236796" lon="-1.760381972417235">
        <ele>76.560000000000002</ele>
        <time>2026-07-12T08:38:53Z</time>
      </trkpt>
      <trkpt lat="51.178398979827762" lon="-1.755817020311952">
        <ele>88.099999999999994</ele>
        <time>2026-07-12T08:39:04Z</time>
      </trkpt>
      <trkpt lat="51.178826037794352" lon="-1.751567982137203">
        <ele>94.829999999999998</ele>
        <time>2026-07-12T08:39:14Z</time>
      </trkpt>
      <trkpt lat="51.179317971691489" lon="-1.7464670073241">
        <ele>98.670000000000002</ele>
        <time>2026-07-12T08:39:26Z</time>
      </trkpt>
      <trkpt lat="51.179814012721181" lon="-1.741293026134372">
        <ele>128.94999999999999</ele>
        <time>2026-07-12T08:39:44Z</time>
      </trkpt>
      <trkpt lat="51.180491019040346" lon="-1.734364964067936">
        <ele>149.62</ele>
        <time>2026-07-12T08:39:54Z</time>
      </trkpt>
      <trkpt lat="51.180949006229639" lon="-1.727855997160077">
        <ele>170.28999999999999</ele>
        <time>2026-07-12T08:40:09Z</time>
      </trkpt>
      <trkpt lat="51.181064005941153" lon="-1.719980025663972">
        <ele>167.88999999999999</ele>
        <time>2026-07-12T08:40:27Z</time>
      </trkpt>
      <trkpt lat="51.181342033669353" lon="-1.714738989248872">
        <ele>162.12</ele>
        <time>2026-07-12T08:40:39Z</time>
      </trkpt>
      <trkpt lat="51.182077964767814" lon="-1.710519036278129">
        <ele>150.58000000000001</ele>
        <time>2026-07-12T08:40:49Z</time>
      </trkpt>
      <trkpt lat="51.18335897102952" lon="-1.705729030072689">
        <ele>135.19999999999999</ele>
        <time>2026-07-12T08:41:01Z</time>
      </trkpt>
      <trkpt lat="51.185603979974985" lon="-1.697768988087773">
        <ele>118.86</ele>
        <time>2026-07-12T08:41:21Z</time>
      </trkpt>
      <trkpt lat="51.186799993738532" lon="-1.693391958251596">
        <ele>111.65000000000001</ele>
        <time>2026-07-12T08:41:32Z</time>
      </trkpt>
      <trkpt lat="51.18866597302258" lon="-1.686109006404877">
        <ele>101.08</ele>
        <time>2026-07-12T08:41:50Z</time>
      </trkpt>
      <trkpt lat="51.189914038404822" lon="-1.681285975500941">
        <ele>98.670000000000002</ele>
        <time>2026-07-12T08:42:02Z</time>
      </trkpt>
      <trkpt lat="51.191300991922617" lon="-1.675162995234132">
        <ele>100.59999999999999</ele>
        <time>2026-07-12T08:42:17Z</time>
      </trkpt>
      <trkpt lat="51.19238100014627" lon="-1.66886399500072">
        <ele>102.52</ele>
        <time>2026-07-12T08:42:32Z</time>
      </trkpt>
      <trkpt lat="51.193098993971944" lon="-1.66291200555861">
        <ele>105.40000000000001</ele>
        <time>2026-07-12T08:42:46Z</time>
      </trkpt>
      <trkpt lat="51.193576008081436" lon="-1.657352959737182">
        <ele>115.01000000000001</ele>
        <time>2026-07-12T08:42:59Z</time>
      </trkpt>
      <trkpt lat="51.19431403465569" lon="-1.652273023501039">
        <ele>129.43000000000001</ele>
        <time>2026-07-12T08:43:11Z</time>
      </trkpt>
      <trkpt lat="51.195262027904391" lon="-1.647715028375387">
        <ele>138.56999999999999</ele>
        <time>2026-07-12T08:43:22Z</time>
      </trkpt>
      <trkpt lat="51.19622896425426" lon="-1.642282968387008">
        <ele>144.81999999999999</ele>
        <time>2026-07-12T08:43:35Z</time>
      </trkpt>
      <trkpt lat="51.196905970573425" lon="-1.636629039421678">
        <ele>136.16</ele>
        <time>2026-07-12T08:43:48Z</time>
      </trkpt>
      <trkpt lat="51.197285000234842" lon="-1.630074977874756">
        <ele>117.90000000000001</ele>
        <time>2026-07-12T08:44:03Z</time>
      </trkpt>
      <trkpt lat="51.197703005746007" lon="-1.624906025826931">
        <ele>110.69</ele>
        <time>2026-07-12T08:44:15Z</time>
      </trkpt>
      <trkpt lat="51.198513032868505" lon="-1.619863975793123">
        <ele>104.44</ele>
        <time>2026-07-12T08:44:27Z</time>
      </trkpt>
      <trkpt lat="51.199852041900158" lon="-1.614631991833448">
        <ele>100.59999999999999</ele>
        <time>2026-07-12T08:44:40Z</time>
      </trkpt>
      <trkpt lat="51.201201025396585" lon="-1.60982396453619">
        <ele>96.75</ele>
        <time>2026-07-12T08:44:52Z</time>
      </trkpt>
      <trkpt lat="51.202658973634243" lon="-1.603723028674722">
        <ele>90.980000000000004</ele>
        <time>2026-07-12T08:45:07Z</time>
      </trkpt>
      <trkpt lat="51.204242985695601" lon="-1.596747022122145">
        <ele>89.540000000000006</ele>
        <time>2026-07-12T08:45:24Z</time>
      </trkpt>
      <trkpt lat="51.205247975885868" lon="-1.591736990958452">
        <ele>82.329999999999998</ele>
        <time>2026-07-12T08:45:36Z</time>
      </trkpt>
      <trkpt lat="51.206366959959269" lon="-1.58730598166585">
        <ele>79.450000000000003</ele>
        <time>2026-07-12T08:45:47Z</time>
      </trkpt>
      <trkpt lat="51.20763598009944" lon="-1.583461035043001">
        <ele>80.409999999999997</ele>
        <time>2026-07-12T08:45:57Z</time>
      </trkpt>
      <trkpt lat="51.209212029352784" lon="-1.578814024105668">
        <ele>78.480000000000004</ele>
        <time>2026-07-12T08:46:09Z</time>
      </trkpt>
      <trkpt lat="51.210853960365057" lon="-1.573818996548653">
        <ele>78.480000000000004</ele>
        <time>2026-07-12T08:46:22Z</time>
      </trkpt>
      <trkpt lat="51.212029019370675" lon="-1.568955983966589">
        <ele>86.659999999999997</ele>
        <time>2026-07-12T08:46:34Z</time>
      </trkpt>
      <trkpt lat="51.212794035673141" lon="-1.563817961141467">
        <ele>86.180000000000007</ele>
        <time>2026-07-12T08:46:46Z</time>
      </trkpt>
      <trkpt lat="51.21345603838563" lon="-1.558710029348731">
        <ele>84.25</ele>
        <time>2026-07-12T08:46:58Z</time>
      </trkpt>
      <trkpt lat="51.214088033884764" lon="-1.551822032779455">
        <ele>93.390000000000001</ele>
        <time>2026-07-12T08:47:14Z</time>
      </trkpt>
      <trkpt lat="51.214399002492428" lon="-1.545736016705632">
        <ele>92.420000000000002</ele>
        <time>2026-07-12T08:47:28Z</time>
      </trkpt>
      <trkpt lat="51.214399002492428" lon="-1.539610018953681">
        <ele>90.5</ele>
        <time>2026-07-12T08:47:42Z</time>
      </trkpt>
      <trkpt lat="51.214063977822661" lon="-1.532632000744343">
        <ele>87.620000000000005</ele>
        <time>2026-07-12T08:47:58Z</time>
      </trkpt>
      <trkpt lat="51.213355036452413" lon="-1.52575196698308">
        <ele>84.25</ele>
        <time>2026-07-12T08:48:14Z</time>
      </trkpt>
      <trkpt lat="51.212403019890189" lon="-1.521211992949247">
        <ele>81.849999999999994</ele>
        <time>2026-07-12T08:48:25Z</time>
      </trkpt>
      <trkpt lat="51.21133198030293" lon="-1.518674036487937">
        <ele>79.930000000000007</ele>
        <time>2026-07-12T08:48:32Z</time>
      </trkpt>
      <trkpt lat="51.209771018475294" lon="-1.516367001459003">
        <ele>78.480000000000004</ele>
        <time>2026-07-12T08:48:40Z</time>
      </trkpt>
      <trkpt lat="51.20797703973949" lon="-1.514475038275123">
        <ele>82.329999999999998</ele>
        <time>2026-07-12T08:48:49Z</time>
      </trkpt>
      <trkpt lat="51.205518040806055" lon="-1.512698996812105">
        <ele>85.689999999999998</ele>
        <time>2026-07-12T08:49:00Z</time>
      </trkpt>
      <trkpt lat="51.203726995736361" lon="-1.511206012219191">
        <ele>81.370000000000005</ele>
        <time>2026-07-12T08:49:08Z</time>
      </trkpt>
      <trkpt lat="51.202038964256644" lon="-1.508956979960203">
        <ele>72.719999999999999</ele>
        <time>2026-07-12T08:49:16Z</time>
      </trkpt>
      <trkpt lat="51.200840016826987" lon="-1.506497981026769">
        <ele>66.469999999999999</ele>
        <time>2026-07-12T08:49:23Z</time>
      </trkpt>
      <trkpt lat="51.199848018586636" lon="-1.503430958837271">
        <ele>68.870000000000005</ele>
        <time>2026-07-12T08:49:31Z</time>
      </trkpt>
      <trkpt lat="51.197995031252503" lon="-1.497075967490673">
        <ele>69.349999999999994</ele>
        <time>2026-07-12T08:49:47Z</time>
      </trkpt>
      <trkpt lat="51.196614028885961" lon="-1.492283027619124">
        <ele>57.82</ele>
        <time>2026-07-12T08:49:59Z</time>
      </trkpt>
      <trkpt lat="51.195034040138125" lon="-1.486681988462806">
        <ele>63.100000000000001</ele>
        <time>2026-07-12T08:50:13Z</time>
      </trkpt>
      <trkpt lat="51.194634977728128" lon="-1.483656037598848">
        <ele>69.829999999999998</ele>
        <time>2026-07-12T08:50:20Z</time>
      </trkpt>
      <trkpt lat="51.194745032116771" lon="-1.480605024844408">
        <ele>76.560000000000002</ele>
        <time>2026-07-12T08:50:27Z</time>
      </trkpt>
      <trkpt lat="51.195205030962825" lon="-1.478100009262562">
        <ele>84.730000000000004</ele>
        <time>2026-07-12T08:50:33Z</time>
      </trkpt>
      <trkpt lat="51.196558959782124" lon="-1.472308030351996">
        <ele>106.84</ele>
        <time>2026-07-12T08:50:47Z</time>
      </trkpt>
      <trkpt lat="51.197746004909277" lon="-1.46729095838964">
        <ele>120.3</ele>
        <time>2026-07-12T08:50:59Z</time>
      </trkpt>
      <trkpt lat="51.199305038899183" lon="-1.460589040070772">
        <ele>111.65000000000001</ele>
        <time>2026-07-12T08:51:15Z</time>
      </trkpt>
      <trkpt lat="51.20022595860064" lon="-1.455928031355143">
        <ele>106.36</ele>
        <time>2026-07-12T08:51:26Z</time>
      </trkpt>
      <trkpt lat="51.200560983270407" lon="-1.451571034267545">
        <ele>106.84</ele>
        <time>2026-07-12T08:51:36Z</time>
      </trkpt>
      <trkpt lat="51.200475990772247" lon="-1.44709300249815">
        <ele>103.95999999999999</ele>
        <time>2026-07-12T08:51:46Z</time>
      </trkpt>
      <trkpt lat="51.199897974729538" lon="-1.442730976268649">
        <ele>93.870000000000005</ele>
        <time>2026-07-12T08:51:56Z</time>
      </trkpt>
      <trkpt lat="51.198556032031775" lon="-1.43549001775682">
        <ele>78.969999999999999</ele>
        <time>2026-07-12T08:52:13Z</time>
      </trkpt>
      <trkpt lat="51.197462026029825" lon="-1.429570969194174">
        <ele>74.159999999999997</ele>
        <time>2026-07-12T08:52:27Z</time>
      </trkpt>
      <trkpt lat="51.196605982258916" lon="-1.426296997815371">
        <ele>69.829999999999998</ele>
        <time>2026-07-12T08:52:35Z</time>
      </trkpt>
      <trkpt lat="51.195235960185528" lon="-1.423467015847564">
        <ele>64.069999999999993</ele>
        <time>2026-07-12T08:52:43Z</time>
      </trkpt>
      <trkpt lat="51.193469977006316" lon="-1.421285038813949">
        <ele>59.259999999999998</ele>
        <time>2026-07-12T08:52:51Z</time>
      </trkpt>
      <trkpt lat="51.191425966098905" lon="-1.418371992185712">
        <ele>63.100000000000001</ele>
        <time>2026-07-12T08:53:01Z</time>
      </trkpt>
      <trkpt lat="51.189486980438232" lon="-1.41452101059258">
        <ele>63.579999999999998</ele>
        <time>2026-07-12T08:53:12Z</time>
      </trkpt>
      <trkpt lat="51.188161969184875" lon="-1.411296995356679">
        <ele>57.340000000000003</ele>
        <time>2026-07-12T08:53:21Z</time>
      </trkpt>
      <trkpt lat="51.187323024496436" lon="-1.409014016389847">
        <ele>55.890000000000001</ele>
        <time>2026-07-12T08:53:28Z</time>
      </trkpt>
      <trkpt lat="51.186002036556602" lon="-1.405199998989701">
        <ele>52.530000000000001</ele>
        <time>2026-07-12T08:53:38Z</time>
      </trkpt>
      <trkpt lat="51.184380976483226" lon="-1.401559989899397">
        <ele>51.57</ele>
        <time>2026-07-12T08:53:48Z</time>
      </trkpt>
      <trkpt lat="51.18301497772336" lon="-1.39821301214397">
        <ele>49.649999999999999</ele>
        <time>2026-07-12T08:53:57Z</time>
      </trkpt>
      <trkpt lat="51.182461017742753" lon="-1.39531304128468">
        <ele>55.890000000000001</ele>
        <time>2026-07-12T08:54:04Z</time>
      </trkpt>
      <trkpt lat="51.182417012751102" lon="-1.392246019095182">
        <ele>64.069999999999993</ele>
        <time>2026-07-12T08:54:11Z</time>
      </trkpt>
      <trkpt lat="51.182580962777138" lon="-1.389156030490995">
        <ele>68.870000000000005</ele>
        <time>2026-07-12T08:54:18Z</time>
      </trkpt>
      <trkpt lat="51.182388011366129" lon="-1.384730972349644">
        <ele>70.790000000000006</ele>
        <time>2026-07-12T08:54:28Z</time>
      </trkpt>
      <trkpt lat="51.181690972298384" lon="-1.379911964759231">
        <ele>65.510000000000005</ele>
        <time>2026-07-12T08:54:39Z</time>
      </trkpt>
      <trkpt lat="51.180977001786232" lon="-1.37516101822257">
        <ele>56.859999999999999</ele>
        <time>2026-07-12T08:54:50Z</time>
      </trkpt>
      <trkpt lat="51.180436033755541" lon="-1.371269971132278">
        <ele>52.530000000000001</ele>
        <time>2026-07-12T08:54:59Z</time>
      </trkpt>
      <trkpt lat="51.179679986089468" lon="-1.367082959040999">
        <ele>60.700000000000003</ele>
        <time>2026-07-12T08:55:09Z</time>
      </trkpt>
      <trkpt lat="51.178462011739612" lon="-1.361603960394859">
        <ele>63.579999999999998</ele>
        <time>2026-07-12T08:55:22Z</time>
      </trkpt>
      <trkpt lat="51.177359037101269" lon="-1.356089003384113">
        <ele>63.100000000000001</ele>
        <time>2026-07-12T08:55:35Z</time>
      </trkpt>
      <trkpt lat="51.176752019673586" lon="-1.351345013827086">
        <ele>68.870000000000005</ele>
        <time>2026-07-12T08:55:46Z</time>
      </trkpt>
      <trkpt lat="51.176396962255239" lon="-1.347354976460338">
        <ele>70.790000000000006</ele>
        <time>2026-07-12T08:55:55Z</time>
      </trkpt>
      <trkpt lat="51.175705036148429" lon="-1.342634037137032">
        <ele>73.680000000000007</ele>
        <time>2026-07-12T08:56:06Z</time>
      </trkpt>
      <trkpt lat="51.175111010670662" lon="-1.33874399587512">
        <ele>76.079999999999998</ele>
        <time>2026-07-12T08:56:15Z</time>
      </trkpt>
      <trkpt lat="51.175092989578843" lon="-1.335648978129029">
        <ele>76.079999999999998</ele>
        <time>2026-07-12T08:56:22Z</time>
      </trkpt>
      <trkpt lat="51.175564974546432" lon="-1.332634007558227">
        <ele>74.640000000000001</ele>
        <time>2026-07-12T08:56:29Z</time>
      </trkpt>
      <trkpt lat="51.176376007497311" lon="-1.328320009633899">
        <ele>67.909999999999997</ele>
        <time>2026-07-12T08:56:39Z</time>
      </trkpt>
      <trkpt lat="51.176938014104962" lon="-1.324544968083501">
        <ele>69.349999999999994</ele>
        <time>2026-07-12T08:56:48Z</time>
      </trkpt>
      <trkpt lat="51.177471019327641" lon="-1.320213032886386">
        <ele>83.769999999999996</ele>
        <time>2026-07-12T08:56:58Z</time>
      </trkpt>
      <trkpt lat="51.177973011508584" lon="-1.315324036404491">
        <ele>85.689999999999998</ele>
        <time>2026-07-12T08:57:09Z</time>
      </trkpt>
      <trkpt lat="51.17828699760139" lon="-1.311367023736239">
        <ele>78.969999999999999</ele>
        <time>2026-07-12T08:57:18Z</time>
      </trkpt>
      <trkpt lat="51.178706008940935" lon="-1.30610796622932">
        <ele>78.480000000000004</ele>
        <time>2026-07-12T08:57:30Z</time>
      </trkpt>
      <trkpt lat="51.179042039439082" lon="-1.301769996061921">
        <ele>86.659999999999997</ele>
        <time>2026-07-12T08:57:40Z</time>
      </trkpt>
      <trkpt lat="51.179599016904831" lon="-1.29600903019309">
        <ele>92.900000000000006</ele>
        <time>2026-07-12T08:57:53Z</time>
      </trkpt>
      <trkpt lat="51.180425975471735" lon="-1.290386030450463">
        <ele>93.870000000000005</ele>
        <time>2026-07-12T08:58:06Z</time>
      </trkpt>
      <trkpt lat="51.18140297010541" lon="-1.285344986245036">
        <ele>100.59999999999999</ele>
        <time>2026-07-12T08:58:18Z</time>
      </trkpt>
      <trkpt lat="51.182493036612868" lon="-1.280333027243614">
        <ele>109.73</ele>
        <time>2026-07-12T08:58:30Z</time>
      </trkpt>
      <trkpt lat="51.183718973770738" lon="-1.277373963966966">
        <ele>118.86</ele>
        <time>2026-07-12T08:58:38Z</time>
      </trkpt>
      <trkpt lat="51.185110034421086" lon="-1.275229034945369">
        <ele>125.11</ele>
        <time>2026-07-12T08:58:45Z</time>
      </trkpt>
      <trkpt lat="51.187598034739494" lon="-1.272363010793924">
        <ele>130.88</ele>
        <time>2026-07-12T08:58:56Z</time>
      </trkpt>
      <trkpt lat="51.18909596465528" lon="-1.269738972187042">
        <ele>131.36000000000001</ele>
        <time>2026-07-12T08:59:04Z</time>
      </trkpt>
      <trkpt lat="51.190138002857566" lon="-1.26659600995481">
        <ele>133.75999999999999</ele>
        <time>2026-07-12T08:59:12Z</time>
      </trkpt>
      <trkpt lat="51.190676037222147" lon="-1.263149036094546">
        <ele>137.61000000000001</ele>
        <time>2026-07-12T08:59:20Z</time>
      </trkpt>
      <trkpt lat="51.190711995586753" lon="-1.260052006691694">
        <ele>140.00999999999999</ele>
        <time>2026-07-12T08:59:27Z</time>
      </trkpt>
      <trkpt lat="51.190308993682265" lon="-1.256136987358332">
        <ele>145.30000000000001</ele>
        <time>2026-07-12T08:59:36Z</time>
      </trkpt>
      <trkpt lat="51.190144959837198" lon="-1.252168994396925">
        <ele>151.06</ele>
        <time>2026-07-12T08:59:45Z</time>
      </trkpt>
      <trkpt lat="51.190498005598783" lon="-1.24865697696805">
        <ele>154.43000000000001</ele>
        <time>2026-07-12T08:59:53Z</time>
      </trkpt>
      <trkpt lat="51.191401993855834" lon="-1.243549967184663">
        <ele>159.24000000000001</ele>
        <time>2026-07-12T09:00:05Z</time>
      </trkpt>
      <trkpt lat="51.192307993769646" lon="-1.238856017589569">
        <ele>164.52000000000001</ele>
        <time>2026-07-12T09:00:16Z</time>
      </trkpt>
      <trkpt lat="51.193511970341206" lon="-1.23247898183763">
        <ele>168.37</ele>
        <time>2026-07-12T09:00:31Z</time>
      </trkpt>
      <trkpt lat="51.194530036300421" lon="-1.227444978430867">
        <ele>179.41999999999999</ele>
        <time>2026-07-12T09:00:43Z</time>
      </trkpt>
      <trkpt lat="51.195768965408206" lon="-1.223404984921217">
        <ele>178.46000000000001</ele>
        <time>2026-07-12T09:00:53Z</time>
      </trkpt>
      <trkpt lat="51.196934971958399" lon="-1.218843972310424">
        <ele>172.69</ele>
        <time>2026-07-12T09:01:04Z</time>
      </trkpt>
      <trkpt lat="51.198244979605079" lon="-1.213434962555766">
        <ele>164.03999999999999</ele>
        <time>2026-07-12T09:01:17Z</time>
      </trkpt>
      <trkpt lat="51.199553981423378" lon="-1.208086973056197">
        <ele>157.31</ele>
        <time>2026-07-12T09:01:30Z</time>
      </trkpt>
      <trkpt lat="51.200451012700796" lon="-1.203856961801648">
        <ele>152.50999999999999</ele>
        <time>2026-07-12T09:01:40Z</time>
      </trkpt>
      <trkpt lat="51.201269002631307" lon="-1.199137028306723">
        <ele>148.66</ele>
        <time>2026-07-12T09:01:51Z</time>
      </trkpt>
      <trkpt lat="51.202162010595202" lon="-1.19397696107626">
        <ele>142.88999999999999</ele>
        <time>2026-07-12T09:02:03Z</time>
      </trkpt>
      <trkpt lat="51.202886961400509" lon="-1.190136037766933">
        <ele>139.05000000000001</ele>
        <time>2026-07-12T09:02:12Z</time>
      </trkpt>
      <trkpt lat="51.203792039304972" lon="-1.187433963641524">
        <ele>138.09</ele>
        <time>2026-07-12T09:02:19Z</time>
      </trkpt>
      <trkpt lat="51.205247975885868" lon="-1.184751000255346">
        <ele>138.09</ele>
        <time>2026-07-12T09:02:27Z</time>
      </trkpt>
      <trkpt lat="51.20812900364399" lon="-1.179897962138057">
        <ele>137.13</ele>
        <time>2026-07-12T09:02:42Z</time>
      </trkpt>
      <trkpt lat="51.210384992882609" lon="-1.175997024402022">
        <ele>141.93000000000001</ele>
        <time>2026-07-12T09:02:54Z</time>
      </trkpt>
      <trkpt lat="51.212680041790009" lon="-1.172137996181846">
        <ele>144.81999999999999</ele>
        <time>2026-07-12T09:03:06Z</time>
      </trkpt>
      <trkpt lat="51.214865958318114" lon="-1.168273016810417">
        <ele>148.18000000000001</ele>
        <time>2026-07-12T09:03:18Z</time>
      </trkpt>
      <trkpt lat="51.216683993116021" lon="-1.164384987205267">
        <ele>150.58000000000001</ele>
        <time>2026-07-12T09:03:29Z</time>
      </trkpt>
      <trkpt lat="51.218666983768344" lon="-1.159016964957118">
        <ele>152.50999999999999</ele>
        <time>2026-07-12T09:03:43Z</time>
      </trkpt>
      <trkpt lat="51.21958295814693" lon="-1.155739976093173">
        <ele>152.50999999999999</ele>
        <time>2026-07-12T09:03:51Z</time>
      </trkpt>
      <trkpt lat="51.220950968563557" lon="-1.150386035442352">
        <ele>152.50999999999999</ele>
        <time>2026-07-12T09:04:04Z</time>
      </trkpt>
      <trkpt lat="51.222323002293706" lon="-1.145004015415907">
        <ele>157.31</ele>
        <time>2026-07-12T09:04:17Z</time>
      </trkpt>
      <trkpt lat="51.223839037120342" lon="-1.139300968497992">
        <ele>165</ele>
        <time>2026-07-12T09:04:31Z</time>
      </trkpt>
      <trkpt lat="51.225596973672509" lon="-1.134296972304583">
        <ele>171.25</ele>
        <time>2026-07-12T09:04:44Z</time>
      </trkpt>
      <trkpt lat="51.227714996784925" lon="-1.129625989124179">
        <ele>173.16999999999999</ele>
        <time>2026-07-12T09:04:57Z</time>
      </trkpt>
      <trkpt lat="51.229804018512368" lon="-1.125393966212869">
        <ele>170.77000000000001</ele>
        <time>2026-07-12T09:05:09Z</time>
      </trkpt>
      <trkpt lat="51.232269974425435" lon="-1.120541011914611">
        <ele>155.87</ele>
        <time>2026-07-12T09:05:23Z</time>
      </trkpt>
      <trkpt lat="51.234916979447007" lon="-1.115331994369626">
        <ele>141.44999999999999</ele>
        <time>2026-07-12T09:05:38Z</time>
      </trkpt>
      <trkpt lat="51.237335996702313" lon="-1.110470993444324">
        <ele>129.91999999999999</ele>
        <time>2026-07-12T09:05:52Z</time>
      </trkpt>
      <trkpt lat="51.239339020103216" lon="-1.106201000511646">
        <ele>121.26000000000001</ele>
        <time>2026-07-12T09:06:04Z</time>
      </trkpt>
      <trkpt lat="51.241807993501425" lon="-1.100843036547303">
        <ele>122.70999999999999</ele>
        <time>2026-07-12T09:06:19Z</time>
      </trkpt>
      <trkpt lat="51.244457010179758" lon="-1.095054997131228">
        <ele>118.38</ele>
        <time>2026-07-12T09:06:35Z</time>
      </trkpt>
      <trkpt lat="51.246922966092825" lon="-1.089645987376571">
        <ele>109.73</ele>
        <time>2026-07-12T09:06:50Z</time>
      </trkpt>
      <trkpt lat="51.248889025300741" lon="-1.085330983623862">
        <ele>103</ele>
        <time>2026-07-12T09:07:02Z</time>
      </trkpt>
      <trkpt lat="51.251506023108959" lon="-1.079596001654863">
        <ele>98.670000000000002</ele>
        <time>2026-07-12T09:07:18Z</time>
      </trkpt>
      <trkpt lat="51.253473004326224" lon="-1.075268005952239">
        <ele>97.230000000000004</ele>
        <time>2026-07-12T09:07:30Z</time>
      </trkpt>
      <trkpt lat="51.255919011309743" lon="-1.069850027561188">
        <ele>95.790000000000006</ele>
        <time>2026-07-12T09:07:45Z</time>
      </trkpt>
      <trkpt lat="51.257972996681929" lon="-1.065104026347399">
        <ele>92.420000000000002</ele>
        <time>2026-07-12T09:07:58Z</time>
      </trkpt>
      <trkpt lat="51.259365985170007" lon="-1.060780975967646">
        <ele>91.459999999999994</ele>
        <time>2026-07-12T09:08:09Z</time>
      </trkpt>
      <trkpt lat="51.260616984218359" lon="-1.055356962606311">
        <ele>90.980000000000004</ele>
        <time>2026-07-12T09:08:22Z</time>
      </trkpt>
      <trkpt lat="51.261270018294454" lon="-1.050580032169819">
        <ele>86.659999999999997</ele>
        <time>2026-07-12T09:08:33Z</time>
      </trkpt>
      <trkpt lat="51.261662961915135" lon="-1.044803978875279">
        <ele>83.769999999999996</ele>
        <time>2026-07-12T09:08:46Z</time>
      </trkpt>
      <trkpt lat="51.261858008801937" lon="-1.041673002764583">
        <ele>80.409999999999997</ele>
        <time>2026-07-12T09:08:53Z</time>
      </trkpt>
      <trkpt lat="51.261890027672052" lon="-1.041220966726542">
        <ele>79.930000000000007</ele>
        <time>2026-07-12T09:08:54Z</time>
      </trkpt>
      <trkpt lat="51.262337034568191" lon="-1.036401959136128">
        <ele>77.519999999999996</ele>
        <time>2026-07-12T09:09:05Z</time>
      </trkpt>
      <trkpt lat="51.263120993971825" lon="-1.030778959393501">
        <ele>75.120000000000005</ele>
        <time>2026-07-12T09:09:18Z</time>
      </trkpt>
      <trkpt lat="51.264020036906004" lon="-1.026071012020111">
        <ele>74.159999999999997</ele>
        <time>2026-07-12T09:09:29Z</time>
      </trkpt>
      <trkpt lat="51.265029972419143" lon="-1.020956039428711">
        <ele>72.719999999999999</ele>
        <time>2026-07-12T09:09:41Z</time>
      </trkpt>
      <trkpt lat="51.265874030068517" lon="-1.015832014381886">
        <ele>72.239999999999995</ele>
        <time>2026-07-12T09:09:53Z</time>
      </trkpt>
      <trkpt lat="51.266621025279164" lon="-1.009713979437947">
        <ele>73.200000000000003</ele>
        <time>2026-07-12T09:10:07Z</time>
      </trkpt>
      <trkpt lat="51.267140032723546" lon="-1.003543976694346">
        <ele>74.640000000000001</ele>
        <time>2026-07-12T09:10:21Z</time>
      </trkpt>
      <trkpt lat="51.26742996275425" lon="-0.996949011459947">
        <ele>78</ele>
        <time>2026-07-12T09:10:36Z</time>
      </trkpt>
      <trkpt lat="51.267437003552914" lon="-0.989405969157815">
        <ele>88.579999999999998</ele>
        <time>2026-07-12T09:10:53Z</time>
      </trkpt>
      <trkpt lat="51.267547979950905" lon="-0.982279004529119">
        <ele>101.08</ele>
        <time>2026-07-12T09:11:09Z</time>
      </trkpt>
      <trkpt lat="51.267972020432353" lon="-0.976943001151085">
        <ele>103.48</ele>
        <time>2026-07-12T09:11:21Z</time>
      </trkpt>
      <trkpt lat="51.268771989271045" lon="-0.971246995031834">
        <ele>99.150000000000006</ele>
        <time>2026-07-12T09:11:34Z</time>
      </trkpt>
      <trkpt lat="51.269888039678335" lon="-0.965741006657481">
        <ele>88.579999999999998</ele>
        <time>2026-07-12T09:11:47Z</time>
      </trkpt>
      <trkpt lat="51.271191006526351" lon="-0.960842035710812">
        <ele>82.810000000000002</ele>
        <time>2026-07-12T09:11:59Z</time>
      </trkpt>
      <trkpt lat="51.272149980068207" lon="-0.957119967788458">
        <ele>80.409999999999997</ele>
        <time>2026-07-12T09:12:08Z</time>
      </trkpt>
      <trkpt lat="51.273579010739923" lon="-0.9504209831357">
        <ele>76.560000000000002</ele>
        <time>2026-07-12T09:12:24Z</time>
      </trkpt>
      <trkpt lat="51.274380991235375" lon="-0.945677999407053">
        <ele>70.310000000000002</ele>
        <time>2026-07-12T09:12:35Z</time>
      </trkpt>
      <trkpt lat="51.275441972538829" lon="-0.939703965559602">
        <ele>68.870000000000005</ele>
        <time>2026-07-12T09:12:49Z</time>
      </trkpt>
      <trkpt lat="51.276675034314394" lon="-0.934741962701082">
        <ele>72.239999999999995</ele>
        <time>2026-07-12T09:13:01Z</time>
      </trkpt>
      <trkpt lat="51.278066011145711" lon="-0.930385971441865">
        <ele>77.040000000000006</ele>
        <time>2026-07-12T09:13:12Z</time>
      </trkpt>
      <trkpt lat="51.280003990978003" lon="-0.925534022971988">
        <ele>80.409999999999997</ele>
        <time>2026-07-12T09:13:25Z</time>
      </trkpt>
      <trkpt lat="51.281859995797276" lon="-0.921692010015249">
        <ele>85.689999999999998</ele>
        <time>2026-07-12T09:13:36Z</time>
      </trkpt>
      <trkpt lat="51.283057015389204" lon="-0.919554037973285">
        <ele>90.5</ele>
        <time>2026-07-12T09:13:42Z</time>
      </trkpt>
      <trkpt lat="51.284214975312352" lon="-0.917645981535316">
        <ele>96.75</ele>
        <time>2026-07-12T09:13:48Z</time>
      </trkpt>
      <trkpt lat="51.286009037867188" lon="-0.914443004876375">
        <ele>100.59999999999999</ele>
        <time>2026-07-12T09:13:58Z</time>
      </trkpt>
      <trkpt lat="51.28745298832655" lon="-0.910708028823137">
        <ele>97.230000000000004</ele>
        <time>2026-07-12T09:14:08Z</time>
      </trkpt>
      <trkpt lat="51.288344990462065" lon="-0.907029965892434">
        <ele>89.540000000000006</ele>
        <time>2026-07-12T09:14:17Z</time>
      </trkpt>
      <trkpt lat="51.289206985384226" lon="-0.901468992233276">
        <ele>77.040000000000006</ele>
        <time>2026-07-12T09:14:30Z</time>
      </trkpt>
      <trkpt lat="51.289979964494705" lon="-0.896397018805146">
        <ele>71.269999999999996</ele>
        <time>2026-07-12T09:14:42Z</time>
      </trkpt>
      <trkpt lat="51.290818993002176" lon="-0.890853982418776">
        <ele>64.549999999999997</ele>
        <time>2026-07-12T09:14:55Z</time>
      </trkpt>
      <trkpt lat="51.291801016777754" lon="-0.884397989138961">
        <ele>65.510000000000005</ele>
        <time>2026-07-12T09:15:10Z</time>
      </trkpt>
      <trkpt lat="51.293036006391048" lon="-0.87616603821516">
        <ele>71.760000000000005</ele>
        <time>2026-07-12T09:15:29Z</time>
      </trkpt>
      <trkpt lat="51.29409103654325" lon="-0.869249040260911">
        <ele>75.120000000000005</ele>
        <time>2026-07-12T09:15:45Z</time>
      </trkpt>
      <trkpt lat="51.295067025348544" lon="-0.862719034776092">
        <ele>74.159999999999997</ele>
        <time>2026-07-12T09:16:00Z</time>
      </trkpt>
      <trkpt lat="51.295916028320789" lon="-0.857083965092897">
        <ele>68.390000000000001</ele>
        <time>2026-07-12T09:16:13Z</time>
      </trkpt>
      <trkpt lat="51.296744998544455" lon="-0.851469011977315">
        <ele>64.549999999999997</ele>
        <time>2026-07-12T09:16:26Z</time>
      </trkpt>
      <trkpt lat="51.297183958813548" lon="-0.848361002281308">
        <ele>63.100000000000001</ele>
        <time>2026-07-12T09:16:34Z</time>
      </trkpt>
      <trkpt lat="51.297554019838572" lon="-0.845797983929515">
        <ele>62.619999999999997</ele>
        <time>2026-07-12T09:16:41Z</time>
      </trkpt>
      <trkpt lat="51.298032039776444" lon="-0.842126039788127">
        <ele>63.579999999999998</ele>
        <time>2026-07-12T09:16:49Z</time>
      </trkpt>
      <trkpt lat="51.298403022810817" lon="-0.839210981503129">
        <ele>64.069999999999993</ele>
        <time>2026-07-12T09:16:56Z</time>
      </trkpt>
      <trkpt lat="51.299133002758026" lon="-0.833055982366204">
        <ele>62.619999999999997</ele>
        <time>2026-07-12T09:17:10Z</time>
      </trkpt>
      <trkpt lat="51.299813026562333" lon="-0.826456993818283">
        <ele>59.259999999999998</ele>
        <time>2026-07-12T09:17:25Z</time>
      </trkpt>
      <trkpt lat="51.300485003739595" lon="-0.819374034181237">
        <ele>57.82</ele>
        <time>2026-07-12T09:17:41Z</time>
      </trkpt>
      <trkpt lat="51.301192017272115" lon="-0.811469983309507">
        <ele>58.299999999999997</ele>
        <time>2026-07-12T09:17:59Z</time>
      </trkpt>
      <trkpt lat="51.301752012223005" lon="-0.805304003879428">
        <ele>58.780000000000001</ele>
        <time>2026-07-12T09:18:13Z</time>
      </trkpt>
      <trkpt lat="51.302145961672068" lon="-0.800898978486657">
        <ele>59.740000000000002</ele>
        <time>2026-07-12T09:18:23Z</time>
      </trkpt>
      <trkpt lat="51.302637979388237" lon="-0.795186040922999">
        <ele>65.030000000000001</ele>
        <time>2026-07-12T09:18:36Z</time>
      </trkpt>
      <trkpt lat="51.303214989602566" lon="-0.789909968152642">
        <ele>68.870000000000005</ele>
        <time>2026-07-12T09:18:48Z</time>
      </trkpt>
      <trkpt lat="51.304048988968134" lon="-0.78612101264298">
        <ele>67.430000000000007</ele>
        <time>2026-07-12T09:18:57Z</time>
      </trkpt>
      <trkpt lat="51.305291019380093" lon="-0.782625004649162">
        <ele>65.510000000000005</ele>
        <time>2026-07-12T09:19:06Z</time>
      </trkpt>
      <trkpt lat="51.307619009166956" lon="-0.777640035375953">
        <ele>65.030000000000001</ele>
        <time>2026-07-12T09:19:20Z</time>
      </trkpt>
      <trkpt lat="51.309293964877725" lon="-0.774076972156763">
        <ele>65.989999999999995</ele>
        <time>2026-07-12T09:19:30Z</time>
      </trkpt>
      <trkpt lat="51.311805015429854" lon="-0.768751027062535">
        <ele>62.140000000000001</ele>
        <time>2026-07-12T09:19:45Z</time>
      </trkpt>
      <trkpt lat="51.31418296135962" lon="-0.763272028416395">
        <ele>66.950000000000003</ele>
        <time>2026-07-12T09:20:00Z</time>
      </trkpt>
      <trkpt lat="51.315994961187243" lon="-0.758228972554207">
        <ele>70.790000000000006</ele>
        <time>2026-07-12T09:20:13Z</time>
      </trkpt>
      <trkpt lat="51.317557012662292" lon="-0.753538040444255">
        <ele>71.269999999999996</ele>
        <time>2026-07-12T09:20:25Z</time>
      </trkpt>
      <trkpt lat="51.319483006373048" lon="-0.748638985678554">
        <ele>71.760000000000005</ele>
        <time>2026-07-12T09:20:38Z</time>
      </trkpt>
      <trkpt lat="51.321795992553234" lon="-0.743605988100171">
        <ele>73.680000000000007</ele>
        <time>2026-07-12T09:20:52Z</time>
      </trkpt>
      <trkpt lat="51.323927007615566" lon="-0.739453006535769">
        <ele>75.599999999999994</ele>
        <time>2026-07-12T09:21:04Z</time>
      </trkpt>
      <trkpt lat="51.326163969933987" lon="-0.735492976382375">
        <ele>77.040000000000006</ele>
        <time>2026-07-12T09:21:16Z</time>
      </trkpt>
      <trkpt lat="51.328680971637368" lon="-0.731339994817972">
        <ele>78.480000000000004</ele>
        <time>2026-07-12T09:21:29Z</time>
      </trkpt>
      <trkpt lat="51.331597035750747" lon="-0.726560968905687">
        <ele>83.290000000000006</ele>
        <time>2026-07-12T09:21:44Z</time>
      </trkpt>
      <trkpt lat="51.334451995790005" lon="-0.721651017665863">
        <ele>86.659999999999997</ele>
        <time>2026-07-12T09:21:59Z</time>
      </trkpt>
      <trkpt lat="51.336328033357859" lon="-0.718364976346493">
        <ele>94.829999999999998</ele>
        <time>2026-07-12T09:22:09Z</time>
      </trkpt>
      <trkpt lat="51.337745999917388" lon="-0.715805981308222">
        <ele>99.150000000000006</ele>
        <time>2026-07-12T09:22:18Z</time>
      </trkpt>
      <trkpt lat="51.339279972016811" lon="-0.712955966591835">
        <ele>102.04000000000001</ele>
        <time>2026-07-12T09:22:27Z</time>
      </trkpt>
      <trkpt lat="51.34129598736763" lon="-0.709257032722235">
        <ele>109.73</ele>
        <time>2026-07-12T09:22:38Z</time>
      </trkpt>
      <trkpt lat="51.343491040170193" lon="-0.705773010849953">
        <ele>111.65000000000001</ele>
        <time>2026-07-12T09:22:49Z</time>
      </trkpt>
      <trkpt lat="51.345947021618485" lon="-0.702787041664124">
        <ele>107.31999999999999</ele>
        <time>2026-07-12T09:23:00Z</time>
      </trkpt>
      <trkpt lat="51.348411971703172" lon="-0.69983996450901">
        <ele>98.670000000000002</ele>
        <time>2026-07-12T09:23:11Z</time>
      </trkpt>
      <trkpt lat="51.349829016253352" lon="-0.697077959775925">
        <ele>91.939999999999998</ele>
        <time>2026-07-12T09:23:19Z</time>
      </trkpt>
      <trkpt lat="51.351154027506709" lon="-0.693137040361762">
        <ele>83.290000000000006</ele>
        <time>2026-07-12T09:23:29Z</time>
      </trkpt>
      <trkpt lat="51.353054037317634" lon="-0.687707997858524">
        <ele>72.239999999999995</ele>
        <time>2026-07-12T09:23:43Z</time>
      </trkpt>
      <trkpt lat="51.355004003271461" lon="-0.682816989719868">
        <ele>62.140000000000001</ele>
        <time>2026-07-12T09:23:56Z</time>
      </trkpt>
      <trkpt lat="51.356609975919127" lon="-0.679116966202855">
        <ele>60.700000000000003</ele>
        <time>2026-07-12T09:24:06Z</time>
      </trkpt>
      <trkpt lat="51.357772964984179" lon="-0.675595980137587">
        <ele>58.299999999999997</ele>
        <time>2026-07-12T09:24:15Z</time>
      </trkpt>
      <trkpt lat="51.358644012361765" lon="-0.671394970268011">
        <ele>54.93</ele>
        <time>2026-07-12T09:24:25Z</time>
      </trkpt>
      <trkpt lat="51.358953975141048" lon="-0.667406022548676">
        <ele>53.969999999999999</ele>
        <time>2026-07-12T09:24:34Z</time>
      </trkpt>
      <trkpt lat="51.35885096155107" lon="-0.663431994616985">
        <ele>52.049999999999997</ele>
        <time>2026-07-12T09:24:43Z</time>
      </trkpt>
      <trkpt lat="51.358585003763437" lon="-0.658534029498696">
        <ele>53.009999999999998</ele>
        <time>2026-07-12T09:24:54Z</time>
      </trkpt>
      <trkpt lat="51.35891399346292" lon="-0.655001979321241">
        <ele>53.490000000000002</ele>
        <time>2026-07-12T09:25:02Z</time>
      </trkpt>
      <trkpt lat="51.359731983393431" lon="-0.651675034314394">
        <ele>55.409999999999997</ele>
        <time>2026-07-12T09:25:10Z</time>
      </trkpt>
      <trkpt lat="51.361415991559625" lon="-0.647059958428144">
        <ele>54.450000000000003</ele>
        <time>2026-07-12T09:25:22Z</time>
      </trkpt>
      <trkpt lat="51.36325397528708" lon="-0.642518978565931">
        <ele>59.259999999999998</ele>
        <time>2026-07-12T09:25:34Z</time>
      </trkpt>
      <trkpt lat="51.364807980135083" lon="-0.639371993020177">
        <ele>60.219999999999999</ele>
        <time>2026-07-12T09:25:43Z</time>
      </trkpt>
      <trkpt lat="51.3667550124228" lon="-0.635040979832411">
        <ele>59.259999999999998</ele>
        <time>2026-07-12T09:25:55Z</time>
      </trkpt>
      <trkpt lat="51.367828985676169" lon="-0.631445981562138">
        <ele>61.18</ele>
        <time>2026-07-12T09:26:04Z</time>
      </trkpt>
      <trkpt lat="51.368827018886805" lon="-0.626825038343668">
        <ele>63.100000000000001</ele>
        <time>2026-07-12T09:26:15Z</time>
      </trkpt>
      <trkpt lat="51.370075000450015" lon="-0.621350985020399">
        <ele>64.069999999999993</ele>
        <time>2026-07-12T09:26:28Z</time>
      </trkpt>
      <trkpt lat="51.370867006480694" lon="-0.618124036118388">
        <ele>66.469999999999999</ele>
        <time>2026-07-12T09:26:36Z</time>
      </trkpt>
      <trkpt lat="51.372143989428878" lon="-0.613646004348993">
        <ele>66.469999999999999</ele>
        <time>2026-07-12T09:26:48Z</time>
      </trkpt>
      <trkpt lat="51.373819028958678" lon="-0.6082250084728">
        <ele>65.510000000000005</ele>
        <time>2026-07-12T09:27:02Z</time>
      </trkpt>
      <trkpt lat="51.37565097771585" lon="-0.602648025378585">
        <ele>63.100000000000001</ele>
        <time>2026-07-12T09:27:17Z</time>
      </trkpt>
      <trkpt lat="51.377788027748466" lon="-0.59651498682797">
        <ele>56.859999999999999</ele>
        <time>2026-07-12T09:27:33Z</time>
      </trkpt>
      <trkpt lat="51.379525009542704" lon="-0.59307899326086">
        <ele>52.049999999999997</ele>
        <time>2026-07-12T09:27:43Z</time>
      </trkpt>
      <trkpt lat="51.381195019930601" lon="-0.590751003473997">
        <ele>46.759999999999998</ele>
        <time>2026-07-12T09:27:52Z</time>
      </trkpt>
      <trkpt lat="51.382813984528184" lon="-0.588455032557249">
        <ele>42.920000000000002</ele>
        <time>2026-07-12T09:28:01Z</time>
      </trkpt>
      <trkpt lat="51.384464967995882" lon="-0.585301006212831">
        <ele>41.950000000000003</ele>
        <time>2026-07-12T09:28:11Z</time>
      </trkpt>
      <trkpt lat="51.385783022269607" lon="-0.581870963796973">
        <ele>42.920000000000002</ele>
        <time>2026-07-12T09:28:21Z</time>
      </trkpt>
      <trkpt lat="51.386739984154701" lon="-0.578358024358749">
        <ele>44.840000000000003</ele>
        <time>2026-07-12T09:28:31Z</time>
      </trkpt>
      <trkpt lat="51.387727037072182" lon="-0.574968969449401">
        <ele>45.32</ele>
        <time>2026-07-12T09:28:41Z</time>
      </trkpt>
      <trkpt lat="51.389030003920197" lon="-0.570863010361791">
        <ele>41.469999999999999</ele>
        <time>2026-07-12T09:28:53Z</time>
      </trkpt>
      <trkpt lat="51.390702025964856" lon="-0.566236032173038">
        <ele>38.590000000000003</ele>
        <time>2026-07-12T09:29:07Z</time>
      </trkpt>
      <trkpt lat="51.392249995842576" lon="-0.562511030584574">
        <ele>34.259999999999998</ele>
        <time>2026-07-12T09:29:19Z</time>
      </trkpt>
      <trkpt lat="51.393811041489244" lon="-0.559065984562039">
        <ele>28.98</ele>
        <time>2026-07-12T09:29:31Z</time>
      </trkpt>
      <trkpt lat="51.395391030237079" lon="-0.55588698014617">
        <ele>24.170000000000002</ele>
        <time>2026-07-12T09:29:42Z</time>
      </trkpt>
      <trkpt lat="51.39636299572885" lon="-0.554042039439082">
        <ele>23.690000000000001</ele>
        <time>2026-07-12T09:29:48Z</time>
      </trkpt>
      <trkpt lat="51.397833013907075" lon="-0.550921037793159">
        <ele>20.809999999999999</ele>
        <time>2026-07-12T09:29:58Z</time>
      </trkpt>
      <trkpt lat="51.397958993911743" lon="-0.550605962052941">
        <ele>19.84</ele>
        <time>2026-07-12T09:29:59Z</time>
      </trkpt>
      <trkpt lat="51.39930403791368" lon="-0.546719022095203">
        <ele>16</ele>
        <time>2026-07-12T09:30:11Z</time>
      </trkpt>
      <trkpt lat="51.400450011715293" lon="-0.542862005531788">
        <ele>17.920000000000002</ele>
        <time>2026-07-12T09:30:23Z</time>
      </trkpt>
      <trkpt lat="51.401344025507569" lon="-0.540472995489836">
        <ele>18.399999999999999</ele>
        <time>2026-07-12T09:30:31Z</time>
      </trkpt>
      <trkpt lat="51.402094960212708" lon="-0.538884038105607">
        <ele>16</ele>
        <time>2026-07-12T09:30:38Z</time>
      </trkpt>
      <trkpt lat="51.402235021814704" lon="-0.538438959047198">
        <ele>15.039999999999999</ele>
        <time>2026-07-12T09:30:40Z</time>
      </trkpt>
      <trkpt lat="51.402305010706186" lon="-0.538136959075928">
        <ele>14.56</ele>
        <time>2026-07-12T09:30:41Z</time>
      </trkpt>
      <trkpt lat="51.402319008484483" lon="-0.537920035421848">
        <ele>14.56</ele>
        <time>2026-07-12T09:30:42Z</time>
      </trkpt>
      <trkpt lat="51.402338035404682" lon="-0.537641001865268">
        <ele>14.08</ele>
        <time>2026-07-12T09:30:43Z</time>
      </trkpt>
      <trkpt lat="51.402325965464115" lon="-0.537316035479307">
        <ele>13.6</ele>
        <time>2026-07-12T09:30:44Z</time>
      </trkpt>
      <trkpt lat="51.402290007099509" lon="-0.537033984437585">
        <ele>13.119999999999999</ele>
        <time>2026-07-12T09:30:45Z</time>
      </trkpt>
      <trkpt lat="51.402197973802686" lon="-0.536762997508049">
        <ele>13.119999999999999</ele>
        <time>2026-07-12T09:30:46Z</time>
      </trkpt>
      <trkpt lat="51.402109963819385" lon="-0.536539033055305">
        <ele>13.119999999999999</ele>
        <time>2026-07-12T09:30:47Z</time>
      </trkpt>
      <trkpt lat="51.402021031826735" lon="-0.53631397895515">
        <ele>12.630000000000001</ele>
        <time>2026-07-12T09:30:48Z</time>
      </trkpt>
      <trkpt lat="51.401922963559628" lon="-0.536108035594225">
        <ele>12.630000000000001</ele>
        <time>2026-07-12T09:30:49Z</time>
      </trkpt>
      <trkpt lat="51.401806036010385" lon="-0.535938972607255">
        <ele>12.630000000000001</ele>
        <time>2026-07-12T09:30:50Z</time>
      </trkpt>
      <trkpt lat="51.401678966358304" lon="-0.535806035622954">
        <ele>13.119999999999999</ele>
        <time>2026-07-12T09:30:51Z</time>
      </trkpt>
      <trkpt lat="51.401547035202384" lon="-0.53568902425468">
        <ele>13.119999999999999</ele>
        <time>2026-07-12T09:30:52Z</time>
      </trkpt>
      <trkpt lat="51.401417031884193" lon="-0.535575030371547">
        <ele>14.08</ele>
        <time>2026-07-12T09:30:53Z</time>
      </trkpt>
      <trkpt lat="51.401271019130945" lon="-0.535536976531148">
        <ele>14.56</ele>
        <time>2026-07-12T09:30:54Z</time>
      </trkpt>
      <trkpt lat="51.401117965579033" lon="-0.535507975146174">
        <ele>15.039999999999999</ele>
        <time>2026-07-12T09:30:55Z</time>
      </trkpt>
      <trkpt lat="51.400953009724617" lon="-0.535476040095091">
        <ele>16</ele>
        <time>2026-07-12T09:30:56Z</time>
      </trkpt>
      <trkpt lat="51.400812026113272" lon="-0.535487020388246">
        <ele>16.48</ele>
        <time>2026-07-12T09:30:57Z</time>
      </trkpt>
      <trkpt lat="51.400652015581727" lon="-0.535538988187909">
        <ele>16.960000000000001</ele>
        <time>2026-07-12T09:30:58Z</time>
      </trkpt>
      <trkpt lat="51.400486975908279" lon="-0.535592967644334">
        <ele>17.440000000000001</ele>
        <time>2026-07-12T09:30:59Z</time>
      </trkpt>
      <trkpt lat="51.400316990911961" lon="-0.53564895875752">
        <ele>17.920000000000002</ele>
        <time>2026-07-12T09:31:00Z</time>
      </trkpt>
      <trkpt lat="51.39921996742487" lon="-0.535960011184216">
        <ele>19.84</ele>
        <time>2026-07-12T09:31:06Z</time>
      </trkpt>
      <trkpt lat="51.39904503710568" lon="-0.535963028669357">
        <ele>20.32</ele>
        <time>2026-07-12T09:31:07Z</time>
      </trkpt>
      <trkpt lat="51.398871028795838" lon="-0.535932015627623">
        <ele>20.32</ele>
        <time>2026-07-12T09:31:08Z</time>
      </trkpt>
      <trkpt lat="51.398690985515714" lon="-0.535888010635972">
        <ele>20.32</ele>
        <time>2026-07-12T09:31:09Z</time>
      </trkpt>
      <trkpt lat="51.398521000519395" lon="-0.535790026187897">
        <ele>20.32</ele>
        <time>2026-07-12T09:31:10Z</time>
      </trkpt>
      <trkpt lat="51.398350009694695" lon="-0.535692041739821">
        <ele>20.32</ele>
        <time>2026-07-12T09:31:11Z</time>
      </trkpt>
      <trkpt lat="51.395939039066434" lon="-0.534279020503163">
        <ele>18.879999999999999</ele>
        <time>2026-07-12T09:31:24Z</time>
      </trkpt>
      <trkpt lat="51.393496971577406" lon="-0.532568022608757">
        <ele>17.440000000000001</ele>
        <time>2026-07-12T09:31:36Z</time>
      </trkpt>
      <trkpt lat="51.392713012173772" lon="-0.531809963285923">
        <ele>16.48</ele>
        <time>2026-07-12T09:31:40Z</time>
      </trkpt>
      <trkpt lat="51.392524000257254" lon="-0.531612988561392">
        <ele>16</ele>
        <time>2026-07-12T09:31:41Z</time>
      </trkpt>
      <trkpt lat="51.390612004324794" lon="-0.529251974076033">
        <ele>14.56</ele>
        <time>2026-07-12T09:31:52Z</time>
      </trkpt>
      <trkpt lat="51.389151038601995" lon="-0.526976035907865">
        <ele>18.399999999999999</ele>
        <time>2026-07-12T09:32:01Z</time>
      </trkpt>
      <trkpt lat="51.387438029050827" lon="-0.52393801510334">
        <ele>19.359999999999999</ele>
        <time>2026-07-12T09:32:13Z</time>
      </trkpt>
      <trkpt lat="51.386142019182444" lon="-0.521584963425994">
        <ele>20.32</ele>
        <time>2026-07-12T09:32:22Z</time>
      </trkpt>
      <trkpt lat="51.384378969669342" lon="-0.518408976495266">
        <ele>23.690000000000001</ele>
        <time>2026-07-12T09:32:34Z</time>
      </trkpt>
      <trkpt lat="51.383069967851043" lon="-0.516326995566487">
        <ele>20.809999999999999</ele>
        <time>2026-07-12T09:32:42Z</time>
      </trkpt>
      <trkpt lat="51.380730997771025" lon="-0.513308001682162">
        <ele>16.48</ele>
        <time>2026-07-12T09:32:54Z</time>
      </trkpt>
      <trkpt lat="51.378803998231888" lon="-0.511502958834171">
        <ele>15.039999999999999</ele>
        <time>2026-07-12T09:33:03Z</time>
      </trkpt>
      <trkpt lat="51.376726040616632" lon="-0.509960018098354">
        <ele>13.6</ele>
        <time>2026-07-12T09:33:13Z</time>
      </trkpt>
      <trkpt lat="51.374278021976352" lon="-0.508657973259687">
        <ele>13.6</ele>
        <time>2026-07-12T09:33:24Z</time>
      </trkpt>
      <trkpt lat="51.372270975261927" lon="-0.507719032466412">
        <ele>15.039999999999999</ele>
        <time>2026-07-12T09:33:34Z</time>
      </trkpt>
      <trkpt lat="51.369713991880417" lon="-0.506280027329922">
        <ele>18.879999999999999</ele>
        <time>2026-07-12T09:33:46Z</time>
      </trkpt>
      <trkpt lat="51.367939040064812" lon="-0.504931965842843">
        <ele>18.399999999999999</ele>
        <time>2026-07-12T09:33:54Z</time>
      </trkpt>
      <trkpt lat="51.367726977914572" lon="-0.504727028310299">
        <ele>17.920000000000002</ele>
        <time>2026-07-12T09:33:55Z</time>
      </trkpt>
      <trkpt lat="51.365235038101673" lon="-0.502233998849988">
        <ele>15.52</ele>
        <time>2026-07-12T09:34:07Z</time>
      </trkpt>
      <trkpt lat="51.362590966746211" lon="-0.499385995790362">
        <ele>14.56</ele>
        <time>2026-07-12T09:34:20Z</time>
      </trkpt>
      <trkpt lat="51.360035995021462" lon="-0.49682498909533">
        <ele>16.48</ele>
        <time>2026-07-12T09:34:32Z</time>
      </trkpt>
      <trkpt lat="51.356918010860682" lon="-0.49392300657928">
        <ele>17.920000000000002</ele>
        <time>2026-07-12T09:34:45Z</time>
      </trkpt>
      <trkpt lat="51.35360699146986" lon="-0.490810973569751">
        <ele>22.25</ele>
        <time>2026-07-12T09:34:59Z</time>
      </trkpt>
      <trkpt lat="51.350671984255314" lon="-0.487620988860726">
        <ele>27.050000000000001</ele>
        <time>2026-07-12T09:35:12Z</time>
      </trkpt>
      <trkpt lat="51.348438039422035" lon="-0.485959025099874">
        <ele>28.98</ele>
        <time>2026-07-12T09:35:21Z</time>
      </trkpt>
      <trkpt lat="51.346282968297601" lon="-0.485241031274199">
        <ele>27.050000000000001</ele>
        <time>2026-07-12T09:35:29Z</time>
      </trkpt>
      <trkpt lat="51.343524986878037" lon="-0.485171964392066">
        <ele>23.690000000000001</ele>
        <time>2026-07-12T09:35:39Z</time>
      </trkpt>
      <trkpt lat="51.339939963072538" lon="-0.485033998265862">
        <ele>18.879999999999999</ele>
        <time>2026-07-12T09:35:52Z</time>
      </trkpt>
      <trkpt lat="51.337230009958148" lon="-0.484406026080251">
        <ele>17.920000000000002</ele>
        <time>2026-07-12T09:36:02Z</time>
      </trkpt>
      <trkpt lat="51.334329033270478" lon="-0.483185034245253">
        <ele>18.879999999999999</ele>
        <time>2026-07-12T09:36:13Z</time>
      </trkpt>
      <trkpt lat="51.332091987133026" lon="-0.481518041342497">
        <ele>16</ele>
        <time>2026-07-12T09:36:22Z</time>
      </trkpt>
      <trkpt lat="51.330048982053995" lon="-0.479295998811722">
        <ele>16</ele>
        <time>2026-07-12T09:36:31Z</time>
      </trkpt>
      <trkpt lat="51.328083006665111" lon="-0.476222019642591">
        <ele>15.52</ele>
        <time>2026-07-12T09:36:41Z</time>
      </trkpt>
      <trkpt lat="51.32653696462512" lon="-0.47263003885746">
        <ele>16.48</ele>
        <time>2026-07-12T09:36:51Z</time>
      </trkpt>
      <trkpt lat="51.325521999970078" lon="-0.469064963981509">
        <ele>16.48</ele>
        <time>2026-07-12T09:37:00Z</time>
      </trkpt>
      <trkpt lat="51.324918000027537" lon="-0.465710023418069">
        <ele>16.48</ele>
        <time>2026-07-12T09:37:08Z</time>
      </trkpt>
      <trkpt lat="51.324510974809527" lon="-0.461382027715445">
        <ele>17.440000000000001</ele>
        <time>2026-07-12T09:37:18Z</time>
      </trkpt>
      <trkpt lat="51.323805972933769" lon="-0.45671196654439">
        <ele>14.56</ele>
        <time>2026-07-12T09:37:29Z</time>
      </trkpt>
      <trkpt lat="51.32258296944201" lon="-0.45136003755033">
        <ele>13.119999999999999</ele>
        <time>2026-07-12T09:37:42Z</time>
      </trkpt>
      <trkpt lat="51.321472031995654" lon="-0.447894036769867">
        <ele>16</ele>
        <time>2026-07-12T09:37:51Z</time>
      </trkpt>
      <trkpt lat="51.319844014942646" lon="-0.443837027996778">
        <ele>26.57</ele>
        <time>2026-07-12T09:38:02Z</time>
      </trkpt>
      <trkpt lat="51.318165035918355" lon="-0.440385024994612">
        <ele>31.859999999999999</ele>
        <time>2026-07-12T09:38:12Z</time>
      </trkpt>
      <trkpt lat="51.315721040591598" lon="-0.435072993859649">
        <ele>30.420000000000002</ele>
        <time>2026-07-12T09:38:27Z</time>
      </trkpt>
      <trkpt lat="51.313496986404061" lon="-0.429545966908336">
        <ele>25.129999999999999</ele>
        <time>2026-07-12T09:38:42Z</time>
      </trkpt>
      <trkpt lat="51.311454987153411" lon="-0.424342984333634">
        <ele>26.09</ele>
        <time>2026-07-12T09:38:56Z</time>
      </trkpt>
      <trkpt lat="51.309364037588239" lon="-0.418691989034414">
        <ele>25.129999999999999</ele>
        <time>2026-07-12T09:39:11Z</time>
      </trkpt>
      <trkpt lat="51.307880021631718" lon="-0.413990998640656">
        <ele>24.170000000000002</ele>
        <time>2026-07-12T09:39:23Z</time>
      </trkpt>
      <trkpt lat="51.306882994249463" lon="-0.409463010728359">
        <ele>26.57</ele>
        <time>2026-07-12T09:39:34Z</time>
      </trkpt>
      <trkpt lat="51.306154020130634" lon="-0.404821028932929">
        <ele>31.859999999999999</ele>
        <time>2026-07-12T09:39:45Z</time>
      </trkpt>
      <trkpt lat="51.305996021255851" lon="-0.40050501935184">
        <ele>37.149999999999999</ele>
        <time>2026-07-12T09:39:55Z</time>
      </trkpt>
      <trkpt lat="51.306350994855165" lon="-0.396176017820835">
        <ele>39.07</ele>
        <time>2026-07-12T09:40:05Z</time>
      </trkpt>
      <trkpt lat="51.307057002559304" lon="-0.392415979877114">
        <ele>37.630000000000003</ele>
        <time>2026-07-12T09:40:14Z</time>
      </trkpt>
      <trkpt lat="51.308214040473104" lon="-0.387971978634596">
        <ele>36.670000000000002</ele>
        <time>2026-07-12T09:40:25Z</time>
      </trkpt>
      <trkpt lat="51.309795035049319" lon="-0.382863041013479">
        <ele>31.859999999999999</ele>
        <time>2026-07-12T09:40:38Z</time>
      </trkpt>
      <trkpt lat="51.310916030779481" lon="-0.378394983708858">
        <ele>26.57</ele>
        <time>2026-07-12T09:40:49Z</time>
      </trkpt>
      <trkpt lat="51.311928983777761" lon="-0.37341202609241">
        <ele>23.210000000000001</ele>
        <time>2026-07-12T09:41:01Z</time>
      </trkpt>
      <trkpt lat="51.312711015343666" lon="-0.367860021069646">
        <ele>24.649999999999999</ele>
        <time>2026-07-12T09:41:14Z</time>
      </trkpt>
      <trkpt lat="51.313016032800078" lon="-0.363054005429149">
        <ele>25.609999999999999</ele>
        <time>2026-07-12T09:41:25Z</time>
      </trkpt>
      <trkpt lat="51.313246032223105" lon="-0.357420025393367">
        <ele>35.229999999999997</ele>
        <time>2026-07-12T09:41:38Z</time>
      </trkpt>
      <trkpt lat="51.31370896473527" lon="-0.353133017197251">
        <ele>40.030000000000001</ele>
        <time>2026-07-12T09:41:48Z</time>
      </trkpt>
      <trkpt lat="51.314522009342909" lon="-0.349394017830491">
        <ele>38.109999999999999</ele>
        <time>2026-07-12T09:41:57Z</time>
      </trkpt>
      <trkpt lat="51.31553596816957" lon="-0.344881033524871">
        <ele>31.379999999999999</ele>
        <time>2026-07-12T09:42:08Z</time>
      </trkpt>
      <trkpt lat="51.315851965919137" lon="-0.340554965659976">
        <ele>28.02</ele>
        <time>2026-07-12T09:42:18Z</time>
      </trkpt>
      <trkpt lat="51.315569998696446" lon="-0.336681017652154">
        <ele>34.740000000000002</ele>
        <time>2026-07-12T09:42:27Z</time>
      </trkpt>
      <trkpt lat="51.314956024289131" lon="-0.33381599932909">
        <ele>38.590000000000003</ele>
        <time>2026-07-12T09:42:34Z</time>
      </trkpt>
      <trkpt lat="51.313929995521903" lon="-0.330787030979991">
        <ele>40.509999999999998</ele>
        <time>2026-07-12T09:42:42Z</time>
      </trkpt>
      <trkpt lat="51.312030991539359" lon="-0.326986005529761">
        <ele>45.799999999999997</ele>
        <time>2026-07-12T09:42:53Z</time>
      </trkpt>
      <trkpt lat="51.310241958126426" lon="-0.324905030429363">
        <ele>47.240000000000002</ele>
        <time>2026-07-12T09:43:01Z</time>
      </trkpt>
      <trkpt lat="51.308210017159581" lon="-0.323494020849466">
        <ele>47.719999999999999</ele>
        <time>2026-07-12T09:43:09Z</time>
      </trkpt>
      <trkpt lat="51.303891995921731" lon="-0.320677030831575">
        <ele>49.159999999999997</ele>
        <time>2026-07-12T09:43:26Z</time>
      </trkpt>
      <trkpt lat="51.30131296813488" lon="-0.318307969719172">
        <ele>50.130000000000003</ele>
        <time>2026-07-12T09:43:37Z</time>
      </trkpt>
      <trkpt lat="51.299465009942651" lon="-0.316121969372034">
        <ele>51.57</ele>
        <time>2026-07-12T09:43:46Z</time>
      </trkpt>
      <trkpt lat="51.29802499897778" lon="-0.314108971506357">
        <ele>55.409999999999997</ele>
        <time>2026-07-12T09:43:53Z</time>
      </trkpt>
      <trkpt lat="51.296530002728105" lon="-0.311531033366919">
        <ele>65.510000000000005</ele>
        <time>2026-07-12T09:44:01Z</time>
      </trkpt>
      <trkpt lat="51.29518898203969" lon="-0.308278016746044">
        <ele>75.599999999999994</ele>
        <time>2026-07-12T09:44:10Z</time>
      </trkpt>
      <trkpt lat="51.294162031263113" lon="-0.304741021245718">
        <ele>85.209999999999994</ele>
        <time>2026-07-12T09:44:19Z</time>
      </trkpt>
      <trkpt lat="51.293500028550625" lon="-0.300994981080294">
        <ele>95.790000000000006</ele>
        <time>2026-07-12T09:44:28Z</time>
      </trkpt>
      <trkpt lat="51.293195011094213" lon="-0.297552030533552">
        <ele>101.56</ele>
        <time>2026-07-12T09:44:36Z</time>
      </trkpt>
      <trkpt lat="51.292764013633132" lon="-0.29234703630209">
        <ele>107.31999999999999</ele>
        <time>2026-07-12T09:44:48Z</time>
      </trkpt>
      <trkpt lat="51.2921819742769" lon="-0.288065979257226">
        <ele>112.61</ele>
        <time>2026-07-12T09:44:58Z</time>
      </trkpt>
      <trkpt lat="51.29121202044189" lon="-0.28306701220572">
        <ele>119.81999999999999</ele>
        <time>2026-07-12T09:45:10Z</time>
      </trkpt>
      <trkpt lat="51.289949035272002" lon="-0.278675984591246">
        <ele>125.11</ele>
        <time>2026-07-12T09:45:21Z</time>
      </trkpt>
      <trkpt lat="51.288470970466733" lon="-0.2749880310148">
        <ele>131.36000000000001</ele>
        <time>2026-07-12T09:45:31Z</time>
      </trkpt>
      <trkpt lat="51.286586970090866" lon="-0.271288007497787">
        <ele>140.00999999999999</ele>
        <time>2026-07-12T09:45:42Z</time>
      </trkpt>
      <trkpt lat="51.284217992797494" lon="-0.267587983980775">
        <ele>146.25999999999999</ele>
        <time>2026-07-12T09:45:54Z</time>
      </trkpt>
      <trkpt lat="51.281821019947529" lon="-0.264473017305136">
        <ele>148.66</ele>
        <time>2026-07-12T09:46:05Z</time>
      </trkpt>
      <trkpt lat="51.279186001047492" lon="-0.261912010610104">
        <ele>149.62</ele>
        <time>2026-07-12T09:46:16Z</time>
      </trkpt>
      <trkpt lat="51.276339003816247" lon="-0.260105039924383">
        <ele>152.50999999999999</ele>
        <time>2026-07-12T09:46:27Z</time>
      </trkpt>
      <trkpt lat="51.274096006527543" lon="-0.258354982361197">
        <ele>157.78999999999999</ele>
        <time>2026-07-12T09:46:36Z</time>
      </trkpt>
      <trkpt lat="51.271835993975401" lon="-0.255761034786701">
        <ele>164.52000000000001</ele>
        <time>2026-07-12T09:46:46Z</time>
      </trkpt>
      <trkpt lat="51.270272014662623" lon="-0.25320103392005">
        <ele>164.52000000000001</ele>
        <time>2026-07-12T09:46:54Z</time>
      </trkpt>
      <trkpt lat="51.268747011199594" lon="-0.250023035332561">
        <ele>165</ele>
        <time>2026-07-12T09:47:03Z</time>
      </trkpt>
      <trkpt lat="51.266087014228106" lon="-0.244355024769902">
        <ele>174.62</ele>
        <time>2026-07-12T09:47:19Z</time>
      </trkpt>
      <trkpt lat="51.263900008052588" lon="-0.239704996347427">
        <ele>182.78999999999999</ele>
        <time>2026-07-12T09:47:32Z</time>
      </trkpt>
      <trkpt lat="51.261909976601601" lon="-0.235426034778357">
        <ele>193.84</ele>
        <time>2026-07-12T09:47:44Z</time>
      </trkpt>
      <trkpt lat="51.260175006464124" lon="-0.230866027995944">
        <ele>199.13</ele>
        <time>2026-07-12T09:47:56Z</time>
      </trkpt>
      <trkpt lat="51.25903096050024" lon="-0.226860987022519">
        <ele>209.69999999999999</ele>
        <time>2026-07-12T09:48:06Z</time>
      </trkpt>
      <trkpt lat="51.258164020255208" lon="-0.222670035436749">
        <ele>221.24000000000001</ele>
        <time>2026-07-12T09:48:16Z</time>
      </trkpt>
      <trkpt lat="51.257788008078933" lon="-0.219119964167476">
        <ele>222.68000000000001</ele>
        <time>2026-07-12T09:48:24Z</time>
      </trkpt>
      <trkpt lat="51.257618023082614" lon="-0.214148992672563">
        <ele>218.36000000000001</ele>
        <time>2026-07-12T09:48:35Z</time>
      </trkpt>
      <trkpt lat="51.257774010300636" lon="-0.208818018436432">
        <ele>213.55000000000001</ele>
        <time>2026-07-12T09:48:47Z</time>
      </trkpt>
      <trkpt lat="51.258060000836849" lon="-0.204392038285732">
        <ele>213.06999999999999</ele>
        <time>2026-07-12T09:48:57Z</time>
      </trkpt>
      <trkpt lat="51.258423021063209" lon="-0.200842972844839">
        <ele>210.19</ele>
        <time>2026-07-12T09:49:05Z</time>
      </trkpt>
      <trkpt lat="51.259022997692227" lon="-0.196968019008636">
        <ele>199.13</ele>
        <time>2026-07-12T09:49:14Z</time>
      </trkpt>
      <trkpt lat="51.259859008714557" lon="-0.193180991336703">
        <ele>185.19</ele>
        <time>2026-07-12T09:49:23Z</time>
      </trkpt>
      <trkpt lat="51.261202041059732" lon="-0.188745958730578">
        <ele>171.72999999999999</ele>
        <time>2026-07-12T09:49:34Z</time>
      </trkpt>
      <trkpt lat="51.262699970975518" lon="-0.184967983514071">
        <ele>159.72</ele>
        <time>2026-07-12T09:49:44Z</time>
      </trkpt>
      <trkpt lat="51.264287000522017" lon="-0.181834995746613">
        <ele>150.09999999999999</ele>
        <time>2026-07-12T09:49:53Z</time>
      </trkpt>
      <trkpt lat="51.265970002859831" lon="-0.178274028003216">
        <ele>139.53</ele>
        <time>2026-07-12T09:50:03Z</time>
      </trkpt>
      <trkpt lat="51.267096027731895" lon="-0.174880027770996">
        <ele>128.47</ele>
        <time>2026-07-12T09:50:12Z</time>
      </trkpt>
      <trkpt lat="51.268027005717158" lon="-0.170680023729801">
        <ele>119.81999999999999</ele>
        <time>2026-07-12T09:50:23Z</time>
      </trkpt>
      <trkpt lat="51.268671993166208" lon="-0.166290001943707">
        <ele>115.01000000000001</ele>
        <time>2026-07-12T09:50:34Z</time>
      </trkpt>
      <trkpt lat="51.268838960677385" lon="-0.161705017089844">
        <ele>111.17</ele>
        <time>2026-07-12T09:50:45Z</time>
      </trkpt>
      <trkpt lat="51.268683979287744" lon="-0.159060023725033">
        <ele>106.36</ele>
        <time>2026-07-12T09:50:52Z</time>
      </trkpt>
      <trkpt lat="51.268087020143867" lon="-0.155707010999322">
        <ele>101.08</ele>
        <time>2026-07-12T09:51:01Z</time>
      </trkpt>
      <trkpt lat="51.2670630030334" lon="-0.15232902020216">
        <ele>89.540000000000006</ele>
        <time>2026-07-12T09:51:10Z</time>
      </trkpt>
      <trkpt lat="51.266692019999027" lon="-0.151125965639949">
        <ele>85.689999999999998</ele>
        <time>2026-07-12T09:51:13Z</time>
      </trkpt>
      <trkpt lat="51.266617001965642" lon="-0.150798987597227">
        <ele>84.730000000000004</ele>
        <time>2026-07-12T09:51:14Z</time>
      </trkpt>
      <trkpt lat="51.265856008976698" lon="-0.147275989875197">
        <ele>73.680000000000007</ele>
        <time>2026-07-12T09:51:23Z</time>
      </trkpt>
      <trkpt lat="51.265314035117626" lon="-0.14324001967907">
        <ele>75.599999999999994</ele>
        <time>2026-07-12T09:51:33Z</time>
      </trkpt>
      <trkpt lat="51.264982027933002" lon="-0.138549003750086">
        <ele>83.769999999999996</ele>
        <time>2026-07-12T09:51:44Z</time>
      </trkpt>
      <trkpt lat="51.264583971351385" lon="-0.133508965373039">
        <ele>89.540000000000006</ele>
        <time>2026-07-12T09:51:56Z</time>
      </trkpt>
      <trkpt lat="51.264213994145393" lon="-0.129074016585946">
        <ele>86.659999999999997</ele>
        <time>2026-07-12T09:52:06Z</time>
      </trkpt>
      <trkpt lat="51.263879975304008" lon="-0.126448972150683">
        <ele>81.849999999999994</ele>
        <time>2026-07-12T09:52:12Z</time>
      </trkpt>
      <trkpt lat="51.263012029230595" lon="-0.122257014736533">
        <ele>87.140000000000001</ele>
        <time>2026-07-12T09:52:22Z</time>
      </trkpt>
      <trkpt lat="51.261803023517132" lon="-0.118250967934728">
        <ele>92.900000000000006</ele>
        <time>2026-07-12T09:52:32Z</time>
      </trkpt>
      <trkpt lat="51.260362006723881" lon="-0.11290499009192">
        <ele>97.230000000000004</ele>
        <time>2026-07-12T09:52:45Z</time>
      </trkpt>
      <trkpt lat="51.259366990998387" lon="-0.108289998024702">
        <ele>103.48</ele>
        <time>2026-07-12T09:52:56Z</time>
      </trkpt>
      <trkpt lat="51.258601974695921" lon="-0.103605017066002">
        <ele>113.56999999999999</ele>
        <time>2026-07-12T09:53:07Z</time>
      </trkpt>
      <trkpt lat="51.257980959489942" lon="-0.098417960107327">
        <ele>129.43000000000001</ele>
        <time>2026-07-12T09:53:19Z</time>
      </trkpt>
      <trkpt lat="51.25758902169764" lon="-0.092181991785765">
        <ele>137.61000000000001</ele>
        <time>2026-07-12T09:53:33Z</time>
      </trkpt>
      <trkpt lat="51.257519032806158" lon="-0.086378026753664">
        <ele>137.13</ele>
        <time>2026-07-12T09:53:46Z</time>
      </trkpt>
      <trkpt lat="51.25776001252234" lon="-0.080576995387673">
        <ele>138.56999999999999</ele>
        <time>2026-07-12T09:53:59Z</time>
      </trkpt>
      <trkpt lat="51.258175000548363" lon="-0.075287008658051">
        <ele>135.19999999999999</ele>
        <time>2026-07-12T09:54:11Z</time>
      </trkpt>
      <trkpt lat="51.258651008829474" lon="-0.069564012810588">
        <ele>131.36000000000001</ele>
        <time>2026-07-12T09:54:24Z</time>
      </trkpt>
      <trkpt lat="51.259044036269188" lon="-0.063787959516048">
        <ele>124.63</ele>
        <time>2026-07-12T09:54:37Z</time>
      </trkpt>
      <trkpt lat="51.258958037942648" lon="-0.059775961562991">
        <ele>123.19</ele>
        <time>2026-07-12T09:54:46Z</time>
      </trkpt>
      <trkpt lat="51.25834297388792" lon="-0.054595023393631">
        <ele>127.98999999999999</ele>
        <time>2026-07-12T09:54:58Z</time>
      </trkpt>
      <trkpt lat="51.258001998066902" lon="-0.050652008503675">
        <ele>137.61000000000001</ele>
        <time>2026-07-12T09:55:07Z</time>
      </trkpt>
      <trkpt lat="51.258051032200456" lon="-0.047103026881814">
        <ele>142.41</ele>
        <time>2026-07-12T09:55:15Z</time>
      </trkpt>
      <trkpt lat="51.258429978042841" lon="-0.043180966749787">
        <ele>145.30000000000001</ele>
        <time>2026-07-12T09:55:24Z</time>
      </trkpt>
      <trkpt lat="51.259292978793383" lon="-0.038937963545322">
        <ele>143.37</ele>
        <time>2026-07-12T09:55:34Z</time>
      </trkpt>
      <trkpt lat="51.260607009753585" lon="-0.034984974190593">
        <ele>134.72</ele>
        <time>2026-07-12T09:55:44Z</time>
      </trkpt>
      <trkpt lat="51.262498972937465" lon="-0.031138015910983">
        <ele>124.15000000000001</ele>
        <time>2026-07-12T09:55:55Z</time>
      </trkpt>
      <trkpt lat="51.26429202966392" lon="-0.028354972600937">
        <ele>121.26000000000001</ele>
        <time>2026-07-12T09:56:04Z</time>
      </trkpt>
      <trkpt lat="51.26628901809454" lon="-0.024667019024491">
        <ele>118.38</ele>
        <time>2026-07-12T09:56:15Z</time>
      </trkpt>
      <trkpt lat="51.26755602657795" lon="-0.021260026842356">
        <ele>121.73999999999999</ele>
        <time>2026-07-12T09:56:24Z</time>
      </trkpt>
      <trkpt lat="51.268481975421309" lon="-0.017566038295627">
        <ele>129.43000000000001</ele>
        <time>2026-07-12T09:56:33Z</time>
      </trkpt>
      <trkpt lat="51.269056973978877" lon="-0.013192025944591">
        <ele>132.31999999999999</ele>
        <time>2026-07-12T09:56:43Z</time>
      </trkpt>
      <trkpt lat="51.269180020317435" lon="-0.008731009438634">
        <ele>132.31999999999999</ele>
        <time>2026-07-12T09:56:53Z</time>
      </trkpt>
      <trkpt lat="51.269015986472368" lon="-0.003388971090317">
        <ele>129.43000000000001</ele>
        <time>2026-07-12T09:57:05Z</time>
      </trkpt>
      <trkpt lat="51.268608039245009" lon="0.001048995181918">
        <ele>120.78</ele>
        <time>2026-07-12T09:57:15Z</time>
      </trkpt>
      <trkpt lat="51.268071010708809" lon="0.005437005311251">
        <ele>115.01000000000001</ele>
        <time>2026-07-12T09:57:25Z</time>
      </trkpt>
      <trkpt lat="51.267726011574268" lon="0.009412039071321">
        <ele>111.65000000000001</ele>
        <time>2026-07-12T09:57:34Z</time>
      </trkpt>
      <trkpt lat="51.267711007967591" lon="0.013864003121853">
        <ele>109.73</ele>
        <time>2026-07-12T09:57:44Z</time>
      </trkpt>
      <trkpt lat="51.268089031800628" lon="0.018250001594424">
        <ele>110.69</ele>
        <time>2026-07-12T09:57:54Z</time>
      </trkpt>
      <trkpt lat="51.268942980095744" lon="0.022934982553124">
        <ele>115.5</ele>
        <time>2026-07-12T09:58:05Z</time>
      </trkpt>
      <trkpt lat="51.270353989675641" lon="0.027777040377259">
        <ele>121.73999999999999</ele>
        <time>2026-07-12T09:58:17Z</time>
      </trkpt>
      <trkpt lat="51.271577998995781" lon="0.032245013862848">
        <ele>126.55</ele>
        <time>2026-07-12T09:58:28Z</time>
      </trkpt>
      <trkpt lat="51.272390959784389" lon="0.03654601983726">
        <ele>129.43000000000001</ele>
        <time>2026-07-12T09:58:38Z</time>
      </trkpt>
      <trkpt lat="51.272931005805731" lon="0.041827959939837">
        <ele>132.31999999999999</ele>
        <time>2026-07-12T09:58:50Z</time>
      </trkpt>
      <trkpt lat="51.273000994697213" lon="0.046270033344626">
        <ele>133.75999999999999</ele>
        <time>2026-07-12T09:59:00Z</time>
      </trkpt>
      <trkpt lat="51.272707963362336" lon="0.051609976217151">
        <ele>131.36000000000001</ele>
        <time>2026-07-12T09:59:12Z</time>
      </trkpt>
      <trkpt lat="51.272630011662841" lon="0.056967018172145">
        <ele>126.06999999999999</ele>
        <time>2026-07-12T09:59:24Z</time>
      </trkpt>
      <trkpt lat="51.272980039939284" lon="0.061864983290434">
        <ele>120.3</ele>
        <time>2026-07-12T09:59:35Z</time>
      </trkpt>
      <trkpt lat="51.273576999083161" lon="0.065752007067204">
        <ele>115.5</ele>
        <time>2026-07-12T09:59:44Z</time>
      </trkpt>
      <trkpt lat="51.274741999804974" lon="0.070735970512033">
        <ele>108.77</ele>
        <time>2026-07-12T09:59:56Z</time>
      </trkpt>
      <trkpt lat="51.276201037690043" lon="0.076002990826964">
        <ele>107.31999999999999</ele>
        <time>2026-07-12T10:00:09Z</time>
      </trkpt>
      <trkpt lat="51.277090022340417" lon="0.081176972016692">
        <ele>108.77</ele>
        <time>2026-07-12T10:00:21Z</time>
      </trkpt>
      <trkpt lat="51.27804203890264" lon="0.086802989244461">
        <ele>105.88</ele>
        <time>2026-07-12T10:00:34Z</time>
      </trkpt>
      <trkpt lat="51.279498981311917" lon="0.093038035556674">
        <ele>104.44</ele>
        <time>2026-07-12T10:00:49Z</time>
      </trkpt>
      <trkpt lat="51.280996995046735" lon="0.097840027883649">
        <ele>104.92</ele>
        <time>2026-07-12T10:01:01Z</time>
      </trkpt>
      <trkpt lat="51.282882001250982" lon="0.102761965245008">
        <ele>105.40000000000001</ele>
        <time>2026-07-12T10:01:14Z</time>
      </trkpt>
      <trkpt lat="51.284571960568428" lon="0.107377963140607">
        <ele>106.36</ele>
        <time>2026-07-12T10:01:26Z</time>
      </trkpt>
      <trkpt lat="51.285529006272554" lon="0.111093996092677">
        <ele>104.92</ele>
        <time>2026-07-12T10:01:35Z</time>
      </trkpt>
      <trkpt lat="51.286179022863507" lon="0.115426015108824">
        <ele>96.75</ele>
        <time>2026-07-12T10:01:45Z</time>
      </trkpt>
      <trkpt lat="51.286640027537942" lon="0.120721030980349">
        <ele>92.900000000000006</ele>
        <time>2026-07-12T10:01:57Z</time>
      </trkpt>
      <trkpt lat="51.287176972255111" lon="0.125137036666274">
        <ele>90.5</ele>
        <time>2026-07-12T10:02:07Z</time>
      </trkpt>
      <trkpt lat="51.288127982988954" lon="0.130742015317082">
        <ele>84.25</ele>
        <time>2026-07-12T10:02:20Z</time>
      </trkpt>
      <trkpt lat="51.288851005956531" lon="0.134073989465833">
        <ele>81.370000000000005</ele>
        <time>2026-07-12T10:02:28Z</time>
      </trkpt>
      <trkpt lat="51.290536019951105" lon="0.140179032459855">
        <ele>77.040000000000006</ele>
        <time>2026-07-12T10:02:43Z</time>
      </trkpt>
      <trkpt lat="51.291756005957723" lon="0.143679985776544">
        <ele>76.079999999999998</ele>
        <time>2026-07-12T10:02:52Z</time>
      </trkpt>
      <trkpt lat="51.292969034984708" lon="0.146101014688611">
        <ele>74.640000000000001</ele>
        <time>2026-07-12T10:02:59Z</time>
      </trkpt>
      <trkpt lat="51.29402699880302" lon="0.148218031972647">
        <ele>72.239999999999995</ele>
        <time>2026-07-12T10:03:05Z</time>
      </trkpt>
      <trkpt lat="51.294869966804981" lon="0.150931002572179">
        <ele>71.269999999999996</ele>
        <time>2026-07-12T10:03:12Z</time>
      </trkpt>
      <trkpt lat="51.29643402993679" lon="0.156646035611629">
        <ele>74.159999999999997</ele>
        <time>2026-07-12T10:03:26Z</time>
      </trkpt>
      <trkpt lat="51.297839004546404" lon="0.161459008231759">
        <ele>75.599999999999994</ele>
        <time>2026-07-12T10:03:38Z</time>
      </trkpt>
      <trkpt lat="51.298695970326662" lon="0.164700960740447">
        <ele>78.480000000000004</ele>
        <time>2026-07-12T10:03:46Z</time>
      </trkpt>
      <trkpt lat="51.30008602514863" lon="0.170562006533146">
        <ele>86.180000000000007</ele>
        <time>2026-07-12T10:04:00Z</time>
      </trkpt>
      <trkpt lat="51.301451018080115" lon="0.176469990983605">
        <ele>85.209999999999994</ele>
        <time>2026-07-12T10:04:14Z</time>
      </trkpt>
      <trkpt lat="51.302888011559844" lon="0.182800004258752">
        <ele>68.870000000000005</ele>
        <time>2026-07-12T10:04:29Z</time>
      </trkpt>
      <trkpt lat="51.303681023418903" lon="0.187512980774045">
        <ele>62.140000000000001</ele>
        <time>2026-07-12T10:04:40Z</time>
      </trkpt>
      <trkpt lat="51.304141022264957" lon="0.192364007234573">
        <ele>60.219999999999999</ele>
        <time>2026-07-12T10:04:51Z</time>
      </trkpt>
      <trkpt lat="51.304304972290993" lon="0.197671009227633">
        <ele>59.259999999999998</ele>
        <time>2026-07-12T10:05:03Z</time>
      </trkpt>
      <trkpt lat="51.304106991738081" lon="0.20209196023643">
        <ele>62.140000000000001</ele>
        <time>2026-07-12T10:05:13Z</time>
      </trkpt>
      <trkpt lat="51.303692003712058" lon="0.206040004268289">
        <ele>64.549999999999997</ele>
        <time>2026-07-12T10:05:22Z</time>
      </trkpt>
      <trkpt lat="51.302824979647994" lon="0.211180960759521">
        <ele>65.989999999999995</ele>
        <time>2026-07-12T10:05:34Z</time>
      </trkpt>
      <trkpt lat="51.302004978060722" lon="0.214979974552989">
        <ele>66.950000000000003</ele>
        <time>2026-07-12T10:05:43Z</time>
      </trkpt>
      <trkpt lat="51.301307016983628" lon="0.219275029376149">
        <ele>69.349999999999994</ele>
        <time>2026-07-12T10:05:53Z</time>
      </trkpt>
      <trkpt lat="51.300797984004021" lon="0.224531991407275">
        <ele>71.760000000000005</ele>
        <time>2026-07-12T10:06:05Z</time>
      </trkpt>
      <trkpt lat="51.300686001777649" lon="0.228077033534646">
        <ele>77.519999999999996</ele>
        <time>2026-07-12T10:06:13Z</time>
      </trkpt>
      <trkpt lat="51.300822040066123" lon="0.232501002028584">
        <ele>82.329999999999998</ele>
        <time>2026-07-12T10:06:23Z</time>
      </trkpt>
      <trkpt lat="51.301169972866774" lon="0.238257022574544">
        <ele>90.980000000000004</ele>
        <time>2026-07-12T10:06:36Z</time>
      </trkpt>
      <trkpt lat="51.301350016146898" lon="0.243137972429395">
        <ele>95.310000000000002</ele>
        <time>2026-07-12T10:06:47Z</time>
      </trkpt>
      <trkpt lat="51.301292013376951" lon="0.249813990667462">
        <ele>97.709999999999994</ele>
        <time>2026-07-12T10:07:02Z</time>
      </trkpt>
      <trkpt lat="51.301025971770287" lon="0.25520196184516">
        <ele>101.08</ele>
        <time>2026-07-12T10:07:14Z</time>
      </trkpt>
      <trkpt lat="51.300770994275808" lon="0.259635988622904">
        <ele>101.56</ele>
        <time>2026-07-12T10:07:24Z</time>
      </trkpt>
      <trkpt lat="51.300605032593012" lon="0.266303038224578">
        <ele>103.48</ele>
        <time>2026-07-12T10:07:39Z</time>
      </trkpt>
      <trkpt lat="51.300822962075472" lon="0.272508999332786">
        <ele>103.95999999999999</ele>
        <time>2026-07-12T10:07:53Z</time>
      </trkpt>
      <trkpt lat="51.301270974799991" lon="0.27825596742332">
        <ele>103.95999999999999</ele>
        <time>2026-07-12T10:08:06Z</time>
      </trkpt>
      <trkpt lat="51.301989974454045" lon="0.283921966329217">
        <ele>104.44</ele>
        <time>2026-07-12T10:08:19Z</time>
      </trkpt>
      <trkpt lat="51.302768988534808" lon="0.288680037483573">
        <ele>105.88</ele>
        <time>2026-07-12T10:08:30Z</time>
      </trkpt>
      <trkpt lat="51.303443983197212" lon="0.293449005112052">
        <ele>104.92</ele>
        <time>2026-07-12T10:08:41Z</time>
      </trkpt>
      <trkpt lat="51.303641963750124" lon="0.298340013250709">
        <ele>103.95999999999999</ele>
        <time>2026-07-12T10:08:52Z</time>
      </trkpt>
      <trkpt lat="51.30345999263227" lon="0.302344970405102">
        <ele>101.08</ele>
        <time>2026-07-12T10:09:01Z</time>
      </trkpt>
      <trkpt lat="51.30279497243464" lon="0.307122990489006">
        <ele>98.189999999999998</ele>
        <time>2026-07-12T10:09:12Z</time>
      </trkpt>
      <trkpt lat="51.301888972520828" lon="0.311333974823356">
        <ele>91.459999999999994</ele>
        <time>2026-07-12T10:09:22Z</time>
      </trkpt>
      <trkpt lat="51.301101995632052" lon="0.315616959705949">
        <ele>89.060000000000002</ele>
        <time>2026-07-12T10:09:32Z</time>
      </trkpt>
      <trkpt lat="51.300660017877817" lon="0.319966999813914">
        <ele>86.659999999999997</ele>
        <time>2026-07-12T10:09:42Z</time>
      </trkpt>
      <trkpt lat="51.300630010664463" lon="0.324403960257769">
        <ele>85.209999999999994</ele>
        <time>2026-07-12T10:09:52Z</time>
      </trkpt>
      <trkpt lat="51.300951037555933" lon="0.328820971772075">
        <ele>81.370000000000005</ele>
        <time>2026-07-12T10:10:02Z</time>
      </trkpt>
      <trkpt lat="51.301860976964235" lon="0.333989001810551">
        <ele>75.599999999999994</ele>
        <time>2026-07-12T10:10:14Z</time>
      </trkpt>
      <trkpt lat="51.302475035190582" lon="0.336815966293216">
        <ele>72.239999999999995</ele>
        <time>2026-07-12T10:10:21Z</time>
      </trkpt>
      <trkpt lat="51.303376005962491" lon="0.340929972007871">
        <ele>66.469999999999999</ele>
        <time>2026-07-12T10:10:31Z</time>
      </trkpt>
      <trkpt lat="51.304240012541413" lon="0.344828981906176">
        <ele>62.619999999999997</ele>
        <time>2026-07-12T10:10:41Z</time>
      </trkpt>
      <trkpt lat="51.305139977484941" lon="0.348609974607825">
        <ele>59.259999999999998</ele>
        <time>2026-07-12T10:10:52Z</time>
      </trkpt>
      <trkpt lat="51.306320987641811" lon="0.352167002856731">
        <ele>59.259999999999998</ele>
        <time>2026-07-12T10:11:03Z</time>
      </trkpt>
      <trkpt lat="51.307987980544567" lon="0.355968028306961">
        <ele>64.069999999999993</ele>
        <time>2026-07-12T10:11:15Z</time>
      </trkpt>
      <trkpt lat="51.30850899964571" lon="0.357665028423071">
        <ele>64.069999999999993</ele>
        <time>2026-07-12T10:11:20Z</time>
      </trkpt>
      <trkpt lat="51.308785015717149" lon="0.360204996541142">
        <ele>61.659999999999997</ele>
        <time>2026-07-12T10:11:27Z</time>
      </trkpt>
      <trkpt lat="51.308581000193954" lon="0.362774971872568">
        <ele>56.859999999999999</ele>
        <time>2026-07-12T10:11:34Z</time>
      </trkpt>
      <trkpt lat="51.308570019900799" lon="0.365865966305137">
        <ele>52.530000000000001</ele>
        <time>2026-07-12T10:11:42Z</time>
      </trkpt>
      <trkpt lat="51.308883000165224" lon="0.370848001912236">
        <ele>53.490000000000002</ele>
        <time>2026-07-12T10:11:55Z</time>
      </trkpt>
      <trkpt lat="51.308900015428662" lon="0.374641986563802">
        <ele>53.009999999999998</ele>
        <time>2026-07-12T10:12:05Z</time>
      </trkpt>
      <trkpt lat="51.308946032077074" lon="0.378830004483461">
        <ele>53.490000000000002</ele>
        <time>2026-07-12T10:12:16Z</time>
      </trkpt>
      <trkpt lat="51.309008980169892" lon="0.383847998455167">
        <ele>47.719999999999999</ele>
        <time>2026-07-12T10:12:28Z</time>
      </trkpt>
      <trkpt lat="51.309117022901773" lon="0.388764990493655">
        <ele>40.509999999999998</ele>
        <time>2026-07-12T10:12:39Z</time>
      </trkpt>
      <trkpt lat="51.309496974572539" lon="0.3931799903512">
        <ele>32.340000000000003</ele>
        <time>2026-07-12T10:12:49Z</time>
      </trkpt>
      <trkpt lat="51.31018596701324" lon="0.397458029910922">
        <ele>27.530000000000001</ele>
        <time>2026-07-12T10:12:59Z</time>
      </trkpt>
      <trkpt lat="51.310988031327724" lon="0.40173196233809">
        <ele>26.09</ele>
        <time>2026-07-12T10:13:09Z</time>
      </trkpt>
      <trkpt lat="51.311440989375114" lon="0.405686963349581">
        <ele>23.690000000000001</ele>
        <time>2026-07-12T10:13:18Z</time>
      </trkpt>
      <trkpt lat="51.311594964936376" lon="0.410143034532666">
        <ele>19.359999999999999</ele>
        <time>2026-07-12T10:13:28Z</time>
      </trkpt>
      <trkpt lat="51.311326995491982" lon="0.41502901352942">
        <ele>14.08</ele>
        <time>2026-07-12T10:13:39Z</time>
      </trkpt>
      <trkpt lat="51.310843024402857" lon="0.418528961017728">
        <ele>7.35</ele>
        <time>2026-07-12T10:13:47Z</time>
      </trkpt>
      <trkpt lat="51.309937024489045" lon="0.422727037221193">
        <ele>4.46</ele>
        <time>2026-07-12T10:13:57Z</time>
      </trkpt>
      <trkpt lat="51.308707986027002" lon="0.426706010475755">
        <ele>5.91</ele>
        <time>2026-07-12T10:14:07Z</time>
      </trkpt>
      <trkpt lat="51.307618003338575" lon="0.429780995473266">
        <ele>12.15</ele>
        <time>2026-07-12T10:14:15Z</time>
      </trkpt>
      <trkpt lat="51.306520979851484" lon="0.433344980701804">
        <ele>19.84</ele>
        <time>2026-07-12T10:14:24Z</time>
      </trkpt>
      <trkpt lat="51.305444994941354" lon="0.438434975221753">
        <ele>21.77</ele>
        <time>2026-07-12T10:14:36Z</time>
      </trkpt>
      <trkpt lat="51.304633961990476" lon="0.442687030881643">
        <ele>21.289999999999999</ele>
        <time>2026-07-12T10:14:46Z</time>
      </trkpt>
      <trkpt lat="51.303663002327085" lon="0.447854977101088">
        <ele>16.48</ele>
        <time>2026-07-12T10:14:58Z</time>
      </trkpt>
      <trkpt lat="51.303062019869685" lon="0.452238963916898">
        <ele>11.67</ele>
        <time>2026-07-12T10:15:08Z</time>
      </trkpt>
      <trkpt lat="51.302527002990246" lon="0.45795600861311">
        <ele>7.83</ele>
        <time>2026-07-12T10:15:21Z</time>
      </trkpt>
      <trkpt lat="51.301914034411311" lon="0.461843032389879">
        <ele>5.91</ele>
        <time>2026-07-12T10:15:30Z</time>
      </trkpt>
      <trkpt lat="51.301153041422367" lon="0.464705033227801">
        <ele>6.39</ele>
        <time>2026-07-12T10:15:37Z</time>
      </trkpt>
      <trkpt lat="51.300261961296201" lon="0.468408996239305">
        <ele>8.310000000000001</ele>
        <time>2026-07-12T10:15:46Z</time>
      </trkpt>
      <trkpt lat="51.299813026562333" lon="0.472368020564318">
        <ele>11.67</ele>
        <time>2026-07-12T10:15:55Z</time>
      </trkpt>
      <trkpt lat="51.299408013001084" lon="0.475615002214909">
        <ele>12.15</ele>
        <time>2026-07-12T10:16:03Z</time>
      </trkpt>
      <trkpt lat="51.298810970038176" lon="0.477729002013803">
        <ele>11.67</ele>
        <time>2026-07-12T10:16:09Z</time>
      </trkpt>
      <trkpt lat="51.297699026763439" lon="0.480353040620685">
        <ele>10.23</ele>
        <time>2026-07-12T10:16:16Z</time>
      </trkpt>
      <trkpt lat="51.29660502076149" lon="0.483449986204505">
        <ele>9.75</ele>
        <time>2026-07-12T10:16:24Z</time>
      </trkpt>
      <trkpt lat="51.296200007200241" lon="0.485514029860497">
        <ele>11.19</ele>
        <time>2026-07-12T10:16:29Z</time>
      </trkpt>
      <trkpt lat="51.295986017212272" lon="0.489485962316394">
        <ele>13.6</ele>
        <time>2026-07-12T10:16:38Z</time>
      </trkpt>
      <trkpt lat="51.296214004978538" lon="0.494365990161896">
        <ele>17.920000000000002</ele>
        <time>2026-07-12T10:16:49Z</time>
      </trkpt>
      <trkpt lat="51.296856980770826" lon="0.497321030125022">
        <ele>16.960000000000001</ele>
        <time>2026-07-12T10:16:56Z</time>
      </trkpt>
      <trkpt lat="51.297777984291315" lon="0.500575974583626">
        <ele>15.52</ele>
        <time>2026-07-12T10:17:04Z</time>
      </trkpt>
      <trkpt lat="51.298206970095634" lon="0.503615001216531">
        <ele>13.119999999999999</ele>
        <time>2026-07-12T10:17:11Z</time>
      </trkpt>
      <trkpt lat="51.298599997535348" lon="0.509304972365499">
        <ele>20.809999999999999</ele>
        <time>2026-07-12T10:17:24Z</time>
      </trkpt>
      <trkpt lat="51.298965029418468" lon="0.515069961547852">
        <ele>28.98</ele>
        <time>2026-07-12T10:17:37Z</time>
      </trkpt>
      <trkpt lat="51.299038035795093" lon="0.519094029441476">
        <ele>27.530000000000001</ele>
        <time>2026-07-12T10:17:46Z</time>
      </trkpt>
      <trkpt lat="51.298520034179091" lon="0.522089973092079">
        <ele>26.57</ele>
        <time>2026-07-12T10:17:53Z</time>
      </trkpt>
      <trkpt lat="51.297492999583483" lon="0.5247120000422">
        <ele>28.02</ele>
        <time>2026-07-12T10:18:00Z</time>
      </trkpt>
      <trkpt lat="51.295576980337501" lon="0.527940038591623">
        <ele>29.940000000000001</ele>
        <time>2026-07-12T10:18:10Z</time>
      </trkpt>
      <trkpt lat="51.293443031609058" lon="0.53203996270895">
        <ele>31.859999999999999</ele>
        <time>2026-07-12T10:18:22Z</time>
      </trkpt>
      <trkpt lat="51.291592977941036" lon="0.535898990929127">
        <ele>40.990000000000002</ele>
        <time>2026-07-12T10:18:33Z</time>
      </trkpt>
      <trkpt lat="51.290983026847243" lon="0.537895979359746">
        <ele>47.240000000000002</ele>
        <time>2026-07-12T10:18:38Z</time>
      </trkpt>
      <trkpt lat="51.289962027221918" lon="0.541966985911131">
        <ele>58.780000000000001</ele>
        <time>2026-07-12T10:18:48Z</time>
      </trkpt>
      <trkpt lat="51.288532996550202" lon="0.54578997194767">
        <ele>66.469999999999999</ele>
        <time>2026-07-12T10:18:58Z</time>
      </trkpt>
      <trkpt lat="51.288021029904485" lon="0.548352990299463">
        <ele>69.349999999999994</ele>
        <time>2026-07-12T10:19:04Z</time>
      </trkpt>
      <trkpt lat="51.287901001051068" lon="0.550604034215212">
        <ele>71.760000000000005</ele>
        <time>2026-07-12T10:19:09Z</time>
      </trkpt>
      <trkpt lat="51.287930002436042" lon="0.551057998090982">
        <ele>72.719999999999999</ele>
        <time>2026-07-12T10:19:10Z</time>
      </trkpt>
      <trkpt lat="51.288132006302476" lon="0.554159972816706">
        <ele>75.120000000000005</ele>
        <time>2026-07-12T10:19:17Z</time>
      </trkpt>
      <trkpt lat="51.288254968822002" lon="0.558620989322662">
        <ele>75.599999999999994</ele>
        <time>2026-07-12T10:19:27Z</time>
      </trkpt>
      <trkpt lat="51.287961015477777" lon="0.563882980495691">
        <ele>75.599999999999994</ele>
        <time>2026-07-12T10:19:39Z</time>
      </trkpt>
      <trkpt lat="51.287269005551934" lon="0.568651026114821">
        <ele>77.040000000000006</ele>
        <time>2026-07-12T10:19:50Z</time>
      </trkpt>
      <trkpt lat="51.286407010629773" lon="0.572422966361046">
        <ele>78.969999999999999</ele>
        <time>2026-07-12T10:19:59Z</time>
      </trkpt>
      <trkpt lat="51.285300012677908" lon="0.576007990166545">
        <ele>79.450000000000003</ele>
        <time>2026-07-12T10:20:08Z</time>
      </trkpt>
      <trkpt lat="51.283805016428232" lon="0.579770039767027">
        <ele>78</ele>
        <time>2026-07-12T10:20:18Z</time>
      </trkpt>
      <trkpt lat="51.281837029382586" lon="0.583553966134787">
        <ele>75.599999999999994</ele>
        <time>2026-07-12T10:20:29Z</time>
      </trkpt>
      <trkpt lat="51.278992965817451" lon="0.588558968156576">
        <ele>63.100000000000001</ele>
        <time>2026-07-12T10:20:44Z</time>
      </trkpt>
      <trkpt lat="51.276168012991548" lon="0.593444025143981">
        <ele>59.259999999999998</ele>
        <time>2026-07-12T10:20:59Z</time>
      </trkpt>
      <trkpt lat="51.273535005748272" lon="0.598038984462619">
        <ele>61.659999999999997</ele>
        <time>2026-07-12T10:21:13Z</time>
      </trkpt>
      <trkpt lat="51.270808037370443" lon="0.603063013404608">
        <ele>69.349999999999994</ele>
        <time>2026-07-12T10:21:28Z</time>
      </trkpt>
      <trkpt lat="51.267736991867423" lon="0.608292985707521">
        <ele>67.430000000000007</ele>
        <time>2026-07-12T10:21:44Z</time>
      </trkpt>
      <trkpt lat="51.26530003733933" lon="0.611961996182799">
        <ele>58.299999999999997</ele>
        <time>2026-07-12T10:21:56Z</time>
      </trkpt>
      <trkpt lat="51.263447972014546" lon="0.614655017852783">
        <ele>54.450000000000003</ele>
        <time>2026-07-12T10:22:05Z</time>
      </trkpt>
      <trkpt lat="51.261690035462379" lon="0.61750503256917">
        <ele>51.57</ele>
        <time>2026-07-12T10:22:14Z</time>
      </trkpt>
      <trkpt lat="51.260066041722894" lon="0.621101958677173">
        <ele>51.090000000000003</ele>
        <time>2026-07-12T10:22:24Z</time>
      </trkpt>
      <trkpt lat="51.258618989959359" lon="0.625398019328713">
        <ele>50.609999999999999</ele>
        <time>2026-07-12T10:22:35Z</time>
      </trkpt>
      <trkpt lat="51.257068002596498" lon="0.629578996449709">
        <ele>53.969999999999999</ele>
        <time>2026-07-12T10:22:46Z</time>
      </trkpt>
      <trkpt lat="51.255301013588905" lon="0.632939971983433">
        <ele>62.619999999999997</ele>
        <time>2026-07-12T10:22:56Z</time>
      </trkpt>
      <trkpt lat="51.253211991861463" lon="0.635905992239714">
        <ele>73.200000000000003</ele>
        <time>2026-07-12T10:23:06Z</time>
      </trkpt>
      <trkpt lat="51.250919038429856" lon="0.63920795917511">
        <ele>81.370000000000005</ele>
        <time>2026-07-12T10:23:17Z</time>
      </trkpt>
      <trkpt lat="51.248734965920448" lon="0.643273014575243">
        <ele>80.409999999999997</ele>
        <time>2026-07-12T10:23:29Z</time>
      </trkpt>
      <trkpt lat="51.247393023222685" lon="0.646432992070913">
        <ele>77.519999999999996</ele>
        <time>2026-07-12T10:23:38Z</time>
      </trkpt>
      <trkpt lat="51.246460033580661" lon="0.649137999862432">
        <ele>76.079999999999998</ele>
        <time>2026-07-12T10:23:45Z</time>
      </trkpt>
      <trkpt lat="51.244945004582405" lon="0.654438966885209">
        <ele>71.269999999999996</ele>
        <time>2026-07-12T10:23:58Z</time>
      </trkpt>
      <trkpt lat="51.243683025240898" lon="0.658897971734405">
        <ele>69.829999999999998</ele>
        <time>2026-07-12T10:24:09Z</time>
      </trkpt>
      <trkpt lat="51.242186017334461" lon="0.664152000099421">
        <ele>70.790000000000006</ele>
        <time>2026-07-12T10:24:22Z</time>
      </trkpt>
      <trkpt lat="51.240608962252736" lon="0.668873023241758">
        <ele>73.680000000000007</ele>
        <time>2026-07-12T10:24:34Z</time>
      </trkpt>
      <trkpt lat="51.239426024258137" lon="0.671868966892362">
        <ele>74.640000000000001</ele>
        <time>2026-07-12T10:24:42Z</time>
      </trkpt>
      <trkpt lat="51.237781997770071" lon="0.675467988476157">
        <ele>77.519999999999996</ele>
        <time>2026-07-12T10:24:52Z</time>
      </trkpt>
      <trkpt lat="51.235456019639969" lon="0.679935039952397">
        <ele>82.810000000000002</ele>
        <time>2026-07-12T10:25:05Z</time>
      </trkpt>
      <trkpt lat="51.233561038970947" lon="0.68316500633955">
        <ele>87.620000000000005</ele>
        <time>2026-07-12T10:25:15Z</time>
      </trkpt>
      <trkpt lat="51.231214022263885" lon="0.686293970793486">
        <ele>90.980000000000004</ele>
        <time>2026-07-12T10:25:26Z</time>
      </trkpt>
      <trkpt lat="51.228541033342481" lon="0.689498959109187">
        <ele>98.189999999999998</ele>
        <time>2026-07-12T10:25:38Z</time>
      </trkpt>
      <trkpt lat="51.226855013519526" lon="0.692466991022229">
        <ele>101.56</ele>
        <time>2026-07-12T10:25:47Z</time>
      </trkpt>
      <trkpt lat="51.225539976730943" lon="0.695875994861126">
        <ele>103.48</ele>
        <time>2026-07-12T10:25:56Z</time>
      </trkpt>
      <trkpt lat="51.224542027339339" lon="0.700059989467263">
        <ele>103.95999999999999</ele>
        <time>2026-07-12T10:26:06Z</time>
      </trkpt>
      <trkpt lat="51.224113963544369" lon="0.704469960182905">
        <ele>102.52</ele>
        <time>2026-07-12T10:26:16Z</time>
      </trkpt>
      <trkpt lat="51.223676009103656" lon="0.708878003060818">
        <ele>97.230000000000004</ele>
        <time>2026-07-12T10:26:26Z</time>
      </trkpt>
      <trkpt lat="51.222858019173145" lon="0.712673999369144">
        <ele>92.420000000000002</ele>
        <time>2026-07-12T10:26:35Z</time>
      </trkpt>
      <trkpt lat="51.221625963225961" lon="0.716171013191342">
        <ele>89.060000000000002</ele>
        <time>2026-07-12T10:26:44Z</time>
      </trkpt>
      <trkpt lat="51.220019990578294" lon="0.719230994582176">
        <ele>86.659999999999997</ele>
        <time>2026-07-12T10:26:53Z</time>
      </trkpt>
      <trkpt lat="51.21809902600944" lon="0.721814967691898">
        <ele>84.730000000000004</ele>
        <time>2026-07-12T10:27:02Z</time>
      </trkpt>
      <trkpt lat="51.21627202257514" lon="0.724518969655037">
        <ele>87.620000000000005</ele>
        <time>2026-07-12T10:27:11Z</time>
      </trkpt>
      <trkpt lat="51.214809967204928" lon="0.72774700820446">
        <ele>87.620000000000005</ele>
        <time>2026-07-12T10:27:20Z</time>
      </trkpt>
      <trkpt lat="51.213642032817006" lon="0.731304036453366">
        <ele>83.290000000000006</ele>
        <time>2026-07-12T10:27:29Z</time>
      </trkpt>
      <trkpt lat="51.212053997442126" lon="0.736021036282182">
        <ele>77.040000000000006</ele>
        <time>2026-07-12T10:27:41Z</time>
      </trkpt>
      <trkpt lat="51.209665993228555" lon="0.742025999352336">
        <ele>74.640000000000001</ele>
        <time>2026-07-12T10:27:57Z</time>
      </trkpt>
      <trkpt lat="51.207371028140187" lon="0.7470409758389">
        <ele>77.040000000000006</ele>
        <time>2026-07-12T10:28:11Z</time>
      </trkpt>
      <trkpt lat="51.205920958891511" lon="0.750303966924548">
        <ele>76.560000000000002</ele>
        <time>2026-07-12T10:28:20Z</time>
      </trkpt>
      <trkpt lat="51.203924976289272" lon="0.755644999444485">
        <ele>74.159999999999997</ele>
        <time>2026-07-12T10:28:34Z</time>
      </trkpt>
      <trkpt lat="51.202082969248295" lon="0.760095035657287">
        <ele>72.239999999999995</ele>
        <time>2026-07-12T10:28:46Z</time>
      </trkpt>
      <trkpt lat="51.20001096278429" lon="0.764324963092804">
        <ele>68.390000000000001</ele>
        <time>2026-07-12T10:28:58Z</time>
      </trkpt>
      <trkpt lat="51.198193011805415" lon="0.768764019012451">
        <ele>69.829999999999998</ele>
        <time>2026-07-12T10:29:10Z</time>
      </trkpt>
      <trkpt lat="51.196588966995478" lon="0.773398960009217">
        <ele>74.640000000000001</ele>
        <time>2026-07-12T10:29:22Z</time>
      </trkpt>
      <trkpt lat="51.195019958540797" lon="0.779071999713779">
        <ele>80.890000000000001</ele>
        <time>2026-07-12T10:29:36Z</time>
      </trkpt>
      <trkpt lat="51.193706011399627" lon="0.78354500234127">
        <ele>78.969999999999999</ele>
        <time>2026-07-12T10:29:47Z</time>
      </trkpt>
      <trkpt lat="51.191797032952309" lon="0.789024000987411">
        <ele>69.349999999999994</ele>
        <time>2026-07-12T10:30:01Z</time>
      </trkpt>
      <trkpt lat="51.19066103361547" lon="0.793059971183538">
        <ele>65.030000000000001</ele>
        <time>2026-07-12T10:30:11Z</time>
      </trkpt>
      <trkpt lat="51.189944967627525" lon="0.797326024621725">
        <ele>63.579999999999998</ele>
        <time>2026-07-12T10:30:21Z</time>
      </trkpt>
      <trkpt lat="51.189445992931724" lon="0.802606036886573">
        <ele>59.259999999999998</ele>
        <time>2026-07-12T10:30:33Z</time>
      </trkpt>
      <trkpt lat="51.189012983813882" lon="0.808811997994781">
        <ele>62.619999999999997</ele>
        <time>2026-07-12T10:30:47Z</time>
      </trkpt>
      <trkpt lat="51.188782984390855" lon="0.813659001141787">
        <ele>65.030000000000001</ele>
        <time>2026-07-12T10:30:58Z</time>
      </trkpt>
      <trkpt lat="51.188597995787859" lon="0.819895975291729">
        <ele>64.549999999999997</ele>
        <time>2026-07-12T10:31:12Z</time>
      </trkpt>
      <trkpt lat="51.188372019678354" lon="0.824337964877486">
        <ele>65.989999999999995</ele>
        <time>2026-07-12T10:31:22Z</time>
      </trkpt>
      <trkpt lat="51.187586970627308" lon="0.828124992549419">
        <ele>67.909999999999997</ele>
        <time>2026-07-12T10:31:31Z</time>
      </trkpt>
      <trkpt lat="51.186338989064097" lon="0.831603985279799">
        <ele>70.790000000000006</ele>
        <time>2026-07-12T10:31:40Z</time>
      </trkpt>
      <trkpt lat="51.184865031391382" lon="0.834286026656628">
        <ele>72.239999999999995</ele>
        <time>2026-07-12T10:31:48Z</time>
      </trkpt>
      <trkpt lat="51.182845998555422" lon="0.836688028648496">
        <ele>71.269999999999996</ele>
        <time>2026-07-12T10:31:57Z</time>
      </trkpt>
      <trkpt lat="51.17882402613759" lon="0.840750988572836">
        <ele>67.430000000000007</ele>
        <time>2026-07-12T10:32:14Z</time>
      </trkpt>
      <trkpt lat="51.175457015633583" lon="0.844787964597344">
        <ele>65.030000000000001</ele>
        <time>2026-07-12T10:32:29Z</time>
      </trkpt>
      <trkpt lat="51.173220975324512" lon="0.847868984565139">
        <ele>63.579999999999998</ele>
        <time>2026-07-12T10:32:40Z</time>
      </trkpt>
      <trkpt lat="51.170890973880887" lon="0.851445961743593">
        <ele>61.18</ele>
        <time>2026-07-12T10:32:53Z</time>
      </trkpt>
      <trkpt lat="51.16956596262753" lon="0.853677978739142">
        <ele>60.219999999999999</ele>
        <time>2026-07-12T10:33:01Z</time>
      </trkpt>
      <trkpt lat="51.167059019207954" lon="0.857802964746952">
        <ele>56.369999999999997</ele>
        <time>2026-07-12T10:33:16Z</time>
      </trkpt>
      <trkpt lat="51.164477979764342" lon="0.861607007682323">
        <ele>59.740000000000002</ele>
        <time>2026-07-12T10:33:31Z</time>
      </trkpt>
      <trkpt lat="51.163026988506317" lon="0.86387800052762">
        <ele>59.259999999999998</ele>
        <time>2026-07-12T10:33:41Z</time>
      </trkpt>
      <trkpt lat="51.162093998864293" lon="0.866484018042684">
        <ele>52.530000000000001</ele>
        <time>2026-07-12T10:33:51Z</time>
      </trkpt>
      <trkpt lat="51.161736007779837" lon="0.86755296215415">
        <ele>49.159999999999997</ele>
        <time>2026-07-12T10:33:56Z</time>
      </trkpt>
      <trkpt lat="51.161723015829921" lon="0.867725964635611">
        <ele>48.68</ele>
        <time>2026-07-12T10:33:57Z</time>
      </trkpt>
      <trkpt lat="51.161710023880005" lon="0.867899972945452">
        <ele>48.200000000000003</ele>
        <time>2026-07-12T10:33:58Z</time>
      </trkpt>
      <trkpt lat="51.161718992516398" lon="0.868090996518731">
        <ele>47.719999999999999</ele>
        <time>2026-07-12T10:33:59Z</time>
      </trkpt>
      <trkpt lat="51.161785963922739" lon="0.868305992335081">
        <ele>47.240000000000002</ele>
        <time>2026-07-12T10:34:00Z</time>
      </trkpt>
      <trkpt lat="51.161800967529416" lon="0.868660965934396">
        <ele>46.280000000000001</ele>
        <time>2026-07-12T10:34:02Z</time>
      </trkpt>
      <trkpt lat="51.161784958094358" lon="0.868888031691313">
        <ele>46.280000000000001</ele>
        <time>2026-07-12T10:34:03Z</time>
      </trkpt>
      <trkpt lat="51.161712035536766" lon="0.869070002809167">
        <ele>45.799999999999997</ele>
        <time>2026-07-12T10:34:04Z</time>
      </trkpt>
      <trkpt lat="51.161639029160142" lon="0.869208974763751">
        <ele>45.32</ele>
        <time>2026-07-12T10:34:05Z</time>
      </trkpt>
      <trkpt lat="51.161520006135106" lon="0.869364039972425">
        <ele>45.32</ele>
        <time>2026-07-12T10:34:06Z</time>
      </trkpt>
      <trkpt lat="51.161412969231606" lon="0.86942195892334">
        <ele>44.840000000000003</ele>
        <time>2026-07-12T10:34:07Z</time>
      </trkpt>
      <trkpt lat="51.161282965913415" lon="0.869465041905642">
        <ele>44.840000000000003</ele>
        <time>2026-07-12T10:34:08Z</time>
      </trkpt>
      <trkpt lat="51.161174001172185" lon="0.869465041905642">
        <ele>44.840000000000003</ele>
        <time>2026-07-12T10:34:09Z</time>
      </trkpt>
      <trkpt lat="51.161054978147149" lon="0.869410978630185">
        <ele>44.359999999999999</ele>
        <time>2026-07-12T10:34:10Z</time>
      </trkpt>
      <trkpt lat="51.160949030891061" lon="0.869358005002141">
        <ele>44.359999999999999</ele>
        <time>2026-07-12T10:34:11Z</time>
      </trkpt>
      <trkpt lat="51.160847023129463" lon="0.869238981977105">
        <ele>43.880000000000003</ele>
        <time>2026-07-12T10:34:12Z</time>
      </trkpt>
      <trkpt lat="51.160749960690737" lon="0.869125993922353">
        <ele>43.399999999999999</ele>
        <time>2026-07-12T10:34:13Z</time>
      </trkpt>
      <trkpt lat="51.160650970414281" lon="0.869009988382459">
        <ele>43.880000000000003</ele>
        <time>2026-07-12T10:34:14Z</time>
      </trkpt>
      <trkpt lat="51.160557009279728" lon="0.868900017812848">
        <ele>43.880000000000003</ele>
        <time>2026-07-12T10:34:15Z</time>
      </trkpt>
      <trkpt lat="51.160457013174891" lon="0.868784012272954">
        <ele>43.880000000000003</ele>
        <time>2026-07-12T10:34:16Z</time>
      </trkpt>
      <trkpt lat="51.160327009856701" lon="0.868606986477971">
        <ele>43.880000000000003</ele>
        <time>2026-07-12T10:34:17Z</time>
      </trkpt>
      <trkpt lat="51.160287028178573" lon="0.868544960394502">
        <ele>43.399999999999999</ele>
        <time>2026-07-12T10:34:18Z</time>
      </trkpt>
      <trkpt lat="51.160223996266723" lon="0.868449993431568">
        <ele>43.399999999999999</ele>
        <time>2026-07-12T10:34:19Z</time>
      </trkpt>
      <trkpt lat="51.16017596796155" lon="0.868374975398183">
        <ele>42.920000000000002</ele>
        <time>2026-07-12T10:34:20Z</time>
      </trkpt>
      <trkpt lat="51.160098016262054" lon="0.868256036192179">
        <ele>42.439999999999998</ele>
        <time>2026-07-12T10:34:22Z</time>
      </trkpt>
      <trkpt lat="51.160073960199952" lon="0.868218988180161">
        <ele>41.950000000000003</ele>
        <time>2026-07-12T10:34:23Z</time>
      </trkpt>
      <trkpt lat="51.160058034583926" lon="0.86819501593709">
        <ele>41.950000000000003</ele>
        <time>2026-07-12T10:34:24Z</time>
      </trkpt>
      <trkpt lat="51.160043030977249" lon="0.868171965703368">
        <ele>41.950000000000003</ele>
        <time>2026-07-12T10:34:25Z</time>
      </trkpt>
      <trkpt lat="51.16000497713685" lon="0.868113040924072">
        <ele>42.439999999999998</ele>
        <time>2026-07-12T10:34:33Z</time>
      </trkpt>
      <trkpt lat="51.15987597964704" lon="0.867748009040952">
        <ele>42.920000000000002</ele>
        <time>2026-07-12T10:34:36Z</time>
      </trkpt>
      <trkpt lat="51.159855024889112" lon="0.867597972974181">
        <ele>43.399999999999999</ele>
        <time>2026-07-12T10:34:37Z</time>
      </trkpt>
      <trkpt lat="51.159833986312151" lon="0.867298990488052">
        <ele>43.880000000000003</ele>
        <time>2026-07-12T10:34:38Z</time>
      </trkpt>
      <trkpt lat="51.159640029072762" lon="0.866478988900781">
        <ele>45.32</ele>
        <time>2026-07-12T10:34:41Z</time>
      </trkpt>
      <trkpt lat="51.159568028524518" lon="0.866174977272749">
        <ele>46.280000000000001</ele>
        <time>2026-07-12T10:34:42Z</time>
      </trkpt>
      <trkpt lat="51.159493010491133" lon="0.865858979523182">
        <ele>47.240000000000002</ele>
        <time>2026-07-12T10:34:43Z</time>
      </trkpt>
      <trkpt lat="51.158563960343599" lon="0.863322028890252">
        <ele>55.890000000000001</ele>
        <time>2026-07-12T10:34:52Z</time>
      </trkpt>
      <trkpt lat="51.158226002007723" lon="0.862646028399467">
        <ele>58.780000000000001</ele>
        <time>2026-07-12T10:34:57Z</time>
      </trkpt>
      <trkpt lat="51.158207980915904" lon="0.86260998621583">
        <ele>59.740000000000002</ele>
        <time>2026-07-12T10:35:04Z</time>
      </trkpt>
      <trkpt lat="51.158057022839785" lon="0.862307986244559">
        <ele>60.219999999999999</ele>
        <time>2026-07-12T10:35:17Z</time>
      </trkpt>
      <trkpt lat="51.157616972923279" lon="0.861556967720389">
        <ele>62.140000000000001</ele>
        <time>2026-07-12T10:35:25Z</time>
      </trkpt>
      <trkpt lat="51.157472971826792" lon="0.861397041007876">
        <ele>62.619999999999997</ele>
        <time>2026-07-12T10:35:29Z</time>
      </trkpt>
      <trkpt lat="51.157425027340651" lon="0.861367033794522">
        <ele>62.619999999999997</ele>
        <time>2026-07-12T10:35:30Z</time>
      </trkpt>
      <trkpt lat="51.157376999035478" lon="0.861336020752788">
        <ele>63.100000000000001</ele>
        <time>2026-07-12T10:35:31Z</time>
      </trkpt>
      <trkpt lat="51.157327964901924" lon="0.861305007711053">
        <ele>63.100000000000001</ele>
        <time>2026-07-12T10:35:32Z</time>
      </trkpt>
      <trkpt lat="51.157279014587402" lon="0.861273994669318">
        <ele>63.100000000000001</ele>
        <time>2026-07-12T10:35:33Z</time>
      </trkpt>
      <trkpt lat="51.157200979068875" lon="0.861264020204544">
        <ele>63.579999999999998</ele>
        <time>2026-07-12T10:35:34Z</time>
      </trkpt>
      <trkpt lat="51.15716896019876" lon="0.861253961920738">
        <ele>63.579999999999998</ele>
        <time>2026-07-12T10:35:35Z</time>
      </trkpt>
      <trkpt lat="51.157058989629149" lon="0.861194031313062">
        <ele>64.069999999999993</ele>
        <time>2026-07-12T10:35:37Z</time>
      </trkpt>
      <trkpt lat="51.156995035707951" lon="0.861160000786185">
        <ele>64.069999999999993</ele>
        <time>2026-07-12T10:35:38Z</time>
      </trkpt>
      <trkpt lat="51.156938960775733" lon="0.861121024936438">
        <ele>64.069999999999993</ele>
        <time>2026-07-12T10:35:39Z</time>
      </trkpt>
      <trkpt lat="51.156722037121654" lon="0.860903011634946">
        <ele>63.100000000000001</ele>
        <time>2026-07-12T10:35:43Z</time>
      </trkpt>
      <trkpt lat="51.156577030196786" lon="0.860932013019919">
        <ele>63.579999999999998</ele>
        <time>2026-07-12T10:35:44Z</time>
      </trkpt>
      <trkpt lat="51.156489020213485" lon="0.860950034111738">
        <ele>63.579999999999998</ele>
        <time>2026-07-12T10:35:45Z</time>
      </trkpt>
      <trkpt lat="51.156400004401803" lon="0.860967971384525">
        <ele>63.579999999999998</ele>
        <time>2026-07-12T10:35:46Z</time>
      </trkpt>
      <trkpt lat="51.156293973326683" lon="0.861051036044955">
        <ele>63.579999999999998</ele>
        <time>2026-07-12T10:35:47Z</time>
      </trkpt>
      <trkpt lat="51.156172016635537" lon="0.861147008836269">
        <ele>63.579999999999998</ele>
        <time>2026-07-12T10:35:48Z</time>
      </trkpt>
      <trkpt lat="51.156040001660585" lon="0.861252034083009">
        <ele>63.579999999999998</ele>
        <time>2026-07-12T10:35:49Z</time>
      </trkpt>
      <trkpt lat="51.155911004170775" lon="0.861370973289013">
        <ele>63.579999999999998</ele>
        <time>2026-07-12T10:35:50Z</time>
      </trkpt>
      <trkpt lat="51.154790008440614" lon="0.862529017031193">
        <ele>64.549999999999997</ele>
        <time>2026-07-12T10:36:00Z</time>
      </trkpt>
      <trkpt lat="51.153625007718801" lon="0.863829972222447">
        <ele>65.510000000000005</ele>
        <time>2026-07-12T10:36:13Z</time>
      </trkpt>
      <trkpt lat="51.153425015509129" lon="0.864097019657493">
        <ele>64.549999999999997</ele>
        <time>2026-07-12T10:36:21Z</time>
      </trkpt>
      <trkpt lat="51.152991000562906" lon="0.864685010164976">
        <ele>66.469999999999999</ele>
        <time>2026-07-12T10:36:28Z</time>
      </trkpt>
      <trkpt lat="51.152281975373626" lon="0.86568103171885">
        <ele>66.469999999999999</ele>
        <time>2026-07-12T10:36:38Z</time>
      </trkpt>
      <trkpt lat="51.151928007602692" lon="0.866344962269068">
        <ele>65.510000000000005</ele>
        <time>2026-07-12T10:36:44Z</time>
      </trkpt>
      <trkpt lat="51.15190302953124" lon="0.866444036364555">
        <ele>65.510000000000005</ele>
        <time>2026-07-12T10:36:45Z</time>
      </trkpt>
      <trkpt lat="51.15188299678266" lon="0.866527017205954">
        <ele>65.510000000000005</ele>
        <time>2026-07-12T10:36:46Z</time>
      </trkpt>
      <trkpt lat="51.151893977075815" lon="0.866709994152188">
        <ele>65.510000000000005</ele>
        <time>2026-07-12T10:36:47Z</time>
      </trkpt>
      <trkpt lat="51.152001013979316" lon="0.866847038269043">
        <ele>65.030000000000001</ele>
        <time>2026-07-12T10:36:48Z</time>
      </trkpt>
      <trkpt lat="51.152001013979316" lon="0.866878973320127">
        <ele>65.030000000000001</ele>
        <time>2026-07-12T10:36:49Z</time>
      </trkpt>
      <trkpt lat="51.152001013979316" lon="0.866995984688401">
        <ele>64.549999999999997</ele>
        <time>2026-07-12T10:36:50Z</time>
      </trkpt>
      <trkpt lat="51.15194502286613" lon="0.867124982178211">
        <ele>64.549999999999997</ele>
        <time>2026-07-12T10:36:51Z</time>
      </trkpt>
      <trkpt lat="51.151894982904196" lon="0.867198994383216">
        <ele>64.069999999999993</ele>
        <time>2026-07-12T10:36:52Z</time>
      </trkpt>
      <trkpt lat="51.151825999841094" lon="0.867240987718105">
        <ele>64.069999999999993</ele>
        <time>2026-07-12T10:36:53Z</time>
      </trkpt>
      <trkpt lat="51.151743018999696" lon="0.867254985496402">
        <ele>63.579999999999998</ele>
        <time>2026-07-12T10:36:54Z</time>
      </trkpt>
      <trkpt lat="51.151651991531253" lon="0.867269989103079">
        <ele>63.579999999999998</ele>
        <time>2026-07-12T10:36:55Z</time>
      </trkpt>
      <trkpt lat="51.151456022635102" lon="0.867324974387884">
        <ele>63.100000000000001</ele>
        <time>2026-07-12T10:36:57Z</time>
      </trkpt>
      <trkpt lat="51.151361977681518" lon="0.867410972714424">
        <ele>63.100000000000001</ele>
        <time>2026-07-12T10:36:58Z</time>
      </trkpt>
      <trkpt lat="51.151271034032106" lon="0.867494959384203">
        <ele>62.619999999999997</ele>
        <time>2026-07-12T10:36:59Z</time>
      </trkpt>
      <trkpt lat="51.151200039312243" lon="0.867595039308071">
        <ele>62.140000000000001</ele>
        <time>2026-07-12T10:37:00Z</time>
      </trkpt>
      <trkpt lat="51.151148993521929" lon="0.867706015706062">
        <ele>61.659999999999997</ele>
        <time>2026-07-12T10:37:01Z</time>
      </trkpt>
      <trkpt lat="51.151100965216756" lon="0.867810035124421">
        <ele>61.18</ele>
        <time>2026-07-12T10:37:02Z</time>
      </trkpt>
      <trkpt lat="51.15078697912395" lon="0.868443036451936">
        <ele>58.299999999999997</ele>
        <time>2026-07-12T10:37:09Z</time>
      </trkpt>
      <trkpt lat="51.150750014930964" lon="0.868514031171799">
        <ele>58.299999999999997</ele>
        <time>2026-07-12T10:37:10Z</time>
      </trkpt>
      <trkpt lat="51.150715984404087" lon="0.868581002578139">
        <ele>57.82</ele>
        <time>2026-07-12T10:37:11Z</time>
      </trkpt>
      <trkpt lat="51.150533007457852" lon="0.868958020582795">
        <ele>56.369999999999997</ele>
        <time>2026-07-12T10:37:21Z</time>
      </trkpt>
      <trkpt lat="51.150455977767706" lon="0.8693359605968">
        <ele>56.369999999999997</ele>
        <time>2026-07-12T10:37:29Z</time>
      </trkpt>
      <trkpt lat="51.150469975546002" lon="0.869364039972425">
        <ele>55.890000000000001</ele>
        <time>2026-07-12T10:37:30Z</time>
      </trkpt>
      <trkpt lat="51.150513980537653" lon="0.869451966136694">
        <ele>55.890000000000001</ele>
        <time>2026-07-12T10:37:31Z</time>
      </trkpt>
      <trkpt lat="51.150558991357684" lon="0.869542993605137">
        <ele>55.890000000000001</ele>
        <time>2026-07-12T10:37:32Z</time>
      </trkpt>
      <trkpt lat="51.150601990520954" lon="0.869636032730341">
        <ele>55.890000000000001</ele>
        <time>2026-07-12T10:37:33Z</time>
      </trkpt>
      <trkpt lat="51.150802988559008" lon="0.870123021304607">
        <ele>55.409999999999997</ele>
        <time>2026-07-12T10:37:37Z</time>
      </trkpt>
      <trkpt lat="51.151052014902234" lon="0.871474016457796">
        <ele>54.93</ele>
        <time>2026-07-12T10:37:45Z</time>
      </trkpt>
      <trkpt lat="51.151048997417092" lon="0.87165598757565">
        <ele>54.450000000000003</ele>
        <time>2026-07-12T10:37:46Z</time>
      </trkpt>
      <trkpt lat="51.150973979383707" lon="0.872911009937525">
        <ele>52.530000000000001</ele>
        <time>2026-07-12T10:37:55Z</time>
      </trkpt>
      <trkpt lat="51.150970039889216" lon="0.872990973293781">
        <ele>52.049999999999997</ele>
        <time>2026-07-12T10:37:56Z</time>
      </trkpt>
      <trkpt lat="51.150966016575694" lon="0.87305098772049">
        <ele>52.049999999999997</ele>
        <time>2026-07-12T10:37:57Z</time>
      </trkpt>
      <trkpt lat="51.150962999090552" lon="0.873097004368901">
        <ele>52.049999999999997</ele>
        <time>2026-07-12T10:37:58Z</time>
      </trkpt>
      <trkpt lat="51.150960987433791" lon="0.873132040724158">
        <ele>51.57</ele>
        <time>2026-07-12T10:37:59Z</time>
      </trkpt>
      <trkpt lat="51.150959981605411" lon="0.873159030452371">
        <ele>51.57</ele>
        <time>2026-07-12T10:38:00Z</time>
      </trkpt>
      <trkpt lat="51.151101971045136" lon="0.873394981026649">
        <ele>51.090000000000003</ele>
        <time>2026-07-12T10:38:11Z</time>
      </trkpt>
      <trkpt lat="51.151101971045136" lon="0.873394981026649">
        <ele>50.609999999999999</ele>
        <time>2026-07-12T10:39:02Z</time>
      </trkpt>
      <trkpt lat="51.151140024885535" lon="0.873231031000614">
        <ele>25.129999999999999</ele>
        <time>2026-07-12T10:43:51Z</time>
      </trkpt>
      <trkpt lat="51.151163997128606" lon="0.873457007110119">
        <ele>45.32</ele>
        <time>2026-07-12T10:44:19Z</time>
      </trkpt>
      <trkpt lat="51.15119400434196" lon="0.87365398183465">
        <ele>60.219999999999999</ele>
        <time>2026-07-12T10:45:04Z</time>
      </trkpt>
      <trkpt lat="51.151256030425429" lon="0.87365398183465">
        <ele>63.579999999999998</ele>
        <time>2026-07-12T10:45:19Z</time>
      </trkpt>
      <trkpt lat="51.151288971304893" lon="0.873649958521128">
        <ele>66.950000000000003</ele>
        <time>2026-07-12T10:45:23Z</time>
      </trkpt>
      <trkpt lat="51.151378992944956" lon="0.873501012101769">
        <ele>65.989999999999995</ele>
        <time>2026-07-12T10:45:29Z</time>
      </trkpt>
      <trkpt lat="51.151440013200045" lon="0.873505035415292">
        <ele>65.030000000000001</ele>
        <time>2026-07-12T10:45:30Z</time>
      </trkpt>
      <trkpt lat="51.151612009853125" lon="0.873515009880066">
        <ele>65.510000000000005</ele>
        <time>2026-07-12T10:45:38Z</time>
      </trkpt>
      <trkpt lat="51.151864975690842" lon="0.873539987951517">
        <ele>63.100000000000001</ele>
        <time>2026-07-12T10:45:44Z</time>
      </trkpt>
      <trkpt lat="51.152901984751225" lon="0.873699998483062">
        <ele>58.299999999999997</ele>
        <time>2026-07-12T10:45:54Z</time>
      </trkpt>
      <trkpt lat="51.153560969978571" lon="0.873971991240978">
        <ele>56.859999999999999</ele>
        <time>2026-07-12T10:45:59Z</time>
      </trkpt>
      <trkpt lat="51.153698014095426" lon="0.874051032587886">
        <ele>56.369999999999997</ele>
        <time>2026-07-12T10:46:00Z</time>
      </trkpt>
      <trkpt lat="51.15383698605001" lon="0.874130995944142">
        <ele>55.890000000000001</ele>
        <time>2026-07-12T10:46:01Z</time>
      </trkpt>
      <trkpt lat="51.153973024338484" lon="0.87421003729105">
        <ele>55.409999999999997</ele>
        <time>2026-07-12T10:46:02Z</time>
      </trkpt>
      <trkpt lat="51.154097998514771" lon="0.874282037839293">
        <ele>54.93</ele>
        <time>2026-07-12T10:46:03Z</time>
      </trkpt>
      <trkpt lat="51.154209980741143" lon="0.874345991760492">
        <ele>54.450000000000003</ele>
        <time>2026-07-12T10:46:04Z</time>
      </trkpt>
      <trkpt lat="51.154305031523108" lon="0.874400977045298">
        <ele>53.969999999999999</ele>
        <time>2026-07-12T10:46:05Z</time>
      </trkpt>
      <trkpt lat="51.154376026242971" lon="0.874441964551806">
        <ele>53.490000000000002</ele>
        <time>2026-07-12T10:46:06Z</time>
      </trkpt>
      <trkpt lat="51.154490020126104" lon="0.874507008120418">
        <ele>53.009999999999998</ele>
        <time>2026-07-12T10:46:12Z</time>
      </trkpt>
      <trkpt lat="51.154490020126104" lon="0.874507008120418">
        <ele>53.009999999999998</ele>
        <time>2026-07-12T10:46:29Z</time>
      </trkpt>
      <trkpt lat="51.154552968218923" lon="0.874512959271669">
        <ele>53.009999999999998</ele>
        <time>2026-07-12T10:46:30Z</time>
      </trkpt>
      <trkpt lat="51.154578030109406" lon="0.874467026442289">
        <ele>53.009999999999998</ele>
        <time>2026-07-12T10:46:31Z</time>
      </trkpt>
      <trkpt lat="51.154618011787534" lon="0.874393014237285">
        <ele>53.009999999999998</ele>
        <time>2026-07-12T10:46:32Z</time>
      </trkpt>
      <trkpt lat="51.154682971537113" lon="0.874257981777191">
        <ele>53.009999999999998</ele>
        <time>2026-07-12T10:46:33Z</time>
      </trkpt>
      <trkpt lat="51.154680959880352" lon="0.87412403896451">
        <ele>53.009999999999998</ele>
        <time>2026-07-12T10:46:34Z</time>
      </trkpt>
      <trkpt lat="51.154678026214242" lon="0.873976014554501">
        <ele>53.009999999999998</ele>
        <time>2026-07-12T10:46:35Z</time>
      </trkpt>
      <trkpt lat="51.1546750087291" lon="0.873830001801252">
        <ele>53.009999999999998</ele>
        <time>2026-07-12T10:46:36Z</time>
      </trkpt>
      <trkpt lat="51.154671991243958" lon="0.873665967956185">
        <ele>53.009999999999998</ele>
        <time>2026-07-12T10:46:37Z</time>
      </trkpt>
      <trkpt lat="51.154668973758817" lon="0.873474022373557">
        <ele>53.490000000000002</ele>
        <time>2026-07-12T10:46:38Z</time>
      </trkpt>
      <trkpt lat="51.154665034264326" lon="0.873280987143517">
        <ele>53.490000000000002</ele>
        <time>2026-07-12T10:46:39Z</time>
      </trkpt>
      <trkpt lat="51.154600996524096" lon="0.872690984979272">
        <ele>53.969999999999999</ele>
        <time>2026-07-12T10:46:42Z</time>
      </trkpt>
      <trkpt lat="51.154405027627945" lon="0.871786996722221">
        <ele>54.93</ele>
        <time>2026-07-12T10:46:47Z</time>
      </trkpt>
      <trkpt lat="51.154191037639976" lon="0.870928019285202">
        <ele>56.859999999999999</ele>
        <time>2026-07-12T10:46:52Z</time>
      </trkpt>
      <trkpt lat="51.15411601960659" lon="0.87077597156167">
        <ele>57.82</ele>
        <time>2026-07-12T10:46:53Z</time>
      </trkpt>
      <trkpt lat="51.154041001573205" lon="0.870627025142312">
        <ele>58.299999999999997</ele>
        <time>2026-07-12T10:46:54Z</time>
      </trkpt>
      <trkpt lat="51.15317297168076" lon="0.86931400001049">
        <ele>64.069999999999993</ele>
        <time>2026-07-12T10:47:03Z</time>
      </trkpt>
      <trkpt lat="51.152987983077765" lon="0.86899297311902">
        <ele>64.549999999999997</ele>
        <time>2026-07-12T10:47:05Z</time>
      </trkpt>
      <trkpt lat="51.152922017499804" lon="0.868860958144069">
        <ele>65.030000000000001</ele>
        <time>2026-07-12T10:47:06Z</time>
      </trkpt>
      <trkpt lat="51.152476016432047" lon="0.868107005953789">
        <ele>68.390000000000001</ele>
        <time>2026-07-12T10:47:12Z</time>
      </trkpt>
      <trkpt lat="51.152150966227055" lon="0.867662010714412">
        <ele>68.870000000000005</ele>
        <time>2026-07-12T10:47:17Z</time>
      </trkpt>
      <trkpt lat="51.152107967063785" lon="0.867587998509407">
        <ele>68.870000000000005</ele>
        <time>2026-07-12T10:47:18Z</time>
      </trkpt>
      <trkpt lat="51.152072008699179" lon="0.867525972425938">
        <ele>68.870000000000005</ele>
        <time>2026-07-12T10:47:19Z</time>
      </trkpt>
      <trkpt lat="51.152021968737245" lon="0.867440979927778">
        <ele>69.349999999999994</ele>
        <time>2026-07-12T10:47:26Z</time>
      </trkpt>
      <trkpt lat="51.152001013979316" lon="0.867405021563172">
        <ele>69.349999999999994</ele>
        <time>2026-07-12T10:47:30Z</time>
      </trkpt>
      <trkpt lat="51.15190202370286" lon="0.867273006588221">
        <ele>69.349999999999994</ele>
        <time>2026-07-12T10:47:39Z</time>
      </trkpt>
      <trkpt lat="51.15168702788651" lon="0.867197988554835">
        <ele>69.349999999999994</ele>
        <time>2026-07-12T10:47:42Z</time>
      </trkpt>
      <trkpt lat="51.151637993752956" lon="0.867089023813605">
        <ele>68.870000000000005</ele>
        <time>2026-07-12T10:47:43Z</time>
      </trkpt>
      <trkpt lat="51.151615027338266" lon="0.866996990516782">
        <ele>68.870000000000005</ele>
        <time>2026-07-12T10:47:44Z</time>
      </trkpt>
      <trkpt lat="51.151633970439434" lon="0.866890037432313">
        <ele>68.870000000000005</ele>
        <time>2026-07-12T10:47:45Z</time>
      </trkpt>
      <trkpt lat="51.151648974046111" lon="0.866805966943502">
        <ele>68.390000000000001</ele>
        <time>2026-07-12T10:47:46Z</time>
      </trkpt>
      <trkpt lat="51.151658026501536" lon="0.866761039942503">
        <ele>68.390000000000001</ele>
        <time>2026-07-12T10:47:47Z</time>
      </trkpt>
      <trkpt lat="51.151713011786342" lon="0.866677975282073">
        <ele>68.390000000000001</ele>
        <time>2026-07-12T10:47:48Z</time>
      </trkpt>
      <trkpt lat="51.151741007342935" lon="0.866590971127152">
        <ele>68.390000000000001</ele>
        <time>2026-07-12T10:47:49Z</time>
      </trkpt>
      <trkpt lat="51.151948040351272" lon="0.866053020581603">
        <ele>67.909999999999997</ele>
        <time>2026-07-12T10:47:54Z</time>
      </trkpt>
      <trkpt lat="51.151983998715878" lon="0.865975990891457">
        <ele>67.909999999999997</ele>
        <time>2026-07-12T10:47:55Z</time>
      </trkpt>
      <trkpt lat="51.152005959302187" lon="0.865927040576935">
        <ele>67.430000000000007</ele>
        <time>2026-07-12T10:47:57Z</time>
      </trkpt>
      <trkpt lat="51.152005959302187" lon="0.865927040576935">
        <ele>66.950000000000003</ele>
        <time>2026-07-12T10:48:10Z</time>
      </trkpt>
      <trkpt lat="51.152033032849431" lon="0.865868031978607">
        <ele>66.469999999999999</ele>
        <time>2026-07-12T10:48:16Z</time>
      </trkpt>
      <trkpt lat="51.152057005092502" lon="0.865816986188293">
        <ele>65.989999999999995</ele>
        <time>2026-07-12T10:48:17Z</time>
      </trkpt>
      <trkpt lat="51.152299996465445" lon="0.864905035123229">
        <ele>64.549999999999997</ele>
        <time>2026-07-12T10:48:24Z</time>
      </trkpt>
      <trkpt lat="51.152481967583299" lon="0.864044968038797">
        <ele>64.069999999999993</ele>
        <time>2026-07-12T10:48:29Z</time>
      </trkpt>
      <trkpt lat="51.152683971449733" lon="0.863068979233503">
        <ele>61.659999999999997</ele>
        <time>2026-07-12T10:48:35Z</time>
      </trkpt>
      <trkpt lat="51.152710039168596" lon="0.862898994237185">
        <ele>61.18</ele>
        <time>2026-07-12T10:48:36Z</time>
      </trkpt>
      <trkpt lat="51.15273904055357" lon="0.862714005634189">
        <ele>60.700000000000003</ele>
        <time>2026-07-12T10:48:37Z</time>
      </trkpt>
      <trkpt lat="51.152767958119512" lon="0.86252398788929">
        <ele>60.219999999999999</ele>
        <time>2026-07-12T10:48:38Z</time>
      </trkpt>
      <trkpt lat="51.152767036110163" lon="0.862342016771436">
        <ele>59.740000000000002</ele>
        <time>2026-07-12T10:48:39Z</time>
      </trkpt>
      <trkpt lat="51.152756977826357" lon="0.862141018733382">
        <ele>59.259999999999998</ele>
        <time>2026-07-12T10:48:40Z</time>
      </trkpt>
      <trkpt lat="51.152722025290132" lon="0.861372984945774">
        <ele>57.82</ele>
        <time>2026-07-12T10:48:44Z</time>
      </trkpt>
      <trkpt lat="51.152712972834706" lon="0.861180033534765">
        <ele>57.82</ele>
        <time>2026-07-12T10:48:45Z</time>
      </trkpt>
      <trkpt lat="51.152578024193645" lon="0.859547993168235">
        <ele>53.009999999999998</ele>
        <time>2026-07-12T10:48:55Z</time>
      </trkpt>
      <trkpt lat="51.152558997273445" lon="0.859443973749876">
        <ele>52.049999999999997</ele>
        <time>2026-07-12T10:48:56Z</time>
      </trkpt>
      <trkpt lat="51.152558997273445" lon="0.859294021502137">
        <ele>51.090000000000003</ele>
        <time>2026-07-12T10:48:57Z</time>
      </trkpt>
      <trkpt lat="51.152558997273445" lon="0.858779037371278">
        <ele>51.090000000000003</ele>
        <time>2026-07-12T10:49:01Z</time>
      </trkpt>
      <trkpt lat="51.152558997273445" lon="0.858396990224719">
        <ele>52.049999999999997</ele>
        <time>2026-07-12T10:49:04Z</time>
      </trkpt>
      <trkpt lat="51.152493031695485" lon="0.858297999948263">
        <ele>52.049999999999997</ele>
        <time>2026-07-12T10:49:05Z</time>
      </trkpt>
      <trkpt lat="51.152479033917189" lon="0.858181994408369">
        <ele>51.57</ele>
        <time>2026-07-12T10:49:06Z</time>
      </trkpt>
      <trkpt lat="51.152489008381963" lon="0.85805500857532">
        <ele>51.090000000000003</ele>
        <time>2026-07-12T10:49:07Z</time>
      </trkpt>
      <trkpt lat="51.152536030858755" lon="0.857977978885174">
        <ele>51.090000000000003</ele>
        <time>2026-07-12T10:49:08Z</time>
      </trkpt>
      <trkpt lat="51.152586992830038" lon="0.857917964458466">
        <ele>50.609999999999999</ele>
        <time>2026-07-12T10:49:09Z</time>
      </trkpt>
      <trkpt lat="51.152641978114843" lon="0.857878988608718">
        <ele>50.609999999999999</ele>
        <time>2026-07-12T10:49:10Z</time>
      </trkpt>
      <trkpt lat="51.15269998088479" lon="0.857911007478833">
        <ele>50.130000000000003</ele>
        <time>2026-07-12T10:49:11Z</time>
      </trkpt>
      <trkpt lat="51.15276200696826" lon="0.857960963621736">
        <ele>50.130000000000003</ele>
        <time>2026-07-12T10:49:12Z</time>
      </trkpt>
      <trkpt lat="51.15282797254622" lon="0.858081998303533">
        <ele>49.649999999999999</ele>
        <time>2026-07-12T10:49:13Z</time>
      </trkpt>
      <trkpt lat="51.153008015826344" lon="0.858262963593006">
        <ele>49.649999999999999</ele>
        <time>2026-07-12T10:49:15Z</time>
      </trkpt>
      <trkpt lat="51.153108011931181" lon="0.858362037688494">
        <ele>49.159999999999997</ele>
        <time>2026-07-12T10:49:16Z</time>
      </trkpt>
      <trkpt lat="51.153230974450707" lon="0.858423979952931">
        <ele>49.159999999999997</ele>
        <time>2026-07-12T10:49:17Z</time>
      </trkpt>
      <trkpt lat="51.153358966112137" lon="0.858482988551259">
        <ele>49.159999999999997</ele>
        <time>2026-07-12T10:49:18Z</time>
      </trkpt>
      <trkpt lat="51.153500033542514" lon="0.858518024906516">
        <ele>49.159999999999997</ele>
        <time>2026-07-12T10:49:19Z</time>
      </trkpt>
      <trkpt lat="51.153644034639001" lon="0.858544008806348">
        <ele>49.649999999999999</ele>
        <time>2026-07-12T10:49:20Z</time>
      </trkpt>
      <trkpt lat="51.153798010200262" lon="0.858555994927883">
        <ele>50.609999999999999</ele>
        <time>2026-07-12T10:49:21Z</time>
      </trkpt>
      <trkpt lat="51.154795037582517" lon="0.858337981626391">
        <ele>57.82</ele>
        <time>2026-07-12T10:49:28Z</time>
      </trkpt>
      <trkpt lat="51.155222011730075" lon="0.858282996341586">
        <ele>61.659999999999997</ele>
        <time>2026-07-12T10:49:34Z</time>
      </trkpt>
      <trkpt lat="51.155327036976814" lon="0.858305040746927">
        <ele>63.100000000000001</ele>
        <time>2026-07-12T10:49:38Z</time>
      </trkpt>
      <trkpt lat="51.155346985906363" lon="0.858308980241418">
        <ele>63.579999999999998</ele>
        <time>2026-07-12T10:49:39Z</time>
      </trkpt>
      <trkpt lat="51.155346985906363" lon="0.858308980241418">
        <ele>63.579999999999998</ele>
        <time>2026-07-12T10:49:51Z</time>
      </trkpt>
      <trkpt lat="51.155455028638244" lon="0.85833303630352">
        <ele>64.069999999999993</ele>
        <time>2026-07-12T10:50:06Z</time>
      </trkpt>
      <trkpt lat="51.155755016952753" lon="0.858407970517874">
        <ele>64.549999999999997</ele>
        <time>2026-07-12T10:50:09Z</time>
      </trkpt>
      <trkpt lat="51.156118959188461" lon="0.858680969104171">
        <ele>65.510000000000005</ele>
        <time>2026-07-12T10:50:12Z</time>
      </trkpt>
      <trkpt lat="51.156249968335032" lon="0.858779037371278">
        <ele>65.510000000000005</ele>
        <time>2026-07-12T10:50:13Z</time>
      </trkpt>
      <trkpt lat="51.156316017732024" lon="0.858879033476114">
        <ele>65.510000000000005</ele>
        <time>2026-07-12T10:50:14Z</time>
      </trkpt>
      <trkpt lat="51.156538976356387" lon="0.859230989590287">
        <ele>64.549999999999997</ele>
        <time>2026-07-12T10:50:18Z</time>
      </trkpt>
      <trkpt lat="51.156559009104967" lon="0.859274994581938">
        <ele>64.069999999999993</ele>
        <time>2026-07-12T10:50:19Z</time>
      </trkpt>
      <trkpt lat="51.156574012711644" lon="0.859306007623672">
        <ele>64.069999999999993</ele>
        <time>2026-07-12T10:50:20Z</time>
      </trkpt>
      <trkpt lat="51.156742991879582" lon="0.859672967344522">
        <ele>63.100000000000001</ele>
        <time>2026-07-12T10:50:28Z</time>
      </trkpt>
      <trkpt lat="51.156742991879582" lon="0.859672967344522">
        <ele>63.100000000000001</ele>
        <time>2026-07-12T10:50:36Z</time>
      </trkpt>
      <trkpt lat="51.156774004921317" lon="0.859757037833333">
        <ele>63.100000000000001</ele>
        <time>2026-07-12T10:51:08Z</time>
      </trkpt>
      <trkpt lat="51.156805017963052" lon="0.859841024503112">
        <ele>62.619999999999997</ele>
        <time>2026-07-12T10:51:09Z</time>
      </trkpt>
      <trkpt lat="51.156890010461211" lon="0.860025007277727">
        <ele>62.140000000000001</ele>
        <time>2026-07-12T10:51:10Z</time>
      </trkpt>
      <trkpt lat="51.156980032101274" lon="0.86003297008574">
        <ele>61.659999999999997</ele>
        <time>2026-07-12T10:51:11Z</time>
      </trkpt>
      <trkpt lat="51.157082039862871" lon="0.860042022541165">
        <ele>60.700000000000003</ele>
        <time>2026-07-12T10:51:12Z</time>
      </trkpt>
      <trkpt lat="51.157159991562366" lon="0.860137995332479">
        <ele>60.219999999999999</ele>
        <time>2026-07-12T10:51:13Z</time>
      </trkpt>
      <trkpt lat="51.157235009595752" lon="0.860272021964192">
        <ele>60.219999999999999</ele>
        <time>2026-07-12T10:51:14Z</time>
      </trkpt>
      <trkpt lat="51.157313967123628" lon="0.860411999747157">
        <ele>60.219999999999999</ele>
        <time>2026-07-12T10:51:15Z</time>
      </trkpt>
      <trkpt lat="51.158016035333276" lon="0.861801970750093">
        <ele>58.780000000000001</ele>
        <time>2026-07-12T10:51:24Z</time>
      </trkpt>
      <trkpt lat="51.158078983426094" lon="0.861933985725045">
        <ele>58.780000000000001</ele>
        <time>2026-07-12T10:51:28Z</time>
      </trkpt>
      <trkpt lat="51.158078983426094" lon="0.861933985725045">
        <ele>58.780000000000001</ele>
        <time>2026-07-12T10:52:03Z</time>
      </trkpt>
      <trkpt lat="51.158207980915904" lon="0.862204972654581">
        <ele>57.340000000000003</ele>
        <time>2026-07-12T10:52:24Z</time>
      </trkpt>
      <trkpt lat="51.158729000017047" lon="0.86340400390327">
        <ele>54.450000000000003</ele>
        <time>2026-07-12T10:52:31Z</time>
      </trkpt>
      <trkpt lat="51.159526035189629" lon="0.865647001191974">
        <ele>47.719999999999999</ele>
        <time>2026-07-12T10:52:43Z</time>
      </trkpt>
      <trkpt lat="51.159781012684107" lon="0.86634797975421">
        <ele>45.799999999999997</ele>
        <time>2026-07-12T10:52:48Z</time>
      </trkpt>
      <trkpt lat="51.1598090082407" lon="0.866401037201285">
        <ele>45.799999999999997</ele>
        <time>2026-07-12T10:52:49Z</time>
      </trkpt>
      <trkpt lat="51.159833986312151" lon="0.86643397808075">
        <ele>45.32</ele>
        <time>2026-07-12T10:52:50Z</time>
      </trkpt>
      <trkpt lat="51.15985200740397" lon="0.866458034142852">
        <ele>45.32</ele>
        <time>2026-07-12T10:52:51Z</time>
      </trkpt>
      <trkpt lat="51.159867011010647" lon="0.86647697724402">
        <ele>45.32</ele>
        <time>2026-07-12T10:52:52Z</time>
      </trkpt>
      <trkpt lat="51.159867011010647" lon="0.86647697724402">
        <ele>45.32</ele>
        <time>2026-07-12T10:52:53Z</time>
      </trkpt>
      <trkpt lat="51.159882014617324" lon="0.866497009992599">
        <ele>45.32</ele>
        <time>2026-07-12T10:52:54Z</time>
      </trkpt>
      <trkpt lat="51.159892994910479" lon="0.866511007770896">
        <ele>45.32</ele>
        <time>2026-07-12T10:52:55Z</time>
      </trkpt>
      <trkpt lat="51.160246962681413" lon="0.866681998595595">
        <ele>46.280000000000001</ele>
        <time>2026-07-12T10:53:02Z</time>
      </trkpt>
      <trkpt lat="51.160456007346511" lon="0.866664983332157">
        <ele>47.719999999999999</ele>
        <time>2026-07-12T10:53:04Z</time>
      </trkpt>
      <trkpt lat="51.160570001229644" lon="0.866707982495427">
        <ele>47.719999999999999</ele>
        <time>2026-07-12T10:53:05Z</time>
      </trkpt>
      <trkpt lat="51.16071299649775" lon="0.866761039942503">
        <ele>47.719999999999999</ele>
        <time>2026-07-12T10:53:06Z</time>
      </trkpt>
      <trkpt lat="51.160791032016277" lon="0.866848966106772">
        <ele>47.719999999999999</ele>
        <time>2026-07-12T10:53:07Z</time>
      </trkpt>
      <trkpt lat="51.160876024514437" lon="0.866945022717118">
        <ele>47.719999999999999</ele>
        <time>2026-07-12T10:53:08Z</time>
      </trkpt>
      <trkpt lat="51.161105018109083" lon="0.86720603518188">
        <ele>49.159999999999997</ele>
        <time>2026-07-12T10:53:11Z</time>
      </trkpt>
      <trkpt lat="51.161254970356822" lon="0.867405021563172">
        <ele>51.090000000000003</ele>
        <time>2026-07-12T10:53:14Z</time>
      </trkpt>
      <trkpt lat="51.161417998373508" lon="0.867633009329438">
        <ele>54.450000000000003</ele>
        <time>2026-07-12T10:53:21Z</time>
      </trkpt>
      <trkpt lat="51.16161497309804" lon="0.867909025400877">
        <ele>54.93</ele>
        <time>2026-07-12T10:53:24Z</time>
      </trkpt>
      <trkpt lat="51.161690996959805" lon="0.868014972656965">
        <ele>54.450000000000003</ele>
        <time>2026-07-12T10:53:25Z</time>
      </trkpt>
      <trkpt lat="51.161740031093359" lon="0.868158973753452">
        <ele>53.969999999999999</ele>
        <time>2026-07-12T10:53:26Z</time>
      </trkpt>
      <trkpt lat="51.161781018599868" lon="0.868291994556785">
        <ele>53.490000000000002</ele>
        <time>2026-07-12T10:53:27Z</time>
      </trkpt>
      <trkpt lat="51.161790993064642" lon="0.868427027016878">
        <ele>53.009999999999998</ele>
        <time>2026-07-12T10:53:28Z</time>
      </trkpt>
      <trkpt lat="51.161796022206545" lon="0.868543032556772">
        <ele>52.530000000000001</ele>
        <time>2026-07-12T10:53:29Z</time>
      </trkpt>
      <trkpt lat="51.161799961701035" lon="0.868644034489989">
        <ele>52.049999999999997</ele>
        <time>2026-07-12T10:53:30Z</time>
      </trkpt>
      <trkpt lat="51.161803985014558" lon="0.868726009503007">
        <ele>52.049999999999997</ele>
        <time>2026-07-12T10:53:31Z</time>
      </trkpt>
      <trkpt lat="51.16176400333643" lon="0.868971012532711">
        <ele>51.090000000000003</ele>
        <time>2026-07-12T10:53:36Z</time>
      </trkpt>
      <trkpt lat="51.16172100417316" lon="0.869053993374109">
        <ele>51.090000000000003</ele>
        <time>2026-07-12T10:53:37Z</time>
      </trkpt>
      <trkpt lat="51.161681022495031" lon="0.869129011407495">
        <ele>51.090000000000003</ele>
        <time>2026-07-12T10:53:38Z</time>
      </trkpt>
      <trkpt lat="51.161631988361478" lon="0.869220960885286">
        <ele>51.090000000000003</ele>
        <time>2026-07-12T10:53:39Z</time>
      </trkpt>
      <trkpt lat="51.161558981984854" lon="0.869343001395464">
        <ele>51.57</ele>
        <time>2026-07-12T10:53:40Z</time>
      </trkpt>
      <trkpt lat="51.161458985880017" lon="0.869396980851889">
        <ele>51.57</ele>
        <time>2026-07-12T10:53:41Z</time>
      </trkpt>
      <trkpt lat="51.161347003653646" lon="0.869458001106977">
        <ele>51.090000000000003</ele>
        <time>2026-07-12T10:53:42Z</time>
      </trkpt>
      <trkpt lat="51.161222029477358" lon="0.869465041905642">
        <ele>51.090000000000003</ele>
        <time>2026-07-12T10:53:43Z</time>
      </trkpt>
      <trkpt lat="51.161092026159167" lon="0.869503011927009">
        <ele>50.609999999999999</ele>
        <time>2026-07-12T10:53:44Z</time>
      </trkpt>
      <trkpt lat="51.160964034497738" lon="0.86957199499011">
        <ele>50.609999999999999</ele>
        <time>2026-07-12T10:53:45Z</time>
      </trkpt>
      <trkpt lat="51.160836964845657" lon="0.86965799331665">
        <ele>50.130000000000003</ele>
        <time>2026-07-12T10:53:46Z</time>
      </trkpt>
      <trkpt lat="51.160702016204596" lon="0.869780033826828">
        <ele>49.649999999999999</ele>
        <time>2026-07-12T10:53:47Z</time>
      </trkpt>
      <trkpt lat="51.159580014646053" lon="0.871237982064486">
        <ele>47.240000000000002</ele>
        <time>2026-07-12T10:53:55Z</time>
      </trkpt>
      <trkpt lat="51.158452983945608" lon="0.873272018507123">
        <ele>44.359999999999999</ele>
        <time>2026-07-12T10:54:03Z</time>
      </trkpt>
      <trkpt lat="51.157034011557698" lon="0.876737013459206">
        <ele>38.590000000000003</ele>
        <time>2026-07-12T10:54:13Z</time>
      </trkpt>
      <trkpt lat="51.154767964035273" lon="0.88216002099216">
        <ele>39.549999999999997</ele>
        <time>2026-07-12T10:54:28Z</time>
      </trkpt>
      <trkpt lat="51.152796959504485" lon="0.886871991679072">
        <ele>40.990000000000002</ele>
        <time>2026-07-12T10:54:41Z</time>
      </trkpt>
      <trkpt lat="51.150840958580375" lon="0.891525037586689">
        <ele>46.280000000000001</ele>
        <time>2026-07-12T10:54:54Z</time>
      </trkpt>
      <trkpt lat="51.148866014555097" lon="0.89578396640718">
        <ele>46.759999999999998</ele>
        <time>2026-07-12T10:55:06Z</time>
      </trkpt>
      <trkpt lat="51.146284975111485" lon="0.899818008765578">
        <ele>39.549999999999997</ele>
        <time>2026-07-12T10:55:19Z</time>
      </trkpt>
      <trkpt lat="51.142476992681623" lon="0.904858969151974">
        <ele>46.280000000000001</ele>
        <time>2026-07-12T10:55:37Z</time>
      </trkpt>
      <trkpt lat="51.139107970520854" lon="0.908740041777492">
        <ele>53.490000000000002</ele>
        <time>2026-07-12T10:55:52Z</time>
      </trkpt>
      <trkpt lat="51.137212989851832" lon="0.911293001845479">
        <ele>51.090000000000003</ele>
        <time>2026-07-12T10:56:01Z</time>
      </trkpt>
      <trkpt lat="51.135561000555754" lon="0.914272014051676">
        <ele>49.159999999999997</ele>
        <time>2026-07-12T10:56:10Z</time>
      </trkpt>
      <trkpt lat="51.133928960189223" lon="0.918350983411074">
        <ele>47.240000000000002</ele>
        <time>2026-07-12T10:56:21Z</time>
      </trkpt>
      <trkpt lat="51.131900958716869" lon="0.923575004562736">
        <ele>50.130000000000003</ele>
        <time>2026-07-12T10:56:35Z</time>
      </trkpt>
      <trkpt lat="51.12994403578341" lon="0.927274022251368">
        <ele>55.409999999999997</ele>
        <time>2026-07-12T10:56:46Z</time>
      </trkpt>
      <trkpt lat="51.127141965553164" lon="0.931535968557">
        <ele>61.659999999999997</ele>
        <time>2026-07-12T10:57:00Z</time>
      </trkpt>
      <trkpt lat="51.124767959117889" lon="0.93585298396647">
        <ele>65.030000000000001</ele>
        <time>2026-07-12T10:57:13Z</time>
      </trkpt>
      <trkpt lat="51.12309199757874" lon="0.939375981688499">
        <ele>67.430000000000007</ele>
        <time>2026-07-12T10:57:23Z</time>
      </trkpt>
      <trkpt lat="51.120527973398566" lon="0.944025004282594">
        <ele>68.870000000000005</ele>
        <time>2026-07-12T10:57:37Z</time>
      </trkpt>
      <trkpt lat="51.117976019158959" lon="0.948014035820961">
        <ele>71.269999999999996</ele>
        <time>2026-07-12T10:57:50Z</time>
      </trkpt>
      <trkpt lat="51.116287987679243" lon="0.95117200165987">
        <ele>70.790000000000006</ele>
        <time>2026-07-12T10:58:00Z</time>
      </trkpt>
      <trkpt lat="51.114903967827559" lon="0.954884011298418">
        <ele>69.349999999999994</ele>
        <time>2026-07-12T10:58:10Z</time>
      </trkpt>
      <trkpt lat="51.114231990650296" lon="0.957305962219834">
        <ele>65.030000000000001</ele>
        <time>2026-07-12T10:58:16Z</time>
      </trkpt>
      <trkpt lat="51.11254102550447" lon="0.963343027979136">
        <ele>60.700000000000003</ele>
        <time>2026-07-12T10:58:31Z</time>
      </trkpt>
      <trkpt lat="51.11069499514997" lon="0.969007015228271">
        <ele>59.259999999999998</ele>
        <time>2026-07-12T10:58:46Z</time>
      </trkpt>
      <trkpt lat="51.108801020309329" lon="0.974048981443048">
        <ele>59.740000000000002</ele>
        <time>2026-07-12T10:59:00Z</time>
      </trkpt>
      <trkpt lat="51.106819035485387" lon="0.978739997372031">
        <ele>60.700000000000003</ele>
        <time>2026-07-12T10:59:13Z</time>
      </trkpt>
      <trkpt lat="51.104953978210688" lon="0.983702000230551">
        <ele>62.140000000000001</ele>
        <time>2026-07-12T10:59:26Z</time>
      </trkpt>
      <trkpt lat="51.103678001090884" lon="0.988026978448033">
        <ele>65.030000000000001</ele>
        <time>2026-07-12T10:59:37Z</time>
      </trkpt>
      <trkpt lat="51.102624982595444" lon="0.992526970803738">
        <ele>67.430000000000007</ele>
        <time>2026-07-12T10:59:48Z</time>
      </trkpt>
      <trkpt lat="51.101597025990486" lon="0.998501004651189">
        <ele>69.829999999999998</ele>
        <time>2026-07-12T11:00:02Z</time>
      </trkpt>
      <trkpt lat="51.100795967504382" lon="1.00451996549964">
        <ele>72.239999999999995</ele>
        <time>2026-07-12T11:00:16Z</time>
      </trkpt>
      <trkpt lat="51.100278971716762" lon="1.010628025978804">
        <ele>73.680000000000007</ele>
        <time>2026-07-12T11:00:30Z</time>
      </trkpt>
      <trkpt lat="51.100048972293735" lon="1.017242018133402">
        <ele>70.310000000000002</ele>
        <time>2026-07-12T11:00:45Z</time>
      </trkpt>
      <trkpt lat="51.099570030346513" lon="1.022897958755493">
        <ele>68.390000000000001</ele>
        <time>2026-07-12T11:00:58Z</time>
      </trkpt>
      <trkpt lat="51.098849019035697" lon="1.028043022379279">
        <ele>72.719999999999999</ele>
        <time>2026-07-12T11:01:10Z</time>
      </trkpt>
      <trkpt lat="51.098020970821381" lon="1.032691039144993">
        <ele>72.719999999999999</ele>
        <time>2026-07-12T11:01:21Z</time>
      </trkpt>
      <trkpt lat="51.097172973677516" lon="1.037796037271619">
        <ele>75.599999999999994</ele>
        <time>2026-07-12T11:01:33Z</time>
      </trkpt>
      <trkpt lat="51.096264040097594" lon="1.043818015605211">
        <ele>79.450000000000003</ele>
        <time>2026-07-12T11:01:47Z</time>
      </trkpt>
      <trkpt lat="51.095529031008482" lon="1.050275014713407">
        <ele>84.730000000000004</ele>
        <time>2026-07-12T11:02:02Z</time>
      </trkpt>
      <trkpt lat="51.094851018860936" lon="1.056354995816946">
        <ele>89.540000000000006</ele>
        <time>2026-07-12T11:02:16Z</time>
      </trkpt>
      <trkpt lat="51.0941949672997" lon="1.061055986210704">
        <ele>92.420000000000002</ele>
        <time>2026-07-12T11:02:27Z</time>
      </trkpt>
      <trkpt lat="51.093517960980535" lon="1.064775036647916">
        <ele>96.269999999999996</ele>
        <time>2026-07-12T11:02:36Z</time>
      </trkpt>
      <trkpt lat="51.092880014330149" lon="1.068057976663113">
        <ele>99.629999999999995</ele>
        <time>2026-07-12T11:02:45Z</time>
      </trkpt>
      <trkpt lat="51.092280959710479" lon="1.071976013481617">
        <ele>101.56</ele>
        <time>2026-07-12T11:02:56Z</time>
      </trkpt>
      <trkpt lat="51.091879969462752" lon="1.07658002525568">
        <ele>101.08</ele>
        <time>2026-07-12T11:03:08Z</time>
      </trkpt>
      <trkpt lat="51.091791037470102" lon="1.080566961318255">
        <ele>96.75</ele>
        <time>2026-07-12T11:03:18Z</time>
      </trkpt>
      <trkpt lat="51.091911988332868" lon="1.085587972775102">
        <ele>85.209999999999994</ele>
        <time>2026-07-12T11:03:31Z</time>
      </trkpt>
      <trkpt lat="51.092343991622329" lon="1.090336991474032">
        <ele>74.640000000000001</ele>
        <time>2026-07-12T11:03:44Z</time>
      </trkpt>
      <trkpt lat="51.093063997104764" lon="1.095235040411353">
        <ele>65.030000000000001</ele>
        <time>2026-07-12T11:03:58Z</time>
      </trkpt>
      <trkpt lat="51.093446966260672" lon="1.097833011299372">
        <ele>61.659999999999997</ele>
        <time>2026-07-12T11:04:07Z</time>
      </trkpt>
      <trkpt lat="51.093690963461995" lon="1.099576028063893">
        <ele>59.740000000000002</ele>
        <time>2026-07-12T11:04:15Z</time>
      </trkpt>
      <trkpt lat="51.093709990382195" lon="1.099725980311632">
        <ele>60.219999999999999</ele>
        <time>2026-07-12T11:04:16Z</time>
      </trkpt>
      <trkpt lat="51.093818033114076" lon="1.099751964211464">
        <ele>60.219999999999999</ele>
        <time>2026-07-12T11:04:17Z</time>
      </trkpt>
      <trkpt lat="51.093861032277346" lon="1.099843997508287">
        <ele>60.219999999999999</ele>
        <time>2026-07-12T11:04:18Z</time>
      </trkpt>
      <trkpt lat="51.093896990641952" lon="1.099922033026815">
        <ele>60.219999999999999</ele>
        <time>2026-07-12T11:04:19Z</time>
      </trkpt>
      <trkpt lat="51.093935966491699" lon="1.100004008039832">
        <ele>60.219999999999999</ele>
        <time>2026-07-12T11:04:20Z</time>
      </trkpt>
      <trkpt lat="51.09393697232008" lon="1.100006019696593">
        <ele>60.219999999999999</ele>
        <time>2026-07-12T11:04:21Z</time>
      </trkpt>
      <trkpt lat="51.09393697232008" lon="1.100006019696593">
        <ele>60.219999999999999</ele>
        <time>2026-07-12T11:04:22Z</time>
      </trkpt>
      <trkpt lat="51.093788025900722" lon="1.10040700994432">
        <ele>59.740000000000002</ele>
        <time>2026-07-12T11:04:23Z</time>
      </trkpt>
      <trkpt lat="51.093800012022257" lon="1.100538019090891">
        <ele>59.740000000000002</ele>
        <time>2026-07-12T11:04:24Z</time>
      </trkpt>
      <trkpt lat="51.093811998143792" lon="1.100670034065843">
        <ele>59.259999999999998</ele>
        <time>2026-07-12T11:04:25Z</time>
      </trkpt>
      <trkpt lat="51.093824990093708" lon="1.100813029333949">
        <ele>59.259999999999998</ele>
        <time>2026-07-12T11:04:26Z</time>
      </trkpt>
      <trkpt lat="51.093838987872005" lon="1.100975973531604">
        <ele>59.259999999999998</ele>
        <time>2026-07-12T11:04:27Z</time>
      </trkpt>
      <trkpt lat="51.093856003135443" lon="1.101149981841445">
        <ele>59.259999999999998</ele>
        <time>2026-07-12T11:04:28Z</time>
      </trkpt>
      <trkpt lat="51.093876035884023" lon="1.101332036778331">
        <ele>59.259999999999998</ele>
        <time>2026-07-12T11:04:29Z</time>
      </trkpt>
      <trkpt lat="51.093895984813571" lon="1.101520964875817">
        <ele>59.259999999999998</ele>
        <time>2026-07-12T11:04:30Z</time>
      </trkpt>
      <trkpt lat="51.09400101006031" lon="1.102973967790604">
        <ele>57.82</ele>
        <time>2026-07-12T11:04:38Z</time>
      </trkpt>
      <trkpt lat="51.09400101006031" lon="1.103162979707122">
        <ele>56.859999999999999</ele>
        <time>2026-07-12T11:04:39Z</time>
      </trkpt>
      <trkpt lat="51.093974020332098" lon="1.105488035827875">
        <ele>53.490000000000002</ele>
        <time>2026-07-12T11:04:51Z</time>
      </trkpt>
      <trkpt lat="51.093843011185527" lon="1.107416041195393">
        <ele>54.93</ele>
        <time>2026-07-12T11:05:01Z</time>
      </trkpt>
      <trkpt lat="51.093558026477695" lon="1.109414035454392">
        <ele>55.409999999999997</ele>
        <time>2026-07-12T11:05:11Z</time>
      </trkpt>
      <trkpt lat="51.093117976561189" lon="1.111403983086348">
        <ele>57.340000000000003</ele>
        <time>2026-07-12T11:05:21Z</time>
      </trkpt>
      <trkpt lat="51.09271103516221" lon="1.113826017826796">
        <ele>63.579999999999998</ele>
        <time>2026-07-12T11:05:32Z</time>
      </trkpt>
      <trkpt lat="51.092764008790255" lon="1.116255009546876">
        <ele>67.909999999999997</ele>
        <time>2026-07-12T11:05:42Z</time>
      </trkpt>
      <trkpt lat="51.092964000999928" lon="1.117987968027592">
        <ele>69.349999999999994</ele>
        <time>2026-07-12T11:05:51Z</time>
      </trkpt>
      <trkpt lat="51.093153012916446" lon="1.118623986840248">
        <ele>69.349999999999994</ele>
        <time>2026-07-12T11:05:59Z</time>
      </trkpt>
      <trkpt lat="51.093194000422955" lon="1.118758013471961">
        <ele>70.790000000000006</ele>
        <time>2026-07-12T11:06:07Z</time>
      </trkpt>
      <trkpt lat="51.096284994855523" lon="1.12103302963078">
        <ele>82.810000000000002</ele>
        <time>2026-07-12T11:42:12Z</time>
      </trkpt>
      <trkpt lat="51.096246019005775" lon="1.12112196162343">
        <ele>64.549999999999997</ele>
        <time>2026-07-12T11:42:52Z</time>
      </trkpt>
      <trkpt lat="51.096232021227479" lon="1.121047027409077">
        <ele>61.18</ele>
        <time>2026-07-12T11:43:11Z</time>
      </trkpt>
      <trkpt lat="51.096225986257195" lon="1.121062031015754">
        <ele>58.780000000000001</ele>
        <time>2026-07-12T11:43:25Z</time>
      </trkpt>
      <trkpt lat="51.096115009859204" lon="1.12120795994997">
        <ele>58.299999999999997</ele>
        <time>2026-07-12T11:43:27Z</time>
      </trkpt>
      <trkpt lat="51.096097994595766" lon="1.121185999363661">
        <ele>58.299999999999997</ele>
        <time>2026-07-12T11:43:28Z</time>
      </trkpt>
      <trkpt lat="51.096082990989089" lon="1.121166972443461">
        <ele>57.82</ele>
        <time>2026-07-12T11:43:29Z</time>
      </trkpt>
      <trkpt lat="51.096065975725651" lon="1.121144006028771">
        <ele>58.299999999999997</ele>
        <time>2026-07-12T11:43:30Z</time>
      </trkpt>
      <trkpt lat="51.096035968512297" lon="1.121105030179024">
        <ele>58.299999999999997</ele>
        <time>2026-07-12T11:43:31Z</time>
      </trkpt>
      <trkpt lat="51.095995986834168" lon="1.121052978560329">
        <ele>58.780000000000001</ele>
        <time>2026-07-12T11:43:32Z</time>
      </trkpt>
      <trkpt lat="51.095732962712646" lon="1.120846029371023">
        <ele>61.659999999999997</ele>
        <time>2026-07-12T11:43:41Z</time>
      </trkpt>
      <trkpt lat="51.095584016293287" lon="1.12075500190258">
        <ele>65.030000000000001</ele>
        <time>2026-07-12T11:43:50Z</time>
      </trkpt>
      <trkpt lat="51.095541017130017" lon="1.120744021609426">
        <ele>65.510000000000005</ele>
        <time>2026-07-12T11:43:51Z</time>
      </trkpt>
      <trkpt lat="51.095116976648569" lon="1.12073396332562">
        <ele>64.069999999999993</ele>
        <time>2026-07-12T11:43:59Z</time>
      </trkpt>
      <trkpt lat="51.094915978610516" lon="1.120834965258837">
        <ele>63.100000000000001</ele>
        <time>2026-07-12T11:44:06Z</time>
      </trkpt>
      <trkpt lat="51.094873985275626" lon="1.120854998007417">
        <ele>63.100000000000001</ele>
        <time>2026-07-12T11:44:07Z</time>
      </trkpt>
      <trkpt lat="51.094612972810864" lon="1.120718037709594">
        <ele>65.030000000000001</ele>
        <time>2026-07-12T11:44:16Z</time>
      </trkpt>
      <trkpt lat="51.09457902610302" lon="1.120675960555673">
        <ele>65.510000000000005</ele>
        <time>2026-07-12T11:44:17Z</time>
      </trkpt>
      <trkpt lat="51.09453703276813" lon="1.120627010241151">
        <ele>65.989999999999995</ele>
        <time>2026-07-12T11:44:18Z</time>
      </trkpt>
      <trkpt lat="51.09453703276813" lon="1.120612006634474">
        <ele>65.989999999999995</ele>
        <time>2026-07-12T11:44:19Z</time>
      </trkpt>
      <trkpt lat="51.09453703276813" lon="1.12047697417438">
        <ele>66.469999999999999</ele>
        <time>2026-07-12T11:44:20Z</time>
      </trkpt>
      <trkpt lat="51.094566034153104" lon="1.120437998324633">
        <ele>66.469999999999999</ele>
        <time>2026-07-12T11:44:21Z</time>
      </trkpt>
      <trkpt lat="51.094633005559444" lon="1.120376978069544">
        <ele>66.469999999999999</ele>
        <time>2026-07-12T11:44:22Z</time>
      </trkpt>
      <trkpt lat="51.094907009974122" lon="1.120252003893256">
        <ele>65.989999999999995</ele>
        <time>2026-07-12T11:44:28Z</time>
      </trkpt>
      <trkpt lat="51.095073977485299" lon="1.12017598003149">
        <ele>64.549999999999997</ele>
        <time>2026-07-12T11:44:31Z</time>
      </trkpt>
      <trkpt lat="51.095122005790472" lon="1.120177991688252">
        <ele>64.069999999999993</ele>
        <time>2026-07-12T11:44:32Z</time>
      </trkpt>
      <trkpt lat="51.095183026045561" lon="1.120180003345013">
        <ele>64.069999999999993</ele>
        <time>2026-07-12T11:44:33Z</time>
      </trkpt>
      <trkpt lat="51.09535401687026" lon="1.120186960324645">
        <ele>62.619999999999997</ele>
        <time>2026-07-12T11:44:36Z</time>
      </trkpt>
      <trkpt lat="51.095407996326685" lon="1.120188971981406">
        <ele>62.619999999999997</ele>
        <time>2026-07-12T11:44:37Z</time>
      </trkpt>
      <trkpt lat="51.09546298161149" lon="1.120190983638167">
        <ele>62.140000000000001</ele>
        <time>2026-07-12T11:44:38Z</time>
      </trkpt>
      <trkpt lat="51.095518972724676" lon="1.120192995294929">
        <ele>61.659999999999997</ele>
        <time>2026-07-12T11:44:39Z</time>
      </trkpt>
      <trkpt lat="51.095563983544707" lon="1.12019500695169">
        <ele>61.18</ele>
        <time>2026-07-12T11:44:40Z</time>
      </trkpt>
      <trkpt lat="51.095596002414823" lon="1.12019601278007">
        <ele>60.700000000000003</ele>
        <time>2026-07-12T11:44:41Z</time>
      </trkpt>
      <trkpt lat="51.095760958269238" lon="1.12026197835803">
        <ele>60.700000000000003</ele>
        <time>2026-07-12T11:44:46Z</time>
      </trkpt>
      <trkpt lat="51.096155997365713" lon="1.12054000608623">
        <ele>61.18</ele>
        <time>2026-07-12T11:44:57Z</time>
      </trkpt>
      <trkpt lat="51.096179969608784" lon="1.12056196667254">
        <ele>61.18</ele>
        <time>2026-07-12T11:44:58Z</time>
      </trkpt>
      <trkpt lat="51.096253981813788" lon="1.12039097584784">
        <ele>61.659999999999997</ele>
        <time>2026-07-12T11:45:00Z</time>
      </trkpt>
      <trkpt lat="51.096195979043841" lon="1.120345965027809">
        <ele>61.659999999999997</ele>
        <time>2026-07-12T11:45:01Z</time>
      </trkpt>
      <trkpt lat="51.096139987930655" lon="1.12030103802681">
        <ele>61.659999999999997</ele>
        <time>2026-07-12T11:45:02Z</time>
      </trkpt>
      <trkpt lat="51.096072010695934" lon="1.120247980579734">
        <ele>61.659999999999997</ele>
        <time>2026-07-12T11:45:03Z</time>
      </trkpt>
      <trkpt lat="51.095996992662549" lon="1.120187966153026">
        <ele>61.659999999999997</ele>
        <time>2026-07-12T11:45:04Z</time>
      </trkpt>
      <trkpt lat="51.095916023477912" lon="1.120124012231827">
        <ele>61.18</ele>
        <time>2026-07-12T11:45:05Z</time>
      </trkpt>
      <trkpt lat="51.095732040703297" lon="1.120028961449862">
        <ele>60.700000000000003</ele>
        <time>2026-07-12T11:45:07Z</time>
      </trkpt>
      <trkpt lat="51.095637995749712" lon="1.119995014742017">
        <ele>60.700000000000003</ele>
        <time>2026-07-12T11:45:08Z</time>
      </trkpt>
      <trkpt lat="51.094826962798834" lon="1.120077995583415">
        <ele>61.659999999999997</ele>
        <time>2026-07-12T11:45:17Z</time>
      </trkpt>
      <trkpt lat="51.094507025554776" lon="1.120271030813456">
        <ele>63.579999999999998</ele>
        <time>2026-07-12T11:45:23Z</time>
      </trkpt>
      <trkpt lat="51.094163032248616" lon="1.12051997333765">
        <ele>65.030000000000001</ele>
        <time>2026-07-12T11:45:30Z</time>
      </trkpt>
      <trkpt lat="51.094064963981509" lon="1.120643019676209">
        <ele>65.510000000000005</ele>
        <time>2026-07-12T11:45:32Z</time>
      </trkpt>
      <trkpt lat="51.094021964818239" lon="1.120716026052833">
        <ele>65.510000000000005</ele>
        <time>2026-07-12T11:45:33Z</time>
      </trkpt>
      <trkpt lat="51.093840999528766" lon="1.121093966066837">
        <ele>65.030000000000001</ele>
        <time>2026-07-12T11:45:37Z</time>
      </trkpt>
      <trkpt lat="51.09380797483027" lon="1.121196979656816">
        <ele>65.030000000000001</ele>
        <time>2026-07-12T11:45:38Z</time>
      </trkpt>
      <trkpt lat="51.09380797483027" lon="1.121308961883187">
        <ele>65.030000000000001</ele>
        <time>2026-07-12T11:45:39Z</time>
      </trkpt>
      <trkpt lat="51.09380797483027" lon="1.121414992958307">
        <ele>65.030000000000001</ele>
        <time>2026-07-12T11:45:40Z</time>
      </trkpt>
      <trkpt lat="51.093813003972173" lon="1.121509037911892">
        <ele>65.510000000000005</ele>
        <time>2026-07-12T11:45:41Z</time>
      </trkpt>
      <trkpt lat="51.093833958730102" lon="1.121601993218064">
        <ele>65.510000000000005</ele>
        <time>2026-07-12T11:45:42Z</time>
      </trkpt>
      <trkpt lat="51.093853991478682" lon="1.121693020686507">
        <ele>65.510000000000005</ele>
        <time>2026-07-12T11:45:43Z</time>
      </trkpt>
      <trkpt lat="51.0938720125705" lon="1.121774995699525">
        <ele>65.510000000000005</ele>
        <time>2026-07-12T11:45:44Z</time>
      </trkpt>
      <trkpt lat="51.093888022005558" lon="1.121844984591007">
        <ele>65.510000000000005</ele>
        <time>2026-07-12T11:45:45Z</time>
      </trkpt>
      <trkpt lat="51.093910988420248" lon="1.121897036209703">
        <ele>65.510000000000005</ele>
        <time>2026-07-12T11:45:46Z</time>
      </trkpt>
      <trkpt lat="51.09393797814846" lon="1.121938023716211">
        <ele>65.030000000000001</ele>
        <time>2026-07-12T11:45:47Z</time>
      </trkpt>
      <trkpt lat="51.093978965654969" lon="1.121999965980649">
        <ele>65.030000000000001</ele>
        <time>2026-07-12T11:45:48Z</time>
      </trkpt>
      <trkpt lat="51.094003021717072" lon="1.122024022042751">
        <ele>65.030000000000001</ele>
        <time>2026-07-12T11:45:49Z</time>
      </trkpt>
      <trkpt lat="51.094123972579837" lon="1.122148996219039">
        <ele>64.549999999999997</ele>
        <time>2026-07-12T11:45:57Z</time>
      </trkpt>
      <trkpt lat="51.0941500402987" lon="1.122179003432393">
        <ele>65.510000000000005</ele>
        <time>2026-07-12T11:46:39Z</time>
      </trkpt>
      <trkpt lat="51.0941500402987" lon="1.122179003432393">
        <ele>65.510000000000005</ele>
        <time>2026-07-12T11:47:01Z</time>
      </trkpt>
      <trkpt lat="51.0941500402987" lon="1.122179003432393">
        <ele>65.030000000000001</ele>
        <time>2026-07-12T11:47:35Z</time>
      </trkpt>
      <trkpt lat="51.094248024746776" lon="1.122289979830384">
        <ele>63.100000000000001</ele>
        <time>2026-07-12T11:47:58Z</time>
      </trkpt>
      <trkpt lat="51.094279959797859" lon="1.122326022014022">
        <ele>61.18</ele>
        <time>2026-07-12T11:48:16Z</time>
      </trkpt>
      <trkpt lat="51.094279959797859" lon="1.122326022014022">
        <ele>59.259999999999998</ele>
        <time>2026-07-12T11:48:30Z</time>
      </trkpt>
      <trkpt lat="51.094279959797859" lon="1.122326022014022">
        <ele>58.780000000000001</ele>
        <time>2026-07-12T11:49:16Z</time>
      </trkpt>
      <trkpt lat="51.094279959797859" lon="1.122326022014022">
        <ele>58.299999999999997</ele>
        <time>2026-07-12T11:49:52Z</time>
      </trkpt>
      <trkpt lat="51.094518005847931" lon="1.122602038085461">
        <ele>61.18</ele>
        <time>2026-07-12T11:50:09Z</time>
      </trkpt>
      <trkpt lat="51.094530997797847" lon="1.123011996969581">
        <ele>63.100000000000001</ele>
        <time>2026-07-12T11:50:16Z</time>
      </trkpt>
      <trkpt lat="51.094522029161453" lon="1.123092966154218">
        <ele>62.619999999999997</ele>
        <time>2026-07-12T11:50:26Z</time>
      </trkpt>
      <trkpt lat="51.094522029161453" lon="1.123092966154218">
        <ele>62.619999999999997</ele>
        <time>2026-07-12T11:50:57Z</time>
      </trkpt>
      <trkpt lat="51.094514988362789" lon="1.123100006952882">
        <ele>63.100000000000001</ele>
        <time>2026-07-12T11:51:52Z</time>
      </trkpt>
      <trkpt lat="51.094514988362789" lon="1.123100006952882">
        <ele>63.100000000000001</ele>
        <time>2026-07-12T11:51:53Z</time>
      </trkpt>
      <trkpt lat="51.094575002789497" lon="1.123290024697781">
        <ele>65.030000000000001</ele>
        <time>2026-07-12T11:51:57Z</time>
      </trkpt>
      <trkpt lat="51.094713974744081" lon="1.123434025794268">
        <ele>65.989999999999995</ele>
        <time>2026-07-12T11:52:08Z</time>
      </trkpt>
      <trkpt lat="51.094765020534396" lon="1.123427990823984">
        <ele>65.030000000000001</ele>
        <time>2026-07-12T11:52:26Z</time>
      </trkpt>
      <trkpt lat="51.094769965857267" lon="1.123423967510462">
        <ele>64.549999999999997</ele>
        <time>2026-07-12T11:53:15Z</time>
      </trkpt>
      <trkpt lat="51.094769965857267" lon="1.123423967510462">
        <ele>64.549999999999997</ele>
        <time>2026-07-12T11:53:30Z</time>
      </trkpt>
      <trkpt lat="51.094826962798834" lon="1.123473001644015">
        <ele>65.030000000000001</ele>
        <time>2026-07-12T11:53:44Z</time>
      </trkpt>
      <trkpt lat="51.094852024689317" lon="1.123510971665382">
        <ele>63.100000000000001</ele>
        <time>2026-07-12T11:54:29Z</time>
      </trkpt>
      <trkpt lat="51.094875996932387" lon="1.123538967221975">
        <ele>63.100000000000001</ele>
        <time>2026-07-12T11:54:44Z</time>
      </trkpt>
      <trkpt lat="51.094907009974122" lon="1.123574003577232">
        <ele>63.100000000000001</ele>
        <time>2026-07-12T11:54:55Z</time>
      </trkpt>
      <trkpt lat="51.094933999702334" lon="1.123595964163542">
        <ele>62.140000000000001</ele>
        <time>2026-07-12T11:55:24Z</time>
      </trkpt>
      <trkpt lat="51.094957971945405" lon="1.123597975820303">
        <ele>59.259999999999998</ele>
        <time>2026-07-12T11:55:44Z</time>
      </trkpt>
      <trkpt lat="51.094976998865604" lon="1.123644998297095">
        <ele>58.299999999999997</ele>
        <time>2026-07-12T11:56:06Z</time>
      </trkpt>
      <trkpt lat="51.094976998865604" lon="1.123644998297095">
        <ele>58.299999999999997</ele>
        <time>2026-07-12T11:56:16Z</time>
      </trkpt>
      <trkpt lat="51.09503198415041" lon="1.123729990795255">
        <ele>55.409999999999997</ele>
        <time>2026-07-12T11:56:19Z</time>
      </trkpt>
      <trkpt lat="51.095008011907339" lon="1.124065015465021">
        <ele>53.969999999999999</ele>
        <time>2026-07-12T11:56:21Z</time>
      </trkpt>
      <trkpt lat="51.09505302272737" lon="1.124113965779543">
        <ele>53.490000000000002</ele>
        <time>2026-07-12T11:56:22Z</time>
      </trkpt>
      <trkpt lat="51.095101973041892" lon="1.124168029054999">
        <ele>53.009999999999998</ele>
        <time>2026-07-12T11:56:23Z</time>
      </trkpt>
      <trkpt lat="51.095448983833194" lon="1.123685985803604">
        <ele>52.530000000000001</ele>
        <time>2026-07-12T11:56:25Z</time>
      </trkpt>
      <trkpt lat="51.095588961616158" lon="1.123845996335149">
        <ele>53.009999999999998</ele>
        <time>2026-07-12T11:56:26Z</time>
      </trkpt>
      <trkpt lat="51.095588961616158" lon="1.123845996335149">
        <ele>53.490000000000002</ele>
        <time>2026-07-12T11:56:27Z</time>
      </trkpt>
      <trkpt lat="51.095596002414823" lon="1.123849013820291">
        <ele>53.969999999999999</ele>
        <time>2026-07-12T11:56:28Z</time>
      </trkpt>
      <trkpt lat="51.095660962164402" lon="1.123941969126463">
        <ele>54.93</ele>
        <time>2026-07-12T11:56:29Z</time>
      </trkpt>
      <trkpt lat="51.095716031268239" lon="1.124013969674707">
        <ele>55.409999999999997</ele>
        <time>2026-07-12T11:56:30Z</time>
      </trkpt>
      <trkpt lat="51.095770010724664" lon="1.124086976051331">
        <ele>55.890000000000001</ele>
        <time>2026-07-12T11:56:31Z</time>
      </trkpt>
      <trkpt lat="51.095823990181088" lon="1.124158976599574">
        <ele>56.369999999999997</ele>
        <time>2026-07-12T11:56:32Z</time>
      </trkpt>
      <trkpt lat="51.095876041799784" lon="1.124228965491056">
        <ele>56.859999999999999</ele>
        <time>2026-07-12T11:56:33Z</time>
      </trkpt>
      <trkpt lat="51.095925997942686" lon="1.124294009059668">
        <ele>57.340000000000003</ele>
        <time>2026-07-12T11:56:34Z</time>
      </trkpt>
      <trkpt lat="51.095982994884253" lon="1.124412026256323">
        <ele>57.82</ele>
        <time>2026-07-12T11:56:35Z</time>
      </trkpt>
      <trkpt lat="51.095995986834168" lon="1.124494001269341">
        <ele>58.299999999999997</ele>
        <time>2026-07-12T11:56:36Z</time>
      </trkpt>
      <trkpt lat="51.096006967127323" lon="1.124571030959487">
        <ele>58.780000000000001</ele>
        <time>2026-07-12T11:56:37Z</time>
      </trkpt>
      <trkpt lat="51.095985006541014" lon="1.124705979600549">
        <ele>59.259999999999998</ele>
        <time>2026-07-12T11:56:38Z</time>
      </trkpt>
      <trkpt lat="51.095945024862885" lon="1.124788038432598">
        <ele>59.740000000000002</ele>
        <time>2026-07-12T11:56:39Z</time>
      </trkpt>
      <trkpt lat="51.095894984900951" lon="1.124889962375164">
        <ele>59.740000000000002</ele>
        <time>2026-07-12T11:56:40Z</time>
      </trkpt>
      <trkpt lat="51.095833964645863" lon="1.125014014542103">
        <ele>60.219999999999999</ele>
        <time>2026-07-12T11:56:41Z</time>
      </trkpt>
      <trkpt lat="51.095244968309999" lon="1.126215979456902">
        <ele>58.780000000000001</ele>
        <time>2026-07-12T11:56:49Z</time>
      </trkpt>
      <trkpt lat="51.094914972782135" lon="1.126931039616466">
        <ele>57.340000000000003</ele>
        <time>2026-07-12T11:56:54Z</time>
      </trkpt>
      <trkpt lat="51.094896029680967" lon="1.12707101739943">
        <ele>57.340000000000003</ele>
        <time>2026-07-12T11:56:55Z</time>
      </trkpt>
      <trkpt lat="51.094874991104007" lon="1.12721904180944">
        <ele>57.340000000000003</ele>
        <time>2026-07-12T11:56:56Z</time>
      </trkpt>
      <trkpt lat="51.094805002212524" lon="1.127853970974684">
        <ele>58.780000000000001</ele>
        <time>2026-07-12T11:57:00Z</time>
      </trkpt>
      <trkpt lat="51.094825034961104" lon="1.12797299399972">
        <ele>59.740000000000002</ele>
        <time>2026-07-12T11:57:01Z</time>
      </trkpt>
      <trkpt lat="51.09483802691102" lon="1.128051029518247">
        <ele>60.219999999999999</ele>
        <time>2026-07-12T11:57:02Z</time>
      </trkpt>
      <trkpt lat="51.094904998317361" lon="1.128127975389361">
        <ele>60.700000000000003</ele>
        <time>2026-07-12T11:57:03Z</time>
      </trkpt>
      <trkpt lat="51.094959983602166" lon="1.128190001472831">
        <ele>61.18</ele>
        <time>2026-07-12T11:57:04Z</time>
      </trkpt>
      <trkpt lat="51.095016980543733" lon="1.12823199480772">
        <ele>61.659999999999997</ele>
        <time>2026-07-12T11:57:05Z</time>
      </trkpt>
      <trkpt lat="51.095089986920357" lon="1.128256972879171">
        <ele>62.140000000000001</ele>
        <time>2026-07-12T11:57:06Z</time>
      </trkpt>
      <trkpt lat="51.095146983861923" lon="1.128240963444114">
        <ele>62.140000000000001</ele>
        <time>2026-07-12T11:57:07Z</time>
      </trkpt>
      <trkpt lat="51.095194006338716" lon="1.128203999251127">
        <ele>62.619999999999997</ele>
        <time>2026-07-12T11:57:08Z</time>
      </trkpt>
      <trkpt lat="51.095219990238547" lon="1.128182960674167">
        <ele>63.100000000000001</ele>
        <time>2026-07-12T11:57:09Z</time>
      </trkpt>
      <trkpt lat="51.095318980515003" lon="1.12810299731791">
        <ele>66.950000000000003</ele>
        <time>2026-07-12T11:57:20Z</time>
      </trkpt>
      <trkpt lat="51.095395004376769" lon="1.128041977062821">
        <ele>67.430000000000007</ele>
        <time>2026-07-12T11:57:22Z</time>
      </trkpt>
      <trkpt lat="51.095447978004813" lon="1.127998977899551">
        <ele>67.909999999999997</ele>
        <time>2026-07-12T11:57:23Z</time>
      </trkpt>
      <trkpt lat="51.095500029623508" lon="1.127956984564662">
        <ele>68.390000000000001</ele>
        <time>2026-07-12T11:57:24Z</time>
      </trkpt>
      <trkpt lat="51.095551997423172" lon="1.127914991229773">
        <ele>68.870000000000005</ele>
        <time>2026-07-12T11:57:25Z</time>
      </trkpt>
      <trkpt lat="51.095607988536358" lon="1.127869980409741">
        <ele>68.870000000000005</ele>
        <time>2026-07-12T11:57:26Z</time>
      </trkpt>
      <trkpt lat="51.095671020448208" lon="1.127819018438458">
        <ele>68.870000000000005</ele>
        <time>2026-07-12T11:57:27Z</time>
      </trkpt>
      <trkpt lat="51.095742015168071" lon="1.127761015668511">
        <ele>69.349999999999994</ele>
        <time>2026-07-12T11:57:28Z</time>
      </trkpt>
      <trkpt lat="51.095830025151372" lon="1.127661019563675">
        <ele>69.349999999999994</ele>
        <time>2026-07-12T11:57:29Z</time>
      </trkpt>
      <trkpt lat="51.095899008214474" lon="1.127562029287219">
        <ele>70.310000000000002</ele>
        <time>2026-07-12T11:57:30Z</time>
      </trkpt>
      <trkpt lat="51.095974026247859" lon="1.127422973513603">
        <ele>70.790000000000006</ele>
        <time>2026-07-12T11:57:31Z</time>
      </trkpt>
      <trkpt lat="51.09634199179709" lon="1.126608001068234">
        <ele>73.200000000000003</ele>
        <time>2026-07-12T11:57:40Z</time>
      </trkpt>
      <trkpt lat="51.096392031759024" lon="1.126499036327004">
        <ele>73.680000000000007</ele>
        <time>2026-07-12T11:57:43Z</time>
      </trkpt>
      <trkpt lat="51.096392031759024" lon="1.126499036327004">
        <ele>74.159999999999997</ele>
        <time>2026-07-12T11:57:56Z</time>
      </trkpt>
      <trkpt lat="51.096392031759024" lon="1.126499036327004">
        <ele>74.159999999999997</ele>
        <time>2026-07-12T11:58:40Z</time>
      </trkpt>
      <trkpt lat="51.096392031759024" lon="1.126499036327004">
        <ele>74.159999999999997</ele>
        <time>2026-07-12T11:59:43Z</time>
      </trkpt>
      <trkpt lat="51.095781996846199" lon="1.133575038984418">
        <ele>57.340000000000003</ele>
        <time>2026-07-12T13:50:14Z</time>
      </trkpt>
      <trkpt lat="51.095781996846199" lon="1.133575038984418">
        <ele>57.340000000000003</ele>
        <time>2026-07-12T13:51:44Z</time>
      </trkpt>
      <trkpt lat="50.923498012125492" lon="1.814160011708736">
        <ele>16.960000000000001</ele>
        <time>2026-07-12T13:51:45Z</time>
      </trkpt>
      <trkpt lat="50.923549979925156" lon="1.813856000080705">
        <ele>27.530000000000001</ele>
        <time>2026-07-12T13:51:46Z</time>
      </trkpt>
      <trkpt lat="50.923456018790603" lon="1.813772013410926">
        <ele>33.780000000000001</ele>
        <time>2026-07-12T13:51:47Z</time>
      </trkpt>
      <trkpt lat="50.923433974385262" lon="1.813752986490727">
        <ele>38.109999999999999</ele>
        <time>2026-07-12T13:51:48Z</time>
      </trkpt>
      <trkpt lat="50.923433974385262" lon="1.813752986490727">
        <ele>41.469999999999999</ele>
        <time>2026-07-12T13:51:49Z</time>
      </trkpt>
      <trkpt lat="50.923433974385262" lon="1.813752986490727">
        <ele>44.840000000000003</ele>
        <time>2026-07-12T13:51:50Z</time>
      </trkpt>
      <trkpt lat="50.923433974385262" lon="1.813752986490727">
        <ele>56.859999999999999</ele>
        <time>2026-07-12T13:52:01Z</time>
      </trkpt>
      <trkpt lat="50.923138009384274" lon="1.813848037272692">
        <ele>40.990000000000002</ele>
        <time>2026-07-12T13:52:15Z</time>
      </trkpt>
      <trkpt lat="50.923077994957566" lon="1.813972005620599">
        <ele>37.149999999999999</ele>
        <time>2026-07-12T13:52:16Z</time>
      </trkpt>
      <trkpt lat="50.923036001622677" lon="1.813934035599232">
        <ele>33.299999999999997</ele>
        <time>2026-07-12T13:52:17Z</time>
      </trkpt>
      <trkpt lat="50.922976993024349" lon="1.813880978152156">
        <ele>31.379999999999999</ele>
        <time>2026-07-12T13:52:18Z</time>
      </trkpt>
      <trkpt lat="50.922952014952898" lon="1.813686015084386">
        <ele>23.690000000000001</ele>
        <time>2026-07-12T13:52:19Z</time>
      </trkpt>
      <trkpt lat="50.922890994697809" lon="1.813633041456342">
        <ele>21.77</ele>
        <time>2026-07-12T13:52:20Z</time>
      </trkpt>
      <trkpt lat="50.922644985839725" lon="1.81341796182096">
        <ele>2.54</ele>
        <time>2026-07-12T13:52:26Z</time>
      </trkpt>
      <trkpt lat="50.922569967806339" lon="1.813351996243">
        <ele>4.94</ele>
        <time>2026-07-12T13:52:27Z</time>
      </trkpt>
      <trkpt lat="50.921909976750612" lon="1.812766017392278">
        <ele>14.08</ele>
        <time>2026-07-12T13:52:35Z</time>
      </trkpt>
      <trkpt lat="50.921862032264471" lon="1.812717989087105">
        <ele>15.039999999999999</ele>
        <time>2026-07-12T13:52:36Z</time>
      </trkpt>
      <trkpt lat="50.921781985089183" lon="1.812529982998967">
        <ele>15.039999999999999</ele>
        <time>2026-07-12T13:52:37Z</time>
      </trkpt>
      <trkpt lat="50.921785002574325" lon="1.812512967735529">
        <ele>15.52</ele>
        <time>2026-07-12T13:52:38Z</time>
      </trkpt>
      <trkpt lat="50.921846022829413" lon="1.812336025759578">
        <ele>15.52</ele>
        <time>2026-07-12T13:52:39Z</time>
      </trkpt>
      <trkpt lat="50.921878963708878" lon="1.812252961099148">
        <ele>15.52</ele>
        <time>2026-07-12T13:52:40Z</time>
      </trkpt>
      <trkpt lat="50.921909976750612" lon="1.812142990529537">
        <ele>15.52</ele>
        <time>2026-07-12T13:52:41Z</time>
      </trkpt>
      <trkpt lat="50.922323036938906" lon="1.811045967042446">
        <ele>13.6</ele>
        <time>2026-07-12T13:52:48Z</time>
      </trkpt>
      <trkpt lat="50.922458991408348" lon="1.810856033116579">
        <ele>12.15</ele>
        <time>2026-07-12T13:52:50Z</time>
      </trkpt>
      <trkpt lat="50.922535015270114" lon="1.810771962627769">
        <ele>11.67</ele>
        <time>2026-07-12T13:52:51Z</time>
      </trkpt>
      <trkpt lat="50.922625036910176" lon="1.810722006484866">
        <ele>11.19</ele>
        <time>2026-07-12T13:52:52Z</time>
      </trkpt>
      <trkpt lat="50.92272000387311" lon="1.810711026191711">
        <ele>10.710000000000001</ele>
        <time>2026-07-12T13:52:53Z</time>
      </trkpt>
      <trkpt lat="50.922812959179282" lon="1.810737010091543">
        <ele>10.23</ele>
        <time>2026-07-12T13:52:54Z</time>
      </trkpt>
      <trkpt lat="50.922901974990964" lon="1.810800964012742">
        <ele>10.23</ele>
        <time>2026-07-12T13:52:55Z</time>
      </trkpt>
      <trkpt lat="50.922972969710827" lon="1.810909006744623">
        <ele>9.75</ele>
        <time>2026-07-12T13:52:56Z</time>
      </trkpt>
      <trkpt lat="50.923045976087451" lon="1.811036998406053">
        <ele>8.789999999999999</ele>
        <time>2026-07-12T13:52:57Z</time>
      </trkpt>
      <trkpt lat="50.923126023262739" lon="1.811178987845779">
        <ele>8.310000000000001</ele>
        <time>2026-07-12T13:52:58Z</time>
      </trkpt>
      <trkpt lat="50.923210009932518" lon="1.811329023912549">
        <ele>7.83</ele>
        <time>2026-07-12T13:52:59Z</time>
      </trkpt>
      <trkpt lat="50.92407301068306" lon="1.812631990760565">
        <ele>4.94</ele>
        <time>2026-07-12T13:53:07Z</time>
      </trkpt>
      <trkpt lat="50.925524001941085" lon="1.814130004495382">
        <ele>2.54</ele>
        <time>2026-07-12T13:53:17Z</time>
      </trkpt>
      <trkpt lat="50.926839038729668" lon="1.815291987732053">
        <ele>2.54</ele>
        <time>2026-07-12T13:53:27Z</time>
      </trkpt>
      <trkpt lat="50.928268991410732" lon="1.816496970131993">
        <ele>5.91</ele>
        <time>2026-07-12T13:53:37Z</time>
      </trkpt>
      <trkpt lat="50.929773040115833" lon="1.817082026973367">
        <ele>6.39</ele>
        <time>2026-07-12T13:53:47Z</time>
      </trkpt>
      <trkpt lat="50.930838966742158" lon="1.81730498559773">
        <ele>4.94</ele>
        <time>2026-07-12T13:53:57Z</time>
      </trkpt>
      <trkpt lat="50.932158026844263" lon="1.81754101999104">
        <ele>3.02</ele>
        <time>2026-07-12T13:54:08Z</time>
      </trkpt>
      <trkpt lat="50.93350600451231" lon="1.817781999707222">
        <ele>3.02</ele>
        <time>2026-07-12T13:54:19Z</time>
      </trkpt>
      <trkpt lat="50.935338959097862" lon="1.818125993013382">
        <ele>3.5</ele>
        <time>2026-07-12T13:54:34Z</time>
      </trkpt>
      <trkpt lat="50.936938980594277" lon="1.818428998813033">
        <ele>4.94</ele>
        <time>2026-07-12T13:54:46Z</time>
      </trkpt>
      <trkpt lat="50.938989026471972" lon="1.81880702264607">
        <ele>9.27</ele>
        <time>2026-07-12T13:54:59Z</time>
      </trkpt>
      <trkpt lat="50.940023018047214" lon="1.819289987906814">
        <ele>6.87</ele>
        <time>2026-07-12T13:55:06Z</time>
      </trkpt>
      <trkpt lat="50.940746041014791" lon="1.819848977029324">
        <ele>3.98</ele>
        <time>2026-07-12T13:55:12Z</time>
      </trkpt>
      <trkpt lat="50.940976040437818" lon="1.820180984213948">
        <ele>3.98</ele>
        <time>2026-07-12T13:55:13Z</time>
      </trkpt>
      <trkpt lat="50.941074024885893" lon="1.820349963381887">
        <ele>3.98</ele>
        <time>2026-07-12T13:55:14Z</time>
      </trkpt>
      <trkpt lat="50.941164968535304" lon="1.820554984733462">
        <ele>3.98</ele>
        <time>2026-07-12T13:55:15Z</time>
      </trkpt>
      <trkpt lat="50.94124099239707" lon="1.820754976943135">
        <ele>3.5</ele>
        <time>2026-07-12T13:55:16Z</time>
      </trkpt>
      <trkpt lat="50.941303018480539" lon="1.820990005508065">
        <ele>3.5</ele>
        <time>2026-07-12T13:55:17Z</time>
      </trkpt>
      <trkpt lat="50.941364960744977" lon="1.821223022416234">
        <ele>3.5</ele>
        <time>2026-07-12T13:55:18Z</time>
      </trkpt>
      <trkpt lat="50.941421035677195" lon="1.821454027667642">
        <ele>3.5</ele>
        <time>2026-07-12T13:55:19Z</time>
      </trkpt>
      <trkpt lat="50.94145598821342" lon="1.821711016818881">
        <ele>3.5</ele>
        <time>2026-07-12T13:55:20Z</time>
      </trkpt>
      <trkpt lat="50.941492030397058" lon="1.821972029283643">
        <ele>3.5</ele>
        <time>2026-07-12T13:55:21Z</time>
      </trkpt>
      <trkpt lat="50.941528994590044" lon="1.822244022041559">
        <ele>3.5</ele>
        <time>2026-07-12T13:55:22Z</time>
      </trkpt>
      <trkpt lat="50.941418018192053" lon="1.825325964018703">
        <ele>5.91</ele>
        <time>2026-07-12T13:55:32Z</time>
      </trkpt>
      <trkpt lat="50.940934969112277" lon="1.828901013359428">
        <ele>6.87</ele>
        <time>2026-07-12T13:55:43Z</time>
      </trkpt>
      <trkpt lat="50.940203983336687" lon="1.832421999424696">
        <ele>7.35</ele>
        <time>2026-07-12T13:55:54Z</time>
      </trkpt>
      <trkpt lat="50.939160017296672" lon="1.836368031799793">
        <ele>11.19</ele>
        <time>2026-07-12T13:56:06Z</time>
      </trkpt>
      <trkpt lat="50.937680024653673" lon="1.841838983818889">
        <ele>6.87</ele>
        <time>2026-07-12T13:56:22Z</time>
      </trkpt>
      <trkpt lat="50.936829010024667" lon="1.845852993428707">
        <ele>7.35</ele>
        <time>2026-07-12T13:56:34Z</time>
      </trkpt>
      <trkpt lat="50.936565985903144" lon="1.849310025572777">
        <ele>9.27</ele>
        <time>2026-07-12T13:56:44Z</time>
      </trkpt>
      <trkpt lat="50.936657013371587" lon="1.853424031287432">
        <ele>7.83</ele>
        <time>2026-07-12T13:56:57Z</time>
      </trkpt>
      <trkpt lat="50.936653995886445" lon="1.857527978718281">
        <ele>7.83</ele>
        <time>2026-07-12T13:57:10Z</time>
      </trkpt>
      <trkpt lat="50.936199026182294" lon="1.860643029212952">
        <ele>7.35</ele>
        <time>2026-07-12T13:57:20Z</time>
      </trkpt>
      <trkpt lat="50.935535011813045" lon="1.864269962534308">
        <ele>12.15</ele>
        <time>2026-07-12T13:57:32Z</time>
      </trkpt>
      <trkpt lat="50.935430992394686" lon="1.867192983627319">
        <ele>12.630000000000001</ele>
        <time>2026-07-12T13:57:41Z</time>
      </trkpt>
      <trkpt lat="50.935695022344589" lon="1.870667031034827">
        <ele>10.710000000000001</ele>
        <time>2026-07-12T13:57:51Z</time>
      </trkpt>
      <trkpt lat="50.935963997617364" lon="1.874436959624291">
        <ele>8.789999999999999</ele>
        <time>2026-07-12T13:58:02Z</time>
      </trkpt>
      <trkpt lat="50.935817984864116" lon="1.87694700434804">
        <ele>5.42</ele>
        <time>2026-07-12T13:58:09Z</time>
      </trkpt>
      <trkpt lat="50.935067972168326" lon="1.879840018227696">
        <ele>5.42</ele>
        <time>2026-07-12T13:58:18Z</time>
      </trkpt>
      <trkpt lat="50.933610023930669" lon="1.885087005794048">
        <ele>7.83</ele>
        <time>2026-07-12T13:58:34Z</time>
      </trkpt>
      <trkpt lat="50.933454958721995" lon="1.887908019125462">
        <ele>11.19</ele>
        <time>2026-07-12T13:58:42Z</time>
      </trkpt>
      <trkpt lat="50.933783026412129" lon="1.890657031908631">
        <ele>11.67</ele>
        <time>2026-07-12T13:58:50Z</time>
      </trkpt>
      <trkpt lat="50.934409992769361" lon="1.893982971087098">
        <ele>8.310000000000001</ele>
        <time>2026-07-12T13:59:01Z</time>
      </trkpt>
      <trkpt lat="50.935109965503216" lon="1.897808974608779">
        <ele>4.94</ele>
        <time>2026-07-12T13:59:13Z</time>
      </trkpt>
      <trkpt lat="50.935540962964296" lon="1.900993008166552">
        <ele>4.94</ele>
        <time>2026-07-12T13:59:22Z</time>
      </trkpt>
      <trkpt lat="50.935837011784315" lon="1.904907021671534">
        <ele>5.42</ele>
        <time>2026-07-12T13:59:33Z</time>
      </trkpt>
      <trkpt lat="50.935987969860435" lon="1.908850036561489">
        <ele>5.42</ele>
        <time>2026-07-12T13:59:44Z</time>
      </trkpt>
      <trkpt lat="50.936220986768603" lon="1.913843974471092">
        <ele>5.91</ele>
        <time>2026-07-12T13:59:58Z</time>
      </trkpt>
      <trkpt lat="50.93642701394856" lon="1.917730998247862">
        <ele>5.91</ele>
        <time>2026-07-12T14:00:09Z</time>
      </trkpt>
      <trkpt lat="50.936721973121166" lon="1.922128982841969">
        <ele>6.39</ele>
        <time>2026-07-12T14:00:21Z</time>
      </trkpt>
      <trkpt lat="50.937107037752867" lon="1.928063035011292">
        <ele>6.39</ele>
        <time>2026-07-12T14:00:35Z</time>
      </trkpt>
      <trkpt lat="50.937441978603601" lon="1.935489987954497">
        <ele>6.87</ele>
        <time>2026-07-12T14:00:52Z</time>
      </trkpt>
      <trkpt lat="50.937574999406934" lon="1.941628977656364">
        <ele>5.42</ele>
        <time>2026-07-12T14:01:06Z</time>
      </trkpt>
      <trkpt lat="50.937516996636987" lon="1.946317981928587">
        <ele>4.94</ele>
        <time>2026-07-12T14:01:16Z</time>
      </trkpt>
      <trkpt lat="50.937195969745517" lon="1.951780971139669">
        <ele>6.87</ele>
        <time>2026-07-12T14:01:27Z</time>
      </trkpt>
      <trkpt lat="50.936704035848379" lon="1.958168987184763">
        <ele>5.91</ele>
        <time>2026-07-12T14:01:40Z</time>
      </trkpt>
      <trkpt lat="50.936233978718519" lon="1.965009961277247">
        <ele>6.87</ele>
        <time>2026-07-12T14:01:54Z</time>
      </trkpt>
      <trkpt lat="50.93591102398932" lon="1.971436031162739">
        <ele>3.5</ele>
        <time>2026-07-12T14:02:07Z</time>
      </trkpt>
      <trkpt lat="50.935453036800027" lon="1.976804975420237">
        <ele>4.46</ele>
        <time>2026-07-12T14:02:18Z</time>
      </trkpt>
      <trkpt lat="50.934573020786047" lon="1.985549982637167">
        <ele>5.91</ele>
        <time>2026-07-12T14:02:36Z</time>
      </trkpt>
      <trkpt lat="50.933981006965041" lon="1.991427959874272">
        <ele>6.39</ele>
        <time>2026-07-12T14:02:48Z</time>
      </trkpt>
      <trkpt lat="50.933245997875929" lon="1.998771009966731">
        <ele>7.83</ele>
        <time>2026-07-12T14:03:03Z</time>
      </trkpt>
      <trkpt lat="50.932457009330392" lon="2.006588978692889">
        <ele>9.27</ele>
        <time>2026-07-12T14:03:19Z</time>
      </trkpt>
      <trkpt lat="50.932039003819227" lon="2.011967981234193">
        <ele>7.83</ele>
        <time>2026-07-12T14:03:30Z</time>
      </trkpt>
      <trkpt lat="50.931840017437935" lon="2.017860040068626">
        <ele>7.83</ele>
        <time>2026-07-12T14:03:42Z</time>
      </trkpt>
      <trkpt lat="50.931858960539103" lon="2.023296961560845">
        <ele>6.87</ele>
        <time>2026-07-12T14:03:53Z</time>
      </trkpt>
      <trkpt lat="50.932207982987165" lon="2.030133996158838">
        <ele>7.83</ele>
        <time>2026-07-12T14:04:07Z</time>
      </trkpt>
      <trkpt lat="50.93305598013103" lon="2.038448005914688">
        <ele>5.91</ele>
        <time>2026-07-12T14:04:24Z</time>
      </trkpt>
      <trkpt lat="50.933929039165378" lon="2.045717965811491">
        <ele>6.39</ele>
        <time>2026-07-12T14:04:39Z</time>
      </trkpt>
      <trkpt lat="50.934712998569012" lon="2.052015960216522">
        <ele>10.710000000000001</ele>
        <time>2026-07-12T14:04:52Z</time>
      </trkpt>
      <trkpt lat="50.93550500459969" lon="2.058856012299657">
        <ele>7.83</ele>
        <time>2026-07-12T14:05:06Z</time>
      </trkpt>
      <trkpt lat="50.936431037262082" lon="2.066612038761377">
        <ele>6.87</ele>
        <time>2026-07-12T14:05:22Z</time>
      </trkpt>
      <trkpt lat="50.937827965244651" lon="2.074736030772328">
        <ele>7.35</ele>
        <time>2026-07-12T14:05:39Z</time>
      </trkpt>
      <trkpt lat="50.938872015103698" lon="2.079356973990798">
        <ele>5.42</ele>
        <time>2026-07-12T14:05:49Z</time>
      </trkpt>
      <trkpt lat="50.940736988559365" lon="2.086142962798476">
        <ele>6.39</ele>
        <time>2026-07-12T14:06:04Z</time>
      </trkpt>
      <trkpt lat="50.942222010344267" lon="2.091074958443642">
        <ele>7.35</ele>
        <time>2026-07-12T14:06:15Z</time>
      </trkpt>
      <trkpt lat="50.944221010431647" lon="2.097780983895063">
        <ele>7.35</ele>
        <time>2026-07-12T14:06:30Z</time>
      </trkpt>
      <trkpt lat="50.946046002209187" lon="2.102977009490132">
        <ele>7.83</ele>
        <time>2026-07-12T14:06:42Z</time>
      </trkpt>
      <trkpt lat="50.947864959016442" lon="2.106979032978416">
        <ele>6.39</ele>
        <time>2026-07-12T14:06:52Z</time>
      </trkpt>
      <trkpt lat="50.949527006596327" lon="2.111146012321115">
        <ele>6.39</ele>
        <time>2026-07-12T14:07:02Z</time>
      </trkpt>
      <trkpt lat="50.950890993699431" lon="2.116125030443072">
        <ele>6.39</ele>
        <time>2026-07-12T14:07:13Z</time>
      </trkpt>
      <trkpt lat="50.951517038047314" lon="2.120457971468568">
        <ele>5.42</ele>
        <time>2026-07-12T14:07:22Z</time>
      </trkpt>
      <trkpt lat="50.951650980859995" lon="2.124876994639635">
        <ele>5.42</ele>
        <time>2026-07-12T14:07:31Z</time>
      </trkpt>
      <trkpt lat="50.951782995834947" lon="2.130321962758899">
        <ele>9.75</ele>
        <time>2026-07-12T14:07:42Z</time>
      </trkpt>
      <trkpt lat="50.952466037124395" lon="2.134627997875214">
        <ele>9.27</ele>
        <time>2026-07-12T14:07:51Z</time>
      </trkpt>
      <trkpt lat="50.953649980947375" lon="2.138617029413581">
        <ele>11.67</ele>
        <time>2026-07-12T14:08:00Z</time>
      </trkpt>
      <trkpt lat="50.955805974081159" lon="2.144644958898425">
        <ele>5.42</ele>
        <time>2026-07-12T14:08:14Z</time>
      </trkpt>
      <trkpt lat="50.956950020045042" lon="2.148682018741965">
        <ele>6.39</ele>
        <time>2026-07-12T14:08:23Z</time>
      </trkpt>
      <trkpt lat="50.958050983026624" lon="2.154327984899283">
        <ele>6.39</ele>
        <time>2026-07-12T14:08:35Z</time>
      </trkpt>
      <trkpt lat="50.958616007119417" lon="2.15971302241087">
        <ele>5.91</ele>
        <time>2026-07-12T14:08:46Z</time>
      </trkpt>
      <trkpt lat="50.958763025701046" lon="2.165655037388206">
        <ele>6.39</ele>
        <time>2026-07-12T14:08:58Z</time>
      </trkpt>
      <trkpt lat="50.95879596658051" lon="2.17155204154551">
        <ele>12.630000000000001</ele>
        <time>2026-07-12T14:09:10Z</time>
      </trkpt>
      <trkpt lat="50.958818010985851" lon="2.175696976482868">
        <ele>11.19</ele>
        <time>2026-07-12T14:09:19Z</time>
      </trkpt>
      <trkpt lat="50.958832008764148" lon="2.17907496728003">
        <ele>6.87</ele>
        <time>2026-07-12T14:09:28Z</time>
      </trkpt>
      <trkpt lat="50.958846006542444" lon="2.181692970916629">
        <ele>6.87</ele>
        <time>2026-07-12T14:09:37Z</time>
      </trkpt>
      <trkpt lat="50.958875007927418" lon="2.18493802472949">
        <ele>5.91</ele>
        <time>2026-07-12T14:09:48Z</time>
      </trkpt>
      <trkpt lat="50.958938039839268" lon="2.187748979777098">
        <ele>5.42</ele>
        <time>2026-07-12T14:09:56Z</time>
      </trkpt>
      <trkpt lat="50.959126967936754" lon="2.19160096719861">
        <ele>4.46</ele>
        <time>2026-07-12T14:10:06Z</time>
      </trkpt>
      <trkpt lat="50.959415975958109" lon="2.197025986388326">
        <ele>4.46</ele>
        <time>2026-07-12T14:10:20Z</time>
      </trkpt>
      <trkpt lat="50.959666008129716" lon="2.201679032295942">
        <ele>4.46</ele>
        <time>2026-07-12T14:10:32Z</time>
      </trkpt>
      <trkpt lat="50.959982005879283" lon="2.206003004685044">
        <ele>5.42</ele>
        <time>2026-07-12T14:10:42Z</time>
      </trkpt>
      <trkpt lat="50.960764959454536" lon="2.209801012650132">
        <ele>5.91</ele>
        <time>2026-07-12T14:10:51Z</time>
      </trkpt>
      <trkpt lat="50.961840022355318" lon="2.212853031232953">
        <ele>9.27</ele>
        <time>2026-07-12T14:10:59Z</time>
      </trkpt>
      <trkpt lat="50.963244996964931" lon="2.215529959648848">
        <ele>13.119999999999999</ele>
        <time>2026-07-12T14:11:07Z</time>
      </trkpt>
      <trkpt lat="50.965288002043962" lon="2.218042016029358">
        <ele>11.19</ele>
        <time>2026-07-12T14:11:17Z</time>
      </trkpt>
      <trkpt lat="50.967396972700953" lon="2.21965997479856">
        <ele>10.23</ele>
        <time>2026-07-12T14:11:26Z</time>
      </trkpt>
      <trkpt lat="50.970035009086132" lon="2.220917008817196">
        <ele>7.83</ele>
        <time>2026-07-12T14:11:36Z</time>
      </trkpt>
      <trkpt lat="50.972563996911049" lon="2.222030963748694">
        <ele>4.94</ele>
        <time>2026-07-12T14:11:46Z</time>
      </trkpt>
      <trkpt lat="50.974572971463203" lon="2.222905028611422">
        <ele>5.91</ele>
        <time>2026-07-12T14:11:55Z</time>
      </trkpt>
      <trkpt lat="50.977450981736183" lon="2.224172037094832">
        <ele>5.91</ele>
        <time>2026-07-12T14:12:08Z</time>
      </trkpt>
      <trkpt lat="50.980599978938699" lon="2.225797958672047">
        <ele>6.39</ele>
        <time>2026-07-12T14:12:23Z</time>
      </trkpt>
      <trkpt lat="50.983141958713531" lon="2.227971972897649">
        <ele>4.94</ele>
        <time>2026-07-12T14:12:34Z</time>
      </trkpt>
      <trkpt lat="50.985227040946484" lon="2.23052904009819">
        <ele>5.42</ele>
        <time>2026-07-12T14:12:45Z</time>
      </trkpt>
      <trkpt lat="50.987318996340036" lon="2.234070980921388">
        <ele>4.46</ele>
        <time>2026-07-12T14:12:58Z</time>
      </trkpt>
      <trkpt lat="50.988454995676875" lon="2.236608015373349">
        <ele>6.39</ele>
        <time>2026-07-12T14:13:06Z</time>
      </trkpt>
      <trkpt lat="50.989602981135249" lon="2.240041997283697">
        <ele>8.789999999999999</ele>
        <time>2026-07-12T14:13:15Z</time>
      </trkpt>
      <trkpt lat="50.990373026579618" lon="2.243617968633771">
        <ele>9.75</ele>
        <time>2026-07-12T14:13:24Z</time>
      </trkpt>
      <trkpt lat="50.990893039852381" lon="2.247967002913356">
        <ele>7.35</ele>
        <time>2026-07-12T14:13:35Z</time>
      </trkpt>
      <trkpt lat="50.991174001246691" lon="2.252414021641016">
        <ele>5.42</ele>
        <time>2026-07-12T14:13:46Z</time>
      </trkpt>
      <trkpt lat="50.991431996226311" lon="2.25659298710525">
        <ele>5.42</ele>
        <time>2026-07-12T14:13:56Z</time>
      </trkpt>
      <trkpt lat="50.991308027878404" lon="2.259186012670398">
        <ele>5.42</ele>
        <time>2026-07-12T14:14:03Z</time>
      </trkpt>
      <trkpt lat="50.991037040948868" lon="2.263152999803424">
        <ele>7.83</ele>
        <time>2026-07-12T14:14:15Z</time>
      </trkpt>
      <trkpt lat="50.99125798791647" lon="2.265578974038363">
        <ele>10.23</ele>
        <time>2026-07-12T14:14:23Z</time>
      </trkpt>
      <trkpt lat="50.991912027820945" lon="2.268641972914338">
        <ele>13.6</ele>
        <time>2026-07-12T14:14:33Z</time>
      </trkpt>
      <trkpt lat="50.992762036621571" lon="2.271554013714194">
        <ele>17.440000000000001</ele>
        <time>2026-07-12T14:14:43Z</time>
      </trkpt>
      <trkpt lat="50.994112025946379" lon="2.275250013917685">
        <ele>14.56</ele>
        <time>2026-07-12T14:14:56Z</time>
      </trkpt>
      <trkpt lat="50.99480202421546" lon="2.278073038905859">
        <ele>9.27</ele>
        <time>2026-07-12T14:15:05Z</time>
      </trkpt>
      <trkpt lat="50.995661001652479" lon="2.281079040840268">
        <ele>6.87</ele>
        <time>2026-07-12T14:15:15Z</time>
      </trkpt>
      <trkpt lat="50.996818961575627" lon="2.284099040552974">
        <ele>7.83</ele>
        <time>2026-07-12T14:15:26Z</time>
      </trkpt>
      <trkpt lat="50.998174985870719" lon="2.287720022723079">
        <ele>13.6</ele>
        <time>2026-07-12T14:15:39Z</time>
      </trkpt>
      <trkpt lat="50.999651961028576" lon="2.292018011212349">
        <ele>10.23</ele>
        <time>2026-07-12T14:15:54Z</time>
      </trkpt>
      <trkpt lat="51.000791983678937" lon="2.295341016724706">
        <ele>3.5</ele>
        <time>2026-07-12T14:16:06Z</time>
      </trkpt>
      <trkpt lat="51.001994032412767" lon="2.298907013610005">
        <ele>3.98</ele>
        <time>2026-07-12T14:16:18Z</time>
      </trkpt>
      <trkpt lat="51.002843035385013" lon="2.30162501335144">
        <ele>4.94</ele>
        <time>2026-07-12T14:16:27Z</time>
      </trkpt>
      <trkpt lat="51.003533033654094" lon="2.304904013872147">
        <ele>4.94</ele>
        <time>2026-07-12T14:16:37Z</time>
      </trkpt>
      <trkpt lat="51.004096968099475" lon="2.308964040130377">
        <ele>8.310000000000001</ele>
        <time>2026-07-12T14:16:49Z</time>
      </trkpt>
      <trkpt lat="51.004637014120817" lon="2.312959022819996">
        <ele>12.15</ele>
        <time>2026-07-12T14:17:01Z</time>
      </trkpt>
      <trkpt lat="51.005120985209942" lon="2.315797973424196">
        <ele>7.35</ele>
        <time>2026-07-12T14:17:10Z</time>
      </trkpt>
      <trkpt lat="51.005552988499403" lon="2.317771995440126">
        <ele>6.39</ele>
        <time>2026-07-12T14:17:17Z</time>
      </trkpt>
      <trkpt lat="51.006297972053289" lon="2.320507010444999">
        <ele>6.39</ele>
        <time>2026-07-12T14:17:27Z</time>
      </trkpt>
      <trkpt lat="51.00717999972403" lon="2.323214029893279">
        <ele>5.42</ele>
        <time>2026-07-12T14:17:36Z</time>
      </trkpt>
      <trkpt lat="51.008366039022803" lon="2.32626898214221">
        <ele>10.23</ele>
        <time>2026-07-12T14:17:46Z</time>
      </trkpt>
      <trkpt lat="51.009997995570302" lon="2.330901995301247">
        <ele>14.56</ele>
        <time>2026-07-12T14:18:01Z</time>
      </trkpt>
      <trkpt lat="51.010798970237374" lon="2.334703020751476">
        <ele>15.039999999999999</ele>
        <time>2026-07-12T14:18:12Z</time>
      </trkpt>
      <trkpt lat="51.011424008756876" lon="2.339667035266757">
        <ele>8.310000000000001</ele>
        <time>2026-07-12T14:18:26Z</time>
      </trkpt>
      <trkpt lat="51.011956008151174" lon="2.344246990978718">
        <ele>6.39</ele>
        <time>2026-07-12T14:18:39Z</time>
      </trkpt>
      <trkpt lat="51.012397985905409" lon="2.349606966599822">
        <ele>7.35</ele>
        <time>2026-07-12T14:18:54Z</time>
      </trkpt>
      <trkpt lat="51.012482978403568" lon="2.354988986626267">
        <ele>7.83</ele>
        <time>2026-07-12T14:19:09Z</time>
      </trkpt>
      <trkpt lat="51.012462023645639" lon="2.360725980252028">
        <ele>8.310000000000001</ele>
        <time>2026-07-12T14:19:25Z</time>
      </trkpt>
      <trkpt lat="51.012473003938794" lon="2.365627968683839">
        <ele>11.67</ele>
        <time>2026-07-12T14:19:39Z</time>
      </trkpt>
      <trkpt lat="51.012674001976848" lon="2.370427027344704">
        <ele>14.08</ele>
        <time>2026-07-12T14:19:53Z</time>
      </trkpt>
      <trkpt lat="51.012923028320074" lon="2.376004010438919">
        <ele>15.52</ele>
        <time>2026-07-12T14:20:09Z</time>
      </trkpt>
      <trkpt lat="51.013214970007539" lon="2.380266962572932">
        <ele>13.6</ele>
        <time>2026-07-12T14:20:23Z</time>
      </trkpt>
      <trkpt lat="51.013920977711678" lon="2.384225986897945">
        <ele>11.19</ele>
        <time>2026-07-12T14:20:34Z</time>
      </trkpt>
      <trkpt lat="51.014674007892609" lon="2.388432025909424">
        <ele>8.310000000000001</ele>
        <time>2026-07-12T14:20:46Z</time>
      </trkpt>
      <trkpt lat="51.015560980886221" lon="2.393282968550921">
        <ele>7.35</ele>
        <time>2026-07-12T14:20:59Z</time>
      </trkpt>
      <trkpt lat="51.016382994130254" lon="2.396875033155084">
        <ele>4.46</ele>
        <time>2026-07-12T14:21:10Z</time>
      </trkpt>
      <trkpt lat="51.017789980396628" lon="2.401305036619306">
        <ele>2.54</ele>
        <time>2026-07-12T14:21:22Z</time>
      </trkpt>
      <trkpt lat="51.018832018598914" lon="2.40423996001482">
        <ele>4.46</ele>
        <time>2026-07-12T14:21:31Z</time>
      </trkpt>
      <trkpt lat="51.020191982388496" lon="2.408114997670054">
        <ele>4.46</ele>
        <time>2026-07-12T14:21:43Z</time>
      </trkpt>
      <trkpt lat="51.021751016378403" lon="2.412348026409745">
        <ele>1.1</ele>
        <time>2026-07-12T14:21:57Z</time>
      </trkpt>
      <trkpt lat="51.023011989891529" lon="2.415339024737477">
        <ele>0.14</ele>
        <time>2026-07-12T14:22:06Z</time>
      </trkpt>
      <trkpt lat="51.024060985073447" lon="2.417689980939031">
        <ele>1.1</ele>
        <time>2026-07-12T14:22:14Z</time>
      </trkpt>
      <trkpt lat="51.025392031297088" lon="2.420638985931873">
        <ele>1.58</ele>
        <time>2026-07-12T14:22:23Z</time>
      </trkpt>
      <trkpt lat="51.027140999212861" lon="2.424504971131682">
        <ele>2.54</ele>
        <time>2026-07-12T14:22:35Z</time>
      </trkpt>
      <trkpt lat="51.02879298850894" lon="2.428202982991934">
        <ele>5.42</ele>
        <time>2026-07-12T14:22:46Z</time>
      </trkpt>
      <trkpt lat="51.031046966090798" lon="2.433249978348613">
        <ele>5.91</ele>
        <time>2026-07-12T14:23:00Z</time>
      </trkpt>
      <trkpt lat="51.032995004206896" lon="2.437551990151405">
        <ele>6.87</ele>
        <time>2026-07-12T14:23:12Z</time>
      </trkpt>
      <trkpt lat="51.035236995667219" lon="2.442551041021943">
        <ele>3.98</ele>
        <time>2026-07-12T14:23:26Z</time>
      </trkpt>
      <trkpt lat="51.037435987964272" lon="2.447569034993649">
        <ele>4.46</ele>
        <time>2026-07-12T14:23:40Z</time>
      </trkpt>
      <trkpt lat="51.038669971749187" lon="2.451521018519998">
        <ele>4.46</ele>
        <time>2026-07-12T14:23:50Z</time>
      </trkpt>
      <trkpt lat="51.039658030495048" lon="2.456099968403578">
        <ele>2.54</ele>
        <time>2026-07-12T14:24:01Z</time>
      </trkpt>
      <trkpt lat="51.040790006518364" lon="2.461643004789949">
        <ele>2.06</ele>
        <time>2026-07-12T14:24:14Z</time>
      </trkpt>
      <trkpt lat="51.042046034708619" lon="2.467818958684802">
        <ele>0.14</ele>
        <time>2026-07-12T14:24:27Z</time>
      </trkpt>
      <trkpt lat="51.043240036815405" lon="2.474004970863462">
        <ele>1.58</ele>
        <time>2026-07-12T14:24:40Z</time>
      </trkpt>
      <trkpt lat="51.043932968750596" lon="2.479321025311947">
        <ele>3.02</ele>
        <time>2026-07-12T14:24:51Z</time>
      </trkpt>
      <trkpt lat="51.044187024235725" lon="2.484758030623198">
        <ele>3.02</ele>
        <time>2026-07-12T14:25:02Z</time>
      </trkpt>
      <trkpt lat="51.043915031477809" lon="2.491226010024548">
        <ele>5.91</ele>
        <time>2026-07-12T14:25:15Z</time>
      </trkpt>
      <trkpt lat="51.043155966326594" lon="2.499066023156047">
        <ele>6.39</ele>
        <time>2026-07-12T14:25:31Z</time>
      </trkpt>
      <trkpt lat="51.042580967769027" lon="2.505458984524012">
        <ele>5.42</ele>
        <time>2026-07-12T14:25:44Z</time>
      </trkpt>
      <trkpt lat="51.042141001671553" lon="2.511404016986489">
        <ele>2.54</ele>
        <time>2026-07-12T14:25:56Z</time>
      </trkpt>
      <trkpt lat="51.042174026370049" lon="2.514535998925567">
        <ele>1.58</ele>
        <time>2026-07-12T14:26:03Z</time>
      </trkpt>
      <trkpt lat="51.042613992467523" lon="2.518838010728359">
        <ele>1.58</ele>
        <time>2026-07-12T14:26:13Z</time>
      </trkpt>
      <trkpt lat="51.043584030121565" lon="2.523271031677723">
        <ele>1.1</ele>
        <time>2026-07-12T14:26:23Z</time>
      </trkpt>
      <trkpt lat="51.045442968606949" lon="2.529530972242355">
        <ele>4.94</ele>
        <time>2026-07-12T14:26:37Z</time>
      </trkpt>
      <trkpt lat="51.047477005049586" lon="2.535079037770629">
        <ele>7.83</ele>
        <time>2026-07-12T14:26:50Z</time>
      </trkpt>
      <trkpt lat="51.049266960471869" lon="2.538968995213509">
        <ele>4.46</ele>
        <time>2026-07-12T14:27:00Z</time>
      </trkpt>
      <trkpt lat="51.052046986296773" lon="2.544930959120393">
        <ele>2.54</ele>
        <time>2026-07-12T14:27:15Z</time>
      </trkpt>
      <trkpt lat="51.053878013044596" lon="2.549558021128178">
        <ele>3.5</ele>
        <time>2026-07-12T14:27:26Z</time>
      </trkpt>
      <trkpt lat="51.055452972650528" lon="2.555014975368977">
        <ele>4.46</ele>
        <time>2026-07-12T14:27:38Z</time>
      </trkpt>
      <trkpt lat="51.056864988058805" lon="2.561569036915898">
        <ele>4.46</ele>
        <time>2026-07-12T14:27:52Z</time>
      </trkpt>
      <trkpt lat="51.058684028685093" lon="2.570015983656049">
        <ele>2.54</ele>
        <time>2026-07-12T14:28:10Z</time>
      </trkpt>
      <trkpt lat="51.059916000813246" lon="2.574395025148988">
        <ele>2.54</ele>
        <time>2026-07-12T14:28:20Z</time>
      </trkpt>
      <trkpt lat="51.061845012009144" lon="2.579500023275614">
        <ele>2.54</ele>
        <time>2026-07-12T14:28:33Z</time>
      </trkpt>
      <trkpt lat="51.064018020406365" lon="2.585001988336444">
        <ele>3.5</ele>
        <time>2026-07-12T14:28:47Z</time>
      </trkpt>
      <trkpt lat="51.065598009154201" lon="2.589540034532547">
        <ele>6.87</ele>
        <time>2026-07-12T14:28:58Z</time>
      </trkpt>
      <trkpt lat="51.067004995420575" lon="2.595245009288192">
        <ele>5.91</ele>
        <time>2026-07-12T14:29:11Z</time>
      </trkpt>
      <trkpt lat="51.067961035296321" lon="2.601203033700585">
        <ele>3.5</ele>
        <time>2026-07-12T14:29:24Z</time>
      </trkpt>
      <trkpt lat="51.068336963653564" lon="2.605863036587834">
        <ele>3.98</ele>
        <time>2026-07-12T14:29:34Z</time>
      </trkpt>
      <trkpt lat="51.068416005000472" lon="2.611529035493732">
        <ele>3.98</ele>
        <time>2026-07-12T14:29:46Z</time>
      </trkpt>
      <trkpt lat="51.068147029727697" lon="2.616232037544251">
        <ele>3.98</ele>
        <time>2026-07-12T14:29:56Z</time>
      </trkpt>
      <trkpt lat="51.067434987053275" lon="2.621781025081873">
        <ele>3.5</ele>
        <time>2026-07-12T14:30:08Z</time>
      </trkpt>
      <trkpt lat="51.06647802516818" lon="2.627754975110292">
        <ele>-1.79</ele>
        <time>2026-07-12T14:30:21Z</time>
      </trkpt>
      <trkpt lat="51.065229037776589" lon="2.634062021970749">
        <ele>-0.82</ele>
        <time>2026-07-12T14:30:35Z</time>
      </trkpt>
      <trkpt lat="51.063810987398028" lon="2.63870601542294">
        <ele>1.1</ele>
        <time>2026-07-12T14:30:46Z</time>
      </trkpt>
      <trkpt lat="51.062914961948991" lon="2.641010032966733">
        <ele>1.58</ele>
        <time>2026-07-12T14:30:53Z</time>
      </trkpt>
      <trkpt lat="51.061820033937693" lon="2.643369035795331">
        <ele>1.58</ele>
        <time>2026-07-12T14:31:00Z</time>
      </trkpt>
      <trkpt lat="51.060523018240929" lon="2.645704988390207">
        <ele>5.42</ele>
        <time>2026-07-12T14:31:08Z</time>
      </trkpt>
      <trkpt lat="51.058906987309456" lon="2.648736974224448">
        <ele>5.42</ele>
        <time>2026-07-12T14:31:17Z</time>
      </trkpt>
      <trkpt lat="51.057546017691493" lon="2.652404978871346">
        <ele>2.06</ele>
        <time>2026-07-12T14:31:26Z</time>
      </trkpt>
      <trkpt lat="51.056547984480858" lon="2.65684001147747">
        <ele>3.98</ele>
        <time>2026-07-12T14:31:36Z</time>
      </trkpt>
      <trkpt lat="51.056159986183047" lon="2.661029035225511">
        <ele>7.35</ele>
        <time>2026-07-12T14:31:45Z</time>
      </trkpt>
      <trkpt lat="51.05622997507453" lon="2.664783960208297">
        <ele>9.27</ele>
        <time>2026-07-12T14:31:53Z</time>
      </trkpt>
      <trkpt lat="51.05678603053093" lon="2.669415967538953">
        <ele>9.75</ele>
        <time>2026-07-12T14:32:03Z</time>
      </trkpt>
      <trkpt lat="51.057463036850095" lon="2.672762023285031">
        <ele>8.789999999999999</ele>
        <time>2026-07-12T14:32:11Z</time>
      </trkpt>
      <trkpt lat="51.058751000091434" lon="2.677202001214027">
        <ele>8.789999999999999</ele>
        <time>2026-07-12T14:32:22Z</time>
      </trkpt>
      <trkpt lat="51.060455963015556" lon="2.681468976661563">
        <ele>4.46</ele>
        <time>2026-07-12T14:32:33Z</time>
      </trkpt>
      <trkpt lat="51.061879964545369" lon="2.684263000264764">
        <ele>2.06</ele>
        <time>2026-07-12T14:32:41Z</time>
      </trkpt>
      <trkpt lat="51.063510999083519" lon="2.686820989474654">
        <ele>1.1</ele>
        <time>2026-07-12T14:32:49Z</time>
      </trkpt>
      <trkpt lat="51.065453002229333" lon="2.689472017809749">
        <ele>1.1</ele>
        <time>2026-07-12T14:32:58Z</time>
      </trkpt>
      <trkpt lat="51.067834971472621" lon="2.692663008347154">
        <ele>4.94</ele>
        <time>2026-07-12T14:33:09Z</time>
      </trkpt>
      <trkpt lat="51.070948010310531" lon="2.696886984631419">
        <ele>9.27</ele>
        <time>2026-07-12T14:33:23Z</time>
      </trkpt>
      <trkpt lat="51.073967004194856" lon="2.701245993375778">
        <ele>7.35</ele>
        <time>2026-07-12T14:33:37Z</time>
      </trkpt>
      <trkpt lat="51.077146008610725" lon="2.706853989511728">
        <ele>3.5</ele>
        <time>2026-07-12T14:33:53Z</time>
      </trkpt>
      <trkpt lat="51.080196015536785" lon="2.712683016434312">
        <ele>2.54</ele>
        <time>2026-07-12T14:34:09Z</time>
      </trkpt>
      <trkpt lat="51.080383015796542" lon="2.71304402500391">
        <ele>1.1</ele>
        <time>2026-07-12T14:34:10Z</time>
      </trkpt>
      <trkpt lat="51.083604013547301" lon="2.719247974455357">
        <ele>0.62</ele>
        <time>2026-07-12T14:34:27Z</time>
      </trkpt>
      <trkpt lat="51.086240960285068" lon="2.724393960088491">
        <ele>2.06</ele>
        <time>2026-07-12T14:34:41Z</time>
      </trkpt>
      <trkpt lat="51.088341968134046" lon="2.727749990299344">
        <ele>3.5</ele>
        <time>2026-07-12T14:34:51Z</time>
      </trkpt>
      <trkpt lat="51.090331999585032" lon="2.730306973680854">
        <ele>3.98</ele>
        <time>2026-07-12T14:35:00Z</time>
      </trkpt>
      <trkpt lat="51.0928859654814" lon="2.732781982049346">
        <ele>3.98</ele>
        <time>2026-07-12T14:35:11Z</time>
      </trkpt>
      <trkpt lat="51.096532009541988" lon="2.73571003228426">
        <ele>4.46</ele>
        <time>2026-07-12T14:35:25Z</time>
      </trkpt>
      <trkpt lat="51.100580971688032" lon="2.739134039729834">
        <ele>3.5</ele>
        <time>2026-07-12T14:35:41Z</time>
      </trkpt>
      <trkpt lat="51.104014031589031" lon="2.742727026343346">
        <ele>3.5</ele>
        <time>2026-07-12T14:35:55Z</time>
      </trkpt>
      <trkpt lat="51.106918025761843" lon="2.746348008513451">
        <ele>3.02</ele>
        <time>2026-07-12T14:36:08Z</time>
      </trkpt>
      <trkpt lat="51.10987700521946" lon="2.750782035291195">
        <ele>2.54</ele>
        <time>2026-07-12T14:36:22Z</time>
      </trkpt>
      <trkpt lat="51.112221004441381" lon="2.754885982722044">
        <ele>2.54</ele>
        <time>2026-07-12T14:36:34Z</time>
      </trkpt>
      <trkpt lat="51.114209024235606" lon="2.758998982608318">
        <ele>4.46</ele>
        <time>2026-07-12T14:36:45Z</time>
      </trkpt>
      <trkpt lat="51.116490997374058" lon="2.764563979580998">
        <ele>8.310000000000001</ele>
        <time>2026-07-12T14:36:59Z</time>
      </trkpt>
      <trkpt lat="51.118655959144235" lon="2.770834984257817">
        <ele>5.42</ele>
        <time>2026-07-12T14:37:14Z</time>
      </trkpt>
      <trkpt lat="51.121354009956121" lon="2.778647001832724">
        <ele>3.98</ele>
        <time>2026-07-12T14:37:33Z</time>
      </trkpt>
      <trkpt lat="51.124222967773676" lon="2.786955982446671">
        <ele>4.46</ele>
        <time>2026-07-12T14:37:53Z</time>
      </trkpt>
      <trkpt lat="51.126797972247005" lon="2.794399028643966">
        <ele>7.83</ele>
        <time>2026-07-12T14:38:11Z</time>
      </trkpt>
      <trkpt lat="51.129216989502311" lon="2.801446029916406">
        <ele>12.630000000000001</ele>
        <time>2026-07-12T14:38:28Z</time>
      </trkpt>
      <trkpt lat="51.13194496370852" lon="2.809392996132374">
        <ele>3.98</ele>
        <time>2026-07-12T14:38:47Z</time>
      </trkpt>
      <trkpt lat="51.133339963853359" lon="2.813637005165219">
        <ele>2.54</ele>
        <time>2026-07-12T14:38:58Z</time>
      </trkpt>
      <trkpt lat="51.134519968181849" lon="2.817942034453154">
        <ele>5.42</ele>
        <time>2026-07-12T14:39:09Z</time>
      </trkpt>
      <trkpt lat="51.135473996400833" lon="2.822183026000857">
        <ele>5.91</ele>
        <time>2026-07-12T14:39:19Z</time>
      </trkpt>
      <trkpt lat="51.13671300932765" lon="2.82951501198113">
        <ele>4.94</ele>
        <time>2026-07-12T14:39:35Z</time>
      </trkpt>
      <trkpt lat="51.138203982263803" lon="2.840145025402308">
        <ele>4.46</ele>
        <time>2026-07-12T14:39:58Z</time>
      </trkpt>
      <trkpt lat="51.138922981917858" lon="2.845227979123592">
        <ele>6.39</ele>
        <time>2026-07-12T14:40:09Z</time>
      </trkpt>
      <trkpt lat="51.139733009040356" lon="2.850736984983087">
        <ele>6.39</ele>
        <time>2026-07-12T14:40:21Z</time>
      </trkpt>
      <trkpt lat="51.14098803140223" lon="2.858514972031117">
        <ele>7.35</ele>
        <time>2026-07-12T14:40:38Z</time>
      </trkpt>
      <trkpt lat="51.141752041876316" lon="2.863576970994473">
        <ele>12.15</ele>
        <time>2026-07-12T14:40:49Z</time>
      </trkpt>
      <trkpt lat="51.141972988843918" lon="2.865314958617091">
        <ele>11.19</ele>
        <time>2026-07-12T14:40:54Z</time>
      </trkpt>
      <trkpt lat="51.142154959961772" lon="2.866741977632046">
        <ele>9.75</ele>
        <time>2026-07-12T14:41:01Z</time>
      </trkpt>
      <trkpt lat="51.142452014610171" lon="2.86917801015079">
        <ele>6.87</ele>
        <time>2026-07-12T14:41:16Z</time>
      </trkpt>
      <trkpt lat="51.142655024304986" lon="2.871001996099949">
        <ele>7.35</ele>
        <time>2026-07-12T14:41:26Z</time>
      </trkpt>
      <trkpt lat="51.142930034548044" lon="2.873481027781963">
        <ele>4.46</ele>
        <time>2026-07-12T14:41:40Z</time>
      </trkpt>
      <trkpt lat="51.143243014812469" lon="2.876358032226563">
        <ele>3.98</ele>
        <time>2026-07-12T14:41:54Z</time>
      </trkpt>
      <trkpt lat="51.143699996173382" lon="2.880256958305836">
        <ele>3.02</ele>
        <time>2026-07-12T14:42:12Z</time>
      </trkpt>
      <trkpt lat="51.144154965877533" lon="2.883699992671609">
        <ele>2.06</ele>
        <time>2026-07-12T14:42:27Z</time>
      </trkpt>
      <trkpt lat="51.144548999145627" lon="2.886455962434411">
        <ele>2.54</ele>
        <time>2026-07-12T14:42:36Z</time>
      </trkpt>
      <trkpt lat="51.145261041820049" lon="2.890838021412492">
        <ele>3.02</ele>
        <time>2026-07-12T14:42:49Z</time>
      </trkpt>
      <trkpt lat="51.145730009302497" lon="2.893522996455431">
        <ele>2.06</ele>
        <time>2026-07-12T14:42:58Z</time>
      </trkpt>
      <trkpt lat="51.14648899063468" lon="2.897347994148731">
        <ele>2.54</ele>
        <time>2026-07-12T14:43:11Z</time>
      </trkpt>
      <trkpt lat="51.147162979468703" lon="2.900467989966273">
        <ele>2.06</ele>
        <time>2026-07-12T14:43:20Z</time>
      </trkpt>
      <trkpt lat="51.147894971072674" lon="2.903740033507347">
        <ele>2.06</ele>
        <time>2026-07-12T14:43:30Z</time>
      </trkpt>
      <trkpt lat="51.148511040955782" lon="2.906199032440782">
        <ele>1.58</ele>
        <time>2026-07-12T14:43:41Z</time>
      </trkpt>
      <trkpt lat="51.149008003994823" lon="2.90815101005137">
        <ele>0.14</ele>
        <time>2026-07-12T14:43:51Z</time>
      </trkpt>
      <trkpt lat="51.149509996175766" lon="2.910103993490338">
        <ele>0.14</ele>
        <time>2026-07-12T14:44:03Z</time>
      </trkpt>
      <trkpt lat="51.150002013891935" lon="2.911820020526648">
        <ele>-1.3</ele>
        <time>2026-07-12T14:44:13Z</time>
      </trkpt>
      <trkpt lat="51.150860991328955" lon="2.91481202468276">
        <ele>-1.3</ele>
        <time>2026-07-12T14:44:30Z</time>
      </trkpt>
      <trkpt lat="51.151502039283514" lon="2.916890988126397">
        <ele>0.62</ele>
        <time>2026-07-12T14:44:43Z</time>
      </trkpt>
      <trkpt lat="51.152245011180639" lon="2.91917497292161">
        <ele>1.58</ele>
        <time>2026-07-12T14:44:57Z</time>
      </trkpt>
      <trkpt lat="51.153204990550876" lon="2.922067986801267">
        <ele>1.58</ele>
        <time>2026-07-12T14:45:14Z</time>
      </trkpt>
      <trkpt lat="51.153704971075058" lon="2.923475978896022">
        <ele>2.06</ele>
        <time>2026-07-12T14:45:24Z</time>
      </trkpt>
      <trkpt lat="51.154549028724432" lon="2.925775973126292">
        <ele>2.54</ele>
        <time>2026-07-12T14:45:39Z</time>
      </trkpt>
      <trkpt lat="51.15540599450469" lon="2.928096000105143">
        <ele>3.02</ele>
        <time>2026-07-12T14:45:54Z</time>
      </trkpt>
      <trkpt lat="51.155992979183793" lon="2.929556965827942">
        <ele>3.02</ele>
        <time>2026-07-12T14:46:04Z</time>
      </trkpt>
      <trkpt lat="51.15720902569592" lon="2.932665981352329">
        <ele>3.98</ele>
        <time>2026-07-12T14:46:24Z</time>
      </trkpt>
      <trkpt lat="51.15759601816535" lon="2.933649010956287">
        <ele>4.46</ele>
        <time>2026-07-12T14:46:32Z</time>
      </trkpt>
      <trkpt lat="51.157676987349987" lon="2.933854032307863">
        <ele>3.98</ele>
        <time>2026-07-12T14:46:35Z</time>
      </trkpt>
      <trkpt lat="51.157699031755328" lon="2.933909017592669">
        <ele>3.98</ele>
        <time>2026-07-12T14:46:36Z</time>
      </trkpt>
      <trkpt lat="51.157735995948315" lon="2.934003984555602">
        <ele>3.98</ele>
        <time>2026-07-12T14:46:39Z</time>
      </trkpt>
      <trkpt lat="51.157735995948315" lon="2.934003984555602">
        <ele>3.98</ele>
        <time>2026-07-12T14:46:40Z</time>
      </trkpt>
      <trkpt lat="51.157750999554992" lon="2.93404103256762">
        <ele>3.5</ele>
        <time>2026-07-12T14:46:41Z</time>
      </trkpt>
      <trkpt lat="51.157767008990049" lon="2.934081014245749">
        <ele>3.5</ele>
        <time>2026-07-12T14:46:44Z</time>
      </trkpt>
      <trkpt lat="51.157781006768346" lon="2.934115966781974">
        <ele>3.5</ele>
        <time>2026-07-12T14:46:45Z</time>
      </trkpt>
      <trkpt lat="51.158040007576346" lon="2.934773024171591">
        <ele>4.46</ele>
        <time>2026-07-12T14:46:52Z</time>
      </trkpt>
      <trkpt lat="51.158634033054113" lon="2.936277994886041">
        <ele>4.46</ele>
        <time>2026-07-12T14:47:05Z</time>
      </trkpt>
      <trkpt lat="51.159205008298159" lon="2.937713982537389">
        <ele>3.98</ele>
        <time>2026-07-12T14:47:18Z</time>
      </trkpt>
      <trkpt lat="51.15933702327311" lon="2.938049007207155">
        <ele>3.5</ele>
        <time>2026-07-12T14:47:21Z</time>
      </trkpt>
      <trkpt lat="51.159955020993948" lon="2.939604017883539">
        <ele>0.14</ele>
        <time>2026-07-12T14:47:34Z</time>
      </trkpt>
      <trkpt lat="51.16000103764236" lon="2.939720023423433">
        <ele>0.14</ele>
        <time>2026-07-12T14:47:35Z</time>
      </trkpt>
      <trkpt lat="51.160703022032976" lon="2.941501010209322">
        <ele>-1.3</ele>
        <time>2026-07-12T14:47:49Z</time>
      </trkpt>
      <trkpt lat="51.161373993381858" lon="2.943203961476684">
        <ele>0.62</ele>
        <time>2026-07-12T14:47:59Z</time>
      </trkpt>
      <trkpt lat="51.162417959421873" lon="2.945867981761694">
        <ele>3.02</ele>
        <time>2026-07-12T14:48:11Z</time>
      </trkpt>
      <trkpt lat="51.163539038971066" lon="2.948814975097776">
        <ele>6.87</ele>
        <time>2026-07-12T14:48:23Z</time>
      </trkpt>
      <trkpt lat="51.165109975263476" lon="2.953416975215077">
        <ele>8.310000000000001</ele>
        <time>2026-07-12T14:48:39Z</time>
      </trkpt>
      <trkpt lat="51.166070960462093" lon="2.956688012927771">
        <ele>4.94</ele>
        <time>2026-07-12T14:48:48Z</time>
      </trkpt>
      <trkpt lat="51.167013002559543" lon="2.96033900231123">
        <ele>3.98</ele>
        <time>2026-07-12T14:48:58Z</time>
      </trkpt>
      <trkpt lat="51.167621025815606" lon="2.962979972362518">
        <ele>-1.79</ele>
        <time>2026-07-12T14:49:07Z</time>
      </trkpt>
      <trkpt lat="51.168384030461311" lon="2.966832965612412">
        <ele>-0.34</ele>
        <time>2026-07-12T14:49:20Z</time>
      </trkpt>
      <trkpt lat="51.16904703900218" lon="2.970927022397518">
        <ele>1.58</ele>
        <time>2026-07-12T14:49:32Z</time>
      </trkpt>
      <trkpt lat="51.169881038367748" lon="2.976557984948158">
        <ele>2.06</ele>
        <time>2026-07-12T14:49:48Z</time>
      </trkpt>
      <trkpt lat="51.170457964763045" lon="2.980438973754644">
        <ele>1.58</ele>
        <time>2026-07-12T14:49:59Z</time>
      </trkpt>
      <trkpt lat="51.171223986893892" lon="2.985589988529682">
        <ele>2.54</ele>
        <time>2026-07-12T14:50:14Z</time>
      </trkpt>
      <trkpt lat="51.171968970447779" lon="2.990758018568158">
        <ele>3.5</ele>
        <time>2026-07-12T14:50:28Z</time>
      </trkpt>
      <trkpt lat="51.172777991741896" lon="2.996272975578904">
        <ele>4.46</ele>
        <time>2026-07-12T14:50:41Z</time>
      </trkpt>
      <trkpt lat="51.173219969496131" lon="2.999212006106973">
        <ele>4.46</ele>
        <time>2026-07-12T14:50:49Z</time>
      </trkpt>
      <trkpt lat="51.173441000282764" lon="3.000631984323263">
        <ele>3.98</ele>
        <time>2026-07-12T14:50:55Z</time>
      </trkpt>
      <trkpt lat="51.173892030492425" lon="3.003092994913459">
        <ele>5.91</ele>
        <time>2026-07-12T14:51:08Z</time>
      </trkpt>
      <trkpt lat="51.174253961071372" lon="3.004774991422892">
        <ele>7.35</ele>
        <time>2026-07-12T14:51:18Z</time>
      </trkpt>
      <trkpt lat="51.174782020971179" lon="3.00679000094533">
        <ele>7.35</ele>
        <time>2026-07-12T14:51:31Z</time>
      </trkpt>
      <trkpt lat="51.175602022558451" lon="3.009422002360225">
        <ele>6.87</ele>
        <time>2026-07-12T14:51:47Z</time>
      </trkpt>
      <trkpt lat="51.176558984443545" lon="3.012070013210177">
        <ele>7.35</ele>
        <time>2026-07-12T14:52:03Z</time>
      </trkpt>
      <trkpt lat="51.177753992378712" lon="3.015052964910865">
        <ele>5.91</ele>
        <time>2026-07-12T14:52:20Z</time>
      </trkpt>
      <trkpt lat="51.178861996158957" lon="3.017821004614234">
        <ele>7.35</ele>
        <time>2026-07-12T14:52:35Z</time>
      </trkpt>
      <trkpt lat="51.179844019934535" lon="3.020257959142327">
        <ele>8.310000000000001</ele>
        <time>2026-07-12T14:52:46Z</time>
      </trkpt>
      <trkpt lat="51.181115973740816" lon="3.023503012955189">
        <ele>8.310000000000001</ele>
        <time>2026-07-12T14:52:58Z</time>
      </trkpt>
      <trkpt lat="51.18206899613142" lon="3.026366019621491">
        <ele>8.310000000000001</ele>
        <time>2026-07-12T14:53:08Z</time>
      </trkpt>
      <trkpt lat="51.182555984705687" lon="3.028250019997358">
        <ele>6.87</ele>
        <time>2026-07-12T14:53:17Z</time>
      </trkpt>
      <trkpt lat="51.182776009663939" lon="3.029148979112506">
        <ele>5.91</ele>
        <time>2026-07-12T14:53:24Z</time>
      </trkpt>
      <trkpt lat="51.183114973828197" lon="3.030644981190562">
        <ele>3.98</ele>
        <time>2026-07-12T14:53:33Z</time>
      </trkpt>
      <trkpt lat="51.183647979050875" lon="3.032998032867909">
        <ele>1.58</ele>
        <time>2026-07-12T14:53:47Z</time>
      </trkpt>
      <trkpt lat="51.184057015925646" lon="3.03480600938201">
        <ele>0.62</ele>
        <time>2026-07-12T14:53:54Z</time>
      </trkpt>
      <trkpt lat="51.184785990044475" lon="3.038022983819246">
        <ele>0.14</ele>
        <time>2026-07-12T14:54:05Z</time>
      </trkpt>
      <trkpt lat="51.185515969991684" lon="3.041298966854811">
        <ele>3.02</ele>
        <time>2026-07-12T14:54:16Z</time>
      </trkpt>
      <trkpt lat="51.186219966039062" lon="3.044427009299398">
        <ele>2.54</ele>
        <time>2026-07-12T14:54:25Z</time>
      </trkpt>
      <trkpt lat="51.18741799145937" lon="3.049827972427011">
        <ele>1.58</ele>
        <time>2026-07-12T14:54:39Z</time>
      </trkpt>
      <trkpt lat="51.188581986352801" lon="3.05504696443677">
        <ele>1.58</ele>
        <time>2026-07-12T14:54:53Z</time>
      </trkpt>
      <trkpt lat="51.189949996769428" lon="3.060711035504937">
        <ele>1.58</ele>
        <time>2026-07-12T14:55:07Z</time>
      </trkpt>
      <trkpt lat="51.191064035519958" lon="3.064580960199237">
        <ele>4.46</ele>
        <time>2026-07-12T14:55:17Z</time>
      </trkpt>
      <trkpt lat="51.192314028739929" lon="3.068854976445437">
        <ele>3.5</ele>
        <time>2026-07-12T14:55:29Z</time>
      </trkpt>
      <trkpt lat="51.19298298843205" lon="3.072378979995847">
        <ele>3.5</ele>
        <time>2026-07-12T14:55:38Z</time>
      </trkpt>
      <trkpt lat="51.193199995905161" lon="3.075275011360645">
        <ele>3.02</ele>
        <time>2026-07-12T14:55:46Z</time>
      </trkpt>
      <trkpt lat="51.193021964281797" lon="3.078639004379511">
        <ele>2.06</ele>
        <time>2026-07-12T14:55:56Z</time>
      </trkpt>
      <trkpt lat="51.192499017342925" lon="3.082277001813054">
        <ele>2.54</ele>
        <time>2026-07-12T14:56:07Z</time>
      </trkpt>
      <trkpt lat="51.191812958568335" lon="3.086127983406186">
        <ele>2.06</ele>
        <time>2026-07-12T14:56:21Z</time>
      </trkpt>
      <trkpt lat="51.19115799665451" lon="3.089595995843411">
        <ele>1.58</ele>
        <time>2026-07-12T14:56:32Z</time>
      </trkpt>
      <trkpt lat="51.190495993942022" lon="3.092996031045914">
        <ele>1.58</ele>
        <time>2026-07-12T14:56:43Z</time>
      </trkpt>
      <trkpt lat="51.19010497815907" lon="3.094700993970037">
        <ele>1.58</ele>
        <time>2026-07-12T14:56:50Z</time>
      </trkpt>
      <trkpt lat="51.189750004559755" lon="3.096096999943256">
        <ele>2.06</ele>
        <time>2026-07-12T14:57:00Z</time>
      </trkpt>
      <trkpt lat="51.189326969906688" lon="3.097624015063047">
        <ele>4.94</ele>
        <time>2026-07-12T14:57:13Z</time>
      </trkpt>
      <trkpt lat="51.189012983813882" lon="3.098699999973178">
        <ele>7.83</ele>
        <time>2026-07-12T14:57:25Z</time>
      </trkpt>
      <trkpt lat="51.188637977465987" lon="3.099981006234884">
        <ele>9.27</ele>
        <time>2026-07-12T14:57:36Z</time>
      </trkpt>
      <trkpt lat="51.188056021928787" lon="3.101724022999406">
        <ele>8.310000000000001</ele>
        <time>2026-07-12T14:57:48Z</time>
      </trkpt>
      <trkpt lat="51.187371974810958" lon="3.103724028915167">
        <ele>7.83</ele>
        <time>2026-07-12T14:58:01Z</time>
      </trkpt>
      <trkpt lat="51.186677031219006" lon="3.105715988203883">
        <ele>8.789999999999999</ele>
        <time>2026-07-12T14:58:13Z</time>
      </trkpt>
      <trkpt lat="51.186037994921207" lon="3.107546009123325">
        <ele>10.710000000000001</ele>
        <time>2026-07-12T14:58:23Z</time>
      </trkpt>
      <trkpt lat="51.18516200222075" lon="3.11011397279799">
        <ele>10.710000000000001</ele>
        <time>2026-07-12T14:58:35Z</time>
      </trkpt>
      <trkpt lat="51.184316016733646" lon="3.112598033621907">
        <ele>10.23</ele>
        <time>2026-07-12T14:58:48Z</time>
      </trkpt>
      <trkpt lat="51.183887030929327" lon="3.113831011578441">
        <ele>9.27</ele>
        <time>2026-07-12T14:58:57Z</time>
      </trkpt>
      <trkpt lat="51.183256041258574" lon="3.115657009184361">
        <ele>9.75</ele>
        <time>2026-07-12T14:59:11Z</time>
      </trkpt>
      <trkpt lat="51.182836024090648" lon="3.116883030161262">
        <ele>10.23</ele>
        <time>2026-07-12T14:59:22Z</time>
      </trkpt>
      <trkpt lat="51.18222096003592" lon="3.118679020553827">
        <ele>11.19</ele>
        <time>2026-07-12T14:59:36Z</time>
      </trkpt>
      <trkpt lat="51.181769007816911" lon="3.120021969079971">
        <ele>11.19</ele>
        <time>2026-07-12T14:59:48Z</time>
      </trkpt>
      <trkpt lat="51.181362988427281" lon="3.121190993115306">
        <ele>11.19</ele>
        <time>2026-07-12T14:59:59Z</time>
      </trkpt>
      <trkpt lat="51.180857978761196" lon="3.122652964666486">
        <ele>8.789999999999999</ele>
        <time>2026-07-12T15:00:09Z</time>
      </trkpt>
      <trkpt lat="51.180379036813974" lon="3.124045031145215">
        <ele>7.35</ele>
        <time>2026-07-12T15:00:18Z</time>
      </trkpt>
      <trkpt lat="51.17979004047811" lon="3.125758962705731">
        <ele>9.27</ele>
        <time>2026-07-12T15:00:29Z</time>
      </trkpt>
      <trkpt lat="51.179087972268462" lon="3.127800961956382">
        <ele>11.67</ele>
        <time>2026-07-12T15:00:41Z</time>
      </trkpt>
      <trkpt lat="51.178274005651474" lon="3.130165999755263">
        <ele>15.039999999999999</ele>
        <time>2026-07-12T15:00:54Z</time>
      </trkpt>
      <trkpt lat="51.177250994369388" lon="3.133103018626571">
        <ele>14.08</ele>
        <time>2026-07-12T15:01:06Z</time>
      </trkpt>
      <trkpt lat="51.176314987242222" lon="3.135869968682528">
        <ele>14.08</ele>
        <time>2026-07-12T15:01:16Z</time>
      </trkpt>
      <trkpt lat="51.175100030377507" lon="3.139390032738447">
        <ele>13.119999999999999</ele>
        <time>2026-07-12T15:01:28Z</time>
      </trkpt>
      <trkpt lat="51.173964031040668" lon="3.142693005502224">
        <ele>10.23</ele>
        <time>2026-07-12T15:01:39Z</time>
      </trkpt>
      <trkpt lat="51.172805987298489" lon="3.146118018776178">
        <ele>10.23</ele>
        <time>2026-07-12T15:01:49Z</time>
      </trkpt>
      <trkpt lat="51.17160502821207" lon="3.150216015055776">
        <ele>9.27</ele>
        <time>2026-07-12T15:01:59Z</time>
      </trkpt>
      <trkpt lat="51.170276999473572" lon="3.155430983752012">
        <ele>8.310000000000001</ele>
        <time>2026-07-12T15:02:11Z</time>
      </trkpt>
      <trkpt lat="51.169204032048583" lon="3.160502035170794">
        <ele>8.789999999999999</ele>
        <time>2026-07-12T15:02:23Z</time>
      </trkpt>
      <trkpt lat="51.168457958847284" lon="3.164275987073779">
        <ele>7.83</ele>
        <time>2026-07-12T15:02:32Z</time>
      </trkpt>
      <trkpt lat="51.167728984728456" lon="3.167967963963747">
        <ele>6.87</ele>
        <time>2026-07-12T15:02:40Z</time>
      </trkpt>
      <trkpt lat="51.166902026161551" lon="3.172182971611619">
        <ele>3.5</ele>
        <time>2026-07-12T15:02:50Z</time>
      </trkpt>
      <trkpt lat="51.166387964040041" lon="3.174841962754726">
        <ele>0.62</ele>
        <time>2026-07-12T15:02:57Z</time>
      </trkpt>
      <trkpt lat="51.165598975494504" lon="3.178826970979571">
        <ele>-2.75</ele>
        <time>2026-07-12T15:03:08Z</time>
      </trkpt>
      <trkpt lat="51.1647720169276" lon="3.183005014434457">
        <ele>-3.71</ele>
        <time>2026-07-12T15:03:19Z</time>
      </trkpt>
      <trkpt lat="51.164066009223461" lon="3.186616022139788">
        <ele>-3.23</ele>
        <time>2026-07-12T15:03:29Z</time>
      </trkpt>
      <trkpt lat="51.163534009829164" lon="3.189310971647501">
        <ele>-0.34</ele>
        <time>2026-07-12T15:03:39Z</time>
      </trkpt>
      <trkpt lat="51.163365030661225" lon="3.189494032412767">
        <ele>-0.34</ele>
        <time>2026-07-12T15:03:40Z</time>
      </trkpt>
      <trkpt lat="51.162615017965436" lon="3.190971007570624">
        <ele>-0.34</ele>
        <time>2026-07-12T15:03:47Z</time>
      </trkpt>
      <trkpt lat="51.162040019407868" lon="3.19201497361064">
        <ele>-2.27</ele>
        <time>2026-07-12T15:03:54Z</time>
      </trkpt>
      <trkpt lat="51.161995008587837" lon="3.192114969715476">
        <ele>-1.79</ele>
        <time>2026-07-12T15:03:55Z</time>
      </trkpt>
      <trkpt lat="51.161925019696355" lon="3.192168027162552">
        <ele>-1.79</ele>
        <time>2026-07-12T15:03:56Z</time>
      </trkpt>
      <trkpt lat="51.161856036633253" lon="3.192190993577242">
        <ele>-1.3</ele>
        <time>2026-07-12T15:03:57Z</time>
      </trkpt>
      <trkpt lat="51.161766014993191" lon="3.192267017439008">
        <ele>-0.82</ele>
        <time>2026-07-12T15:03:58Z</time>
      </trkpt>
      <trkpt lat="51.16172100417316" lon="3.192410012707114">
        <ele>-0.34</ele>
        <time>2026-07-12T15:03:59Z</time>
      </trkpt>
      <trkpt lat="51.16172100417316" lon="3.19253096356988">
        <ele>0.14</ele>
        <time>2026-07-12T15:04:00Z</time>
      </trkpt>
      <trkpt lat="51.161769032478333" lon="3.192662978544831">
        <ele>1.1</ele>
        <time>2026-07-12T15:04:01Z</time>
      </trkpt>
      <trkpt lat="51.161811025813222" lon="3.192755011841655">
        <ele>1.1</ele>
        <time>2026-07-12T15:04:02Z</time>
      </trkpt>
      <trkpt lat="51.16189300082624" lon="3.1927889585495">
        <ele>1.58</ele>
        <time>2026-07-12T15:04:03Z</time>
      </trkpt>
      <trkpt lat="51.161967013031244" lon="3.192782001569867">
        <ele>1.58</ele>
        <time>2026-07-12T15:04:04Z</time>
      </trkpt>
      <trkpt lat="51.162049993872643" lon="3.192774038761854">
        <ele>2.54</ele>
        <time>2026-07-12T15:04:05Z</time>
      </trkpt>
      <trkpt lat="51.162135992199183" lon="3.192783007398248">
        <ele>2.54</ele>
        <time>2026-07-12T15:04:06Z</time>
      </trkpt>
      <trkpt lat="51.16221503354609" lon="3.192793987691402">
        <ele>2.54</ele>
        <time>2026-07-12T15:04:07Z</time>
      </trkpt>
      <trkpt lat="51.162317041307688" lon="3.192828018218279">
        <ele>3.02</ele>
        <time>2026-07-12T15:04:08Z</time>
      </trkpt>
      <trkpt lat="51.162415025755763" lon="3.192860959097743">
        <ele>3.02</ele>
        <time>2026-07-12T15:04:09Z</time>
      </trkpt>
      <trkpt lat="51.162514016032219" lon="3.192893983796239">
        <ele>3.5</ele>
        <time>2026-07-12T15:04:10Z</time>
      </trkpt>
      <trkpt lat="51.162830013781786" lon="3.193060029298067">
        <ele>4.46</ele>
        <time>2026-07-12T15:04:13Z</time>
      </trkpt>
      <trkpt lat="51.163065964356065" lon="3.193228002637625">
        <ele>7.35</ele>
        <time>2026-07-12T15:04:16Z</time>
      </trkpt>
      <trkpt lat="51.163529986515641" lon="3.193614995107055">
        <ele>7.83</ele>
        <time>2026-07-12T15:04:21Z</time>
      </trkpt>
      <trkpt lat="51.163558987900615" lon="3.193649025633931">
        <ele>7.83</ele>
        <time>2026-07-12T15:04:22Z</time>
      </trkpt>
      <trkpt lat="51.163581032305956" lon="3.193675009533763">
        <ele>8.310000000000001</ele>
        <time>2026-07-12T15:04:23Z</time>
      </trkpt>
      <trkpt lat="51.163611961528659" lon="3.193709962069988">
        <ele>8.310000000000001</ele>
        <time>2026-07-12T15:04:24Z</time>
      </trkpt>
      <trkpt lat="51.163673987612128" lon="3.193781040608883">
        <ele>8.310000000000001</ele>
        <time>2026-07-12T15:04:25Z</time>
      </trkpt>
      <trkpt lat="51.163708018139005" lon="3.19384197704494">
        <ele>8.789999999999999</ele>
        <time>2026-07-12T15:04:26Z</time>
      </trkpt>
      <trkpt lat="51.163753028959036" lon="3.193924035876989">
        <ele>8.789999999999999</ele>
        <time>2026-07-12T15:04:27Z</time>
      </trkpt>
      <trkpt lat="51.163781024515629" lon="3.193974997848272">
        <ele>9.27</ele>
        <time>2026-07-12T15:04:28Z</time>
      </trkpt>
      <trkpt lat="51.163858976215124" lon="3.193949013948441">
        <ele>9.27</ele>
        <time>2026-07-12T15:04:29Z</time>
      </trkpt>
      <trkpt lat="51.163943968713284" lon="3.193939039483666">
        <ele>9.27</ele>
        <time>2026-07-12T15:04:30Z</time>
      </trkpt>
      <trkpt lat="51.16402099840343" lon="3.193954965099692">
        <ele>9.27</ele>
        <time>2026-07-12T15:04:31Z</time>
      </trkpt>
      <trkpt lat="51.164105990901589" lon="3.193972986191511">
        <ele>8.789999999999999</ele>
        <time>2026-07-12T15:04:32Z</time>
      </trkpt>
      <trkpt lat="51.164210010319948" lon="3.193996036425233">
        <ele>8.789999999999999</ele>
        <time>2026-07-12T15:04:33Z</time>
      </trkpt>
      <trkpt lat="51.164301037788391" lon="3.194055967032909">
        <ele>8.310000000000001</ele>
        <time>2026-07-12T15:04:34Z</time>
      </trkpt>
      <trkpt lat="51.164401033893228" lon="3.194122016429901">
        <ele>8.789999999999999</ele>
        <time>2026-07-12T15:04:35Z</time>
      </trkpt>
      <trkpt lat="51.164507986977696" lon="3.194193011149764">
        <ele>9.27</ele>
        <time>2026-07-12T15:04:36Z</time>
      </trkpt>
      <trkpt lat="51.164620975032449" lon="3.194267023354769">
        <ele>9.27</ele>
        <time>2026-07-12T15:04:37Z</time>
      </trkpt>
      <trkpt lat="51.165754962712526" lon="3.195026004686952">
        <ele>8.310000000000001</ele>
        <time>2026-07-12T15:04:46Z</time>
      </trkpt>
      <trkpt lat="51.167249036952853" lon="3.196002999320626">
        <ele>4.94</ele>
        <time>2026-07-12T15:04:56Z</time>
      </trkpt>
      <trkpt lat="51.168928015977144" lon="3.197090970352292">
        <ele>0.14</ele>
        <time>2026-07-12T15:05:07Z</time>
      </trkpt>
      <trkpt lat="51.170297032222152" lon="3.197994958609343">
        <ele>0.14</ele>
        <time>2026-07-12T15:05:17Z</time>
      </trkpt>
      <trkpt lat="51.171832010149956" lon="3.199013024568558">
        <ele>0.14</ele>
        <time>2026-07-12T15:05:27Z</time>
      </trkpt>
      <trkpt lat="51.174022033810616" lon="3.200437026098371">
        <ele>0.62</ele>
        <time>2026-07-12T15:05:40Z</time>
      </trkpt>
      <trkpt lat="51.175705958157778" lon="3.201629016548395">
        <ele>3.5</ele>
        <time>2026-07-12T15:05:50Z</time>
      </trkpt>
      <trkpt lat="51.176125975325704" lon="3.201915007084608">
        <ele>4.46</ele>
        <time>2026-07-12T15:05:54Z</time>
      </trkpt>
      <trkpt lat="51.176267964765429" lon="3.202011985704303">
        <ele>5.42</ele>
        <time>2026-07-12T15:06:00Z</time>
      </trkpt>
      <trkpt lat="51.176291014999151" lon="3.202170990407467">
        <ele>5.42</ele>
        <time>2026-07-12T15:06:02Z</time>
      </trkpt>
      <trkpt lat="51.176297971978784" lon="3.202255982905626">
        <ele>4.46</ele>
        <time>2026-07-12T15:06:03Z</time>
      </trkpt>
      <trkpt lat="51.176334014162421" lon="3.202579021453857">
        <ele>4.46</ele>
        <time>2026-07-12T15:06:05Z</time>
      </trkpt>
      <trkpt lat="51.176428981125355" lon="3.202752023935318">
        <ele>4.94</ele>
        <time>2026-07-12T15:06:06Z</time>
      </trkpt>
      <trkpt lat="51.176517996937037" lon="3.202880015596747">
        <ele>4.94</ele>
        <time>2026-07-12T15:06:07Z</time>
      </trkpt>
      <trkpt lat="51.176634002476931" lon="3.202996021136642">
        <ele>4.94</ele>
        <time>2026-07-12T15:06:08Z</time>
      </trkpt>
      <trkpt lat="51.17676199413836" lon="3.203024016693234">
        <ele>4.94</ele>
        <time>2026-07-12T15:06:09Z</time>
      </trkpt>
      <trkpt lat="51.176893003284931" lon="3.203012030571699">
        <ele>5.42</ele>
        <time>2026-07-12T15:06:10Z</time>
      </trkpt>
      <trkpt lat="51.177000040188432" lon="3.20292997173965">
        <ele>5.91</ele>
        <time>2026-07-12T15:06:11Z</time>
      </trkpt>
      <trkpt lat="51.177096012979746" lon="3.20284397341311">
        <ele>6.39</ele>
        <time>2026-07-12T15:06:12Z</time>
      </trkpt>
      <trkpt lat="51.177214030176401" lon="3.202831987291575">
        <ele>6.39</ele>
        <time>2026-07-12T15:06:13Z</time>
      </trkpt>
      <trkpt lat="51.177287036553025" lon="3.202850008383393">
        <ele>6.39</ele>
        <time>2026-07-12T15:06:14Z</time>
      </trkpt>
      <trkpt lat="51.177423996850848" lon="3.202885966747999">
        <ele>6.39</ele>
        <time>2026-07-12T15:06:16Z</time>
      </trkpt>
      <trkpt lat="51.177506977692246" lon="3.20290801115334">
        <ele>6.87</ele>
        <time>2026-07-12T15:06:17Z</time>
      </trkpt>
      <trkpt lat="51.17839302867651" lon="3.203417966142297">
        <ele>5.42</ele>
        <time>2026-07-12T15:06:25Z</time>
      </trkpt>
      <trkpt lat="51.179801020771265" lon="3.204339975491166">
        <ele>2.54</ele>
        <time>2026-07-12T15:06:35Z</time>
      </trkpt>
      <trkpt lat="51.181229967623949" lon="3.205267013981938">
        <ele>3.98</ele>
        <time>2026-07-12T15:06:45Z</time>
      </trkpt>
      <trkpt lat="51.181340022012591" lon="3.205330967903137">
        <ele>4.46</ele>
        <time>2026-07-12T15:06:49Z</time>
      </trkpt>
      <trkpt lat="51.181472958996892" lon="3.205428030341864">
        <ele>4.94</ele>
        <time>2026-07-12T15:06:54Z</time>
      </trkpt>
      <trkpt lat="51.181525010615587" lon="3.205490978434682">
        <ele>4.94</ele>
        <time>2026-07-12T15:06:55Z</time>
      </trkpt>
      <trkpt lat="51.181569015607238" lon="3.20557395927608">
        <ele>4.94</ele>
        <time>2026-07-12T15:06:56Z</time>
      </trkpt>
      <trkpt lat="51.181599022820592" lon="3.205655012279749">
        <ele>4.94</ele>
        <time>2026-07-12T15:06:57Z</time>
      </trkpt>
      <trkpt lat="51.1816590372473" lon="3.20570002309978">
        <ele>5.42</ele>
        <time>2026-07-12T15:06:58Z</time>
      </trkpt>
      <trkpt lat="51.181719973683357" lon="3.205712009221315">
        <ele>5.42</ele>
        <time>2026-07-12T15:06:59Z</time>
      </trkpt>
      <trkpt lat="51.181805972009897" lon="3.205703040584922">
        <ele>5.42</ele>
        <time>2026-07-12T15:07:00Z</time>
      </trkpt>
      <trkpt lat="51.18200596421957" lon="3.205762971192598">
        <ele>5.42</ele>
        <time>2026-07-12T15:07:02Z</time>
      </trkpt>
      <trkpt lat="51.182123981416225" lon="3.205799013376236">
        <ele>5.91</ele>
        <time>2026-07-12T15:07:03Z</time>
      </trkpt>
      <trkpt lat="51.182244010269642" lon="3.205855004489422">
        <ele>5.91</ele>
        <time>2026-07-12T15:07:04Z</time>
      </trkpt>
      <trkpt lat="51.183226034045219" lon="3.206516001373529">
        <ele>6.87</ele>
        <time>2026-07-12T15:07:12Z</time>
      </trkpt>
      <trkpt lat="51.183317983523011" lon="3.206576015800238">
        <ele>6.87</ele>
        <time>2026-07-12T15:07:13Z</time>
      </trkpt>
      <trkpt lat="51.183413034304976" lon="3.206638041883707">
        <ele>6.87</ele>
        <time>2026-07-12T15:07:14Z</time>
      </trkpt>
      <trkpt lat="51.184421963989735" lon="3.207299960777164">
        <ele>3.98</ele>
        <time>2026-07-12T15:07:23Z</time>
      </trkpt>
      <trkpt lat="51.185645973309875" lon="3.208102025091648">
        <ele>3.5</ele>
        <time>2026-07-12T15:07:34Z</time>
      </trkpt>
      <trkpt lat="51.187276002019644" lon="3.20916099473834">
        <ele>3.02</ele>
        <time>2026-07-12T15:07:48Z</time>
      </trkpt>
      <trkpt lat="51.187388990074396" lon="3.209240958094597">
        <ele>3.02</ele>
        <time>2026-07-12T15:07:49Z</time>
      </trkpt>
      <trkpt lat="51.188096003606915" lon="3.209693999961019">
        <ele>2.54</ele>
        <time>2026-07-12T15:07:57Z</time>
      </trkpt>
      <trkpt lat="51.188160963356495" lon="3.209731969982386">
        <ele>3.02</ele>
        <time>2026-07-12T15:07:58Z</time>
      </trkpt>
      <trkpt lat="51.188231036067009" lon="3.209773963317275">
        <ele>3.5</ele>
        <time>2026-07-12T15:07:59Z</time>
      </trkpt>
      <trkpt lat="51.188292978331447" lon="3.209818974137306">
        <ele>3.98</ele>
        <time>2026-07-12T15:08:00Z</time>
      </trkpt>
      <trkpt lat="51.188342012465" lon="3.209855016320944">
        <ele>4.46</ele>
        <time>2026-07-12T15:08:01Z</time>
      </trkpt>
      <trkpt lat="51.188415018841624" lon="3.209907989948988">
        <ele>5.42</ele>
        <time>2026-07-12T15:08:03Z</time>
      </trkpt>
      <trkpt lat="51.188478972762823" lon="3.210110999643803">
        <ele>5.42</ele>
        <time>2026-07-12T15:08:04Z</time>
      </trkpt>
      <trkpt lat="51.188489031046629" lon="3.210119968280196">
        <ele>5.91</ele>
        <time>2026-07-12T15:08:05Z</time>
      </trkpt>
      <trkpt lat="51.188545022159815" lon="3.210176965221763">
        <ele>5.91</ele>
        <time>2026-07-12T15:08:06Z</time>
      </trkpt>
      <trkpt lat="51.188586009666324" lon="3.210218036547303">
        <ele>5.91</ele>
        <time>2026-07-12T15:08:07Z</time>
      </trkpt>
      <trkpt lat="51.188646024093032" lon="3.210137989372015">
        <ele>5.91</ele>
        <time>2026-07-12T15:08:08Z</time>
      </trkpt>
      <trkpt lat="51.188760017976165" lon="3.210081998258829">
        <ele>5.91</ele>
        <time>2026-07-12T15:08:09Z</time>
      </trkpt>
      <trkpt lat="51.188821960240602" lon="3.210132038220763">
        <ele>5.91</ele>
        <time>2026-07-12T15:08:10Z</time>
      </trkpt>
      <trkpt lat="51.188864959403872" lon="3.210162967443466">
        <ele>5.91</ele>
        <time>2026-07-12T15:08:11Z</time>
      </trkpt>
      <trkpt lat="51.188925979658961" lon="3.210206972435117">
        <ele>5.91</ele>
        <time>2026-07-12T15:08:12Z</time>
      </trkpt>
      <trkpt lat="51.189444987103343" lon="3.210581978783011">
        <ele>6.39</ele>
        <time>2026-07-12T15:08:18Z</time>
      </trkpt>
      <trkpt lat="51.190457018092275" lon="3.211284969002008">
        <ele>7.83</ele>
        <time>2026-07-12T15:08:28Z</time>
      </trkpt>
      <trkpt lat="51.191714974120259" lon="3.212096001952887">
        <ele>7.35</ele>
        <time>2026-07-12T15:08:40Z</time>
      </trkpt>
      <trkpt lat="51.19289799593389" lon="3.212874010205269">
        <ele>6.39</ele>
        <time>2026-07-12T15:08:52Z</time>
      </trkpt>
      <trkpt lat="51.193094970658422" lon="3.213002001866698">
        <ele>5.91</ele>
        <time>2026-07-12T15:08:55Z</time>
      </trkpt>
      <trkpt lat="51.193135036155581" lon="3.213028991594911">
        <ele>5.91</ele>
        <time>2026-07-12T15:08:56Z</time>
      </trkpt>
      <trkpt lat="51.193162025883794" lon="3.213046006858349">
        <ele>5.42</ele>
        <time>2026-07-12T15:08:57Z</time>
      </trkpt>
      <trkpt lat="51.193178035318851" lon="3.213056987151504">
        <ele>5.42</ele>
        <time>2026-07-12T15:08:58Z</time>
      </trkpt>
      <trkpt lat="51.193191027268767" lon="3.213066039606929">
        <ele>4.94</ele>
        <time>2026-07-12T15:08:59Z</time>
      </trkpt>
      <trkpt lat="51.193204019218683" lon="3.213074002414942">
        <ele>4.94</ele>
        <time>2026-07-12T15:09:00Z</time>
      </trkpt>
      <trkpt lat="51.193220028653741" lon="3.213084982708097">
        <ele>4.46</ele>
        <time>2026-07-12T15:09:01Z</time>
      </trkpt>
      <trkpt lat="51.193234026432037" lon="3.213095040991902">
        <ele>3.98</ele>
        <time>2026-07-12T15:09:02Z</time>
      </trkpt>
      <trkpt lat="51.193250035867095" lon="3.213105015456677">
        <ele>3.5</ele>
        <time>2026-07-12T15:09:03Z</time>
      </trkpt>
      <trkpt lat="51.193269984796643" lon="3.213118007406592">
        <ele>3.02</ele>
        <time>2026-07-12T15:09:04Z</time>
      </trkpt>
      <trkpt lat="51.193292029201984" lon="3.213133011013269">
        <ele>2.54</ele>
        <time>2026-07-12T15:09:05Z</time>
      </trkpt>
      <trkpt lat="51.193438963964581" lon="3.213230995461345">
        <ele>-0.34</ele>
        <time>2026-07-12T15:09:13Z</time>
      </trkpt>
      <trkpt lat="51.193438963964581" lon="3.213230995461345">
        <ele>0.14</ele>
        <time>2026-07-12T15:09:56Z</time>
      </trkpt>
      <trkpt lat="51.193438963964581" lon="3.213230995461345">
        <ele>0.14</ele>
        <time>2026-07-12T15:10:45Z</time>
      </trkpt>
      <trkpt lat="51.193438963964581" lon="3.213230995461345">
        <ele>0.14</ele>
        <time>2026-07-12T15:11:35Z</time>
      </trkpt>
      <trkpt lat="51.193438963964581" lon="3.213230995461345">
        <ele>-0.34</ele>
        <time>2026-07-12T15:12:25Z</time>
      </trkpt>
      <trkpt lat="51.193438963964581" lon="3.213230995461345">
        <ele>-0.34</ele>
        <time>2026-07-12T15:13:01Z</time>
      </trkpt>
      <trkpt lat="51.193480035290122" lon="3.213258991017938">
        <ele>-0.34</ele>
        <time>2026-07-12T15:13:22Z</time>
      </trkpt>
      <trkpt lat="51.193495960906148" lon="3.213268965482712">
        <ele>0.62</ele>
        <time>2026-07-12T15:13:23Z</time>
      </trkpt>
      <trkpt lat="51.193515993654728" lon="3.213282041251659">
        <ele>1.1</ele>
        <time>2026-07-12T15:13:24Z</time>
      </trkpt>
      <trkpt lat="51.193530997261405" lon="3.213292015716434">
        <ele>1.58</ele>
        <time>2026-07-12T15:13:25Z</time>
      </trkpt>
      <trkpt lat="51.193650020286441" lon="3.21337197907269">
        <ele>2.06</ele>
        <time>2026-07-12T15:13:26Z</time>
      </trkpt>
      <trkpt lat="51.193650020286441" lon="3.21337197907269">
        <ele>2.54</ele>
        <time>2026-07-12T15:13:27Z</time>
      </trkpt>
      <trkpt lat="51.193610960617661" lon="3.213345995172858">
        <ele>4.46</ele>
        <time>2026-07-12T15:13:35Z</time>
      </trkpt>
      <trkpt lat="51.193664018064737" lon="3.213382037356496">
        <ele>4.46</ele>
        <time>2026-07-12T15:13:36Z</time>
      </trkpt>
      <trkpt lat="51.19373400695622" lon="3.213434005156159">
        <ele>4.46</ele>
        <time>2026-07-12T15:13:37Z</time>
      </trkpt>
      <trkpt lat="51.193817993625998" lon="3.213496031239629">
        <ele>4.46</ele>
        <time>2026-07-12T15:13:38Z</time>
      </trkpt>
      <trkpt lat="51.193909021094441" lon="3.213563002645969">
        <ele>3.98</ele>
        <time>2026-07-12T15:13:39Z</time>
      </trkpt>
      <trkpt lat="51.194519978016615" lon="3.213917976245284">
        <ele>3.5</ele>
        <time>2026-07-12T15:13:45Z</time>
      </trkpt>
      <trkpt lat="51.195179969072342" lon="3.214525999501348">
        <ele>4.46</ele>
        <time>2026-07-12T15:13:52Z</time>
      </trkpt>
      <trkpt lat="51.195237971842289" lon="3.21478801779449">
        <ele>4.94</ele>
        <time>2026-07-12T15:13:53Z</time>
      </trkpt>
      <trkpt lat="51.19523897767067" lon="3.214792041108012">
        <ele>5.91</ele>
        <time>2026-07-12T15:13:54Z</time>
      </trkpt>
      <trkpt lat="51.19526001624763" lon="3.21487401612103">
        <ele>6.39</ele>
        <time>2026-07-12T15:13:55Z</time>
      </trkpt>
      <trkpt lat="51.1953030154109" lon="3.21496001444757">
        <ele>6.39</ele>
        <time>2026-07-12T15:13:56Z</time>
      </trkpt>
      <trkpt lat="51.195374010130763" lon="3.215013993903995">
        <ele>6.87</ele>
        <time>2026-07-12T15:13:57Z</time>
      </trkpt>
      <trkpt lat="51.195442993193865" lon="3.215041989460588">
        <ele>6.87</ele>
        <time>2026-07-12T15:13:58Z</time>
      </trkpt>
      <trkpt lat="51.195493033155799" lon="3.215010976418853">
        <ele>6.87</ele>
        <time>2026-07-12T15:13:59Z</time>
      </trkpt>
      <trkpt lat="51.195550030097365" lon="3.21496001444757">
        <ele>6.87</ele>
        <time>2026-07-12T15:14:00Z</time>
      </trkpt>
      <trkpt lat="51.195608032867312" lon="3.214907962828875">
        <ele>6.87</ele>
        <time>2026-07-12T15:14:01Z</time>
      </trkpt>
      <trkpt lat="51.195654971525073" lon="3.214848032221198">
        <ele>6.39</ele>
        <time>2026-07-12T15:14:02Z</time>
      </trkpt>
      <trkpt lat="51.19566704146564" lon="3.214809978380799">
        <ele>6.39</ele>
        <time>2026-07-12T15:14:03Z</time>
      </trkpt>
      <trkpt lat="51.19568900205195" lon="3.214566987007856">
        <ele>5.91</ele>
        <time>2026-07-12T15:14:04Z</time>
      </trkpt>
      <trkpt lat="51.195749016478658" lon="3.214490041136742">
        <ele>5.91</ele>
        <time>2026-07-12T15:14:05Z</time>
      </trkpt>
      <trkpt lat="51.195811964571476" lon="3.214407982304692">
        <ele>5.91</ele>
        <time>2026-07-12T15:14:06Z</time>
      </trkpt>
      <trkpt lat="51.195897962898016" lon="3.214306980371475">
        <ele>5.91</ele>
        <time>2026-07-12T15:14:07Z</time>
      </trkpt>
      <trkpt lat="51.195983039215207" lon="3.214260041713715">
        <ele>5.91</ele>
        <time>2026-07-12T15:14:08Z</time>
      </trkpt>
      <trkpt lat="51.196092003956437" lon="3.2142089959234">
        <ele>5.42</ele>
        <time>2026-07-12T15:14:09Z</time>
      </trkpt>
      <trkpt lat="51.196198035031557" lon="3.214216036722064">
        <ele>5.42</ele>
        <time>2026-07-12T15:14:10Z</time>
      </trkpt>
      <trkpt lat="51.196302976459265" lon="3.214235985651612">
        <ele>4.94</ele>
        <time>2026-07-12T15:14:11Z</time>
      </trkpt>
      <trkpt lat="51.197255998849869" lon="3.214417034760118">
        <ele>5.42</ele>
        <time>2026-07-12T15:14:21Z</time>
      </trkpt>
      <trkpt lat="51.198256965726614" lon="3.214614009484649">
        <ele>5.42</ele>
        <time>2026-07-12T15:14:31Z</time>
      </trkpt>
      <trkpt lat="51.198917962610722" lon="3.214857000857592">
        <ele>4.94</ele>
        <time>2026-07-12T15:14:37Z</time>
      </trkpt>
      <trkpt lat="51.199401011690497" lon="3.215073002502322">
        <ele>2.54</ele>
        <time>2026-07-12T15:14:42Z</time>
      </trkpt>
      <trkpt lat="51.199500001966953" lon="3.215136034414172">
        <ele>2.06</ele>
        <time>2026-07-12T15:14:43Z</time>
      </trkpt>
      <trkpt lat="51.199586000293493" lon="3.215192025527358">
        <ele>2.06</ele>
        <time>2026-07-12T15:14:44Z</time>
      </trkpt>
      <trkpt lat="51.19968700222671" lon="3.215278023853898">
        <ele>2.06</ele>
        <time>2026-07-12T15:14:45Z</time>
      </trkpt>
      <trkpt lat="51.199751039966941" lon="3.21536703966558">
        <ele>2.06</ele>
        <time>2026-07-12T15:14:46Z</time>
      </trkpt>
      <trkpt lat="51.19981499388814" lon="3.215453960001469">
        <ele>2.06</ele>
        <time>2026-07-12T15:14:47Z</time>
      </trkpt>
      <trkpt lat="51.199874002486467" lon="3.215591004118323">
        <ele>3.02</ele>
        <time>2026-07-12T15:14:48Z</time>
      </trkpt>
      <trkpt lat="51.199919013306499" lon="3.215727964416146">
        <ele>3.5</ele>
        <time>2026-07-12T15:14:49Z</time>
      </trkpt>
      <trkpt lat="51.199960000813007" lon="3.215865008533001">
        <ele>3.98</ele>
        <time>2026-07-12T15:14:50Z</time>
      </trkpt>
      <trkpt lat="51.200010040774941" lon="3.21603499352932">
        <ele>4.46</ele>
        <time>2026-07-12T15:14:51Z</time>
      </trkpt>
      <trkpt lat="51.200128979980946" lon="3.216864969581366">
        <ele>5.42</ele>
        <time>2026-07-12T15:14:57Z</time>
      </trkpt>
      <trkpt lat="51.200130991637707" lon="3.217004025354981">
        <ele>5.91</ele>
        <time>2026-07-12T15:14:58Z</time>
      </trkpt>
      <trkpt lat="51.200130991637707" lon="3.21713101118803">
        <ele>6.39</ele>
        <time>2026-07-12T15:14:59Z</time>
      </trkpt>
      <trkpt lat="51.200130991637707" lon="3.21723997592926">
        <ele>7.35</ele>
        <time>2026-07-12T15:15:00Z</time>
      </trkpt>
      <trkpt lat="51.200130991637707" lon="3.217341983690858">
        <ele>7.83</ele>
        <time>2026-07-12T15:15:01Z</time>
      </trkpt>
      <trkpt lat="51.200130991637707" lon="3.217440973967314">
        <ele>8.789999999999999</ele>
        <time>2026-07-12T15:15:02Z</time>
      </trkpt>
      <trkpt lat="51.200130991637707" lon="3.217538958415389">
        <ele>9.27</ele>
        <time>2026-07-12T15:15:03Z</time>
      </trkpt>
      <trkpt lat="51.200109031051397" lon="3.217943971976638">
        <ele>11.19</ele>
        <time>2026-07-12T15:15:07Z</time>
      </trkpt>
      <trkpt lat="51.200109031051397" lon="3.218038016930223">
        <ele>11.19</ele>
        <time>2026-07-12T15:15:08Z</time>
      </trkpt>
      <trkpt lat="51.200124034658074" lon="3.218166008591652">
        <ele>11.19</ele>
        <time>2026-07-12T15:15:09Z</time>
      </trkpt>
      <trkpt lat="51.200168961659074" lon="3.218256030231714">
        <ele>11.19</ele>
        <time>2026-07-12T15:15:10Z</time>
      </trkpt>
      <trkpt lat="51.200215984135866" lon="3.218349991366267">
        <ele>11.19</ele>
        <time>2026-07-12T15:15:11Z</time>
      </trkpt>
      <trkpt lat="51.200299970805645" lon="3.218411011621356">
        <ele>11.19</ele>
        <time>2026-07-12T15:15:12Z</time>
      </trkpt>
      <trkpt lat="51.200381023809314" lon="3.218433978036046">
        <ele>11.19</ele>
        <time>2026-07-12T15:15:13Z</time>
      </trkpt>
      <trkpt lat="51.200470961630344" lon="3.218439007177949">
        <ele>10.710000000000001</ele>
        <time>2026-07-12T15:15:14Z</time>
      </trkpt>
      <trkpt lat="51.20056701824069" lon="3.218443030491471">
        <ele>10.23</ele>
        <time>2026-07-12T15:15:15Z</time>
      </trkpt>
      <trkpt lat="51.200666008517146" lon="3.218446969985962">
        <ele>9.75</ele>
        <time>2026-07-12T15:15:16Z</time>
      </trkpt>
      <trkpt lat="51.201464971527457" lon="3.21835401467979">
        <ele>8.789999999999999</ele>
        <time>2026-07-12T15:15:23Z</time>
      </trkpt>
      <trkpt lat="51.202672971412539" lon="3.218023013323546">
        <ele>9.75</ele>
        <time>2026-07-12T15:15:33Z</time>
      </trkpt>
      <trkpt lat="51.203575031831861" lon="3.217716990038753">
        <ele>8.789999999999999</ele>
        <time>2026-07-12T15:15:40Z</time>
      </trkpt>
      <trkpt lat="51.203691037371755" lon="3.217674996703863">
        <ele>8.310000000000001</ele>
        <time>2026-07-12T15:15:41Z</time>
      </trkpt>
      <trkpt lat="51.204024972394109" lon="3.217550022527576">
        <ele>7.83</ele>
        <time>2026-07-12T15:15:44Z</time>
      </trkpt>
      <trkpt lat="51.207002978771925" lon="3.216391978785396">
        <ele>12.630000000000001</ele>
        <time>2026-07-12T15:16:09Z</time>
      </trkpt>
      <trkpt lat="51.208159010857344" lon="3.215573988854885">
        <ele>7.83</ele>
        <time>2026-07-12T15:16:20Z</time>
      </trkpt>
      <trkpt lat="51.208959985524416" lon="3.214671006426215">
        <ele>4.94</ele>
        <time>2026-07-12T15:16:30Z</time>
      </trkpt>
      <trkpt lat="51.209102980792522" lon="3.214507978409529">
        <ele>3.98</ele>
        <time>2026-07-12T15:16:37Z</time>
      </trkpt>
      <trkpt lat="51.209317976608872" lon="3.214250989258289">
        <ele>4.46</ele>
        <time>2026-07-12T15:16:46Z</time>
      </trkpt>
      <trkpt lat="51.20946298353374" lon="3.214117968454957">
        <ele>4.46</ele>
        <time>2026-07-12T15:16:48Z</time>
      </trkpt>
      <trkpt lat="51.210230011492968" lon="3.21414303034544">
        <ele>3.98</ele>
        <time>2026-07-12T15:16:56Z</time>
      </trkpt>
      <trkpt lat="51.211052024737" lon="3.214158033952117">
        <ele>3.02</ele>
        <time>2026-07-12T15:17:04Z</time>
      </trkpt>
      <trkpt lat="51.211189990863204" lon="3.214202960953116">
        <ele>2.06</ele>
        <time>2026-07-12T15:17:06Z</time>
      </trkpt>
      <trkpt lat="51.211229972541332" lon="3.214216036722064">
        <ele>1.58</ele>
        <time>2026-07-12T15:17:07Z</time>
      </trkpt>
      <trkpt lat="51.211258973926306" lon="3.214225005358458">
        <ele>1.1</ele>
        <time>2026-07-12T15:17:08Z</time>
      </trkpt>
      <trkpt lat="51.211282024160028" lon="3.214232968166471">
        <ele>0.62</ele>
        <time>2026-07-12T15:17:09Z</time>
      </trkpt>
      <trkpt lat="51.211294010281563" lon="3.214236991479993">
        <ele>-0.34</ele>
        <time>2026-07-12T15:17:18Z</time>
      </trkpt>
      <trkpt lat="51.211730036884546" lon="3.214377975091338">
        <ele>-1.79</ele>
        <time>2026-07-12T15:17:24Z</time>
      </trkpt>
      <trkpt lat="51.21225600130856" lon="3.214589031413198">
        <ele>-3.23</ele>
        <time>2026-07-12T15:17:30Z</time>
      </trkpt>
      <trkpt lat="51.212328001856804" lon="3.214618032798171">
        <ele>-3.71</ele>
        <time>2026-07-12T15:17:31Z</time>
      </trkpt>
      <trkpt lat="51.212398996576667" lon="3.214645022526383">
        <ele>-3.71</ele>
        <time>2026-07-12T15:17:32Z</time>
      </trkpt>
      <trkpt lat="51.213301979005337" lon="3.215018017217517">
        <ele>-2.27</ele>
        <time>2026-07-12T15:17:43Z</time>
      </trkpt>
      <trkpt lat="51.214129021391273" lon="3.215478016063571">
        <ele>-1.79</ele>
        <time>2026-07-12T15:17:51Z</time>
      </trkpt>
      <trkpt lat="51.214464968070388" lon="3.21566903963685">
        <ele>-1.3</ele>
        <time>2026-07-12T15:17:56Z</time>
      </trkpt>
      <trkpt lat="51.214505033567548" lon="3.215704998001456">
        <ele>-1.3</ele>
        <time>2026-07-12T15:17:57Z</time>
      </trkpt>
      <trkpt lat="51.214635036885738" lon="3.21581999771297">
        <ele>-0.34</ele>
        <time>2026-07-12T15:18:04Z</time>
      </trkpt>
      <trkpt lat="51.214709971100092" lon="3.21588696911931">
        <ele>1.58</ele>
        <time>2026-07-12T15:18:48Z</time>
      </trkpt>
      <trkpt lat="51.214914992451668" lon="3.216070029884577">
        <ele>2.06</ele>
        <time>2026-07-12T15:18:54Z</time>
      </trkpt>
      <trkpt lat="51.215128982439637" lon="3.216269016265869">
        <ele>0.14</ele>
        <time>2026-07-12T15:19:02Z</time>
      </trkpt>
      <trkpt lat="51.215065028518438" lon="3.216374041512609">
        <ele>0.14</ele>
        <time>2026-07-12T15:19:03Z</time>
      </trkpt>
      <trkpt lat="51.215046001598239" lon="3.216387033462524">
        <ele>-0.34</ele>
        <time>2026-07-12T15:19:04Z</time>
      </trkpt>
      <trkpt lat="51.215017000213265" lon="3.216407988220453">
        <ele>-0.34</ele>
        <time>2026-07-12T15:19:05Z</time>
      </trkpt>
      <trkpt lat="51.21498104184866" lon="3.216433972120285">
        <ele>-0.82</ele>
        <time>2026-07-12T15:19:06Z</time>
      </trkpt>
      <trkpt lat="51.214933013543487" lon="3.216469008475542">
        <ele>-1.3</ele>
        <time>2026-07-12T15:19:07Z</time>
      </trkpt>
      <trkpt lat="51.214883979409933" lon="3.216503961011767">
        <ele>-1.3</ele>
        <time>2026-07-12T15:19:08Z</time>
      </trkpt>
      <trkpt lat="51.214835029095411" lon="3.216538997367024">
        <ele>-1.79</ele>
        <time>2026-07-12T15:19:09Z</time>
      </trkpt>
      <trkpt lat="51.214615004137158" lon="3.216696996241808">
        <ele>-3.23</ele>
        <time>2026-07-12T15:19:13Z</time>
      </trkpt>
      <trkpt lat="51.214185012504458" lon="3.217041995376349">
        <ele>-4.19</ele>
        <time>2026-07-12T15:19:21Z</time>
      </trkpt>
      <trkpt lat="51.214103037491441" lon="3.217198988422751">
        <ele>-4.19</ele>
        <time>2026-07-12T15:19:23Z</time>
      </trkpt>
      <trkpt lat="51.214057020843029" lon="3.217270988970995">
        <ele>-4.67</ele>
        <time>2026-07-12T15:19:24Z</time>
      </trkpt>
      <trkpt lat="51.213962975889444" lon="3.217417001724243">
        <ele>-4.19</ele>
        <time>2026-07-12T15:19:26Z</time>
      </trkpt>
      <trkpt lat="51.213661981746554" lon="3.217834001407027">
        <ele>-4.67</ele>
        <time>2026-07-12T15:19:32Z</time>
      </trkpt>
      <trkpt lat="51.21360900811851" lon="3.217892004176974">
        <ele>-4.67</ele>
        <time>2026-07-12T15:19:33Z</time>
      </trkpt>
      <trkpt lat="51.213560979813337" lon="3.217944977805018">
        <ele>-4.67</ele>
        <time>2026-07-12T15:19:34Z</time>
      </trkpt>
      <trkpt lat="51.213514963164926" lon="3.217995017766953">
        <ele>-4.67</ele>
        <time>2026-07-12T15:19:35Z</time>
      </trkpt>
      <trkpt lat="51.213475987315178" lon="3.218038016930223">
        <ele>-5.15</ele>
        <time>2026-07-12T15:19:36Z</time>
      </trkpt>
      <trkpt lat="51.213441034778953" lon="3.21807699277997">
        <ele>-5.15</ele>
        <time>2026-07-12T15:19:37Z</time>
      </trkpt>
      <trkpt lat="51.213316982612014" lon="3.218216970562935">
        <ele>-5.15</ele>
        <time>2026-07-12T15:19:41Z</time>
      </trkpt>
      <trkpt lat="51.21328697539866" lon="3.218253012746573">
        <ele>-5.63</ele>
        <time>2026-07-12T15:19:42Z</time>
      </trkpt>
      <trkpt lat="51.213257974013686" lon="3.218286959454417">
        <ele>-5.63</ele>
        <time>2026-07-12T15:19:43Z</time>
      </trkpt>
      <trkpt lat="51.213229978457093" lon="3.218320989981294">
        <ele>-5.63</ele>
        <time>2026-07-12T15:19:44Z</time>
      </trkpt>
      <trkpt lat="51.2132019829005" lon="3.21835502050817">
        <ele>-5.63</ele>
        <time>2026-07-12T15:19:45Z</time>
      </trkpt>
      <trkpt lat="51.213175999000669" lon="3.218386033549905">
        <ele>-6.11</ele>
        <time>2026-07-12T15:19:46Z</time>
      </trkpt>
      <trkpt lat="51.212977012619376" lon="3.218625001609325">
        <ele>-7.07</ele>
        <time>2026-07-12T15:19:54Z</time>
      </trkpt>
      <trkpt lat="51.212949017062783" lon="3.218658026307821">
        <ele>-7.07</ele>
        <time>2026-07-12T15:19:55Z</time>
      </trkpt>
      <trkpt lat="51.21285798959434" lon="3.218822982162237">
        <ele>-8.029999999999999</ele>
        <time>2026-07-12T15:19:58Z</time>
      </trkpt>
      <trkpt lat="51.212823037058115" lon="3.218863969668746">
        <ele>-9</ele>
        <time>2026-07-12T15:19:59Z</time>
      </trkpt>
      <trkpt lat="51.212782971560955" lon="3.218910992145538">
        <ele>-9.960000000000001</ele>
        <time>2026-07-12T15:20:00Z</time>
      </trkpt>
      <trkpt lat="51.212741984054446" lon="3.218959020450711">
        <ele>-10.44</ele>
        <time>2026-07-12T15:20:01Z</time>
      </trkpt>
      <trkpt lat="51.212700996547937" lon="3.219007970765233">
        <ele>-11.4</ele>
        <time>2026-07-12T15:20:02Z</time>
      </trkpt>
      <trkpt lat="51.212653974071145" lon="3.21906303986907">
        <ele>-12.84</ele>
        <time>2026-07-12T15:20:03Z</time>
      </trkpt>
      <trkpt lat="51.212607035413384" lon="3.219119030982256">
        <ele>-13.32</ele>
        <time>2026-07-12T15:20:04Z</time>
      </trkpt>
      <trkpt lat="51.212559007108212" lon="3.219175022095442">
        <ele>-14.279999999999999</ele>
        <time>2026-07-12T15:20:05Z</time>
      </trkpt>
      <trkpt lat="51.2125129904598" lon="3.219229001551867">
        <ele>-15.24</ele>
        <time>2026-07-12T15:20:06Z</time>
      </trkpt>
      <trkpt lat="51.21247099712491" lon="3.219279041513801">
        <ele>-15.720000000000001</ele>
        <time>2026-07-12T15:20:07Z</time>
      </trkpt>
      <trkpt lat="51.212425986304879" lon="3.219332015141845">
        <ele>-16.210000000000001</ele>
        <time>2026-07-12T15:20:08Z</time>
      </trkpt>
      <trkpt lat="51.212378041818738" lon="3.219388006255031">
        <ele>-16.690000000000001</ele>
        <time>2026-07-12T15:20:09Z</time>
      </trkpt>
      <trkpt lat="51.212329007685184" lon="3.219446009024978">
        <ele>-17.649999999999999</ele>
        <time>2026-07-12T15:20:10Z</time>
      </trkpt>
      <trkpt lat="51.21227603405714" lon="3.219509040936828">
        <ele>-18.129999999999999</ele>
        <time>2026-07-12T15:20:11Z</time>
      </trkpt>
      <trkpt lat="51.212147958576679" lon="3.21964499540627">
        <ele>-19.57</ele>
        <time>2026-07-12T15:20:14Z</time>
      </trkpt>
      <trkpt lat="51.212073024362326" lon="3.21975102648139">
        <ele>-19.09</ele>
        <time>2026-07-12T15:20:16Z</time>
      </trkpt>
      <trkpt lat="51.212000017985702" lon="3.219854962080717">
        <ele>-19.57</ele>
        <time>2026-07-12T15:20:18Z</time>
      </trkpt>
      <trkpt lat="51.211969004943967" lon="3.219899972900748">
        <ele>-20.050000000000001</ele>
        <time>2026-07-12T15:20:19Z</time>
      </trkpt>
      <trkpt lat="51.211937991902232" lon="3.219942972064018">
        <ele>-20.530000000000001</ele>
        <time>2026-07-12T15:20:20Z</time>
      </trkpt>
      <trkpt lat="51.211907984688878" lon="3.219984965398908">
        <ele>-20.530000000000001</ele>
        <time>2026-07-12T15:20:21Z</time>
      </trkpt>
      <trkpt lat="51.211880994960666" lon="3.220029976218939">
        <ele>-20.530000000000001</ele>
        <time>2026-07-12T15:20:22Z</time>
      </trkpt>
      <trkpt lat="51.211851993575692" lon="3.220075992867351">
        <ele>-20.530000000000001</ele>
        <time>2026-07-12T15:20:23Z</time>
      </trkpt>
      <trkpt lat="51.21182600967586" lon="3.22011798620224">
        <ele>-20.530000000000001</ele>
        <time>2026-07-12T15:20:24Z</time>
      </trkpt>
      <trkpt lat="51.211800025776029" lon="3.22016098536551">
        <ele>-20.530000000000001</ele>
        <time>2026-07-12T15:20:25Z</time>
      </trkpt>
      <trkpt lat="51.211588969454169" lon="3.220492992550135">
        <ele>-19.57</ele>
        <time>2026-07-12T15:20:35Z</time>
      </trkpt>
      <trkpt lat="51.211327034980059" lon="3.220943016931415">
        <ele>-15.720000000000001</ele>
        <time>2026-07-12T15:20:46Z</time>
      </trkpt>
      <trkpt lat="51.211102986708283" lon="3.221019040793181">
        <ele>-15.720000000000001</ele>
        <time>2026-07-12T15:20:55Z</time>
      </trkpt>
      <trkpt lat="51.210948005318642" lon="3.220862969756126">
        <ele>-17.649999999999999</ele>
        <time>2026-07-12T15:21:02Z</time>
      </trkpt>
      <trkpt lat="51.210926966741681" lon="3.220872022211552">
        <ele>-18.129999999999999</ele>
        <time>2026-07-12T15:21:03Z</time>
      </trkpt>
      <trkpt lat="51.210894025862217" lon="3.220890965312719">
        <ele>-18.609999999999999</ele>
        <time>2026-07-12T15:21:04Z</time>
      </trkpt>
      <trkpt lat="51.210862006992102" lon="3.220910998061299">
        <ele>-19.09</ele>
        <time>2026-07-12T15:21:05Z</time>
      </trkpt>
      <trkpt lat="51.210830993950367" lon="3.220930024981499">
        <ele>-19.09</ele>
        <time>2026-07-12T15:21:06Z</time>
      </trkpt>
      <trkpt lat="51.210801992565393" lon="3.220947040244937">
        <ele>-19.57</ele>
        <time>2026-07-12T15:21:07Z</time>
      </trkpt>
      <trkpt lat="51.210776008665562" lon="3.220961960032582">
        <ele>-19.57</ele>
        <time>2026-07-12T15:21:08Z</time>
      </trkpt>
      <trkpt lat="51.210746001452208" lon="3.220979981124401">
        <ele>-20.050000000000001</ele>
        <time>2026-07-12T15:21:09Z</time>
      </trkpt>
      <trkpt lat="51.210516002029181" lon="3.221118031069636">
        <ele>-21.010000000000002</ele>
        <time>2026-07-12T15:21:15Z</time>
      </trkpt>
      <trkpt lat="51.210516002029181" lon="3.221118031069636">
        <ele>-21.010000000000002</ele>
        <time>2026-07-12T15:21:16Z</time>
      </trkpt>
      <trkpt lat="51.210436038672924" lon="3.221148960292339">
        <ele>-21.489999999999998</ele>
        <time>2026-07-12T15:21:17Z</time>
      </trkpt>
      <trkpt lat="51.210087016224861" lon="3.221354987472296">
        <ele>-24.379999999999999</ele>
        <time>2026-07-12T15:21:27Z</time>
      </trkpt>
      <trkpt lat="51.209915019571781" lon="3.221568977460265">
        <ele>-24.379999999999999</ele>
        <time>2026-07-12T15:21:35Z</time>
      </trkpt>
      <trkpt lat="51.209910996258259" lon="3.221576018258929">
        <ele>-23.899999999999999</ele>
        <time>2026-07-12T15:21:36Z</time>
      </trkpt>
      <trkpt lat="51.209885012358427" lon="3.22162002325058">
        <ele>-23.41</ele>
        <time>2026-07-12T15:21:38Z</time>
      </trkpt>
      <trkpt lat="51.209885012358427" lon="3.22162002325058">
        <ele>-22.449999999999999</ele>
        <time>2026-07-12T15:21:51Z</time>
      </trkpt>
      <trkpt lat="51.209857016801834" lon="3.221666039898992">
        <ele>-22.449999999999999</ele>
        <time>2026-07-12T15:21:55Z</time>
      </trkpt>
      <trkpt lat="51.209559962153435" lon="3.222165014594793">
        <ele>-16.210000000000001</ele>
        <time>2026-07-12T15:22:08Z</time>
      </trkpt>
      <trkpt lat="51.209325017407537" lon="3.222624007612467">
        <ele>-9.48</ele>
        <time>2026-07-12T15:22:21Z</time>
      </trkpt>
      <trkpt lat="51.209252011030912" lon="3.222831040620804">
        <ele>-3.71</ele>
        <time>2026-07-12T15:22:33Z</time>
      </trkpt>
      <trkpt lat="51.209234995767474" lon="3.222870016470552">
        <ele>-3.71</ele>
        <time>2026-07-12T15:22:40Z</time>
      </trkpt>
      <trkpt lat="51.209224015474319" lon="3.222897006198764">
        <ele>-3.23</ele>
        <time>2026-07-12T15:22:41Z</time>
      </trkpt>
      <trkpt lat="51.209212029352784" lon="3.222926007583737">
        <ele>-2.75</ele>
        <time>2026-07-12T15:22:42Z</time>
      </trkpt>
      <trkpt lat="51.209263997152448" lon="3.222946040332317">
        <ele>-2.27</ele>
        <time>2026-07-12T15:22:43Z</time>
      </trkpt>
      <trkpt lat="51.20926802046597" lon="3.222979987040162">
        <ele>-1.79</ele>
        <time>2026-07-12T15:22:44Z</time>
      </trkpt>
      <trkpt lat="51.209271959960461" lon="3.223006976768374">
        <ele>-1.3</ele>
        <time>2026-07-12T15:22:45Z</time>
      </trkpt>
      <trkpt lat="51.209279000759125" lon="3.223013011738658">
        <ele>-0.82</ele>
        <time>2026-07-12T15:22:46Z</time>
      </trkpt>
      <trkpt lat="51.209304984658957" lon="3.223033966496587">
        <ele>-0.82</ele>
        <time>2026-07-12T15:22:47Z</time>
      </trkpt>
      <trkpt lat="51.209334991872311" lon="3.223057016730309">
        <ele>-0.34</ele>
        <time>2026-07-12T15:22:48Z</time>
      </trkpt>
      <trkpt lat="51.209378996863961" lon="3.223092975094914">
        <ele>-0.82</ele>
        <time>2026-07-12T15:22:49Z</time>
      </trkpt>
      <trkpt lat="51.209383020177484" lon="3.223092975094914">
        <ele>-0.34</ele>
        <time>2026-07-12T15:22:50Z</time>
      </trkpt>
      <trkpt lat="51.209412021562457" lon="3.223095992580056">
        <ele>-0.34</ele>
        <time>2026-07-12T15:22:51Z</time>
      </trkpt>
      <trkpt lat="51.20944001711905" lon="3.223099010065198">
        <ele>-0.34</ele>
        <time>2026-07-12T15:22:52Z</time>
      </trkpt>
      <trkpt lat="51.209471030160785" lon="3.22310202755034">
        <ele>-0.34</ele>
        <time>2026-07-12T15:22:53Z</time>
      </trkpt>
      <trkpt lat="51.209614025428891" lon="3.223158018663526">
        <ele>-1.3</ele>
        <time>2026-07-12T15:22:58Z</time>
      </trkpt>
      <trkpt lat="51.209633974358439" lon="3.223199006170034">
        <ele>-0.82</ele>
        <time>2026-07-12T15:22:59Z</time>
      </trkpt>
      <trkpt lat="51.209650989621878" lon="3.223235970363021">
        <ele>-0.82</ele>
        <time>2026-07-12T15:23:00Z</time>
      </trkpt>
      <trkpt lat="51.209666999056935" lon="3.223268995061517">
        <ele>-0.82</ele>
        <time>2026-07-12T15:23:01Z</time>
      </trkpt>
      <trkpt lat="51.209682002663612" lon="3.223300008103252">
        <ele>-0.34</ele>
        <time>2026-07-12T15:23:02Z</time>
      </trkpt>
      <trkpt lat="51.209717039018869" lon="3.223374020308256">
        <ele>0.62</ele>
        <time>2026-07-12T15:23:16Z</time>
      </trkpt>
      <trkpt lat="51.209757020696998" lon="3.223458006978035">
        <ele>0.62</ele>
        <time>2026-07-12T15:23:33Z</time>
      </trkpt>
      <trkpt lat="51.209835978224874" lon="3.223624974489212">
        <ele>0.14</ele>
        <time>2026-07-12T15:23:47Z</time>
      </trkpt>
      <trkpt lat="51.209835978224874" lon="3.223624974489212">
        <ele>-1.79</ele>
        <time>2026-07-12T15:23:51Z</time>
      </trkpt>
    </trkseg>
  </trk>

</gpx>